
Distance (Route):
Temperature : 13.9°C
Humidity : 61.5%
Pressure : 866.4hPa| Receiver | Frames | First received | Last received |
|---|---|---|---|
| DO3MHA-12 | 404 | 2026-09-02 03:54:25 | 2026-09-02 05:25:26 |
| DO3MHA-11 | 381 | 2026-09-02 03:54:20 | 2026-09-02 05:25:29 |
| BAUMI2-15 | 190 | 2026-09-02 04:36:16 | 2026-09-02 05:20:19 |
| OE5DXL-15 | 163 | 2026-09-02 03:58:32 | 2026-09-02 05:26:17 |
| OE5MMP-10 | 130 | 2026-09-02 04:27:40 | 2026-09-02 05:01:33 |
| DG1MFX-10 | 124 | 2026-09-02 04:03:18 | 2026-09-02 05:25:12 |
| OE5DRO-10 | 123 | 2026-09-02 04:08:58 | 2026-09-02 05:20:57 |
| DL6DJ-15 | 98 | 2026-09-02 04:05:23 | 2026-09-02 05:19:26 |
| NBG1-10 | 96 | 2026-09-02 03:58:29 | 2026-09-02 05:17:23 |
| DG1MJG | 87 | 2026-09-02 03:54:23 | 2026-09-02 05:07:42 |
| DB0UT-7 | 57 | 2026-09-02 04:09:43 | 2026-09-02 05:02:35 |
| OE5WHR-10 | 27 | 2026-09-02 04:32:26 | 2026-09-02 05:05:40 |
| PG1ADW-2 | 27 | 2026-09-02 04:35:22 | 2026-09-02 04:51:47 |
| DF3TZ-5 | 25 | 2026-09-02 04:33:26 | 2026-09-02 04:54:08 |
| DF1GD-15 | 22 | 2026-09-02 04:27:09 | 2026-09-02 04:46:28 |
| OE3JTB-15 | 20 | 2026-09-02 04:16:38 | 2026-09-02 05:17:36 |
| IN3HCDX | 20 | 2026-09-02 04:23:25 | 2026-09-02 04:50:47 |
| DF7PN | 19 | 2026-09-02 04:26:04 | 2026-09-02 04:54:01 |
| DK5PH-5 | 14 | 2026-09-02 04:38:19 | 2026-09-02 04:48:22 |
| DB0ND-19 | 13 | 2026-09-02 04:02:36 | 2026-09-02 04:28:58 |
| OE5HKT-10 | 11 | 2026-09-02 04:49:59 | 2026-09-02 04:55:31 |
| DM7RM-13 | 8 | 2026-09-02 04:19:36 | 2026-09-02 04:22:41 |
| DO8TBO-1 | 6 | 2026-09-02 04:50:06 | 2026-09-02 04:57:36 |
| DH7VM-15 | 4 | 2026-09-02 04:19:58 | 2026-09-02 04:58:47 |
| DN1GJH-1 | 2 | 2026-09-02 04:14:21 | 2026-09-02 04:16:06 |
| DL1ZP-14 | 2 | 2026-09-02 04:43:51 | 2026-09-02 04:45:56 |
| OM5KV | 1 | 2026-09-02 04:47:47 | 2026-09-02 04:47:47 |
| Receiver | Date | Latitude | Longitude | Direction | Speed | Altitude | Climb | Temperature | Humidity | Pressure | Voltage | Killtimer | Uptime | BKT | XDATA |
|---|---|---|---|---|---|---|---|---|---|---|---|---|---|---|---|
| OE5DXL-15 | 2026-09-02 05:26:17 | 47.67862 | 12.05334 | 135° | 4km/h | 1437m | -6.1m/s | 13.9°C | 61.5% | 866.4hPa | 2.7V | 01:47:00 | 00:00:00 | 00:00:00 | |
| OE5DXL-15 | 2026-09-02 05:26:07 | 47.67866 | 12.05323 | 84° | 4km/h | 1497m | -7.0m/s | 13.3°C | 63.4% | 860.3hPa | 2.7V | 00:00:00 | 00:00:00 | 00:00:00 | |
| OE5DXL-15 | 2026-09-02 05:26:01 | 47.67865 | 12.05314 | 109° | 5km/h | 1534m | -5.9m/s | 13.0°C | 64.5% | 856.5hPa | 2.7V | 01:48:00 | 00:00:00 | 00:00:00 | |
| OE5DXL-15 | 2026-09-02 05:25:55 | 47.67864 | 12.05303 | 78° | 5km/h | 1570m | -6.8m/s | 12.7°C | 65.7% | 853.1hPa | 2.7V | 00:00:00 | 00:00:00 | 00:00:00 | |
| OE5DXL-15 | 2026-09-02 05:25:49 | 47.67860 | 12.05292 | 84° | 5km/h | 1610m | -6.7m/s | 12.3°C | 67.0% | 848.8hPa | 2.7V | 01:48:00 | 00:00:00 | 00:00:00 | |
| OE5DXL-15 | 2026-09-02 05:25:43 | 47.67858 | 12.05283 | 87° | 5km/h | 1649m | -6.4m/s | 12.0°C | 68.1% | 844.8hPa | 2.7V | 00:00:00 | 00:00:00 | 00:00:00 | |
| OE5DXL-15 | 2026-09-02 05:25:37 | 47.67854 | 12.05269 | 51° | 7km/h | 1688m | -6.6m/s | 11.8°C | 69.1% | 840.9hPa | 2.7V | 01:48:00 | 00:00:00 | 00:00:00 | |
| OE5DXL-15 | 2026-09-02 05:25:31 | 47.67850 | 12.05255 | 71° | 9km/h | 1728m | -7.2m/s | 11.5°C | 70.1% | 837.1hPa | 2.7V | 00:00:00 | 00:00:00 | 00:00:00 | |
| DO3MHA-11 | 2026-09-02 05:25:29 | 47.67849 | 12.05249 | 80° | 9km/h | 1741m | -6.6m/s | 11.4°C | 70.7% | 835.6hPa | 2.7V | 00:00:00 | 01:44:40 | 00:00:00 | |
| DO3MHA-12 | 2026-09-02 05:25:26 | 47.67847 | 12.05240 | 86° | 11km/h | 1761m | -6.9m/s | 11.2°C | 71.4% | 833.8hPa | 2.7V | 01:48:00 | 01:44:37 | 00:00:00 | |
| OE5DXL-15 | 2026-09-02 05:25:25 | 47.67847 | 12.05236 | 77° | 11km/h | 1768m | -7.2m/s | 11.1°C | 71.5% | 833.0hPa | 2.7V | 01:48:00 | 00:00:00 | 00:00:00 | |
| DO3MHA-11 | 2026-09-02 05:25:24 | 47.67846 | 12.05232 | 76° | 11km/h | 1775m | -6.4m/s | 11.1°C | 71.9% | 832.4hPa | 2.7V | 01:48:00 | 01:44:35 | 00:00:00 | |
| DO3MHA-12 | 2026-09-02 05:25:21 | 47.67845 | 12.05221 | 68° | 9km/h | 1795m | -6.9m/s | 10.9°C | 72.4% | 830.4hPa | 2.7V | 00:00:00 | 01:44:32 | 00:00:00 | |
| OE5DXL-15 | 2026-09-02 05:25:19 | 47.67844 | 12.05213 | 85° | 9km/h | 1808m | -6.2m/s | 10.8°C | 73.1% | 829.0hPa | 2.7V | 00:00:00 | 00:00:00 | 00:00:00 | |
| DO3MHA-11 | 2026-09-02 05:25:19 | 47.67844 | 12.05213 | 85° | 9km/h | 1808m | -6.2m/s | 10.8°C | 73.1% | 829.0hPa | 2.7V | 00:00:00 | 01:44:30 | 00:00:00 | |
| DO3MHA-12 | 2026-09-02 05:25:16 | 47.67844 | 12.05203 | 83° | 9km/h | 1827m | -6.2m/s | 10.6°C | 73.9% | 827.0hPa | 2.7V | 01:48:00 | 01:44:27 | 00:00:00 | |
| DO3MHA-11 | 2026-09-02 05:25:14 | 47.67844 | 12.05197 | 85° | 9km/h | 1839m | -6.5m/s | 10.4°C | 74.4% | 826.0hPa | 2.7V | 01:48:00 | 01:44:25 | 00:00:00 | |
| OE5DXL-15 | 2026-09-02 05:25:13 | 47.67844 | 12.05193 | 95° | 11km/h | 1846m | -7.0m/s | 10.4°C | 74.5% | 825.5hPa | 2.7V | 01:48:00 | 00:00:00 | 00:00:00 | |
| DG1MFX-10 | 2026-09-02 05:25:12 | 47.67843 | 12.05193 | 96° | 9km/h | 1846m | -7.0m/s | 10.4°C | 73.9% | 825.5hPa | 2.7V | 01:49:00 | 00:00:00 | 00:00:00 | |
| DO3MHA-12 | 2026-09-02 05:25:11 | 47.67843 | 12.05186 | 94° | 13km/h | 1859m | -6.0m/s | 10.3°C | 75.1% | 824.1hPa | 2.7V | 00:00:00 | 01:44:22 | 00:00:00 | |
| DO3MHA-11 | 2026-09-02 05:25:09 | 47.67844 | 12.05178 | 88° | 13km/h | 1872m | -6.8m/s | 10.2°C | 75.5% | 822.8hPa | 2.7V | 00:00:00 | 01:44:20 | 00:00:00 | |
| OE5DXL-15 | 2026-09-02 05:25:07 | 47.67844 | 12.05170 | 105° | 13km/h | 1885m | -6.1m/s | 10.1°C | 76.0% | 821.4hPa | 2.7V | 00:00:00 | 00:00:00 | 00:00:00 | |
| DO3MHA-11 | 2026-09-02 05:25:04 | 47.67845 | 12.05156 | 84° | 13km/h | 1903m | -4.7m/s | 9.9°C | 76.6% | 819.6hPa | 2.7V | 01:49:00 | 01:44:15 | 00:00:00 | |
| DO3MHA-12 | 2026-09-02 05:25:04 | 47.67845 | 12.05156 | 84° | 13km/h | 1903m | -4.7m/s | 9.9°C | 76.6% | 819.6hPa | 2.7V | 01:49:00 | 01:44:15 | 00:00:00 | |
| OE5DXL-15 | 2026-09-02 05:25:01 | 47.67845 | 12.05142 | 102° | 13km/h | 1921m | -5.4m/s | 9.7°C | 76.9% | 817.9hPa | 2.7V | 01:49:00 | 00:00:00 | 00:00:00 | |
| DO3MHA-11 | 2026-09-02 05:24:59 | 47.67846 | 12.05131 | 104° | 13km/h | 1934m | -7.1m/s | 9.6°C | 77.1% | 816.5hPa | 2.7V | 00:00:00 | 01:44:10 | 00:00:00 | |
| DO3MHA-12 | 2026-09-02 05:24:59 | 47.67846 | 12.05131 | 104° | 13km/h | 1934m | -7.1m/s | 9.6°C | 77.1% | 816.5hPa | 2.7V | 00:00:00 | 01:44:10 | 00:00:00 | |
| OE5DXL-15 | 2026-09-02 05:24:55 | 47.67847 | 12.05111 | 86° | 15km/h | 1958m | -6.4m/s | 9.4°C | 77.6% | 814.4hPa | 2.7V | 00:00:00 | 00:00:00 | 00:00:00 | |
| DO3MHA-12 | 2026-09-02 05:24:54 | 47.67847 | 12.05107 | 105° | 15km/h | 1964m | -5.5m/s | 9.4°C | 78.0% | 813.6hPa | 2.7V | 01:49:00 | 01:44:05 | 00:00:00 | |
| DO3MHA-11 | 2026-09-02 05:24:54 | 47.67847 | 12.05107 | 105° | 15km/h | 1964m | -5.5m/s | 9.4°C | 78.0% | 813.6hPa | 2.7V | 01:49:00 | 01:44:05 | 00:00:00 | |
| DG1MFX-10 | 2026-09-02 05:24:51 | 47.67849 | 12.05096 | 99° | 13km/h | 1975m | -5.5m/s | 9.3°C | 77.5% | 812.6hPa | 2.7V | 01:49:00 | 00:00:00 | 00:00:00 | |
| DO3MHA-12 | 2026-09-02 05:24:49 | 47.67850 | 12.05080 | 93° | 15km/h | 1992m | -6.3m/s | 9.1°C | 78.8% | 810.8hPa | 2.7V | 00:00:00 | 01:44:00 | 00:00:00 | |
| OE5DXL-15 | 2026-09-02 05:24:49 | 47.67850 | 12.05080 | 93° | 15km/h | 1992m | -6.3m/s | 9.1°C | 78.8% | 810.8hPa | 2.7V | 01:49:00 | 00:00:00 | 00:00:00 | |
| DO3MHA-11 | 2026-09-02 05:24:49 | 47.67850 | 12.05080 | 93° | 15km/h | 1992m | -6.3m/s | 9.1°C | 78.8% | 810.8hPa | 2.7V | 00:00:00 | 01:44:00 | 00:00:00 | |
| DO3MHA-12 | 2026-09-02 05:24:44 | 47.67851 | 12.05053 | 92° | 15km/h | 2024m | -5.2m/s | 8.8°C | 80.0% | 808.0hPa | 2.7V | 01:49:00 | 01:43:55 | 00:00:00 | |
| OE5DXL-15 | 2026-09-02 05:24:43 | 47.67851 | 12.05048 | 91° | 13km/h | 2029m | -5.3m/s | 8.8°C | 80.2% | 807.4hPa | 2.7V | 00:00:00 | 01:43:54 | 00:00:00 | |
| DO3MHA-12 | 2026-09-02 05:24:39 | 47.67851 | 12.05027 | 93° | 13km/h | 2053m | -6.9m/s | 8.5°C | 81.0% | 805.1hPa | 2.7V | 00:00:00 | 01:43:50 | 00:00:00 | |
| OE5DXL-15 | 2026-09-02 05:24:37 | 47.67852 | 12.05018 | 95° | 15km/h | 2067m | -6.2m/s | 8.4°C | 81.7% | 803.8hPa | 2.7V | 01:49:00 | 00:00:00 | 00:00:00 | |
| DO3MHA-12 | 2026-09-02 05:24:34 | 47.67853 | 12.05001 | 97° | 15km/h | 2086m | -6.5m/s | 8.2°C | 82.5% | 802.0hPa | 2.7V | 01:49:00 | 01:43:45 | 00:00:00 | |
| OE5DXL-15 | 2026-09-02 05:24:31 | 47.67854 | 12.04984 | 88° | 15km/h | 2104m | -5.9m/s | 8.0°C | 83.3% | 800.0hPa | 2.7V | 00:00:00 | 00:00:00 | 00:00:00 | |
| DO3MHA-12 | 2026-09-02 05:24:29 | 47.67855 | 12.04973 | 103° | 16km/h | 2118m | -6.9m/s | 7.9°C | 83.9% | 798.8hPa | 2.7V | 00:00:00 | 01:43:40 | 00:00:00 | |
| DO3MHA-12 | 2026-09-02 05:24:24 | 47.67856 | 12.04944 | 108° | 16km/h | 2146m | -5.1m/s | 7.7°C | 84.7% | 796.0hPa | 2.7V | 01:49:00 | 01:43:35 | 00:00:00 | |
| OE5DXL-15 | 2026-09-02 05:24:21 | 47.67858 | 12.04926 | 104° | 18km/h | 2163m | -5.9m/s | 7.5°C | 85.4% | 794.4hPa | 2.7V | 01:49:00 | 00:00:00 | 00:00:00 | |
| DO3MHA-12 | 2026-09-02 05:24:19 | 47.67859 | 12.04914 | 113° | 16km/h | 2175m | -4.4m/s | 7.4°C | 85.3% | 793.2hPa | 2.7V | 00:00:00 | 01:43:30 | 00:00:00 | |
| DO3MHA-11 | 2026-09-02 05:24:14 | 47.67862 | 12.04883 | 101° | 20km/h | 2204m | -5.5m/s | 7.1°C | 86.7% | 790.6hPa | 2.7V | 01:49:00 | 01:43:25 | 00:00:00 | |
| DG1MFX-10 | 2026-09-02 05:24:10 | 47.67864 | 12.04862 | 107° | 18km/h | 2222m | -7.0m/s | 7.1°C | 84.5% | 788.8hPa | 2.7V | 01:50:00 | 00:00:00 | 00:00:00 | |
| DO3MHA-11 | 2026-09-02 05:24:09 | 47.67866 | 12.04847 | 90° | 20km/h | 2235m | -6.2m/s | 7.0°C | 84.6% | 787.5hPa | 2.7V | 00:00:00 | 01:43:20 | 00:00:00 | |
| DO3MHA-11 | 2026-09-02 05:24:04 | 47.67868 | 12.04809 | 99° | 22km/h | 2266m | -5.4m/s | 6.7°C | 84.5% | 784.5hPa | 2.7V | 01:50:00 | 01:43:15 | 00:00:00 | |
| OE5DXL-15 | 2026-09-02 05:24:01 | 47.67869 | 12.04785 | 90° | 26km/h | 2282m | -5.4m/s | 6.6°C | 84.1% | 782.9hPa | 2.7V | 00:00:00 | 00:00:00 | 00:00:00 | |
| DO3MHA-12 | 2026-09-02 05:23:59 | 47.67869 | 12.04768 | 95° | 24km/h | 2294m | -6.7m/s | 6.7°C | 76.6% | 781.9hPa | 2.7V | 00:00:00 | 01:43:10 | 00:00:00 | |
| DO3MHA-12 | 2026-09-02 05:23:54 | 47.67870 | 12.04723 | 94° | 26km/h | 2325m | -5.1m/s | 6.5°C | 69.8% | 778.8hPa | 2.7V | 01:50:00 | 01:43:05 | 00:00:00 | |
| DO3MHA-12 | 2026-09-02 05:23:49 | 47.67870 | 12.04675 | 88° | 29km/h | 2354m | -5.8m/s | 6.6°C | 62.8% | 776.0hPa | 2.7V | 00:00:00 | 01:43:00 | 00:00:00 | |
| DO3MHA-12 | 2026-09-02 05:23:44 | 47.67872 | 12.04621 | 94° | 33km/h | 2383m | -5.7m/s | 6.5°C | 62.4% | 773.4hPa | 2.7V | 01:50:00 | 01:42:55 | 00:00:00 | |
| OE5DXL-15 | 2026-09-02 05:23:41 | 47.67873 | 12.04585 | 95° | 38km/h | 2400m | -6.1m/s | 6.6°C | 66.2% | 771.8hPa | 2.6V | 01:50:00 | 00:00:00 | 00:00:00 | |
| DO3MHA-12 | 2026-09-02 05:23:39 | 47.67874 | 12.04559 | 95° | 37km/h | 2411m | -5.2m/s | 6.5°C | 72.8% | 770.7hPa | 2.6V | 00:00:00 | 01:42:50 | 00:00:00 | |
| DO3MHA-11 | 2026-09-02 05:23:34 | 47.67875 | 12.04490 | 91° | 40km/h | 2438m | -5.4m/s | 6.3°C | 81.5% | 768.2hPa | 2.6V | 01:50:00 | 01:42:45 | 00:00:00 | |
| DO3MHA-11 | 2026-09-02 05:23:29 | 47.67876 | 12.04415 | 87° | 42km/h | 2466m | -5.5m/s | 6.4°C | 67.5% | 765.7hPa | 2.6V | 00:00:00 | 01:42:40 | 00:00:00 | |
| DO3MHA-11 | 2026-09-02 05:23:24 | 47.67873 | 12.04343 | 87° | 37km/h | 2493m | -5.5m/s | 6.5°C | 53.2% | 763.2hPa | 2.6V | 01:50:00 | 01:42:35 | 00:00:00 | |
| DO3MHA-12 | 2026-09-02 05:23:22 | 47.67873 | 12.04316 | 85° | 40km/h | 2505m | -5.3m/s | 6.5°C | 50.4% | 762.2hPa | 2.7V | 01:50:00 | 01:42:33 | 00:00:00 | |
| OE5DXL-15 | 2026-09-02 05:23:21 | 47.67872 | 12.04303 | 82° | 37km/h | 2510m | -5.5m/s | 6.4°C | 49.6% | 761.6hPa | 2.7V | 00:00:00 | 00:00:00 | 00:00:00 | |
| DO3MHA-11 | 2026-09-02 05:23:19 | 47.67871 | 12.04276 | 85° | 37km/h | 2521m | -4.7m/s | 6.4°C | 47.3% | 760.5hPa | 2.7V | 00:00:00 | 01:42:30 | 00:00:00 | |
| DO3MHA-12 | 2026-09-02 05:23:16 | 47.67868 | 12.04234 | 83° | 35km/h | 2538m | -6.1m/s | 6.3°C | 45.4% | 759.0hPa | 2.7V | 00:00:00 | 01:42:27 | 00:00:00 | |
| DO3MHA-11 | 2026-09-02 05:23:14 | 47.67866 | 12.04208 | 81° | 35km/h | 2550m | -5.4m/s | 6.2°C | 44.0% | 758.0hPa | 2.6V | 01:50:00 | 01:42:25 | 00:00:00 | |
| DO3MHA-12 | 2026-09-02 05:23:10 | 47.67861 | 12.04155 | 87° | 37km/h | 2572m | -5.9m/s | 6.3°C | 34.4% | 755.8hPa | 2.6V | 01:50:00 | 01:42:21 | 00:00:00 | |
| DO3MHA-11 | 2026-09-02 05:23:09 | 47.67860 | 12.04142 | 79° | 37km/h | 2578m | -5.2m/s | 6.2°C | 34.3% | 755.2hPa | 2.6V | 00:00:00 | 01:42:20 | 00:00:00 | |
| DG1MFX-10 | 2026-09-02 05:23:08 | 47.67860 | 12.04142 | 79° | 38km/h | 2578m | -5.3m/s | 6.3°C | 33.9% | 755.3hPa | 2.7V | 00:00:00 | 00:00:00 | 00:00:00 | |
| DO3MHA-11 | 2026-09-02 05:23:04 | 47.67853 | 12.04074 | 83° | 40km/h | 2608m | -5.8m/s | 6.1°C | 38.2% | 752.7hPa | 2.7V | 01:51:00 | 01:42:15 | 00:00:00 | |
| OE5DXL-15 | 2026-09-02 05:23:01 | 47.67849 | 12.04030 | 85° | 42km/h | 2624m | -5.7m/s | 5.9°C | 41.8% | 751.0hPa | 2.7V | 01:51:00 | 00:00:00 | 00:00:00 | |
| DO3MHA-12 | 2026-09-02 05:23:00 | 47.67848 | 12.04015 | 80° | 42km/h | 2630m | -5.7m/s | 5.9°C | 43.0% | 750.4hPa | 2.7V | 01:51:00 | 01:42:11 | 00:00:00 | |
| DO3MHA-11 | 2026-09-02 05:22:59 | 47.67847 | 12.04000 | 87° | 42km/h | 2636m | -5.5m/s | 5.8°C | 42.7% | 749.9hPa | 2.7V | 00:00:00 | 01:42:10 | 00:00:00 | |
| DO3MHA-12 | 2026-09-02 05:22:55 | 47.67842 | 12.03937 | 80° | 44km/h | 2659m | -6.2m/s | 5.7°C | 41.4% | 747.9hPa | 2.7V | 00:00:00 | 01:42:06 | 00:00:00 | |
| DO3MHA-12 | 2026-09-02 05:22:50 | 47.67834 | 12.03857 | 86° | 42km/h | 2688m | -6.1m/s | 5.6°C | 43.8% | 745.2hPa | 2.7V | 01:51:00 | 01:42:01 | 00:00:00 | |
| DO3MHA-11 | 2026-09-02 05:22:49 | 47.67833 | 12.03842 | 80° | 42km/h | 2694m | -6.0m/s | 5.5°C | 46.3% | 744.7hPa | 2.7V | 00:00:00 | 01:42:00 | 00:00:00 | |
| DG1MFX-10 | 2026-09-02 05:22:47 | 47.67831 | 12.03826 | 81° | 42km/h | 2701m | -6.1m/s | 5.5°C | 45.1% | 744.1hPa | 2.7V | 01:52:00 | 00:00:00 | 00:00:00 | |
| DO3MHA-12 | 2026-09-02 05:22:45 | 47.67825 | 12.03779 | 81° | 44km/h | 2718m | -5.9m/s | 5.3°C | 46.6% | 742.5hPa | 2.7V | 00:00:00 | 01:41:56 | 00:00:00 | |
| DO3MHA-11 | 2026-09-02 05:22:44 | 47.67823 | 12.03762 | 84° | 46km/h | 2724m | -5.6m/s | 5.3°C | 45.9% | 742.0hPa | 2.7V | 01:51:00 | 01:41:55 | 00:00:00 | |
| OE5DXL-15 | 2026-09-02 05:22:41 | 47.67818 | 12.03712 | 81° | 44km/h | 2741m | -5.5m/s | 5.2°C | 44.4% | 740.4hPa | 2.7V | 00:00:00 | 00:00:00 | 00:00:00 | |
| DO3MHA-12 | 2026-09-02 05:22:40 | 47.67816 | 12.03696 | 79° | 46km/h | 2747m | -5.6m/s | 5.2°C | 44.4% | 739.9hPa | 2.7V | 01:51:00 | 01:41:51 | 00:00:00 | |
| DO3MHA-11 | 2026-09-02 05:22:39 | 47.67814 | 12.03679 | 83° | 44km/h | 2752m | -4.9m/s | 5.2°C | 43.7% | 739.4hPa | 2.7V | 00:00:00 | 01:41:50 | 00:00:00 | |
| DO3MHA-12 | 2026-09-02 05:22:35 | 47.67807 | 12.03614 | 85° | 46km/h | 2774m | -5.6m/s | 5.0°C | 39.7% | 737.3hPa | 2.7V | 00:00:00 | 01:41:46 | 00:00:00 | |
| DO3MHA-11 | 2026-09-02 05:22:34 | 47.67805 | 12.03597 | 77° | 46km/h | 2779m | -5.3m/s | 5.0°C | 39.3% | 736.8hPa | 2.7V | 01:51:00 | 01:41:45 | 00:00:00 | |
| DO3MHA-12 | 2026-09-02 05:22:30 | 47.67797 | 12.03530 | 83° | 46km/h | 2801m | -5.1m/s | 4.9°C | 39.5% | 734.8hPa | 2.7V | 01:51:00 | 01:41:41 | 00:00:00 | |
| DO3MHA-11 | 2026-09-02 05:22:29 | 47.67795 | 12.03514 | 78° | 46km/h | 2807m | -6.0m/s | 4.8°C | 37.5% | 734.2hPa | 2.7V | 00:00:00 | 01:41:40 | 00:00:00 | |
| DO3MHA-12 | 2026-09-02 05:22:25 | 47.67789 | 12.03446 | 85° | 44km/h | 2830m | -5.5m/s | 4.7°C | 35.9% | 732.1hPa | 2.7V | 00:00:00 | 01:41:36 | 00:00:00 | |
| DO3MHA-11 | 2026-09-02 05:22:24 | 47.67788 | 12.03430 | 84° | 44km/h | 2836m | -5.9m/s | 4.6°C | 35.7% | 731.6hPa | 2.7V | 01:51:00 | 01:41:35 | 00:00:00 | |
| OE5DXL-15 | 2026-09-02 05:22:21 | 47.67784 | 12.03381 | 84° | 42km/h | 2853m | -6.6m/s | 4.6°C | 29.9% | 730.0hPa | 2.7V | 01:51:00 | 00:00:00 | 00:00:00 | |
| DO3MHA-12 | 2026-09-02 05:22:20 | 47.67783 | 12.03365 | 85° | 42km/h | 2860m | -7.0m/s | 4.6°C | 27.1% | 729.5hPa | 2.7V | 01:51:00 | 01:41:31 | 00:00:00 | |
| DO3MHA-11 | 2026-09-02 05:22:19 | 47.67782 | 12.03349 | 85° | 42km/h | 2867m | -5.6m/s | 4.5°C | 26.5% | 729.0hPa | 2.7V | 00:00:00 | 01:41:30 | 00:00:00 | |
| DO3MHA-12 | 2026-09-02 05:22:15 | 47.67778 | 12.03288 | 82° | 42km/h | 2890m | -6.7m/s | 4.3°C | 25.9% | 726.9hPa | 2.7V | 00:00:00 | 01:41:26 | 00:00:00 | |
| DO3MHA-11 | 2026-09-02 05:22:14 | 47.67777 | 12.03272 | 86° | 40km/h | 2897m | -7.4m/s | 4.3°C | 25.8% | 726.1hPa | 2.7V | 01:51:00 | 01:41:25 | 00:00:00 | |
| DO3MHA-12 | 2026-09-02 05:22:10 | 47.67774 | 12.03211 | 88° | 40km/h | 2921m | -5.3m/s | 4.2°C | 26.0% | 724.0hPa | 2.7V | 01:51:00 | 01:41:21 | 00:00:00 | |
| DO3MHA-11 | 2026-09-02 05:22:09 | 47.67773 | 12.03195 | 87° | 42km/h | 2926m | -5.6m/s | 4.2°C | 26.2% | 723.6hPa | 2.7V | 00:00:00 | 01:41:20 | 00:00:00 | |
| DO3MHA-12 | 2026-09-02 05:22:05 | 47.67771 | 12.03133 | 85° | 40km/h | 2949m | -6.0m/s | 4.0°C | 26.5% | 721.4hPa | 2.7V | 00:00:00 | 01:41:16 | 00:00:00 | |
| DO3MHA-11 | 2026-09-02 05:22:04 | 47.67771 | 12.03118 | 88° | 40km/h | 2955m | -5.9m/s | 4.0°C | 28.6% | 721.0hPa | 2.7V | 01:52:00 | 01:41:15 | 00:00:00 | |
| OE5DXL-15 | 2026-09-02 05:22:01 | 47.67768 | 12.03073 | 89° | 38km/h | 2972m | -5.2m/s | 3.9°C | 29.6% | 719.4hPa | 2.7V | 00:00:00 | 00:00:00 | 00:00:00 | |
| DO3MHA-12 | 2026-09-02 05:22:00 | 47.67768 | 12.03058 | 89° | 40km/h | 2977m | -5.1m/s | 3.8°C | 30.1% | 718.9hPa | 2.7V | 01:52:00 | 01:41:11 | 00:00:00 | |
| DO3MHA-11 | 2026-09-02 05:21:59 | 47.67768 | 12.03043 | 87° | 40km/h | 2983m | -7.1m/s | 3.8°C | 30.6% | 718.6hPa | 2.7V | 00:00:00 | 01:41:10 | 00:00:00 | |
| DO3MHA-12 | 2026-09-02 05:21:55 | 47.67768 | 12.02984 | 89° | 38km/h | 3005m | -5.6m/s | 3.6°C | 30.3% | 716.4hPa | 2.7V | 00:00:00 | 01:41:06 | 00:00:00 | |
| DO3MHA-11 | 2026-09-02 05:21:54 | 47.67767 | 12.02969 | 88° | 38km/h | 3011m | -5.8m/s | 3.6°C | 30.1% | 715.9hPa | 2.7V | 01:52:00 | 01:41:05 | 00:00:00 | |
| DO3MHA-12 | 2026-09-02 05:21:50 | 47.67769 | 12.02912 | 94° | 37km/h | 3032m | -4.6m/s | 3.4°C | 31.7% | 714.0hPa | 2.6V | 01:52:00 | 01:41:01 | 00:00:00 | |
| DO3MHA-11 | 2026-09-02 05:21:49 | 47.67770 | 12.02897 | 95° | 38km/h | 3037m | -5.8m/s | 3.4°C | 31.9% | 713.5hPa | 2.6V | 00:00:00 | 01:41:00 | 00:00:00 | |
| DO3MHA-12 | 2026-09-02 05:21:45 | 47.67771 | 12.02841 | 89° | 37km/h | 3060m | -5.9m/s | 3.4°C | 29.8% | 711.4hPa | 2.6V | 00:00:00 | 01:40:56 | 00:00:00 | |
| DO3MHA-11 | 2026-09-02 05:21:44 | 47.67770 | 12.02827 | 90° | 38km/h | 3066m | -6.2m/s | 3.4°C | 28.7% | 710.8hPa | 2.6V | 01:52:00 | 01:40:55 | 00:00:00 | |
| OE5DXL-15 | 2026-09-02 05:21:41 | 47.67771 | 12.02785 | 93° | 40km/h | 3083m | -6.0m/s | 3.6°C | 22.2% | 709.5hPa | 2.6V | 01:52:00 | 00:00:00 | 00:00:00 | |
| DO3MHA-11 | 2026-09-02 05:21:39 | 47.67773 | 12.02756 | 96° | 42km/h | 3095m | -6.1m/s | 3.6°C | 17.3% | 708.4hPa | 2.6V | 00:00:00 | 01:40:50 | 00:00:00 | |
| DO3MHA-12 | 2026-09-02 05:21:35 | 47.67776 | 12.02695 | 94° | 42km/h | 3119m | -5.9m/s | 3.4°C | 16.1% | 706.2hPa | 2.7V | 00:00:00 | 01:40:46 | 00:00:00 | |
| DO3MHA-11 | 2026-09-02 05:21:34 | 47.67776 | 12.02679 | 92° | 42km/h | 3125m | -5.6m/s | 3.4°C | 15.8% | 705.8hPa | 2.7V | 01:52:00 | 01:40:45 | 00:00:00 | |
| DO3MHA-12 | 2026-09-02 05:21:30 | 47.67782 | 12.02618 | 98° | 40km/h | 3149m | -6.6m/s | 3.3°C | 13.6% | 703.6hPa | 2.7V | 01:52:00 | 01:40:41 | 00:00:00 | |
| DO3MHA-11 | 2026-09-02 05:21:29 | 47.67783 | 12.02603 | 100° | 40km/h | 3155m | -6.3m/s | 3.3°C | 13.4% | 703.2hPa | 2.7V | 00:00:00 | 01:40:40 | 00:00:00 | |
| DO3MHA-12 | 2026-09-02 05:21:25 | 47.67790 | 12.02543 | 92° | 38km/h | 3180m | -7.1m/s | 3.1°C | 12.8% | 701.1hPa | 2.7V | 00:00:00 | 01:40:36 | 00:00:00 | |
| DG1MFX-10 | 2026-09-02 05:21:24 | 47.67790 | 12.02529 | 94° | 37km/h | 3187m | -6.8m/s | 3.2°C | 12.7% | 700.7hPa | 2.7V | 01:53:00 | 00:00:00 | 00:00:00 | |
| DO3MHA-12 | 2026-09-02 05:21:20 | 47.67797 | 12.02471 | 109° | 38km/h | 3214m | -5.1m/s | 2.9°C | 13.6% | 698.5hPa | 2.7V | 01:52:00 | 01:40:31 | 00:00:00 | |
| DO3MHA-11 | 2026-09-02 05:21:19 | 47.67799 | 12.02457 | 96° | 38km/h | 3220m | -7.1m/s | 2.9°C | 13.7% | 698.0hPa | 2.7V | 00:00:00 | 01:40:30 | 00:00:00 | |
| DO3MHA-12 | 2026-09-02 05:21:15 | 47.67807 | 12.02401 | 106° | 38km/h | 3248m | -7.0m/s | 2.6°C | 13.6% | 695.6hPa | 2.7V | 00:00:00 | 01:40:26 | 00:00:00 | |
| DO3MHA-11 | 2026-09-02 05:21:14 | 47.67808 | 12.02387 | 92° | 37km/h | 3255m | -5.5m/s | 2.6°C | 13.4% | 695.3hPa | 2.6V | 01:52:00 | 01:40:25 | 00:00:00 | |
| OE5DXL-15 | 2026-09-02 05:21:11 | 47.67813 | 12.02345 | 108° | 40km/h | 3274m | -6.1m/s | 2.5°C | 13.2% | 693.8hPa | 2.6V | 00:00:00 | 00:00:00 | 00:00:00 | |
| DO3MHA-12 | 2026-09-02 05:21:10 | 47.67816 | 12.02331 | 99° | 38km/h | 3280m | -5.5m/s | 2.4°C | 13.1% | 693.3hPa | 2.7V | 01:52:00 | 01:40:21 | 00:00:00 | |
| DO3MHA-11 | 2026-09-02 05:21:09 | 47.67818 | 12.02317 | 103° | 42km/h | 3286m | -5.8m/s | 2.4°C | 12.9% | 692.7hPa | 2.7V | 00:00:00 | 01:40:20 | 00:00:00 | |
| DO3MHA-12 | 2026-09-02 05:21:05 | 47.67826 | 12.02258 | 103° | 42km/h | 3310m | -5.2m/s | 2.2°C | 14.5% | 690.8hPa | 2.7V | 00:00:00 | 01:40:16 | 00:00:00 | |
| DO3MHA-11 | 2026-09-02 05:21:04 | 47.67828 | 12.02243 | 91° | 40km/h | 3316m | -7.9m/s | 2.2°C | 14.2% | 690.4hPa | 2.7V | 01:53:00 | 01:40:15 | 00:00:00 | |
| DG1MFX-10 | 2026-09-02 05:21:02 | 47.67829 | 12.02228 | 100° | 44km/h | 3322m | -3.8m/s | 2.2°C | 14.7% | 689.8hPa | 2.7V | 01:53:00 | 00:00:00 | 00:00:00 | |
| DO3MHA-12 | 2026-09-02 05:21:00 | 47.67834 | 12.02182 | 117° | 40km/h | 3338m | -3.6m/s | 2.0°C | 14.3% | 688.2hPa | 2.7V | 01:53:00 | 01:40:11 | 00:00:00 | |
| DO3MHA-11 | 2026-09-02 05:20:59 | 47.67836 | 12.02168 | 92° | 38km/h | 3342m | -5.3m/s | 2.0°C | 14.2% | 687.8hPa | 2.7V | 00:00:00 | 01:40:10 | 00:00:00 | |
| OE5DRO-10 | 2026-09-02 05:20:57 | 47.67839 | 12.02139 | 102° | 38km/h | 3353m | -3.1m/s | 1.9°C | 13.2% | 687.1hPa | 2.7V | 01:53:00 | 00:00:00 | 00:00:00 | |
| DO3MHA-12 | 2026-09-02 05:20:55 | 47.67844 | 12.02110 | 97° | 37km/h | 3361m | -3.5m/s | 1.9°C | 13.1% | 686.1hPa | 2.7V | 00:00:00 | 01:40:06 | 00:00:00 | |
| DO3MHA-11 | 2026-09-02 05:20:54 | 47.67845 | 12.02096 | 94° | 40km/h | 3365m | -3.9m/s | 1.9°C | 13.0% | 686.0hPa | 2.7V | 01:53:00 | 01:40:05 | 00:00:00 | |
| DO3MHA-12 | 2026-09-02 05:20:50 | 47.67851 | 12.02036 | 105° | 40km/h | 3380m | -3.1m/s | 1.8°C | 12.3% | 684.5hPa | 2.7V | 01:53:00 | 01:40:01 | 00:00:00 | |
| DO3MHA-11 | 2026-09-02 05:20:49 | 47.67853 | 12.02021 | 104° | 38km/h | 3384m | -3.3m/s | 1.8°C | 12.2% | 684.0hPa | 2.7V | 00:00:00 | 01:40:00 | 00:00:00 | |
| DO3MHA-12 | 2026-09-02 05:20:45 | 47.67857 | 12.01964 | 97° | 38km/h | 3399m | -3.6m/s | 1.6°C | 13.4% | 682.7hPa | 2.7V | 00:00:00 | 01:39:56 | 00:00:00 | |
| DO3MHA-11 | 2026-09-02 05:20:44 | 47.67860 | 12.01950 | 122° | 37km/h | 3403m | -2.9m/s | 1.6°C | 13.4% | 682.4hPa | 2.7V | 01:53:00 | 01:39:55 | 00:00:00 | |
| OE5DXL-15 | 2026-09-02 05:20:41 | 47.67867 | 12.01909 | 108° | 40km/h | 3413m | -4.7m/s | 1.5°C | 13.6% | 681.4hPa | 2.7V | 01:53:00 | 00:00:00 | 00:00:00 | |
| DO3MHA-12 | 2026-09-02 05:20:40 | 47.67868 | 12.01895 | 97° | 37km/h | 3417m | -2.5m/s | 1.4°C | 13.4% | 681.0hPa | 2.7V | 01:53:00 | 01:39:51 | 00:00:00 | |
| DO3MHA-11 | 2026-09-02 05:20:39 | 47.67870 | 12.01882 | 103° | 37km/h | 3420m | -6.5m/s | 1.4°C | 13.1% | 680.6hPa | 2.7V | 00:00:00 | 01:39:50 | 00:00:00 | |
| DO3MHA-12 | 2026-09-02 05:20:35 | 47.67877 | 12.01829 | 109° | 42km/h | 3444m | -6.1m/s | 1.2°C | 14.0% | 678.3hPa | 2.7V | 00:00:00 | 01:39:46 | 00:00:00 | |
| DO3MHA-11 | 2026-09-02 05:20:34 | 47.67880 | 12.01814 | 101° | 42km/h | 3448m | -3.4m/s | 1.1°C | 14.5% | 677.8hPa | 2.7V | 01:53:00 | 01:39:45 | 00:00:00 | |
| DO3MHA-12 | 2026-09-02 05:20:30 | 47.67886 | 12.01752 | 106° | 38km/h | 3464m | -4.8m/s | 1.0°C | 17.5% | 676.5hPa | 2.7V | 01:53:00 | 01:39:41 | 00:00:00 | |
| DO3MHA-11 | 2026-09-02 05:20:29 | 47.67888 | 12.01738 | 95° | 38km/h | 3468m | -3.4m/s | 1.0°C | 17.8% | 676.1hPa | 2.7V | 00:00:00 | 01:39:40 | 00:00:00 | |
| DO3MHA-12 | 2026-09-02 05:20:25 | 47.67897 | 12.01681 | 94° | 42km/h | 3482m | -5.6m/s | 0.9°C | 16.0% | 674.6hPa | 2.7V | 00:00:00 | 01:39:36 | 00:00:00 | |
| DO3MHA-11 | 2026-09-02 05:20:24 | 47.67899 | 12.01666 | 115° | 40km/h | 3486m | -3.3m/s | 0.8°C | 17.5% | 674.3hPa | 2.7V | 01:53:00 | 01:39:35 | 00:00:00 | |
| OE5DRO-10 | 2026-09-02 05:20:23 | 47.67901 | 12.01652 | 95° | 40km/h | 3489m | -3.8m/s | 0.8°C | 17.5% | 673.9hPa | 2.7V | 01:53:00 | 00:00:00 | 00:00:00 | |
| DG1MFX-10 | 2026-09-02 05:20:21 | 47.67902 | 12.01637 | 98° | 47km/h | 3493m | -6.2m/s | 0.8°C | 17.4% | 673.7hPa | 2.7V | 01:53:00 | 00:00:00 | 00:00:00 | |
| DO3MHA-12 | 2026-09-02 05:20:20 | 47.67908 | 12.01607 | 82° | 40km/h | 3501m | -4.3m/s | 0.7°C | 22.1% | 672.8hPa | 2.7V | 01:53:00 | 01:39:31 | 00:00:00 | |
| BAUMI2-15 | 2026-09-02 05:20:19 | 47.67909 | 12.01591 | 107° | 37km/h | 3506m | -5.4m/s | 0.7°C | 22.7% | 672.6hPa | 2.7V | 00:00:00 | 01:39:30 | 00:00:00 | |
| DO3MHA-12 | 2026-09-02 05:20:15 | 47.67919 | 12.01534 | 96° | 40km/h | 3524m | -2.6m/s | 0.5°C | 20.9% | 670.8hPa | 2.7V | 00:00:00 | 01:39:26 | 00:00:00 | |
| DO3MHA-11 | 2026-09-02 05:20:14 | 47.67920 | 12.01519 | 96° | 44km/h | 3528m | -7.3m/s | 0.5°C | 21.9% | 670.5hPa | 2.7V | 01:53:00 | 01:39:25 | 00:00:00 | |
| BAUMI2-15 | 2026-09-02 05:20:13 | 47.67923 | 12.01503 | 115° | 44km/h | 3533m | -3.5m/s | 0.5°C | 21.1% | 670.1hPa | 2.7V | 01:53:00 | 01:39:24 | 00:00:00 | |
| OE5DXL-15 | 2026-09-02 05:20:11 | 47.67927 | 12.01474 | 85° | 42km/h | 3542m | -7.9m/s | 0.4°C | 18.1% | 669.2hPa | 2.7V | 00:00:00 | 00:00:00 | 00:00:00 | |
| DO3MHA-12 | 2026-09-02 05:20:10 | 47.67928 | 12.01458 | 111° | 40km/h | 3548m | -5.4m/s | 0.4°C | 17.7% | 668.8hPa | 2.7V | 01:53:00 | 01:39:21 | 00:00:00 | |
| DO3MHA-11 | 2026-09-02 05:20:09 | 47.67931 | 12.01443 | 107° | 40km/h | 3552m | -4.7m/s | 0.4°C | 15.1% | 668.5hPa | 2.7V | 00:00:00 | 01:39:20 | 00:00:00 | |
| OE5DRO-10 | 2026-09-02 05:20:06 | 47.67936 | 12.01401 | 85° | 42km/h | 3567m | -4.7m/s | 0.4°C | 14.1% | 667.4hPa | 2.7V | 00:00:00 | 00:00:00 | 00:00:00 | |
| DO3MHA-12 | 2026-09-02 05:20:05 | 47.67937 | 12.01386 | 107° | 40km/h | 3572m | -6.8m/s | 0.4°C | 14.4% | 666.9hPa | 2.7V | 00:00:00 | 01:39:16 | 00:00:00 | |
| DO3MHA-11 | 2026-09-02 05:20:04 | 47.67939 | 12.01371 | 95° | 40km/h | 3577m | -4.2m/s | 0.3°C | 14.4% | 666.6hPa | 2.7V | 01:54:00 | 01:39:15 | 00:00:00 | |
| DO3MHA-12 | 2026-09-02 05:20:00 | 47.67947 | 12.01313 | 99° | 40km/h | 3598m | -4.7m/s | 0.2°C | 17.1% | 665.0hPa | 2.7V | 01:54:00 | 01:39:11 | 00:00:00 | |
| DO3MHA-11 | 2026-09-02 05:19:59 | 47.67950 | 12.01298 | 118° | 40km/h | 3603m | -4.1m/s | 0.2°C | 16.9% | 664.5hPa | 2.7V | 00:00:00 | 01:39:10 | 00:00:00 | |
| DO3MHA-12 | 2026-09-02 05:19:55 | 47.67964 | 12.01242 | 110° | 40km/h | 3621m | -6.0m/s | 0.0°C | 18.5% | 662.9hPa | 2.7V | 00:00:00 | 01:39:06 | 00:00:00 | |
| DO3MHA-11 | 2026-09-02 05:19:54 | 47.67966 | 12.01227 | 97° | 40km/h | 3626m | -7.2m/s | 0.0°C | 19.9% | 662.6hPa | 2.7V | 01:54:00 | 01:39:05 | 00:00:00 | |
| BAUMI2-15 | 2026-09-02 05:19:53 | 47.67968 | 12.01214 | 116° | 46km/h | 3633m | -5.7m/s | -0.0°C | 24.5% | 662.0hPa | 2.7V | 00:00:00 | 01:39:04 | 00:00:00 | |
| BAUMI2-15 | 2026-09-02 05:19:47 | 47.67986 | 12.01124 | 101° | 42km/h | 3668m | -4.3m/s | -0.2°C | 24.7% | 659.6hPa | 2.7V | 01:54:00 | 01:38:58 | 00:00:00 | |
| DO3MHA-12 | 2026-09-02 05:19:45 | 47.67992 | 12.01096 | 121° | 44km/h | 3677m | -5.4m/s | -0.3°C | 32.2% | 658.8hPa | 2.7V | 00:00:00 | 01:38:56 | 00:00:00 | |
| DO3MHA-11 | 2026-09-02 05:19:44 | 47.67995 | 12.01080 | 96° | 42km/h | 3683m | -4.9m/s | -0.3°C | 34.5% | 658.5hPa | 2.7V | 01:54:00 | 01:38:55 | 00:00:00 | |
| BAUMI2-15 | 2026-09-02 05:19:42 | 47.68002 | 12.01051 | 114° | 42km/h | 3694m | -5.5m/s | -0.4°C | 35.8% | 657.6hPa | 2.7V | 00:00:00 | 01:38:53 | 00:00:00 | |
| OE5DXL-15 | 2026-09-02 05:19:41 | 47.68005 | 12.01035 | 98° | 40km/h | 3698m | -5.7m/s | -0.4°C | 36.3% | 657.3hPa | 2.7V | 01:54:00 | 00:00:00 | 00:00:00 | |
| DO3MHA-11 | 2026-09-02 05:19:39 | 47.68012 | 12.01006 | 104° | 42km/h | 3711m | -4.3m/s | -0.5°C | 36.7% | 656.4hPa | 2.7V | 00:00:00 | 01:38:50 | 00:00:00 | |
| BAUMI2-15 | 2026-09-02 05:19:37 | 47.68021 | 12.00977 | 120° | 42km/h | 3720m | -5.1m/s | -0.6°C | 36.8% | 655.8hPa | 2.7V | 01:54:00 | 01:38:48 | 00:00:00 | |
| DO3MHA-12 | 2026-09-02 05:19:35 | 47.68027 | 12.00949 | 98° | 42km/h | 3731m | -6.0m/s | -0.7°C | 36.9% | 655.1hPa | 2.7V | 00:00:00 | 01:38:46 | 00:00:00 | |
| DO3MHA-11 | 2026-09-02 05:19:34 | 47.68030 | 12.00935 | 117° | 42km/h | 3736m | -4.2m/s | -0.7°C | 37.1% | 654.8hPa | 2.7V | 01:54:00 | 01:38:45 | 00:00:00 | |
| OE5DRO-10 | 2026-09-02 05:19:33 | 47.68033 | 12.00919 | 99° | 42km/h | 3741m | -4.1m/s | -0.8°C | 37.1% | 654.3hPa | 2.7V | 00:00:00 | 00:00:00 | 00:00:00 | |
| DO3MHA-12 | 2026-09-02 05:19:30 | 47.68041 | 12.00872 | 102° | 40km/h | 3758m | -4.9m/s | -0.9°C | 37.2% | 653.0hPa | 2.7V | 01:54:00 | 01:38:41 | 00:00:00 | |
| DO3MHA-11 | 2026-09-02 05:19:29 | 47.68045 | 12.00859 | 118° | 40km/h | 3763m | -4.0m/s | -1.0°C | 37.3% | 652.4hPa | 2.7V | 00:00:00 | 01:38:40 | 00:00:00 | |
| BAUMI2-15 | 2026-09-02 05:19:27 | 47.68049 | 12.00832 | 108° | 38km/h | 3773m | -5.5m/s | -1.1°C | 37.5% | 651.8hPa | 2.7V | 01:54:00 | 01:38:38 | 00:00:00 | |
| DL6DJ-15 | 2026-09-02 05:19:26 | 47.68051 | 12.00817 | 95° | 49km/h | 3779m | -5.9m/s | -1.1°C | 36.5% | 651.5hPa | 2.7V | 00:00:00 | 00:00:00 | 00:00:00 | |
| DO3MHA-12 | 2026-09-02 05:19:25 | 47.68053 | 12.00802 | 118° | 42km/h | 3784m | -3.7m/s | -1.1°C | 37.6% | 651.0hPa | 2.7V | 00:00:00 | 01:38:36 | 00:00:00 | |
| DO3MHA-11 | 2026-09-02 05:19:24 | 47.68056 | 12.00790 | 100° | 42km/h | 3789m | -3.7m/s | -1.2°C | 37.7% | 650.7hPa | 2.7V | 01:54:00 | 01:38:35 | 00:00:00 | |
| BAUMI2-15 | 2026-09-02 05:19:22 | 47.68062 | 12.00760 | 87° | 37km/h | 3801m | -4.6m/s | -1.3°C | 37.3% | 649.8hPa | 2.7V | 00:00:00 | 01:38:33 | 00:00:00 | |
| DO3MHA-12 | 2026-09-02 05:19:20 | 47.68068 | 12.00729 | 108° | 42km/h | 3811m | -1.4m/s | -1.4°C | 37.2% | 648.9hPa | 2.7V | 01:54:00 | 01:38:31 | 00:00:00 | |
| DO3MHA-11 | 2026-09-02 05:19:19 | 47.68071 | 12.00716 | 112° | 40km/h | 3814m | -4.4m/s | -1.4°C | 37.4% | 648.7hPa | 2.7V | 00:00:00 | 01:38:30 | 00:00:00 | |
| OE5DRO-10 | 2026-09-02 05:19:17 | 47.68076 | 12.00685 | 97° | 40km/h | 3824m | -3.6m/s | -1.5°C | 37.5% | 647.8hPa | 2.7V | 01:54:00 | 00:00:00 | 00:00:00 | |
| DO3MHA-11 | 2026-09-02 05:19:14 | 47.68084 | 12.00642 | 118° | 42km/h | 3837m | -5.4m/s | -1.6°C | 38.1% | 646.9hPa | 2.7V | 01:54:00 | 01:38:25 | 00:00:00 | |
| OE5DXL-15 | 2026-09-02 05:19:11 | 47.68092 | 12.00600 | 112° | 40km/h | 3853m | -5.1m/s | -1.7°C | 40.1% | 645.6hPa | 2.7V | 00:00:00 | 00:00:00 | 00:00:00 | |
| DO3MHA-12 | 2026-09-02 05:19:10 | 47.68094 | 12.00584 | 87° | 40km/h | 3858m | -4.9m/s | -1.8°C | 40.4% | 645.1hPa | 2.7V | 01:54:00 | 01:38:21 | 00:00:00 | |
| DO3MHA-12 | 2026-09-02 05:19:05 | 47.68105 | 12.00510 | 101° | 40km/h | 3879m | -3.4m/s | -2.0°C | 42.1% | 643.3hPa | 2.7V | 00:00:00 | 01:38:16 | 00:00:00 | |
| DO3MHA-11 | 2026-09-02 05:19:04 | 47.68108 | 12.00496 | 122° | 42km/h | 3883m | -4.9m/s | -2.0°C | 42.4% | 643.1hPa | 2.7V | 01:55:00 | 01:38:15 | 00:00:00 | |
| DL6DJ-15 | 2026-09-02 05:18:55 | 47.68134 | 12.00349 | 108° | 47km/h | 3930m | -4.7m/s | -2.5°C | 41.0% | 639.3hPa | 2.7V | 00:00:00 | 00:00:00 | 00:00:00 | |
| DO3MHA-11 | 2026-09-02 05:18:54 | 47.68134 | 12.00349 | 109° | 38km/h | 3930m | -4.7m/s | -2.4°C | 42.0% | 639.3hPa | 2.7V | 01:55:00 | 01:38:05 | 00:00:00 | |
| DO3MHA-11 | 2026-09-02 05:18:49 | 47.68143 | 12.00279 | 90° | 42km/h | 3952m | -4.4m/s | -2.6°C | 40.9% | 637.5hPa | 2.7V | 00:00:00 | 01:38:00 | 00:00:00 | |
| DO3MHA-11 | 2026-09-02 05:18:44 | 47.68158 | 12.00203 | 113° | 38km/h | 3970m | -4.5m/s | -2.7°C | 37.5% | 635.6hPa | 2.7V | 01:55:00 | 01:37:55 | 00:00:00 | |
| OE5DXL-15 | 2026-09-02 05:18:41 | 47.68166 | 12.00162 | 87° | 37km/h | 3980m | -4.6m/s | -2.8°C | 37.8% | 634.4hPa | 2.7V | 01:55:00 | 00:00:00 | 00:00:00 | |
| DG1MFX-10 | 2026-09-02 05:18:37 | 47.68172 | 12.00121 | 108° | 33km/h | 3991m | -4.5m/s | -3.0°C | 37.1% | 633.5hPa | 2.7V | 01:55:00 | 00:00:00 | 00:00:00 | |
| DO3MHA-11 | 2026-09-02 05:18:35 | 47.68183 | 12.00066 | 96° | 37km/h | 4005m | -3.0m/s | -3.1°C | 37.2% | 632.1hPa | 2.7V | 01:55:00 | 01:37:45 | 00:00:00 | |
| DO3MHA-12 | 2026-09-02 05:18:34 | 47.68183 | 12.00066 | 96° | 37km/h | 4005m | -3.0m/s | -3.1°C | 37.2% | 632.1hPa | 2.7V | 00:00:00 | 01:37:45 | 00:00:00 | |
| BAUMI2-15 | 2026-09-02 05:18:30 | 47.68193 | 12.00012 | 96° | 38km/h | 4020m | -4.5m/s | -3.2°C | 34.5% | 630.5hPa | 2.7V | 01:55:00 | 01:37:41 | 00:00:00 | |
| DO3MHA-12 | 2026-09-02 05:18:29 | 47.68195 | 11.99999 | 118° | 37km/h | 4024m | -5.6m/s | -3.2°C | 34.8% | 630.1hPa | 2.7V | 01:55:00 | 01:37:40 | 00:00:00 | |
| OE5DRO-10 | 2026-09-02 05:18:28 | 47.68197 | 11.99985 | 90° | 38km/h | 4029m | -5.2m/s | -3.2°C | 34.3% | 629.8hPa | 2.6V | 00:00:00 | 00:00:00 | 00:00:00 | |
| DO3MHA-12 | 2026-09-02 05:18:24 | 47.68204 | 11.99933 | 108° | 35km/h | 4043m | -4.1m/s | -3.2°C | 34.3% | 628.5hPa | 2.6V | 00:00:00 | 01:37:35 | 00:00:00 | |
| DO3MHA-12 | 2026-09-02 05:18:19 | 47.68217 | 11.99868 | 99° | 37km/h | 4067m | -6.8m/s | -3.3°C | 30.5% | 626.4hPa | 2.6V | 01:55:00 | 01:37:30 | 00:00:00 | |
| DG1MFX-10 | 2026-09-02 05:18:16 | 47.68223 | 11.99841 | 93° | 27km/h | 4077m | -6.8m/s | -3.4°C | 30.5% | 625.6hPa | 2.6V | 01:56:00 | 00:00:00 | 00:00:00 | |
| DO3MHA-11 | 2026-09-02 05:18:14 | 47.68228 | 11.99803 | 93° | 38km/h | 4093m | -4.1m/s | -3.4°C | 32.6% | 624.6hPa | 2.6V | 01:55:00 | 01:37:25 | 00:00:00 | |
| OE5DXL-15 | 2026-09-02 05:18:11 | 47.68236 | 11.99761 | 93° | 38km/h | 4107m | -5.8m/s | -3.5°C | 32.6% | 623.5hPa | 2.6V | 00:00:00 | 00:00:00 | 00:00:00 | |
| DO3MHA-11 | 2026-09-02 05:18:09 | 47.68241 | 11.99734 | 103° | 38km/h | 4118m | -3.4m/s | -3.6°C | 32.9% | 622.9hPa | 2.7V | 00:00:00 | 01:37:20 | 00:00:00 | |
| DO3MHA-11 | 2026-09-02 05:18:04 | 47.68251 | 11.99667 | 96° | 38km/h | 4143m | -4.9m/s | -3.8°C | 33.2% | 620.7hPa | 2.6V | 01:56:00 | 01:37:15 | 00:00:00 | |
| DL6DJ-15 | 2026-09-02 05:17:53 | 47.68283 | 11.99506 | 91° | 29km/h | 4204m | -7.8m/s | -4.2°C | 32.4% | 616.8hPa | 2.6V | 00:00:00 | 00:00:00 | 00:00:00 | |
| OE5DRO-10 | 2026-09-02 05:17:52 | 47.68283 | 11.99506 | 92° | 38km/h | 4204m | -7.8m/s | -4.1°C | 33.4% | 616.8hPa | 2.6V | 00:00:00 | 00:00:00 | 00:00:00 | |
| DO3MHA-12 | 2026-09-02 05:17:49 | 47.68289 | 11.99466 | 91° | 38km/h | 4227m | -7.9m/s | -4.3°C | 33.4% | 615.7hPa | 2.6V | 01:56:00 | 01:37:00 | 00:00:00 | |
| DO3MHA-12 | 2026-09-02 05:17:44 | 47.68301 | 11.99392 | 88° | 35km/h | 4254m | -2.9m/s | -4.4°C | 32.8% | 613.8hPa | 2.6V | 00:00:00 | 01:36:55 | 00:00:00 | |
| DO3MHA-12 | 2026-09-02 05:17:38 | 47.68311 | 11.99301 | 121° | 42km/h | 4284m | -2.4m/s | -4.5°C | 32.0% | 611.5hPa | 2.7V | 01:56:00 | 01:36:49 | 00:00:00 | |
| OE3JTB-15 | 2026-09-02 05:17:36 | 47.68314 | 11.99273 | 110° | 42km/h | 4292m | -6.2m/s | -4.6°C | 32.0% | 610.7hPa | 2.7V | 01:56:00 | 00:00:00 | 00:00:00 | |
| DO3MHA-12 | 2026-09-02 05:17:30 | 47.68323 | 11.99179 | 112° | 46km/h | 4322m | -5.1m/s | -4.7°C | 34.8% | 608.7hPa | 2.6V | 00:00:00 | 01:36:41 | 00:00:00 | |
| DO3MHA-12 | 2026-09-02 05:17:25 | 47.68330 | 11.99098 | 101° | 47km/h | 4344m | -3.9m/s | -4.8°C | 36.5% | 606.9hPa | 2.6V | 01:56:00 | 01:36:36 | 00:00:00 | |
| NBG1-10 | 2026-09-02 05:17:23 | 47.68331 | 11.99083 | 102° | 38km/h | 4353m | -4.5m/s | -4.9°C | 36.4% | 606.2hPa | 2.6V | 00:00:00 | 01:36:34 | 00:00:00 | |
| DO3MHA-11 | 2026-09-02 05:17:22 | 47.68333 | 11.99052 | 106° | 47km/h | 4358m | -4.1m/s | -5.0°C | 36.2% | 605.9hPa | 2.6V | 00:00:00 | 01:36:33 | 00:00:00 | |
| OE5DRO-10 | 2026-09-02 05:17:20 | 47.68336 | 11.99021 | 115° | 42km/h | 4368m | -3.6m/s | -5.0°C | 35.5% | 605.3hPa | 2.6V | 00:00:00 | 00:00:00 | 00:00:00 | |
| DO3MHA-12 | 2026-09-02 05:17:17 | 47.68340 | 11.98975 | 117° | 37km/h | 4378m | -3.5m/s | -5.1°C | 34.8% | 604.3hPa | 2.6V | 00:00:00 | 01:36:28 | 00:00:00 | |
| DG1MFX-10 | 2026-09-02 05:17:15 | 47.68341 | 11.98960 | 85° | 44km/h | 4382m | -3.7m/s | -5.2°C | 33.5% | 604.2hPa | 2.6V | 01:57:00 | 00:00:00 | 00:00:00 | |
| DO3MHA-12 | 2026-09-02 05:17:11 | 47.68349 | 11.98886 | 87° | 33km/h | 4406m | -3.9m/s | -5.3°C | 34.5% | 602.3hPa | 2.6V | 01:56:00 | 01:36:22 | 00:00:00 | |
| OE3JTB-15 | 2026-09-02 05:17:07 | 47.68355 | 11.98825 | 117° | 40km/h | 4420m | -3.1m/s | -5.4°C | 34.8% | 600.9hPa | 2.6V | 00:00:00 | 00:00:00 | 00:00:00 | |
| DO3MHA-12 | 2026-09-02 05:17:06 | 47.68356 | 11.98812 | 90° | 37km/h | 4424m | -4.5m/s | -5.5°C | 34.7% | 600.7hPa | 2.6V | 00:00:00 | 01:36:17 | 00:00:00 | |
| OE5DRO-10 | 2026-09-02 05:17:04 | 47.68362 | 11.98781 | 105° | 40km/h | 4432m | -2.3m/s | -5.6°C | 34.9% | 600.0hPa | 2.7V | 01:57:00 | 00:00:00 | 00:00:00 | |
| DL6DJ-15 | 2026-09-02 05:16:51 | 47.68398 | 11.98534 | 109° | 47km/h | 4491m | -4.2m/s | -6.0°C | 50.2% | 594.5hPa | 2.7V | 00:00:00 | 00:00:00 | 00:00:00 | |
| DO3MHA-12 | 2026-09-02 05:16:49 | 47.68396 | 11.98567 | 105° | 42km/h | 4482m | -3.4m/s | -5.9°C | 51.0% | 594.9hPa | 2.7V | 01:57:00 | 01:36:00 | 00:00:00 | |
| DO3MHA-11 | 2026-09-02 05:16:47 | 47.68398 | 11.98534 | 110° | 37km/h | 4491m | -4.1m/s | -6.0°C | 51.7% | 594.5hPa | 2.6V | 00:00:00 | 01:35:58 | 00:00:00 | |
| OE5DXL-15 | 2026-09-02 05:16:41 | 47.68409 | 11.98443 | 110° | 38km/h | 4517m | -5.6m/s | -6.1°C | 51.8% | 592.2hPa | 2.6V | 01:57:00 | 00:00:00 | 00:00:00 | |
| OE3JTB-15 | 2026-09-02 05:16:38 | 47.68413 | 11.98399 | 84° | 38km/h | 4529m | -5.4m/s | -6.2°C | 51.6% | 591.3hPa | 2.6V | 01:57:00 | 01:35:49 | 00:00:00 | |
| DO3MHA-11 | 2026-09-02 05:16:35 | 47.68415 | 11.98354 | 92° | 38km/h | 4542m | -4.8m/s | -6.3°C | 51.4% | 590.2hPa | 2.6V | 01:57:00 | 01:35:46 | 00:00:00 | |
| DO3MHA-12 | 2026-09-02 05:16:34 | 47.68417 | 11.98340 | 109° | 40km/h | 4546m | -4.8m/s | -6.3°C | 51.4% | 589.9hPa | 2.7V | 00:00:00 | 01:35:45 | 00:00:00 | |
| OE5DRO-10 | 2026-09-02 05:16:31 | 47.68419 | 11.98299 | 87° | 38km/h | 4561m | -5.3m/s | -6.4°C | 51.0% | 589.0hPa | 2.7V | 01:57:00 | 00:00:00 | 00:00:00 | |
| DO3MHA-11 | 2026-09-02 05:16:30 | 47.68420 | 11.98285 | 97° | 42km/h | 4565m | -4.7m/s | -6.4°C | 51.1% | 588.6hPa | 2.7V | 00:00:00 | 01:35:41 | 00:00:00 | |
| BAUMI2-15 | 2026-09-02 05:16:21 | 47.68427 | 11.98156 | 82° | 37km/h | 4602m | -5.9m/s | -6.7°C | 51.5% | 585.8hPa | 2.7V | 00:00:00 | 01:35:32 | 00:00:00 | |
| DL6DJ-15 | 2026-09-02 05:16:20 | 47.68428 | 11.98128 | 97° | 47km/h | 4610m | -4.3m/s | -6.8°C | 50.0% | 585.0hPa | 2.7V | 00:00:00 | 00:00:00 | 00:00:00 | |
| BAUMI2-15 | 2026-09-02 05:16:16 | 47.68429 | 11.98086 | 86° | 37km/h | 4620m | -6.8m/s | -6.9°C | 52.0% | 584.2hPa | 2.7V | 01:57:00 | 01:35:27 | 00:00:00 | |
| OE5DRO-10 | 2026-09-02 05:16:15 | 47.68430 | 11.98072 | 110° | 35km/h | 4626m | -10.4m/s | -6.9°C | 51.8% | 583.9hPa | 2.7V | 00:00:00 | 00:00:00 | 00:00:00 | |
| DG1MFX-10 | 2026-09-02 05:16:13 | 47.68430 | 11.98060 | 74° | 38km/h | 4634m | -8.0m/s | -7.0°C | 50.3% | 583.3hPa | 2.7V | 01:58:00 | 00:00:00 | 00:00:00 | |
| OE5DXL-15 | 2026-09-02 05:16:11 | 47.68432 | 11.98020 | 97° | 37km/h | 4649m | -4.0m/s | -7.1°C | 52.4% | 582.2hPa | 2.7V | 00:00:00 | 00:00:00 | 00:00:00 | |
| OE3JTB-15 | 2026-09-02 05:16:09 | 47.68434 | 11.97994 | 72° | 33km/h | 4657m | -5.9m/s | -7.2°C | 52.7% | 581.5hPa | 2.7V | 00:00:00 | 00:00:00 | 00:00:00 | |
| BAUMI2-15 | 2026-09-02 05:16:06 | 47.68436 | 11.97956 | 83° | 37km/h | 4675m | -4.4m/s | -7.3°C | 53.2% | 580.5hPa | 2.6V | 01:58:00 | 01:35:17 | 00:00:00 | |
| DO3MHA-12 | 2026-09-02 05:16:05 | 47.68436 | 11.97942 | 111° | 33km/h | 4679m | -4.6m/s | -7.3°C | 53.2% | 580.2hPa | 2.6V | 01:58:00 | 01:35:16 | 00:00:00 | |
| BAUMI2-15 | 2026-09-02 05:16:01 | 47.68438 | 11.97892 | 97° | 35km/h | 4700m | -4.2m/s | -7.4°C | 52.3% | 579.0hPa | 2.6V | 00:00:00 | 01:35:12 | 00:00:00 | |
| DO3MHA-12 | 2026-09-02 05:15:59 | 47.68440 | 11.97867 | 74° | 31km/h | 4712m | -5.5m/s | -7.4°C | 51.8% | 578.2hPa | 2.6V | 00:00:00 | 01:35:10 | 00:00:00 | |
| BAUMI2-15 | 2026-09-02 05:15:56 | 47.68442 | 11.97827 | 107° | 37km/h | 4731m | -4.5m/s | -7.5°C | 50.2% | 577.2hPa | 2.7V | 01:58:00 | 01:35:07 | 00:00:00 | |
| DO3MHA-12 | 2026-09-02 05:15:54 | 47.68446 | 11.97801 | 76° | 37km/h | 4742m | -3.5m/s | -7.6°C | 49.7% | 576.6hPa | 2.7V | 01:58:00 | 01:35:05 | 00:00:00 | |
| BAUMI2-15 | 2026-09-02 05:15:51 | 47.68451 | 11.97759 | 105° | 40km/h | 4756m | -3.8m/s | -7.7°C | 49.7% | 575.6hPa | 2.7V | 00:00:00 | 01:35:02 | 00:00:00 | |
| NBG1-10 | 2026-09-02 05:15:50 | 47.68453 | 11.97746 | 102° | 38km/h | 4760m | -4.3m/s | -7.7°C | 49.8% | 575.2hPa | 2.7V | 01:58:00 | 01:35:01 | 00:00:00 | |
| DO3MHA-12 | 2026-09-02 05:15:49 | 47.68454 | 11.97731 | 91° | 38km/h | 4765m | -5.5m/s | -7.7°C | 49.9% | 574.9hPa | 2.7V | 00:00:00 | 01:35:00 | 00:00:00 | |
| DO3MHA-11 | 2026-09-02 05:15:48 | 47.68455 | 11.97716 | 112° | 38km/h | 4770m | -3.5m/s | -7.8°C | 50.1% | 574.6hPa | 2.7V | 00:00:00 | 01:34:59 | 00:00:00 | |
| BAUMI2-15 | 2026-09-02 05:15:46 | 47.68460 | 11.97686 | 88° | 37km/h | 4779m | -5.1m/s | -7.9°C | 50.2% | 574.1hPa | 2.7V | 01:58:00 | 01:34:57 | 00:00:00 | |
| DO3MHA-12 | 2026-09-02 05:15:44 | 47.68464 | 11.97659 | 96° | 42km/h | 4788m | -4.5m/s | -8.0°C | 50.4% | 573.2hPa | 2.7V | 01:58:00 | 01:34:55 | 00:00:00 | |
| DO3MHA-11 | 2026-09-02 05:15:43 | 47.68465 | 11.97645 | 102° | 37km/h | 4793m | -5.7m/s | -8.0°C | 50.5% | 572.9hPa | 2.7V | 01:58:00 | 01:34:54 | 00:00:00 | |
| OE5DXL-15 | 2026-09-02 05:15:41 | 47.68470 | 11.97615 | 108° | 38km/h | 4802m | -5.3m/s | -8.1°C | 50.9% | 572.3hPa | 2.6V | 01:58:00 | 00:00:00 | 00:00:00 | |
| DO3MHA-12 | 2026-09-02 05:15:38 | 47.68476 | 11.97577 | 119° | 35km/h | 4815m | -3.9m/s | -8.2°C | 51.3% | 571.3hPa | 2.6V | 00:00:00 | 01:34:49 | 00:00:00 | |
| BAUMI2-15 | 2026-09-02 05:15:36 | 47.68478 | 11.97551 | 94° | 37km/h | 4826m | -3.9m/s | -8.3°C | 51.4% | 570.5hPa | 2.6V | 01:58:00 | 01:34:47 | 00:00:00 | |
| DO3MHA-12 | 2026-09-02 05:15:33 | 47.68482 | 11.97512 | 118° | 42km/h | 4839m | -3.4m/s | -8.4°C | 51.9% | 569.7hPa | 2.6V | 01:58:00 | 01:34:44 | 00:00:00 | |
| BAUMI2-15 | 2026-09-02 05:15:31 | 47.68485 | 11.97483 | 99° | 40km/h | 4848m | -4.8m/s | -8.5°C | 52.2% | 568.9hPa | 2.6V | 00:00:00 | 01:34:42 | 00:00:00 | |
| DO3MHA-12 | 2026-09-02 05:15:28 | 47.68491 | 11.97442 | 100° | 40km/h | 4862m | -2.6m/s | -8.6°C | 52.7% | 567.9hPa | 2.6V | 00:00:00 | 01:34:39 | 00:00:00 | |
| OE5DRO-10 | 2026-09-02 05:15:27 | 47.68494 | 11.97428 | 116° | 42km/h | 4866m | -4.5m/s | -8.7°C | 52.8% | 567.7hPa | 2.7V | 01:58:00 | 00:00:00 | 00:00:00 | |
| BAUMI2-15 | 2026-09-02 05:15:26 | 47.68495 | 11.97414 | 88° | 38km/h | 4870m | -3.5m/s | -8.7°C | 53.1% | 567.4hPa | 2.7V | 01:58:00 | 01:34:37 | 00:00:00 | |
| DO3MHA-12 | 2026-09-02 05:15:23 | 47.68500 | 11.97370 | 86° | 38km/h | 4882m | -3.0m/s | -8.8°C | 53.5% | 566.3hPa | 2.7V | 01:58:00 | 01:34:34 | 00:00:00 | |
| BAUMI2-15 | 2026-09-02 05:15:21 | 47.68505 | 11.97344 | 97° | 38km/h | 4889m | -3.3m/s | -8.9°C | 53.6% | 565.7hPa | 2.7V | 00:00:00 | 01:34:32 | 00:00:00 | |
| DO3MHA-11 | 2026-09-02 05:15:18 | 47.68509 | 11.97302 | 84° | 46km/h | 4901m | -3.8m/s | -9.0°C | 54.0% | 564.7hPa | 2.7V | 00:00:00 | 01:34:29 | 00:00:00 | |
| DL6DJ-15 | 2026-09-02 05:15:17 | 47.68514 | 11.97274 | 107° | 51km/h | 4908m | -3.8m/s | -9.2°C | 52.4% | 564.1hPa | 2.7V | 00:00:00 | 00:00:00 | 00:00:00 | |
| BAUMI2-15 | 2026-09-02 05:15:16 | 47.68514 | 11.97274 | 108° | 44km/h | 4908m | -3.8m/s | -9.1°C | 54.2% | 564.1hPa | 2.7V | 01:58:00 | 01:34:27 | 00:00:00 | |
| DO3MHA-12 | 2026-09-02 05:15:12 | 47.68521 | 11.97212 | 87° | 37km/h | 4927m | -3.4m/s | -9.3°C | 54.0% | 562.6hPa | 2.7V | 01:58:00 | 01:34:23 | 00:00:00 | |
| BAUMI2-15 | 2026-09-02 05:15:11 | 47.68523 | 11.97200 | 122° | 38km/h | 4932m | -4.4m/s | -9.3°C | 52.2% | 562.3hPa | 2.6V | 00:00:00 | 01:34:22 | 00:00:00 | |
| DO3MHA-12 | 2026-09-02 05:15:07 | 47.68533 | 11.97144 | 89° | 33km/h | 4948m | -4.5m/s | -9.3°C | 44.2% | 560.9hPa | 2.7V | 00:00:00 | 01:34:18 | 00:00:00 | |
| BAUMI2-15 | 2026-09-02 05:15:06 | 47.68535 | 11.97130 | 114° | 42km/h | 4952m | -3.1m/s | -9.3°C | 42.0% | 560.5hPa | 2.7V | 01:59:00 | 01:34:17 | 00:00:00 | |
| DG1MFX-10 | 2026-09-02 05:15:05 | 47.68535 | 11.97130 | 114° | 37km/h | 4952m | -3.1m/s | -9.4°C | 40.5% | 560.5hPa | 2.7V | 01:59:00 | 00:00:00 | 00:00:00 | |
| DO3MHA-12 | 2026-09-02 05:15:02 | 47.68546 | 11.97071 | 118° | 40km/h | 4966m | -3.3m/s | -9.4°C | 41.6% | 559.3hPa | 2.7V | 01:59:00 | 01:34:13 | 00:00:00 | |
| BAUMI2-15 | 2026-09-02 05:15:01 | 47.68550 | 11.97055 | 105° | 40km/h | 4971m | -6.5m/s | -9.5°C | 41.6% | 559.2hPa | 2.7V | 00:00:00 | 01:34:12 | 00:00:00 | |
| DO3MHA-11 | 2026-09-02 05:15:00 | 47.68553 | 11.97038 | 105° | 38km/h | 4976m | -4.6m/s | -9.5°C | 41.7% | 558.7hPa | 2.7V | 01:59:00 | 01:34:11 | 00:00:00 | |
| DO3MHA-12 | 2026-09-02 05:14:56 | 47.68564 | 11.96982 | 121° | 40km/h | 4997m | -6.7m/s | -9.7°C | 38.8% | 557.2hPa | 2.7V | 00:00:00 | 01:34:07 | 00:00:00 | |
| DO3MHA-11 | 2026-09-02 05:14:55 | 47.68567 | 11.96969 | 105° | 42km/h | 5002m | -4.1m/s | -9.7°C | 38.9% | 556.5hPa | 2.7V | 00:00:00 | 01:34:06 | 00:00:00 | |
| BAUMI2-15 | 2026-09-02 05:14:49 | 47.68583 | 11.96879 | 93° | 44km/h | 5030m | -4.5m/s | -9.8°C | 39.7% | 554.1hPa | 2.7V | 00:00:00 | 01:34:00 | 00:00:00 | |
| DO3MHA-12 | 2026-09-02 05:14:46 | 47.68593 | 11.96834 | 103° | 42km/h | 5041m | -4.4m/s | -10.0°C | 39.1% | 553.2hPa | 2.7V | 01:59:00 | 01:33:57 | 00:00:00 | |
| DO3MHA-11 | 2026-09-02 05:14:45 | 47.68597 | 11.96818 | 118° | 42km/h | 5045m | -6.4m/s | -10.0°C | 38.4% | 552.7hPa | 2.7V | 01:59:00 | 01:33:56 | 00:00:00 | |
| BAUMI2-15 | 2026-09-02 05:14:44 | 47.68601 | 11.96804 | 95° | 42km/h | 5050m | -6.5m/s | -10.1°C | 37.6% | 552.4hPa | 2.7V | 01:59:00 | 01:33:55 | 00:00:00 | |
| OE5DXL-15 | 2026-09-02 05:14:41 | 47.68612 | 11.96759 | 106° | 44km/h | 5065m | -4.8m/s | -10.2°C | 34.7% | 551.4hPa | 2.7V | 01:59:00 | 00:00:00 | 00:00:00 | |
| BAUMI2-15 | 2026-09-02 05:14:39 | 47.68620 | 11.96730 | 99° | 44km/h | 5076m | -5.7m/s | -10.3°C | 32.3% | 550.6hPa | 2.7V | 00:00:00 | 01:33:50 | 00:00:00 | |
| DO3MHA-12 | 2026-09-02 05:14:36 | 47.68632 | 11.96683 | 99° | 47km/h | 5087m | -5.3m/s | -10.3°C | 28.9% | 549.5hPa | 2.6V | 00:00:00 | 01:33:47 | 00:00:00 | |
| DO3MHA-11 | 2026-09-02 05:14:35 | 47.68634 | 11.96667 | 107° | 46km/h | 5091m | -6.3m/s | -10.3°C | 26.8% | 549.1hPa | 2.6V | 00:00:00 | 01:33:46 | 00:00:00 | |
| BAUMI2-15 | 2026-09-02 05:14:34 | 47.68638 | 11.96651 | 111° | 46km/h | 5097m | -8.0m/s | -10.4°C | 25.6% | 548.9hPa | 2.6V | 01:59:00 | 01:33:45 | 00:00:00 | |
| BAUMI2-15 | 2026-09-02 05:14:29 | 47.68655 | 11.96568 | 122° | 47km/h | 5124m | -7.4m/s | -10.5°C | 24.6% | 546.7hPa | 2.6V | 00:00:00 | 01:33:40 | 00:00:00 | |
| NBG1-10 | 2026-09-02 05:14:27 | 47.68661 | 11.96536 | 108° | 47km/h | 5134m | -8.2m/s | -10.6°C | 23.7% | 546.1hPa | 2.6V | 01:59:00 | 01:33:38 | 00:00:00 | |
| DO3MHA-12 | 2026-09-02 05:14:26 | 47.68665 | 11.96520 | 124° | 44km/h | 5140m | -5.9m/s | -10.6°C | 23.3% | 545.9hPa | 2.6V | 01:59:00 | 01:33:37 | 00:00:00 | |
| DO3MHA-11 | 2026-09-02 05:14:25 | 47.68669 | 11.96506 | 108° | 46km/h | 5145m | -5.8m/s | -10.6°C | 23.4% | 545.5hPa | 2.6V | 01:59:00 | 01:33:36 | 00:00:00 | |
| DG1MFX-10 | 2026-09-02 05:14:24 | 47.68669 | 11.96506 | 109° | 42km/h | 5145m | -5.9m/s | -10.6°C | 22.4% | 545.6hPa | 2.7V | 01:59:00 | 00:00:00 | 00:00:00 | |
| OE5DRO-10 | 2026-09-02 05:14:23 | 47.68677 | 11.96473 | 114° | 44km/h | 5157m | -4.5m/s | -10.6°C | 21.8% | 544.9hPa | 2.7V | 01:59:00 | 00:00:00 | 00:00:00 | |
| DO3MHA-12 | 2026-09-02 05:14:16 | 47.68703 | 11.96362 | 105° | 47km/h | 5189m | -5.7m/s | -10.8°C | 28.4% | 542.6hPa | 2.7V | 00:00:00 | 01:33:27 | 00:00:00 | |
| DO3MHA-11 | 2026-09-02 05:14:15 | 47.68708 | 11.96345 | 124° | 46km/h | 5194m | -8.5m/s | -10.8°C | 27.9% | 542.1hPa | 2.7V | 00:00:00 | 01:33:26 | 00:00:00 | |
| OE5DXL-15 | 2026-09-02 05:14:11 | 47.68721 | 11.96280 | 103° | 47km/h | 5217m | -5.2m/s | -11.0°C | 36.4% | 540.9hPa | 2.7V | 00:00:00 | 00:00:00 | 00:00:00 | |
| OE5DRO-10 | 2026-09-02 05:14:07 | 47.68738 | 11.96212 | 120° | 47km/h | 5238m | -5.4m/s | -11.2°C | 49.5% | 539.8hPa | 2.7V | 00:00:00 | 00:00:00 | 00:00:00 | |
| DO3MHA-12 | 2026-09-02 05:14:06 | 47.68742 | 11.96196 | 102° | 47km/h | 5243m | -5.1m/s | -11.3°C | 49.1% | 539.5hPa | 2.7V | 00:00:00 | 01:33:17 | 00:00:00 | |
| DO3MHA-11 | 2026-09-02 05:14:05 | 47.68744 | 11.96179 | 102° | 47km/h | 5250m | -6.6m/s | -11.3°C | 53.0% | 539.2hPa | 2.7V | 00:00:00 | 01:33:16 | 00:00:00 | |
| DG1MFX-10 | 2026-09-02 05:14:04 | 47.68744 | 11.96179 | 103° | 51km/h | 5250m | -6.7m/s | -11.4°C | 51.1% | 539.3hPa | 2.7V | 02:00:00 | 00:00:00 | 00:00:00 | |
| DO3MHA-11 | 2026-09-02 05:13:55 | 47.68784 | 11.96010 | 114° | 47km/h | 5301m | -4.9m/s | -11.7°C | 55.1% | 536.4hPa | 2.7V | 02:00:00 | 01:33:06 | 00:00:00 | |
| NBG1-10 | 2026-09-02 05:13:54 | 47.68788 | 11.95995 | 108° | 49km/h | 5305m | -2.9m/s | -11.8°C | 57.3% | 536.1hPa | 2.7V | 00:00:00 | 01:33:05 | 00:00:00 | |
| OE5DRO-10 | 2026-09-02 05:13:51 | 47.68798 | 11.95945 | 107° | 49km/h | 5319m | -3.9m/s | -11.9°C | 54.5% | 535.3hPa | 2.7V | 02:00:00 | 00:00:00 | 00:00:00 | |
| DO3MHA-12 | 2026-09-02 05:13:45 | 47.68819 | 11.95841 | 127° | 47km/h | 5349m | -4.0m/s | -12.1°C | 55.1% | 533.2hPa | 2.6V | 00:00:00 | 01:32:56 | 00:00:00 | |
| DL6DJ-15 | 2026-09-02 05:13:44 | 47.68823 | 11.95826 | 97° | 42km/h | 5353m | -2.5m/s | -12.2°C | 52.2% | 532.9hPa | 2.6V | 00:00:00 | 00:00:00 | 00:00:00 | |
| DG1MFX-10 | 2026-09-02 05:13:43 | 47.68823 | 11.95826 | 99° | 44km/h | 5353m | -2.5m/s | -12.2°C | 52.2% | 532.9hPa | 2.6V | 02:00:00 | 00:00:00 | 00:00:00 | |
| OE5DXL-15 | 2026-09-02 05:13:41 | 47.68834 | 11.95774 | 115° | 49km/h | 5362m | -3.0m/s | -12.3°C | 55.3% | 532.2hPa | 2.6V | 02:00:00 | 00:00:00 | 00:00:00 | |
| OE3JTB-15 | 2026-09-02 05:13:33 | 47.68866 | 11.95639 | 101° | 47km/h | 5396m | -5.0m/s | -12.6°C | 55.0% | 529.7hPa | 2.6V | 00:00:00 | 00:00:00 | 00:00:00 | |
| DO3MHA-11 | 2026-09-02 05:13:25 | 47.68898 | 11.95502 | 100° | 47km/h | 5426m | -2.9m/s | -13.0°C | 59.4% | 527.5hPa | 2.6V | 02:00:00 | 01:32:36 | 00:00:00 | |
| DG1MFX-10 | 2026-09-02 05:13:22 | 47.68907 | 11.95467 | 107° | 38km/h | 5432m | -2.7m/s | -13.1°C | 59.3% | 527.0hPa | 2.6V | 02:01:00 | 00:00:00 | 00:00:00 | |
| NBG1-10 | 2026-09-02 05:13:21 | 47.68913 | 11.95433 | 111° | 47km/h | 5440m | -2.0m/s | -13.1°C | 62.2% | 526.4hPa | 2.6V | 02:00:00 | 01:32:32 | 00:00:00 | |
| OE5DRO-10 | 2026-09-02 05:13:19 | 47.68924 | 11.95400 | 113° | 49km/h | 5447m | -4.5m/s | -13.2°C | 60.8% | 525.6hPa | 2.7V | 00:00:00 | 00:00:00 | 00:00:00 | |
| DO3MHA-12 | 2026-09-02 05:13:15 | 47.68937 | 11.95333 | 112° | 49km/h | 5465m | -4.7m/s | -13.4°C | 64.0% | 524.5hPa | 2.7V | 00:00:00 | 01:32:26 | 00:00:00 | |
| DL6DJ-15 | 2026-09-02 05:13:13 | 47.68946 | 11.95300 | 102° | 49km/h | 5477m | -3.6m/s | -13.6°C | 64.9% | 523.9hPa | 2.7V | 00:00:00 | 00:00:00 | 00:00:00 | |
| OE5DXL-15 | 2026-09-02 05:13:11 | 47.68954 | 11.95265 | 120° | 49km/h | 5485m | -4.2m/s | -13.6°C | 67.3% | 522.9hPa | 2.7V | 00:00:00 | 00:00:00 | 00:00:00 | |
| DO3MHA-11 | 2026-09-02 05:13:05 | 47.68979 | 11.95167 | 104° | 49km/h | 5500m | -3.5m/s | -13.8°C | 61.1% | 521.3hPa | 2.7V | 00:00:00 | 01:32:16 | 00:00:00 | |
| OE5DRO-10 | 2026-09-02 05:13:03 | 47.68986 | 11.95131 | 123° | 49km/h | 5508m | -3.0m/s | -13.9°C | 63.0% | 520.9hPa | 2.7V | 02:01:00 | 00:00:00 | 00:00:00 | |
| OE3JTB-15 | 2026-09-02 05:13:02 | 47.68991 | 11.95114 | 112° | 49km/h | 5510m | -2.3m/s | -13.9°C | 64.0% | 520.6hPa | 2.7V | 00:00:00 | 01:32:13 | 00:00:00 | |
| DG1MFX-10 | 2026-09-02 05:13:01 | 47.68991 | 11.95114 | 112° | 53km/h | 5510m | -2.4m/s | -14.0°C | 61.4% | 520.6hPa | 2.7V | 02:01:00 | 00:00:00 | 00:00:00 | |
| DO3MHA-12 | 2026-09-02 05:12:55 | 47.69018 | 11.94996 | 120° | 49km/h | 5538m | -3.5m/s | -14.2°C | 65.2% | 518.5hPa | 2.7V | 02:01:00 | 01:32:06 | 00:00:00 | |
| NBG1-10 | 2026-09-02 05:12:48 | 47.69045 | 11.94875 | 102° | 49km/h | 5569m | -7.8m/s | -14.6°C | 66.8% | 516.2hPa | 2.6V | 00:00:00 | 01:31:59 | 00:00:00 | |
| OE5DRO-10 | 2026-09-02 05:12:47 | 47.69049 | 11.94860 | 119° | 49km/h | 5576m | -7.4m/s | -14.6°C | 64.4% | 515.8hPa | 2.6V | 00:00:00 | 00:00:00 | 00:00:00 | |
| DO3MHA-12 | 2026-09-02 05:12:45 | 47.69056 | 11.94825 | 113° | 49km/h | 5589m | -5.9m/s | -14.7°C | 65.4% | 515.2hPa | 2.6V | 00:00:00 | 01:31:56 | 00:00:00 | |
| DL6DJ-15 | 2026-09-02 05:12:42 | 47.69068 | 11.94772 | 119° | 44km/h | 5600m | -3.7m/s | -14.9°C | 61.9% | 514.3hPa | 2.6V | 00:00:00 | 00:00:00 | 00:00:00 | |
| OE5DXL-15 | 2026-09-02 05:12:41 | 47.69072 | 11.94754 | 104° | 51km/h | 5604m | -4.4m/s | -14.9°C | 64.3% | 514.1hPa | 2.6V | 00:00:00 | 00:00:00 | 00:00:00 | |
| DO3MHA-12 | 2026-09-02 05:12:35 | 47.69096 | 11.94652 | 111° | 47km/h | 5629m | -5.3m/s | -15.1°C | 67.6% | 512.4hPa | 2.6V | 00:00:00 | 01:31:46 | 00:00:00 | |
| OE3JTB-15 | 2026-09-02 05:12:33 | 47.69105 | 11.94621 | 111° | 53km/h | 5639m | -5.6m/s | -15.2°C | 71.6% | 511.8hPa | 2.6V | 02:01:00 | 00:00:00 | 00:00:00 | |
| OE5DRO-10 | 2026-09-02 05:12:31 | 47.69115 | 11.94587 | 112° | 51km/h | 5649m | -5.0m/s | -15.3°C | 71.0% | 511.0hPa | 2.7V | 00:00:00 | 00:00:00 | 00:00:00 | |
| DO3MHA-11 | 2026-09-02 05:12:25 | 47.69139 | 11.94484 | 105° | 53km/h | 5677m | -6.9m/s | -15.5°C | 77.4% | 509.2hPa | 2.7V | 02:01:00 | 01:31:36 | 00:00:00 | |
| BAUMI2-15 | 2026-09-02 05:12:20 | 47.69162 | 11.94393 | 97° | 53km/h | 5707m | -7.5m/s | -15.7°C | 76.9% | 507.6hPa | 2.7V | 02:01:00 | 01:31:31 | 00:00:00 | |
| DG1MFX-10 | 2026-09-02 05:12:19 | 47.69162 | 11.94393 | 97° | 53km/h | 5707m | -7.6m/s | -15.8°C | 73.7% | 507.7hPa | 2.7V | 02:02:00 | 00:00:00 | 00:00:00 | |
| DO3MHA-12 | 2026-09-02 05:12:15 | 47.69187 | 11.94302 | 124° | 57km/h | 5735m | -6.3m/s | -15.9°C | 74.5% | 506.0hPa | 2.7V | 00:00:00 | 01:31:26 | 00:00:00 | |
| NBG1-10 | 2026-09-02 05:12:14 | 47.69193 | 11.94284 | 103° | 55km/h | 5741m | -3.8m/s | -15.9°C | 73.5% | 505.8hPa | 2.7V | 00:00:00 | 01:31:25 | 00:00:00 | |
| OE5DXL-15 | 2026-09-02 05:12:11 | 47.69209 | 11.94227 | 109° | 58km/h | 5756m | -2.9m/s | -15.9°C | 73.2% | 504.7hPa | 2.7V | 02:01:00 | 00:00:00 | 00:00:00 | |
| BAUMI2-15 | 2026-09-02 05:12:10 | 47.69216 | 11.94207 | 122° | 57km/h | 5761m | -6.6m/s | -16.0°C | 72.4% | 504.6hPa | 2.7V | 00:00:00 | 01:31:21 | 00:00:00 | |
| DO3MHA-12 | 2026-09-02 05:12:05 | 47.69246 | 11.94110 | 116° | 55km/h | 5787m | -4.6m/s | -16.0°C | 65.8% | 503.1hPa | 2.7V | 00:00:00 | 01:31:16 | 00:00:00 | |
| OE3JTB-15 | 2026-09-02 05:12:04 | 47.69253 | 11.94092 | 126° | 57km/h | 5792m | -3.7m/s | -16.0°C | 65.6% | 502.7hPa | 2.7V | 00:00:00 | 00:00:00 | 00:00:00 | |
| BAUMI2-15 | 2026-09-02 05:12:00 | 47.69277 | 11.94019 | 117° | 55km/h | 5806m | -3.0m/s | -16.1°C | 63.0% | 501.6hPa | 2.7V | 00:00:00 | 01:31:11 | 00:00:00 | |
| OE5DRO-10 | 2026-09-02 05:11:58 | 47.69288 | 11.93983 | 132° | 60km/h | 5816m | -4.2m/s | -16.1°C | 59.8% | 501.1hPa | 2.7V | 00:00:00 | 00:00:00 | 00:00:00 | |
| DO3MHA-11 | 2026-09-02 05:11:55 | 47.69308 | 11.93926 | 130° | 60km/h | 5828m | -4.3m/s | -16.1°C | 56.6% | 500.2hPa | 2.7V | 02:02:00 | 01:31:06 | 00:00:00 | |
| BAUMI2-15 | 2026-09-02 05:11:50 | 47.69340 | 11.93827 | 116° | 62km/h | 5851m | -4.4m/s | -16.1°C | 51.0% | 498.7hPa | 2.7V | 02:02:00 | 01:31:01 | 00:00:00 | |
| DO3MHA-11 | 2026-09-02 05:11:45 | 47.69371 | 11.93723 | 107° | 57km/h | 5886m | -7.5m/s | -16.0°C | 42.7% | 496.6hPa | 2.6V | 00:00:00 | 01:30:56 | 00:00:00 | |
| OE5DRO-10 | 2026-09-02 05:11:42 | 47.69390 | 11.93659 | 113° | 53km/h | 5903m | -3.2m/s | -15.6°C | 32.4% | 495.5hPa | 2.6V | 00:00:00 | 00:00:00 | 00:00:00 | |
| OE5DXL-15 | 2026-09-02 05:11:41 | 47.69395 | 11.93639 | 113° | 55km/h | 5908m | -3.2m/s | -15.4°C | 28.2% | 495.1hPa | 2.6V | 00:00:00 | 00:00:00 | 00:00:00 | |
| BAUMI2-15 | 2026-09-02 05:11:40 | 47.69401 | 11.93619 | 119° | 55km/h | 5911m | -1.0m/s | -15.4°C | 27.3% | 494.8hPa | 2.6V | 00:00:00 | 01:30:51 | 00:00:00 | |
| DG1MFX-10 | 2026-09-02 05:11:38 | 47.69407 | 11.93599 | 112° | 55km/h | 5912m | -2.2m/s | -15.5°C | 25.9% | 494.6hPa | 2.6V | 02:03:00 | 00:00:00 | 00:00:00 | |
| DO3MHA-12 | 2026-09-02 05:11:35 | 47.69428 | 11.93522 | 112° | 53km/h | 5926m | -5.6m/s | -15.5°C | 25.4% | 493.5hPa | 2.6V | 00:00:00 | 01:30:46 | 00:00:00 | |
| BAUMI2-15 | 2026-09-02 05:11:30 | 47.69449 | 11.93428 | 110° | 49km/h | 5949m | -4.1m/s | -15.5°C | 24.1% | 492.0hPa | 2.6V | 00:00:00 | 01:30:41 | 00:00:00 | |
| OE5DRO-10 | 2026-09-02 05:11:26 | 47.69464 | 11.93359 | 114° | 55km/h | 5968m | -5.1m/s | -15.5°C | 26.1% | 490.7hPa | 2.6V | 02:02:00 | 00:00:00 | 00:00:00 | |
| DO3MHA-12 | 2026-09-02 05:11:25 | 47.69468 | 11.93338 | 100° | 55km/h | 5973m | -4.6m/s | -15.5°C | 26.7% | 490.4hPa | 2.6V | 02:02:00 | 01:30:36 | 00:00:00 | |
| BAUMI2-15 | 2026-09-02 05:11:20 | 47.69492 | 11.93244 | 108° | 55km/h | 5991m | -4.7m/s | -15.3°C | 22.9% | 488.9hPa | 2.6V | 02:02:00 | 01:30:31 | 00:00:00 | |
| DG1MFX-10 | 2026-09-02 05:11:17 | 47.69499 | 11.93205 | 114° | 51km/h | 6000m | -4.1m/s | -15.4°C | 24.2% | 488.1hPa | 2.7V | 02:03:00 | 00:00:00 | 00:00:00 | |
| DO3MHA-12 | 2026-09-02 05:11:15 | 47.69511 | 11.93146 | 106° | 57km/h | 6015m | -5.4m/s | -15.6°C | 29.8% | 487.2hPa | 2.7V | 00:00:00 | 01:30:26 | 00:00:00 | |
| OE5DXL-15 | 2026-09-02 05:11:11 | 47.69530 | 11.93067 | 121° | 55km/h | 6037m | -5.2m/s | -15.7°C | 32.3% | 485.7hPa | 2.7V | 00:00:00 | 00:00:00 | 00:00:00 | |
| BAUMI2-15 | 2026-09-02 05:11:10 | 47.69536 | 11.93047 | 110° | 57km/h | 6041m | -3.8m/s | -15.8°C | 33.3% | 485.4hPa | 2.7V | 00:00:00 | 01:30:21 | 00:00:00 | |
| DL6DJ-15 | 2026-09-02 05:11:09 | 47.69541 | 11.93026 | 108° | 55km/h | 6045m | -5.4m/s | -15.9°C | 32.4% | 485.1hPa | 2.7V | 00:00:00 | 00:00:00 | 00:00:00 | |
| NBG1-10 | 2026-09-02 05:11:08 | 47.69546 | 11.93007 | 118° | 55km/h | 6051m | -6.1m/s | -15.9°C | 35.4% | 484.8hPa | 2.7V | 00:00:00 | 01:30:19 | 00:00:00 | |
| DO3MHA-11 | 2026-09-02 05:11:05 | 47.69560 | 11.92949 | 112° | 55km/h | 6068m | -7.8m/s | -16.0°C | 36.9% | 483.6hPa | 2.7V | 00:00:00 | 01:30:16 | 00:00:00 | |
| OE3JTB-15 | 2026-09-02 05:11:04 | 47.69566 | 11.92929 | 110° | 53km/h | 6075m | -7.4m/s | -16.1°C | 35.9% | 483.4hPa | 2.7V | 02:03:00 | 00:00:00 | 00:00:00 | |
| BAUMI2-15 | 2026-09-02 05:11:00 | 47.69586 | 11.92849 | 115° | 53km/h | 6099m | -4.8m/s | -16.2°C | 34.9% | 481.7hPa | 2.7V | 00:00:00 | 01:30:11 | 00:00:00 | |
| DG1MFX-10 | 2026-09-02 05:10:56 | 47.69601 | 11.92793 | 112° | 47km/h | 6115m | -8.2m/s | -16.4°C | 33.6% | 480.8hPa | 2.7V | 02:03:00 | 00:00:00 | 00:00:00 | |
| OE5DRO-10 | 2026-09-02 05:10:54 | 47.69614 | 11.92735 | 120° | 53km/h | 6129m | -7.2m/s | -16.5°C | 35.7% | 479.6hPa | 2.7V | 00:00:00 | 00:00:00 | 00:00:00 | |
| BAUMI2-15 | 2026-09-02 05:10:50 | 47.69634 | 11.92661 | 105° | 53km/h | 6147m | -8.3m/s | -16.7°C | 36.1% | 478.0hPa | 2.7V | 02:03:00 | 01:30:01 | 00:00:00 | |
| DO3MHA-11 | 2026-09-02 05:10:45 | 47.69655 | 11.92569 | 97° | 53km/h | 6176m | -7.3m/s | -16.9°C | 36.2% | 476.6hPa | 2.7V | 00:00:00 | 01:29:56 | 00:00:00 | |
| OE5DXL-15 | 2026-09-02 05:10:41 | 47.69669 | 11.92493 | 109° | 55km/h | 6198m | -7.0m/s | -17.0°C | 36.1% | 475.4hPa | 2.7V | 02:03:00 | 00:00:00 | 00:00:00 | |
| BAUMI2-15 | 2026-09-02 05:10:40 | 47.69673 | 11.92475 | 108° | 53km/h | 6204m | -6.6m/s | -17.1°C | 36.3% | 475.1hPa | 2.6V | 00:00:00 | 01:29:51 | 00:00:00 | |
| DL6DJ-15 | 2026-09-02 05:10:38 | 47.69690 | 11.92400 | 116° | 55km/h | 6232m | -7.2m/s | -17.3°C | 34.2% | 473.9hPa | 2.6V | 00:00:00 | 00:00:00 | 00:00:00 | |
| DO3MHA-11 | 2026-09-02 05:10:35 | 47.69694 | 11.92382 | 101° | 55km/h | 6238m | -3.6m/s | -17.2°C | 36.2% | 473.7hPa | 2.6V | 00:00:00 | 01:29:46 | 00:00:00 | |
| OE3JTB-15 | 2026-09-02 05:10:34 | 47.69698 | 11.92363 | 114° | 53km/h | 6242m | -5.3m/s | -17.3°C | 36.1% | 473.4hPa | 2.6V | 00:00:00 | 00:00:00 | 00:00:00 | |
| BAUMI2-15 | 2026-09-02 05:10:30 | 47.69716 | 11.92284 | 113° | 47km/h | 6264m | -4.3m/s | -17.4°C | 36.8% | 472.1hPa | 2.6V | 00:00:00 | 01:29:41 | 00:00:00 | |
| DO3MHA-11 | 2026-09-02 05:10:25 | 47.69736 | 11.92191 | 112° | 55km/h | 6289m | -4.6m/s | -17.6°C | 36.6% | 470.5hPa | 2.6V | 02:03:00 | 01:29:36 | 00:00:00 | |
| OE5DRO-10 | 2026-09-02 05:10:16 | 47.69767 | 11.92012 | 91° | 55km/h | 6334m | -4.2m/s | -17.9°C | 35.3% | 467.6hPa | 2.6V | 00:00:00 | 00:00:00 | 00:00:00 | |
| DO3MHA-12 | 2026-09-02 05:10:15 | 47.69770 | 11.91993 | 115° | 55km/h | 6339m | -5.1m/s | -18.0°C | 35.2% | 467.4hPa | 2.6V | 00:00:00 | 01:29:26 | 00:00:00 | |
| OE5DXL-15 | 2026-09-02 05:10:11 | 47.69782 | 11.91914 | 93° | 55km/h | 6358m | -4.9m/s | -18.1°C | 35.2% | 466.2hPa | 2.6V | 00:00:00 | 00:00:00 | 00:00:00 | |
| DO3MHA-12 | 2026-09-02 05:10:05 | 47.69802 | 11.91798 | 104° | 53km/h | 6390m | -4.5m/s | -18.4°C | 35.6% | 464.3hPa | 2.6V | 00:00:00 | 01:29:16 | 00:00:00 | |
| NBG1-10 | 2026-09-02 05:10:02 | 47.69810 | 11.91743 | 99° | 55km/h | 6411m | -6.9m/s | -18.6°C | 35.6% | 463.3hPa | 2.6V | 02:04:00 | 01:29:13 | 00:00:00 | |
| OE5DRO-10 | 2026-09-02 05:09:57 | 47.69829 | 11.91640 | 93° | 53km/h | 6437m | -3.5m/s | -18.8°C | 35.9% | 461.7hPa | 2.7V | 00:00:00 | 00:00:00 | 00:00:00 | |
| DO3MHA-11 | 2026-09-02 05:09:55 | 47.69835 | 11.91600 | 97° | 55km/h | 6444m | -5.0m/s | -18.9°C | 36.2% | 461.0hPa | 2.7V | 02:04:00 | 01:29:06 | 00:00:00 | |
| DO3MHA-11 | 2026-09-02 05:09:45 | 47.69865 | 11.91403 | 102° | 53km/h | 6488m | -4.5m/s | -19.2°C | 33.5% | 457.9hPa | 2.6V | 00:00:00 | 01:28:56 | 00:00:00 | |
| OE5DXL-15 | 2026-09-02 05:09:41 | 47.69875 | 11.91329 | 107° | 53km/h | 6499m | -5.4m/s | -19.4°C | 33.3% | 456.8hPa | 2.6V | 00:00:00 | 00:00:00 | 00:00:00 | |
| OE5DRO-10 | 2026-09-02 05:09:38 | 47.69884 | 11.91271 | 108° | 53km/h | 6511m | -5.3m/s | -19.5°C | 32.2% | 455.9hPa | 2.6V | 02:04:00 | 00:00:00 | 00:00:00 | |
| DL6DJ-15 | 2026-09-02 05:09:36 | 47.69893 | 11.91215 | 95° | 49km/h | 6524m | -3.7m/s | -19.6°C | 30.1% | 455.1hPa | 2.7V | 00:00:00 | 00:00:00 | 00:00:00 | |
| DO3MHA-12 | 2026-09-02 05:09:35 | 47.69892 | 11.91215 | 96° | 53km/h | 6524m | -3.7m/s | -19.6°C | 32.0% | 455.0hPa | 2.7V | 00:00:00 | 01:28:46 | 00:00:00 | |
| DG1MFX-10 | 2026-09-02 05:09:34 | 47.69892 | 11.91215 | 97° | 49km/h | 6524m | -3.7m/s | -19.6°C | 30.1% | 455.1hPa | 2.7V | 02:04:00 | 00:00:00 | 00:00:00 | |
| OE3JTB-15 | 2026-09-02 05:09:33 | 47.69897 | 11.91176 | 108° | 55km/h | 6534m | -4.7m/s | -19.7°C | 31.9% | 454.5hPa | 2.7V | 02:04:00 | 00:00:00 | 00:00:00 | |
| NBG1-10 | 2026-09-02 05:09:29 | 47.69911 | 11.91100 | 97° | 53km/h | 6553m | -6.7m/s | -19.9°C | 31.9% | 453.2hPa | 2.6V | 00:00:00 | 01:28:40 | 00:00:00 | |
| DO3MHA-12 | 2026-09-02 05:09:25 | 47.69921 | 11.91021 | 103° | 55km/h | 6568m | -5.6m/s | -20.0°C | 32.6% | 452.2hPa | 2.6V | 02:04:00 | 01:28:36 | 00:00:00 | |
| OE5DRO-10 | 2026-09-02 05:09:19 | 47.69938 | 11.90903 | 103° | 53km/h | 6605m | -10.2m/s | -20.4°C | 31.4% | 449.8hPa | 2.7V | 00:00:00 | 00:00:00 | 00:00:00 | |
| DO3MHA-12 | 2026-09-02 05:09:15 | 47.69951 | 11.90827 | 114° | 53km/h | 6636m | -8.2m/s | -20.6°C | 29.5% | 448.0hPa | 2.7V | 00:00:00 | 01:28:26 | 00:00:00 | |
| DG1MFX-10 | 2026-09-02 05:09:14 | 47.69950 | 11.90827 | 114° | 53km/h | 6636m | -8.3m/s | -20.6°C | 27.7% | 448.1hPa | 2.7V | 02:04:00 | 00:00:00 | 00:00:00 | |
| OE5DXL-15 | 2026-09-02 05:09:11 | 47.69963 | 11.90750 | 91° | 53km/h | 6665m | -9.7m/s | -20.8°C | 29.6% | 446.6hPa | 2.7V | 02:04:00 | 00:00:00 | 00:00:00 | |
| DL6DJ-15 | 2026-09-02 05:09:05 | 47.69990 | 11.90613 | 99° | 51km/h | 6713m | -8.4m/s | -21.2°C | 28.8% | 443.7hPa | 2.7V | 00:00:00 | 00:00:00 | 00:00:00 | |
| OE3JTB-15 | 2026-09-02 05:09:03 | 47.69993 | 11.90595 | 109° | 53km/h | 6720m | -6.4m/s | -21.2°C | 30.9% | 443.4hPa | 2.7V | 00:00:00 | 00:00:00 | 00:00:00 | |
| OE5DRO-10 | 2026-09-02 05:09:00 | 47.70006 | 11.90540 | 123° | 53km/h | 6735m | -4.7m/s | -21.3°C | 31.1% | 442.5hPa | 2.7V | 00:00:00 | 00:00:00 | 00:00:00 | |
| DO3MHA-12 | 2026-09-02 05:08:55 | 47.70029 | 11.90451 | 118° | 53km/h | 6761m | -7.4m/s | -21.6°C | 31.3% | 440.8hPa | 2.7V | 02:05:00 | 01:28:06 | 00:00:00 | |
| DG1MFX-10 | 2026-09-02 05:08:53 | 47.70033 | 11.90432 | 102° | 49km/h | 6769m | -6.6m/s | -21.7°C | 29.3% | 440.5hPa | 2.7V | 02:05:00 | 00:00:00 | 00:00:00 | |
| DO3MHA-12 | 2026-09-02 05:08:45 | 47.70075 | 11.90263 | 110° | 51km/h | 6823m | -6.2m/s | -22.0°C | 32.2% | 437.8hPa | 2.7V | 00:00:00 | 01:27:56 | 00:00:00 | |
| OE5DXL-15 | 2026-09-02 05:08:41 | 47.70092 | 11.90190 | 97° | 51km/h | 6843m | -6.6m/s | -22.3°C | 32.6% | 436.4hPa | 2.7V | 00:00:00 | 00:00:00 | 00:00:00 | |
| DO3MHA-12 | 2026-09-02 05:08:35 | 47.70119 | 11.90084 | 110° | 53km/h | 6881m | -4.7m/s | -22.6°C | 33.4% | 434.4hPa | 2.7V | 00:00:00 | 01:27:46 | 00:00:00 | |
| OE3JTB-15 | 2026-09-02 05:08:34 | 47.70124 | 11.90066 | 120° | 51km/h | 6887m | -6.3m/s | -22.7°C | 33.5% | 434.1hPa | 2.7V | 00:00:00 | 01:27:45 | 00:00:00 | |
| DG1MFX-10 | 2026-09-02 05:08:32 | 47.70127 | 11.90049 | 98° | 57km/h | 6892m | -4.3m/s | -22.8°C | 31.4% | 433.9hPa | 2.7V | 02:05:00 | 00:00:00 | 00:00:00 | |
| DO3MHA-11 | 2026-09-02 05:08:25 | 47.70163 | 11.89901 | 117° | 51km/h | 6938m | -6.2m/s | -23.1°C | 34.7% | 431.2hPa | 2.7V | 02:05:00 | 01:27:36 | 00:00:00 | |
| NBG1-10 | 2026-09-02 05:08:23 | 47.70178 | 11.89847 | 112° | 51km/h | 6952m | -7.4m/s | -23.3°C | 34.9% | 430.2hPa | 2.7V | 02:05:00 | 01:27:33 | 00:00:00 | |
| OE5DRO-10 | 2026-09-02 05:08:22 | 47.70178 | 11.89847 | 112° | 51km/h | 6952m | -7.4m/s | -23.3°C | 34.9% | 430.2hPa | 2.6V | 00:00:00 | 00:00:00 | 00:00:00 | |
| BAUMI2-15 | 2026-09-02 05:08:18 | 47.70194 | 11.89775 | 113° | 51km/h | 6976m | -4.4m/s | -23.5°C | 35.1% | 429.0hPa | 2.6V | 02:05:00 | 01:27:29 | 00:00:00 | |
| DO3MHA-12 | 2026-09-02 05:08:15 | 47.70208 | 11.89722 | 114° | 53km/h | 6991m | -4.6m/s | -23.6°C | 35.2% | 427.9hPa | 2.6V | 00:00:00 | 01:27:26 | 00:00:00 | |
| BAUMI2-15 | 2026-09-02 05:08:13 | 47.70218 | 11.89686 | 115° | 51km/h | 7002m | -4.4m/s | -23.7°C | 35.2% | 427.4hPa | 2.6V | 00:00:00 | 01:27:24 | 00:00:00 | |
| OE5DXL-15 | 2026-09-02 05:08:11 | 47.70225 | 11.89651 | 118° | 51km/h | 7010m | -3.7m/s | -23.8°C | 35.7% | 426.8hPa | 2.6V | 00:00:00 | 00:00:00 | 00:00:00 | |
| DG1MFX-10 | 2026-09-02 05:08:10 | 47.70225 | 11.89651 | 119° | 44km/h | 7010m | -3.7m/s | -23.9°C | 33.3% | 426.8hPa | 2.6V | 02:06:00 | 00:00:00 | 00:00:00 | |
| BAUMI2-15 | 2026-09-02 05:08:08 | 47.70237 | 11.89596 | 116° | 53km/h | 7024m | -4.6m/s | -24.0°C | 36.1% | 425.9hPa | 2.6V | 00:00:00 | 01:27:19 | 00:00:00 | |
| DO3MHA-12 | 2026-09-02 05:08:05 | 47.70251 | 11.89540 | 98° | 51km/h | 7043m | -5.5m/s | -24.1°C | 36.5% | 424.9hPa | 2.6V | 00:00:00 | 01:27:16 | 00:00:00 | |
| BAUMI2-15 | 2026-09-02 05:08:03 | 47.70260 | 11.89503 | 105° | 49km/h | 7052m | -3.7m/s | -24.2°C | 36.7% | 424.2hPa | 2.6V | 02:06:00 | 01:27:14 | 00:00:00 | |
| DL6DJ-15 | 2026-09-02 05:08:02 | 47.70265 | 11.89487 | 119° | 44km/h | 7056m | -4.5m/s | -24.3°C | 34.1% | 424.1hPa | 2.7V | 00:00:00 | 00:00:00 | 00:00:00 | |
| BAUMI2-15 | 2026-09-02 05:07:58 | 47.70280 | 11.89417 | 95° | 51km/h | 7073m | -4.7m/s | -24.4°C | 36.6% | 422.8hPa | 2.7V | 00:00:00 | 01:27:09 | 00:00:00 | |
| DO3MHA-12 | 2026-09-02 05:07:55 | 47.70290 | 11.89361 | 98° | 49km/h | 7086m | -5.4m/s | -24.5°C | 36.3% | 421.8hPa | 2.7V | 02:06:00 | 01:27:06 | 00:00:00 | |
| BAUMI2-15 | 2026-09-02 05:07:53 | 47.70299 | 11.89325 | 97° | 49km/h | 7096m | -5.9m/s | -24.6°C | 36.2% | 421.2hPa | 2.6V | 00:00:00 | 01:27:04 | 00:00:00 | |
| NBG1-10 | 2026-09-02 05:07:49 | 47.70310 | 11.89256 | 113° | 57km/h | 7117m | -3.7m/s | -24.7°C | 36.2% | 420.0hPa | 2.6V | 00:00:00 | 01:27:00 | 00:00:00 | |
| BAUMI2-15 | 2026-09-02 05:07:48 | 47.70315 | 11.89239 | 113° | 51km/h | 7122m | -5.8m/s | -24.8°C | 36.2% | 419.8hPa | 2.6V | 02:06:00 | 01:26:59 | 00:00:00 | |
| DO3MHA-11 | 2026-09-02 05:07:45 | 47.70326 | 11.89184 | 108° | 53km/h | 7135m | -4.1m/s | -24.9°C | 36.7% | 418.9hPa | 2.7V | 00:00:00 | 01:26:56 | 00:00:00 | |
| BAUMI2-15 | 2026-09-02 05:07:43 | 47.70333 | 11.89146 | 111° | 53km/h | 7145m | -4.6m/s | -25.0°C | 36.3% | 418.4hPa | 2.7V | 00:00:00 | 01:26:54 | 00:00:00 | |
| DG1MJG | 2026-09-02 05:07:42 | 47.70333 | 11.89146 | 111° | 47km/h | 7145m | -4.7m/s | -25.0°C | 33.7% | 418.4hPa | 2.7V | 02:06:00 | 00:00:00 | 00:00:00 | |
| OE5DXL-15 | 2026-09-02 05:07:41 | 47.70340 | 11.89108 | 97° | 55km/h | 7153m | -4.8m/s | -25.0°C | 35.2% | 417.9hPa | 2.7V | 02:06:00 | 00:00:00 | 00:00:00 | |
| BAUMI2-15 | 2026-09-02 05:07:38 | 47.70349 | 11.89050 | 111° | 55km/h | 7166m | -4.8m/s | -25.1°C | 34.5% | 416.9hPa | 2.6V | 00:00:00 | 01:26:49 | 00:00:00 | |
| OE3JTB-15 | 2026-09-02 05:07:36 | 47.70356 | 11.89010 | 95° | 55km/h | 7176m | -6.4m/s | -25.2°C | 34.5% | 416.2hPa | 2.6V | 00:00:00 | 00:00:00 | 00:00:00 | |
| DO3MHA-12 | 2026-09-02 05:07:35 | 47.70360 | 11.88988 | 113° | 55km/h | 7182m | -6.0m/s | -25.2°C | 34.6% | 416.0hPa | 2.6V | 00:00:00 | 01:26:46 | 00:00:00 | |
| BAUMI2-15 | 2026-09-02 05:07:33 | 47.70366 | 11.88952 | 104° | 55km/h | 7190m | -4.9m/s | -25.3°C | 34.9% | 415.4hPa | 2.6V | 02:06:00 | 01:26:44 | 00:00:00 | |
| DL6DJ-15 | 2026-09-02 05:07:31 | 47.70372 | 11.88912 | 90° | 51km/h | 7199m | -7.7m/s | -25.5°C | 32.3% | 414.9hPa | 2.7V | 00:00:00 | 00:00:00 | 00:00:00 | |
| BAUMI2-15 | 2026-09-02 05:07:28 | 47.70383 | 11.88852 | 96° | 57km/h | 7217m | -7.0m/s | -25.6°C | 34.9% | 414.1hPa | 2.7V | 00:00:00 | 01:26:39 | 00:00:00 | |
| DO3MHA-12 | 2026-09-02 05:07:25 | 47.70392 | 11.88790 | 105° | 57km/h | 7240m | -7.6m/s | -25.7°C | 35.0% | 413.1hPa | 2.7V | 02:06:00 | 01:26:36 | 00:00:00 | |
| OE5DRO-10 | 2026-09-02 05:07:24 | 47.70397 | 11.88771 | 113° | 55km/h | 7247m | -5.7m/s | -25.7°C | 35.1% | 412.8hPa | 2.6V | 00:00:00 | 00:00:00 | 00:00:00 | |
| BAUMI2-15 | 2026-09-02 05:07:23 | 47.70400 | 11.88752 | 99° | 55km/h | 7254m | -6.3m/s | -25.8°C | 35.2% | 412.6hPa | 2.6V | 00:00:00 | 01:26:34 | 00:00:00 | |
| BAUMI2-15 | 2026-09-02 05:07:18 | 47.70418 | 11.88653 | 94° | 57km/h | 7282m | -5.5m/s | -26.0°C | 35.2% | 411.0hPa | 2.6V | 02:06:00 | 01:26:29 | 00:00:00 | |
| DO3MHA-12 | 2026-09-02 05:07:15 | 47.70430 | 11.88595 | 96° | 57km/h | 7299m | -6.5m/s | -26.2°C | 35.5% | 410.2hPa | 2.7V | 00:00:00 | 01:26:26 | 00:00:00 | |
| BAUMI2-15 | 2026-09-02 05:07:13 | 47.70436 | 11.88552 | 100° | 55km/h | 7309m | -4.2m/s | -26.3°C | 35.8% | 409.6hPa | 2.7V | 00:00:00 | 01:26:24 | 00:00:00 | |
| DG1MJG | 2026-09-02 05:07:12 | 47.70436 | 11.88552 | 100° | 58km/h | 7309m | -4.3m/s | -26.3°C | 33.1% | 409.6hPa | 2.7V | 02:07:00 | 00:00:00 | 00:00:00 | |
| OE5DXL-15 | 2026-09-02 05:07:11 | 47.70442 | 11.88513 | 103° | 57km/h | 7318m | -5.6m/s | -26.4°C | 35.8% | 409.2hPa | 2.7V | 00:00:00 | 00:00:00 | 00:00:00 | |
| DG1MFX-10 | 2026-09-02 05:07:08 | 47.70448 | 11.88473 | 106° | 51km/h | 7328m | -4.2m/s | -26.5°C | 33.6% | 408.6hPa | 2.7V | 02:07:00 | 00:00:00 | 00:00:00 | |
| NBG1-10 | 2026-09-02 05:07:07 | 47.70454 | 11.88434 | 106° | 57km/h | 7336m | -3.9m/s | -26.5°C | 36.4% | 408.0hPa | 2.7V | 00:00:00 | 01:26:18 | 00:00:00 | |
| DO3MHA-11 | 2026-09-02 05:07:05 | 47.70463 | 11.88392 | 100° | 57km/h | 7347m | -5.2m/s | -26.6°C | 36.5% | 407.6hPa | 2.7V | 00:00:00 | 01:26:16 | 00:00:00 | |
| DL6DJ-15 | 2026-09-02 05:07:00 | 47.70477 | 11.88294 | 98° | 64km/h | 7368m | -4.0m/s | -26.9°C | 33.6% | 406.4hPa | 2.7V | 00:00:00 | 00:00:00 | 00:00:00 | |
| BAUMI2-15 | 2026-09-02 05:06:58 | 47.70484 | 11.88253 | 93° | 57km/h | 7376m | -6.2m/s | -26.9°C | 36.3% | 405.7hPa | 2.7V | 00:00:00 | 01:26:09 | 00:00:00 | |
| DO3MHA-12 | 2026-09-02 05:06:55 | 47.70493 | 11.88192 | 98° | 57km/h | 7392m | -3.9m/s | -27.1°C | 36.0% | 404.9hPa | 2.7V | 02:07:00 | 01:26:06 | 00:00:00 | |
| BAUMI2-15 | 2026-09-02 05:06:53 | 47.70500 | 11.88151 | 93° | 55km/h | 7403m | -4.7m/s | -27.2°C | 35.8% | 404.3hPa | 2.6V | 00:00:00 | 01:26:04 | 00:00:00 | |
| BAUMI2-15 | 2026-09-02 05:06:48 | 47.70517 | 11.88047 | 104° | 58km/h | 7424m | -4.1m/s | -27.3°C | 33.5% | 402.9hPa | 2.6V | 02:07:00 | 01:25:59 | 00:00:00 | |
| DG1MFX-10 | 2026-09-02 05:06:47 | 47.70517 | 11.88047 | 104° | 69km/h | 7424m | -4.2m/s | -27.4°C | 30.9% | 403.0hPa | 2.6V | 02:07:00 | 00:00:00 | 00:00:00 | |
| OE5DRO-10 | 2026-09-02 05:06:46 | 47.70522 | 11.88006 | 104° | 60km/h | 7430m | -2.7m/s | -27.4°C | 33.4% | 402.4hPa | 2.6V | 02:07:00 | 00:00:00 | 00:00:00 | |
| DO3MHA-12 | 2026-09-02 05:06:45 | 47.70527 | 11.87982 | 106° | 58km/h | 7433m | -6.3m/s | -27.4°C | 33.4% | 402.1hPa | 2.7V | 00:00:00 | 01:25:56 | 00:00:00 | |
| BAUMI2-15 | 2026-09-02 05:06:43 | 47.70536 | 11.87940 | 105° | 60km/h | 7441m | -3.8m/s | -27.5°C | 33.0% | 401.6hPa | 2.7V | 00:00:00 | 01:25:54 | 00:00:00 | |
| OE5DXL-15 | 2026-09-02 05:06:41 | 47.70544 | 11.87895 | 123° | 60km/h | 7447m | -1.9m/s | -27.6°C | 31.1% | 401.1hPa | 2.7V | 00:00:00 | 00:00:00 | 00:00:00 | |
| DG1MJG | 2026-09-02 05:06:40 | 47.70544 | 11.87895 | 124° | 55km/h | 7447m | -2.0m/s | -27.6°C | 28.5% | 401.2hPa | 2.7V | 02:07:00 | 00:00:00 | 00:00:00 | |
| BAUMI2-15 | 2026-09-02 05:06:38 | 47.70558 | 11.87830 | 106° | 62km/h | 7456m | -5.2m/s | -27.7°C | 29.9% | 400.4hPa | 2.7V | 00:00:00 | 01:25:49 | 00:00:00 | |
| DO3MHA-11 | 2026-09-02 05:06:35 | 47.70572 | 11.87763 | 113° | 60km/h | 7470m | -5.9m/s | -27.8°C | 27.6% | 399.5hPa | 2.7V | 00:00:00 | 01:25:46 | 00:00:00 | |
| NBG1-10 | 2026-09-02 05:06:34 | 47.70576 | 11.87742 | 102° | 58km/h | 7475m | -5.6m/s | -27.8°C | 26.9% | 399.2hPa | 2.7V | 02:07:00 | 01:25:45 | 00:00:00 | |
| BAUMI2-15 | 2026-09-02 05:06:33 | 47.70581 | 11.87718 | 108° | 60km/h | 7480m | -6.7m/s | -27.8°C | 26.5% | 399.0hPa | 2.7V | 02:07:00 | 01:25:44 | 00:00:00 | |
| DL6DJ-15 | 2026-09-02 05:06:29 | 47.70600 | 11.87632 | 103° | 44km/h | 7504m | -6.2m/s | -28.0°C | 24.1% | 397.8hPa | 2.7V | 00:00:00 | 00:00:00 | 00:00:00 | |
| BAUMI2-15 | 2026-09-02 05:06:28 | 47.70604 | 11.87612 | 108° | 60km/h | 7510m | -7.0m/s | -28.0°C | 26.6% | 397.5hPa | 2.7V | 00:00:00 | 01:25:39 | 00:00:00 | |
| OE5DRO-10 | 2026-09-02 05:06:27 | 47.70608 | 11.87592 | 100° | 58km/h | 7515m | -5.2m/s | -28.0°C | 26.6% | 397.3hPa | 2.7V | 00:00:00 | 00:00:00 | 00:00:00 | |
| DG1MFX-10 | 2026-09-02 05:06:26 | 47.70608 | 11.87592 | 100° | 49km/h | 7515m | -5.3m/s | -28.1°C | 24.2% | 397.3hPa | 2.7V | 02:08:00 | 00:00:00 | 00:00:00 | |
| DO3MHA-11 | 2026-09-02 05:06:25 | 47.70616 | 11.87548 | 97° | 62km/h | 7526m | -4.8m/s | -28.1°C | 26.8% | 396.7hPa | 2.7V | 02:07:00 | 01:25:36 | 00:00:00 | |
| DO3MHA-12 | 2026-09-02 05:06:15 | 47.70656 | 11.87331 | 101° | 60km/h | 7564m | -7.2m/s | -28.5°C | 28.0% | 393.9hPa | 2.6V | 00:00:00 | 01:25:26 | 00:00:00 | |
| OE5DXL-15 | 2026-09-02 05:06:11 | 47.70671 | 11.87247 | 96° | 60km/h | 7592m | -5.5m/s | -28.7°C | 27.9% | 392.8hPa | 2.6V | 02:07:00 | 00:00:00 | 00:00:00 | |
| OE3JTB-15 | 2026-09-02 05:06:09 | 47.70680 | 11.87203 | 107° | 58km/h | 7601m | -7.7m/s | 0°C | 0% | 0hPa | 2.6V | 00:00:00 | 00:00:00 | 00:00:00 | |
| OE5DRO-10 | 2026-09-02 05:06:08 | 47.70683 | 11.87183 | 103° | 60km/h | 7607m | -6.7m/s | -28.8°C | 27.3% | 391.9hPa | 2.6V | 00:00:00 | 00:00:00 | 00:00:00 | |
| DG1MFX-10 | 2026-09-02 05:06:05 | 47.70693 | 11.87138 | 97° | 58km/h | 7618m | -6.9m/s | -29.0°C | 24.6% | 391.5hPa | 2.6V | 02:08:00 | 00:00:00 | 00:00:00 | |
| DO3MHA-12 | 2026-09-02 05:06:04 | 47.70701 | 11.87094 | 108° | 60km/h | 7632m | -6.9m/s | -29.0°C | 26.3% | 390.8hPa | 2.6V | 00:00:00 | 01:25:15 | 00:00:00 | |
| DO3MHA-11 | 2026-09-02 05:06:03 | 47.70705 | 11.87073 | 101° | 60km/h | 7639m | -7.1m/s | -29.0°C | 25.7% | 390.5hPa | 2.6V | 00:00:00 | 01:25:14 | 00:00:00 | |
| DL6DJ-15 | 2026-09-02 05:05:58 | 47.70728 | 11.86964 | 110° | 69km/h | 7669m | -4.9m/s | -29.2°C | 21.9% | 389.1hPa | 2.6V | 00:00:00 | 00:00:00 | 00:00:00 | |
| DO3MHA-11 | 2026-09-02 05:05:53 | 47.70753 | 11.86856 | 96° | 62km/h | 7702m | -6.5m/s | -29.2°C | 22.7% | 387.7hPa | 2.6V | 02:08:00 | 01:25:04 | 00:00:00 | |
| OE5DRO-10 | 2026-09-02 05:05:49 | 47.70771 | 11.86771 | 115° | 62km/h | 7731m | -9.0m/s | -29.3°C | 21.8% | 386.6hPa | 2.6V | 02:08:00 | 00:00:00 | 00:00:00 | |
| DG1MFX-10 | 2026-09-02 05:05:45 | 47.70784 | 11.86709 | 109° | 66km/h | 7747m | -5.9m/s | -29.5°C | 19.7% | 385.5hPa | 2.6V | 02:09:00 | 00:00:00 | 00:00:00 | |
| DO3MHA-12 | 2026-09-02 05:05:43 | 47.70796 | 11.86642 | 102° | 60km/h | 7765m | -4.9m/s | -29.5°C | 21.8% | 384.6hPa | 2.6V | 00:00:00 | 01:24:54 | 00:00:00 | |
| OE5DXL-15 | 2026-09-02 05:05:41 | 47.70805 | 11.86594 | 113° | 60km/h | 7776m | -6.5m/s | -29.6°C | 21.5% | 384.0hPa | 2.6V | 00:00:00 | 00:00:00 | 00:00:00 | |
| OE5WHR-10 | 2026-09-02 05:05:40 | 47.70809 | 11.86573 | 95° | 60km/h | 7782m | -4.3m/s | -29.6°C | 21.6% | 383.7hPa | 2.6V | 00:00:00 | 00:00:00 | 00:00:00 | |
| DG1MJG | 2026-09-02 05:05:39 | 47.70809 | 11.86573 | 96° | 53km/h | 7782m | -4.4m/s | -29.7°C | 19.5% | 383.8hPa | 2.6V | 02:09:00 | 00:00:00 | 00:00:00 | |
| DO3MHA-12 | 2026-09-02 05:05:33 | 47.70832 | 11.86418 | 104° | 60km/h | 7818m | -4.6m/s | -29.9°C | 21.5% | 381.7hPa | 2.6V | 00:00:00 | 01:24:44 | 00:00:00 | |
| OE5DRO-10 | 2026-09-02 05:05:30 | 47.70846 | 11.86352 | 97° | 60km/h | 7835m | -4.7m/s | -30.0°C | 20.7% | 380.9hPa | 2.6V | 00:00:00 | 00:00:00 | 00:00:00 | |
| NBG1-10 | 2026-09-02 05:05:27 | 47.70858 | 11.86287 | 97° | 60km/h | 7850m | -3.3m/s | -30.1°C | 19.7% | 380.0hPa | 2.6V | 00:00:00 | 01:24:38 | 00:00:00 | |
| DO3MHA-12 | 2026-09-02 05:05:23 | 47.70876 | 11.86203 | 112° | 60km/h | 7870m | -5.1m/s | -30.2°C | 17.9% | 378.8hPa | 2.6V | 02:08:00 | 01:24:34 | 00:00:00 | |
| DO3MHA-11 | 2026-09-02 05:05:13 | 47.70920 | 11.85988 | 108° | 58km/h | 7919m | -4.3m/s | -30.3°C | 13.5% | 376.1hPa | 2.6V | 00:00:00 | 01:24:24 | 00:00:00 | |
| OE5DXL-15 | 2026-09-02 05:05:11 | 47.70931 | 11.85946 | 114° | 58km/h | 7925m | -3.8m/s | -30.3°C | 13.4% | 375.7hPa | 2.6V | 00:00:00 | 01:24:22 | 00:00:00 | |
| DG1MJG | 2026-09-02 05:05:08 | 47.70942 | 11.85904 | 113° | 57km/h | 7933m | -3.9m/s | -30.5°C | 11.7% | 375.2hPa | 2.6V | 02:09:00 | 00:00:00 | 00:00:00 | |
| OE3JTB-15 | 2026-09-02 05:05:04 | 47.70966 | 11.85802 | 113° | 62km/h | 7952m | -4.4m/s | 0°C | 0% | 0hPa | 2.6V | 02:09:00 | 00:00:00 | 00:00:00 | |
| DO3MHA-12 | 2026-09-02 05:05:03 | 47.70971 | 11.85782 | 108° | 58km/h | 7956m | -5.6m/s | -30.6°C | 12.9% | 373.5hPa | 2.6V | 00:00:00 | 01:24:14 | 00:00:00 | |
| DL6DJ-15 | 2026-09-02 05:04:56 | 47.71013 | 11.85650 | 126° | 53km/h | 7993m | -5.9m/s | -30.6°C | 10.1% | 371.5hPa | 2.6V | 00:00:00 | 00:00:00 | 00:00:00 | |
| DO3MHA-12 | 2026-09-02 05:04:53 | 47.71033 | 11.85590 | 110° | 60km/h | 8007m | -6.4m/s | -30.7°C | 11.4% | 370.6hPa | 2.6V | 02:09:00 | 01:24:04 | 00:00:00 | |
| OE5DRO-10 | 2026-09-02 05:04:52 | 47.71039 | 11.85571 | 121° | 60km/h | 8013m | -5.8m/s | -30.7°C | 11.3% | 370.3hPa | 2.7V | 02:09:00 | 00:00:00 | 00:00:00 | |
| DO3MHA-12 | 2026-09-02 05:04:43 | 47.71109 | 11.85399 | 113° | 62km/h | 8063m | -6.5m/s | -30.9°C | 10.1% | 367.8hPa | 2.6V | 00:00:00 | 01:23:54 | 00:00:00 | |
| DG1MFX-10 | 2026-09-02 05:04:42 | 47.71109 | 11.85399 | 113° | 53km/h | 8063m | -6.5m/s | -30.9°C | 8.7% | 367.9hPa | 2.6V | 02:10:00 | 00:00:00 | 00:00:00 | |
| OE5DXL-15 | 2026-09-02 05:04:41 | 47.71127 | 11.85359 | 133° | 64km/h | 8074m | -5.9m/s | -30.9°C | 9.9% | 367.2hPa | 2.6V | 02:09:00 | 00:00:00 | 00:00:00 | |
| DG1MJG | 2026-09-02 05:04:38 | 47.71144 | 11.85319 | 134° | 64km/h | 8085m | -7.2m/s | -31.0°C | 8.5% | 366.7hPa | 2.7V | 00:00:00 | 00:00:00 | 00:00:00 | |
| DO3MHA-11 | 2026-09-02 05:04:33 | 47.71196 | 11.85203 | 126° | 64km/h | 8120m | -7.9m/s | -31.3°C | 10.0% | 365.0hPa | 2.7V | 00:00:00 | 01:23:44 | 00:00:00 | |
| DL6DJ-15 | 2026-09-02 05:04:25 | 47.71265 | 11.85041 | 126° | 57km/h | 8165m | -7.2m/s | -31.6°C | 8.2% | 362.6hPa | 2.7V | 00:00:00 | 00:00:00 | 00:00:00 | |
| BAUMI2-15 | 2026-09-02 05:04:24 | 47.71274 | 11.85021 | 120° | 62km/h | 8171m | -6.7m/s | -31.5°C | 9.6% | 362.4hPa | 2.7V | 00:00:00 | 01:23:35 | 00:00:00 | |
| DO3MHA-12 | 2026-09-02 05:04:23 | 47.71284 | 11.85000 | 133° | 66km/h | 8178m | -6.7m/s | -31.6°C | 9.5% | 362.1hPa | 2.7V | 02:09:00 | 01:23:34 | 00:00:00 | |
| DG1MFX-10 | 2026-09-02 05:04:22 | 47.71284 | 11.85000 | 134° | 60km/h | 8178m | -6.8m/s | -31.6°C | 8.1% | 362.2hPa | 2.6V | 02:10:00 | 00:00:00 | 00:00:00 | |
| NBG1-10 | 2026-09-02 05:04:20 | 47.71310 | 11.84942 | 117° | 68km/h | 8200m | -8.1m/s | -31.7°C | 9.3% | 361.3hPa | 2.6V | 00:00:00 | 01:23:31 | 00:00:00 | |
| BAUMI2-15 | 2026-09-02 05:04:19 | 47.71318 | 11.84920 | 125° | 68km/h | 8208m | -8.5m/s | -31.7°C | 9.3% | 361.0hPa | 2.6V | 02:09:00 | 01:23:30 | 00:00:00 | |
| BAUMI2-15 | 2026-09-02 05:04:14 | 47.71368 | 11.84817 | 120° | 69km/h | 8249m | -8.0m/s | -31.9°C | 9.1% | 359.2hPa | 2.6V | 00:00:00 | 01:23:25 | 00:00:00 | |
| DO3MHA-12 | 2026-09-02 05:04:13 | 47.71377 | 11.84797 | 132° | 73km/h | 8257m | -6.0m/s | -32.0°C | 9.2% | 358.9hPa | 2.6V | 00:00:00 | 01:23:24 | 00:00:00 | |
| OE5DXL-15 | 2026-09-02 05:04:11 | 47.71397 | 11.84756 | 125° | 71km/h | 8271m | -6.1m/s | -32.1°C | 9.2% | 358.1hPa | 2.6V | 00:00:00 | 00:00:00 | 00:00:00 | |
| BAUMI2-15 | 2026-09-02 05:04:09 | 47.71417 | 11.84713 | 124° | 71km/h | 8283m | -7.7m/s | -32.2°C | 9.2% | 357.6hPa | 2.6V | 00:00:00 | 01:23:20 | 00:00:00 | |
| BAUMI2-15 | 2026-09-02 05:04:04 | 47.71471 | 11.84605 | 116° | 73km/h | 8313m | -6.3m/s | -32.5°C | 9.6% | 355.9hPa | 2.6V | 02:10:00 | 01:23:15 | 00:00:00 | |
| DG1MFX-10 | 2026-09-02 05:04:01 | 47.71492 | 11.84562 | 118° | 77km/h | 8324m | -4.7m/s | -32.7°C | 8.4% | 355.2hPa | 2.7V | 02:10:00 | 00:00:00 | 00:00:00 | |
| OE3JTB-15 | 2026-09-02 05:04:00 | 47.71515 | 11.84518 | 122° | 77km/h | 8335m | -6.8m/s | 0°C | 0% | 0hPa | 2.7V | 00:00:00 | 01:23:11 | 00:00:00 | |
| BAUMI2-15 | 2026-09-02 05:03:59 | 47.71524 | 11.84497 | 132° | 71km/h | 8343m | -5.0m/s | -32.7°C | 10.4% | 354.3hPa | 2.7V | 00:00:00 | 01:23:10 | 00:00:00 | |
| OE5DRO-10 | 2026-09-02 05:03:55 | 47.71570 | 11.84412 | 120° | 73km/h | 8367m | -5.0m/s | -32.9°C | 10.1% | 353.2hPa | 2.7V | 02:10:00 | 00:00:00 | 00:00:00 | |
| BAUMI2-15 | 2026-09-02 05:03:54 | 47.71580 | 11.84392 | 139° | 75km/h | 8374m | -5.7m/s | -33.0°C | 10.1% | 353.0hPa | 2.5V | 00:00:00 | 01:23:05 | 00:00:00 | |
| DO3MHA-11 | 2026-09-02 05:03:53 | 47.71592 | 11.84371 | 126° | 75km/h | 8380m | -4.1m/s | -33.1°C | 10.1% | 352.5hPa | 2.5V | 02:10:00 | 01:23:04 | 00:00:00 | |
| BAUMI2-15 | 2026-09-02 05:03:49 | 47.71635 | 11.84285 | 141° | 71km/h | 8404m | -6.1m/s | -33.3°C | 10.0% | 351.4hPa | 2.7V | 02:10:00 | 01:23:00 | 00:00:00 | |
| NBG1-10 | 2026-09-02 05:03:46 | 47.71667 | 11.84220 | 129° | 73km/h | 8416m | -4.7m/s | -33.5°C | 10.2% | 350.4hPa | 2.7V | 00:00:00 | 01:22:57 | 00:00:00 | |
| BAUMI2-15 | 2026-09-02 05:03:44 | 47.71689 | 11.84177 | 133° | 73km/h | 8426m | -6.7m/s | -33.6°C | 10.5% | 349.9hPa | 2.7V | 00:00:00 | 01:22:55 | 00:00:00 | |
| DO3MHA-12 | 2026-09-02 05:03:42 | 47.71712 | 11.84129 | 131° | 71km/h | 8437m | -5.8m/s | -33.7°C | 10.7% | 349.4hPa | 2.7V | 00:00:00 | 01:22:53 | 00:00:00 | |
| OE5DXL-15 | 2026-09-02 05:03:41 | 47.71723 | 11.84110 | 130° | 71km/h | 8442m | -3.9m/s | -33.7°C | 10.8% | 349.1hPa | 2.7V | 00:00:00 | 00:00:00 | 00:00:00 | |
| BAUMI2-15 | 2026-09-02 05:03:39 | 47.71743 | 11.84066 | 118° | 73km/h | 8448m | -5.2m/s | -33.8°C | 11.0% | 348.6hPa | 2.7V | 00:00:00 | 01:22:50 | 00:00:00 | |
| BAUMI2-15 | 2026-09-02 05:03:34 | 47.71795 | 11.83954 | 119° | 69km/h | 8473m | -5.5m/s | -34.0°C | 11.8% | 347.0hPa | 2.7V | 02:10:00 | 01:22:45 | 00:00:00 | |
| DO3MHA-11 | 2026-09-02 05:03:32 | 47.71817 | 11.83912 | 123° | 69km/h | 8484m | -5.9m/s | -34.1°C | 12.1% | 346.5hPa | 2.6V | 00:00:00 | 01:22:43 | 00:00:00 | |
| BAUMI2-15 | 2026-09-02 05:03:29 | 47.71849 | 11.83850 | 119° | 71km/h | 8499m | -5.1m/s | -34.3°C | 12.4% | 345.6hPa | 2.6V | 00:00:00 | 01:22:40 | 00:00:00 | |
| OE3JTB-15 | 2026-09-02 05:03:27 | 47.71869 | 11.83807 | 120° | 73km/h | 8510m | -5.3m/s | 0°C | 0% | 0hPa | 2.6V | 02:10:00 | 00:00:00 | 00:00:00 | |
| BAUMI2-15 | 2026-09-02 05:03:24 | 47.71900 | 11.83741 | 116° | 73km/h | 8529m | -7.0m/s | -34.4°C | 13.9% | 344.3hPa | 2.6V | 00:00:00 | 01:22:35 | 00:00:00 | |
| DL6DJ-15 | 2026-09-02 05:03:23 | 47.71922 | 11.83700 | 128° | 80km/h | 8541m | -6.2m/s | -34.6°C | 12.0% | 343.7hPa | 2.6V | 00:00:00 | 00:00:00 | 00:00:00 | |
| DO3MHA-12 | 2026-09-02 05:03:22 | 47.71922 | 11.83700 | 129° | 75km/h | 8541m | -6.2m/s | -34.5°C | 14.1% | 343.7hPa | 2.6V | 02:10:00 | 01:22:33 | 00:00:00 | |
| DG1MFX-10 | 2026-09-02 05:03:20 | 47.71932 | 11.83678 | 121° | 66km/h | 8547m | -5.4m/s | -34.6°C | 12.0% | 343.6hPa | 2.7V | 02:10:00 | 00:00:00 | 00:00:00 | |
| BAUMI2-15 | 2026-09-02 05:03:19 | 47.71955 | 11.83633 | 127° | 75km/h | 8555m | -7.2m/s | -34.6°C | 13.9% | 342.8hPa | 2.7V | 02:10:00 | 01:22:30 | 00:00:00 | |
| OE5DRO-10 | 2026-09-02 05:03:15 | 47.71998 | 11.83540 | 133° | 71km/h | 8579m | -6.5m/s | -34.8°C | 13.3% | 341.8hPa | 2.7V | 00:00:00 | 00:00:00 | 00:00:00 | |
| BAUMI2-15 | 2026-09-02 05:03:14 | 47.72008 | 11.83519 | 120° | 73km/h | 8585m | -5.9m/s | -34.8°C | 13.0% | 341.5hPa | 2.7V | 00:00:00 | 01:22:25 | 00:00:00 | |
| NBG1-10 | 2026-09-02 05:03:13 | 47.72018 | 11.83496 | 123° | 75km/h | 8590m | -7.3m/s | -34.8°C | 13.0% | 341.3hPa | 2.7V | 02:10:00 | 01:22:24 | 00:00:00 | |
| DO3MHA-12 | 2026-09-02 05:03:12 | 47.72028 | 11.83473 | 128° | 75km/h | 8596m | -5.0m/s | -34.9°C | 13.2% | 341.0hPa | 2.6V | 00:00:00 | 01:22:23 | 00:00:00 | |
| OE5DXL-15 | 2026-09-02 05:03:11 | 47.72038 | 11.83452 | 123° | 75km/h | 8601m | -8.5m/s | -34.9°C | 13.3% | 340.8hPa | 2.6V | 02:10:00 | 00:00:00 | 00:00:00 | |
| BAUMI2-15 | 2026-09-02 05:03:09 | 47.72059 | 11.83406 | 128° | 75km/h | 8613m | -5.0m/s | -35.0°C | 13.4% | 340.3hPa | 2.7V | 00:00:00 | 01:22:20 | 00:00:00 | |
| BAUMI2-15 | 2026-09-02 05:03:04 | 47.72113 | 11.83292 | 130° | 75km/h | 8636m | -7.2m/s | -35.2°C | 13.3% | 339.0hPa | 2.7V | 02:11:00 | 01:22:15 | 00:00:00 | |
| DL6DJ-15 | 2026-09-02 05:02:52 | 47.72249 | 11.82992 | 127° | 64km/h | 8724m | -4.5m/s | -35.9°C | 11.5% | 335.5hPa | 2.6V | 00:00:00 | 00:00:00 | 00:00:00 | |
| BAUMI2-15 | 2026-09-02 05:02:49 | 47.72269 | 11.82945 | 128° | 73km/h | 8736m | -6.3m/s | -36.0°C | 13.6% | 334.9hPa | 2.6V | 02:11:00 | 01:22:00 | 00:00:00 | |
| BAUMI2-15 | 2026-09-02 05:02:44 | 47.72319 | 11.82832 | 128° | 75km/h | 8771m | -5.7m/s | -36.2°C | 13.7% | 333.5hPa | 2.5V | 00:00:00 | 01:21:55 | 00:00:00 | |
| DO3MHA-12 | 2026-09-02 05:02:42 | 47.72339 | 11.82786 | 134° | 75km/h | 8781m | -4.5m/s | -36.3°C | 13.8% | 333.0hPa | 2.5V | 00:00:00 | 01:21:53 | 00:00:00 | |
| OE5DXL-15 | 2026-09-02 05:02:41 | 47.72349 | 11.82762 | 114° | 75km/h | 8787m | -5.8m/s | -36.3°C | 13.8% | 332.8hPa | 2.5V | 00:00:00 | 00:00:00 | 00:00:00 | |
| NBG1-10 | 2026-09-02 05:02:40 | 47.72358 | 11.82739 | 126° | 75km/h | 8794m | -3.3m/s | -36.3°C | 13.8% | 332.3hPa | 2.5V | 00:00:00 | 01:21:51 | 00:00:00 | |
| BAUMI2-15 | 2026-09-02 05:02:39 | 47.72368 | 11.82714 | 120° | 77km/h | 8798m | -3.0m/s | -36.4°C | 13.8% | 332.1hPa | 2.5V | 00:00:00 | 01:21:50 | 00:00:00 | |
| OE5DRO-10 | 2026-09-02 05:02:37 | 47.72388 | 11.82666 | 125° | 75km/h | 8806m | -5.1m/s | -36.5°C | 13.7% | 331.7hPa | 2.5V | 00:00:00 | 00:00:00 | 00:00:00 | |
| DB0UT-7 | 2026-09-02 05:02:35 | 47.72407 | 11.82618 | 131° | 77km/h | 8817m | -4.3m/s | -36.5°C | 13.4% | 331.1hPa | 2.5V | 02:11:00 | 00:00:00 | 00:00:00 | |
| BAUMI2-15 | 2026-09-02 05:02:34 | 47.72418 | 11.82593 | 116° | 77km/h | 8822m | -4.7m/s | -36.5°C | 13.3% | 330.8hPa | 2.6V | 02:11:00 | 01:21:45 | 00:00:00 | |
| DO3MHA-11 | 2026-09-02 05:02:32 | 47.72438 | 11.82545 | 117° | 75km/h | 8833m | -6.2m/s | -36.6°C | 13.3% | 330.3hPa | 2.7V | 00:00:00 | 01:21:43 | 00:00:00 | |
| BAUMI2-15 | 2026-09-02 05:02:29 | 47.72469 | 11.82469 | 123° | 75km/h | 8849m | -7.5m/s | -36.7°C | 13.6% | 329.6hPa | 2.7V | 00:00:00 | 01:21:40 | 00:00:00 | |
| DO3MHA-12 | 2026-09-02 05:02:22 | 47.72529 | 11.82299 | 114° | 75km/h | 8889m | -5.1m/s | -37.1°C | 16.7% | 327.7hPa | 2.7V | 02:11:00 | 01:21:33 | 00:00:00 | |
| DL6DJ-15 | 2026-09-02 05:02:21 | 47.72548 | 11.82249 | 118° | 68km/h | 8897m | -5.5m/s | -37.2°C | 16.4% | 327.2hPa | 2.6V | 00:00:00 | 00:00:00 | 00:00:00 | |
| OE5DRO-10 | 2026-09-02 05:02:18 | 47.72566 | 11.82199 | 121° | 75km/h | 8909m | -3.1m/s | -37.2°C | 21.1% | 326.6hPa | 2.6V | 00:00:00 | 00:00:00 | 00:00:00 | |
| DO3MHA-11 | 2026-09-02 05:02:12 | 47.72620 | 11.82054 | 114° | 73km/h | 8937m | -5.2m/s | -37.6°C | 22.8% | 325.1hPa | 2.6V | 00:00:00 | 01:21:23 | 00:00:00 | |
| OE5DXL-15 | 2026-09-02 05:02:11 | 47.72630 | 11.82031 | 124° | 75km/h | 8940m | -5.2m/s | -37.6°C | 23.5% | 324.9hPa | 2.6V | 00:00:00 | 00:00:00 | 00:00:00 | |
| NBG1-10 | 2026-09-02 05:02:07 | 47.72666 | 11.81934 | 112° | 73km/h | 8959m | -5.2m/s | -37.8°C | 24.3% | 323.8hPa | 2.6V | 00:00:00 | 01:21:18 | 00:00:00 | |
| DB0UT-7 | 2026-09-02 05:02:04 | 47.72691 | 11.81860 | 113° | 75km/h | 8974m | -5.6m/s | -38.0°C | 25.1% | 323.1hPa | 2.6V | 00:00:00 | 01:21:15 | 00:00:00 | |
| DL6DJ-15 | 2026-09-02 05:01:49 | 47.72838 | 11.81474 | 123° | 64km/h | 9057m | -6.3m/s | -38.8°C | 37.2% | 319.2hPa | 2.6V | 00:00:00 | 00:00:00 | 00:00:00 | |
| DO3MHA-12 | 2026-09-02 05:01:42 | 47.72893 | 11.81328 | 120° | 73km/h | 9092m | -7.3m/s | -39.2°C | 43.4% | 317.2hPa | 2.6V | 00:00:00 | 01:20:53 | 00:00:00 | |
| DG1MJG | 2026-09-02 05:01:41 | 47.72893 | 11.81328 | 121° | 66km/h | 9092m | -7.3m/s | -39.2°C | 38.6% | 317.3hPa | 2.6V | 02:12:00 | 00:00:00 | 00:00:00 | |
| OE5DRO-10 | 2026-09-02 05:01:40 | 47.72909 | 11.81279 | 110° | 71km/h | 9107m | -5.4m/s | -39.3°C | 44.1% | 316.8hPa | 2.6V | 00:00:00 | 00:00:00 | 00:00:00 | |
| DG1MFX-10 | 2026-09-02 05:01:38 | 47.72916 | 11.81254 | 116° | 78km/h | 9113m | -5.1m/s | -39.4°C | 39.4% | 316.6hPa | 2.6V | 02:12:00 | 00:00:00 | 00:00:00 | |
| NBG1-10 | 2026-09-02 05:01:34 | 47.72958 | 11.81132 | 117° | 73km/h | 9143m | -8.6m/s | -39.5°C | 45.5% | 315.3hPa | 2.6V | 02:12:00 | 01:20:45 | 00:00:00 | |
| OE5MMP-10 | 2026-09-02 05:01:33 | 47.72965 | 11.81107 | 114° | 73km/h | 9153m | -6.3m/s | -39.6°C | 45.5% | 315.0hPa | 2.5V | 00:00:00 | 01:20:44 | 00:00:00 | |
| DO3MHA-11 | 2026-09-02 05:01:32 | 47.72973 | 11.81082 | 118° | 71km/h | 9159m | -4.7m/s | -39.6°C | 45.5% | 315.0hPa | 2.5V | 00:00:00 | 01:20:43 | 00:00:00 | |
| DO3MHA-12 | 2026-09-02 05:01:22 | 47.73055 | 11.80841 | 119° | 73km/h | 9222m | -5.4m/s | -40.2°C | 48.4% | 312.4hPa | 2.5V | 02:12:00 | 01:20:33 | 00:00:00 | |
| OE3JTB-15 | 2026-09-02 05:01:21 | 47.73063 | 11.80817 | 116° | 77km/h | 9227m | -4.4m/s | 0°C | 0% | 0hPa | 2.7V | 00:00:00 | 01:20:32 | 00:00:00 | |
| OE5WHR-10 | 2026-09-02 05:01:20 | 47.73071 | 11.80792 | 121° | 73km/h | 9231m | -4.1m/s | -40.3°C | 48.4% | 311.9hPa | 2.7V | 02:12:00 | 00:00:00 | 00:00:00 | |
| DL6DJ-15 | 2026-09-02 05:01:18 | 47.73089 | 11.80744 | 118° | 69km/h | 9241m | -5.6m/s | -40.4°C | 43.5% | 311.5hPa | 2.6V | 00:00:00 | 00:00:00 | 00:00:00 | |
| DG1MFX-10 | 2026-09-02 05:01:17 | 47.73089 | 11.80744 | 120° | 69km/h | 9242m | -5.6m/s | -40.4°C | 43.5% | 311.5hPa | 2.6V | 02:13:00 | 00:00:00 | 00:00:00 | |
| DO3MHA-12 | 2026-09-02 05:01:12 | 47.73140 | 11.80599 | 111° | 73km/h | 9274m | -5.2m/s | -40.7°C | 50.0% | 310.0hPa | 2.6V | 00:00:00 | 01:20:23 | 00:00:00 | |
| OE5DXL-15 | 2026-09-02 05:01:11 | 47.73147 | 11.80575 | 116° | 71km/h | 9279m | -4.4m/s | -40.7°C | 50.2% | 309.7hPa | 2.6V | 00:00:00 | 00:00:00 | 00:00:00 | |
| DG1MJG | 2026-09-02 05:01:10 | 47.73147 | 11.80575 | 116° | 66km/h | 9279m | -4.4m/s | -40.8°C | 44.7% | 309.7hPa | 2.6V | 02:13:00 | 00:00:00 | 00:00:00 | |
| DL6DJ-15 | 2026-09-02 05:00:47 | 47.73331 | 11.79994 | 108° | 68km/h | 9387m | -6.0m/s | -41.8°C | 39.6% | 303.9hPa | 2.6V | 00:00:00 | 00:00:00 | 00:00:00 | |
| OE5DRO-10 | 2026-09-02 05:00:43 | 47.73355 | 11.79897 | 122° | 69km/h | 9409m | -5.2m/s | -41.9°C | 45.3% | 302.8hPa | 2.6V | 00:00:00 | 00:00:00 | 00:00:00 | |
| DO3MHA-11 | 2026-09-02 05:00:42 | 47.73362 | 11.79875 | 104° | 69km/h | 9414m | -7.1m/s | -41.9°C | 45.5% | 302.5hPa | 2.6V | 00:00:00 | 01:19:53 | 00:00:00 | |
| OE5DXL-15 | 2026-09-02 05:00:41 | 47.73368 | 11.79849 | 114° | 71km/h | 9421m | -6.9m/s | -42.0°C | 45.3% | 302.3hPa | 2.6V | 00:00:00 | 00:00:00 | 00:00:00 | |
| DG1MJG | 2026-09-02 05:00:39 | 47.73382 | 11.79804 | 111° | 64km/h | 9434m | -9.0m/s | -42.2°C | 40.5% | 301.8hPa | 2.6V | 02:14:00 | 00:00:00 | 00:00:00 | |
| OE5WHR-10 | 2026-09-02 05:00:36 | 47.73401 | 11.79732 | 113° | 75km/h | 9450m | -6.6m/s | -42.2°C | 47.0% | 300.9hPa | 2.6V | 00:00:00 | 01:19:47 | 00:00:00 | |
| DG1MFX-10 | 2026-09-02 05:00:35 | 47.73401 | 11.79732 | 113° | 73km/h | 9450m | -6.6m/s | -42.3°C | 41.5% | 301.0hPa | 2.6V | 02:14:00 | 00:00:00 | 00:00:00 | |
| DO3MHA-12 | 2026-09-02 05:00:32 | 47.73424 | 11.79630 | 103° | 69km/h | 9475m | -7.8m/s | -42.4°C | 47.8% | 300.0hPa | 2.6V | 00:00:00 | 01:19:43 | 00:00:00 | |
| NBG1-10 | 2026-09-02 05:00:28 | 47.73445 | 11.79532 | 113° | 73km/h | 9498m | -5.3m/s | -42.6°C | 49.8% | 299.0hPa | 2.6V | 00:00:00 | 01:19:39 | 00:00:00 | |
| BAUMI2-15 | 2026-09-02 05:00:24 | 47.73468 | 11.79432 | 107° | 73km/h | 9521m | -6.9m/s | -42.8°C | 50.2% | 297.9hPa | 2.6V | 00:00:00 | 01:19:35 | 00:00:00 | |
| DO3MHA-12 | 2026-09-02 05:00:22 | 47.73479 | 11.79381 | 98° | 73km/h | 9533m | -7.0m/s | -42.9°C | 50.6% | 297.4hPa | 2.6V | 02:13:00 | 01:19:33 | 00:00:00 | |
| BAUMI2-15 | 2026-09-02 05:00:19 | 47.73492 | 11.79301 | 102° | 71km/h | 9552m | -8.1m/s | -43.0°C | 51.5% | 296.5hPa | 2.5V | 02:13:00 | 01:19:30 | 00:00:00 | |
| DL6DJ-15 | 2026-09-02 05:00:16 | 47.73507 | 11.79223 | 108° | 78km/h | 9573m | -6.4m/s | -43.2°C | 47.2% | 296.0hPa | 2.7V | 00:00:00 | 00:00:00 | 00:00:00 | |
| BAUMI2-15 | 2026-09-02 05:00:14 | 47.73517 | 11.79171 | 103° | 77km/h | 9586m | -6.7m/s | -43.2°C | 54.4% | 295.4hPa | 2.7V | 00:00:00 | 01:19:25 | 00:00:00 | |
| DO3MHA-11 | 2026-09-02 05:00:12 | 47.73529 | 11.79116 | 107° | 75km/h | 9599m | -7.3m/s | -43.3°C | 55.4% | 295.0hPa | 2.7V | 00:00:00 | 01:19:23 | 00:00:00 | |
| OE5DXL-15 | 2026-09-02 05:00:11 | 47.73533 | 11.79088 | 101° | 77km/h | 9606m | -5.3m/s | -43.4°C | 56.0% | 294.7hPa | 2.7V | 02:13:00 | 00:00:00 | 00:00:00 | |
| OE5MMP-10 | 2026-09-02 05:00:09 | 47.73544 | 11.79035 | 105° | 77km/h | 9616m | -6.0m/s | -43.4°C | 56.2% | 294.2hPa | 2.7V | 00:00:00 | 01:19:20 | 00:00:00 | |
| DG1MJG | 2026-09-02 05:00:08 | 47.73544 | 11.79035 | 105° | 78km/h | 9616m | -6.1m/s | -43.4°C | 49.8% | 294.3hPa | 2.7V | 02:14:00 | 00:00:00 | 00:00:00 | |
| OE5DRO-10 | 2026-09-02 05:00:05 | 47.73562 | 11.78925 | 108° | 77km/h | 9641m | -6.7m/s | -43.7°C | 57.0% | 293.2hPa | 2.7V | 02:14:00 | 00:00:00 | 00:00:00 | |
| BAUMI2-15 | 2026-09-02 05:00:04 | 47.73567 | 11.78899 | 108° | 75km/h | 9648m | -6.6m/s | -43.7°C | 57.6% | 292.8hPa | 2.5V | 02:14:00 | 01:19:15 | 00:00:00 | |
| DL6DJ-15 | 2026-09-02 04:59:45 | 47.73642 | 11.78350 | 104° | 86km/h | 9769m | -5.4m/s | -44.7°C | 53.7% | 287.9hPa | 2.6V | 00:00:00 | 00:00:00 | 00:00:00 | |
| BAUMI2-15 | 2026-09-02 04:59:44 | 47.73647 | 11.78321 | 101° | 77km/h | 9775m | -5.3m/s | -44.7°C | 60.7% | 287.7hPa | 2.6V | 00:00:00 | 01:18:55 | 00:00:00 | |
| OE5MMP-10 | 2026-09-02 04:59:43 | 47.73650 | 11.78290 | 98° | 82km/h | 9780m | -4.5m/s | -44.7°C | 60.0% | 287.5hPa | 2.6V | 02:14:00 | 01:18:54 | 00:00:00 | |
| DO3MHA-12 | 2026-09-02 04:59:42 | 47.73653 | 11.78260 | 103° | 77km/h | 9785m | -4.2m/s | -44.8°C | 59.5% | 287.2hPa | 2.6V | 00:00:00 | 01:18:53 | 00:00:00 | |
| OE5DXL-15 | 2026-09-02 04:59:41 | 47.73656 | 11.78234 | 97° | 77km/h | 9789m | -4.8m/s | -44.8°C | 59.5% | 287.0hPa | 2.6V | 00:00:00 | 00:00:00 | 00:00:00 | |
| BAUMI2-15 | 2026-09-02 04:59:39 | 47.73663 | 11.78178 | 97° | 77km/h | 9800m | -5.6m/s | -44.9°C | 59.2% | 286.6hPa | 2.6V | 00:00:00 | 01:18:50 | 00:00:00 | |
| DG1MJG | 2026-09-02 04:59:38 | 47.73663 | 11.78178 | 97° | 75km/h | 9800m | -5.6m/s | -45.0°C | 52.1% | 286.6hPa | 2.6V | 00:00:00 | 00:00:00 | 00:00:00 | |
| BAUMI2-15 | 2026-09-02 04:59:34 | 47.73681 | 11.78035 | 95° | 78km/h | 9828m | -6.6m/s | -45.2°C | 56.7% | 285.3hPa | 2.6V | 02:14:00 | 01:18:45 | 00:00:00 | |
| DG1MFX-10 | 2026-09-02 04:59:33 | 47.73682 | 11.78035 | 95° | 84km/h | 9828m | -6.7m/s | -45.3°C | 49.8% | 285.4hPa | 2.6V | 02:15:00 | 00:00:00 | 00:00:00 | |
| DO3MHA-12 | 2026-09-02 04:59:32 | 47.73689 | 11.77979 | 94° | 80km/h | 9836m | -5.1m/s | -45.3°C | 55.5% | 284.8hPa | 2.6V | 00:00:00 | 01:18:43 | 00:00:00 | |
| DO3MHA-11 | 2026-09-02 04:59:31 | 47.73693 | 11.77949 | 105° | 80km/h | 9841m | -4.5m/s | -45.3°C | 55.4% | 284.5hPa | 2.6V | 00:00:00 | 01:18:42 | 00:00:00 | |
| BAUMI2-15 | 2026-09-02 04:59:29 | 47.73699 | 11.77892 | 101° | 80km/h | 9849m | -5.4m/s | -45.5°C | 55.0% | 284.1hPa | 2.6V | 00:00:00 | 01:18:40 | 00:00:00 | |
| OE5DRO-10 | 2026-09-02 04:59:27 | 47.73707 | 11.77833 | 97° | 77km/h | 9859m | -4.5m/s | -45.6°C | 54.6% | 283.6hPa | 2.6V | 00:00:00 | 00:00:00 | 00:00:00 | |
| OE5MMP-10 | 2026-09-02 04:59:25 | 47.73712 | 11.77773 | 103° | 77km/h | 9868m | -4.8m/s | -45.7°C | 53.1% | 283.1hPa | 2.6V | 00:00:00 | 01:18:36 | 00:00:00 | |
| BAUMI2-15 | 2026-09-02 04:59:24 | 47.73715 | 11.77746 | 98° | 80km/h | 9873m | -5.0m/s | -45.7°C | 52.2% | 282.9hPa | 2.6V | 00:00:00 | 01:18:35 | 00:00:00 | |
| DO3MHA-12 | 2026-09-02 04:59:22 | 47.73720 | 11.77684 | 94° | 75km/h | 9883m | -5.3m/s | -45.8°C | 50.9% | 282.4hPa | 2.6V | 02:14:00 | 01:18:33 | 00:00:00 | |
| DO3MHA-11 | 2026-09-02 04:59:21 | 47.73723 | 11.77657 | 106° | 77km/h | 9888m | -6.2m/s | -45.9°C | 50.9% | 282.1hPa | 2.7V | 02:14:00 | 01:18:32 | 00:00:00 | |
| BAUMI2-15 | 2026-09-02 04:59:19 | 47.73731 | 11.77600 | 106° | 77km/h | 9900m | -6.1m/s | -46.0°C | 51.7% | 281.6hPa | 2.7V | 02:14:00 | 01:18:30 | 00:00:00 | |
| BAUMI2-15 | 2026-09-02 04:59:14 | 47.73745 | 11.77458 | 98° | 75km/h | 9929m | -7.4m/s | -46.3°C | 54.0% | 280.2hPa | 2.5V | 00:00:00 | 01:18:25 | 00:00:00 | |
| DO3MHA-12 | 2026-09-02 04:59:12 | 47.73751 | 11.77405 | 88° | 77km/h | 9941m | -6.9m/s | -46.4°C | 54.6% | 279.8hPa | 2.5V | 00:00:00 | 01:18:23 | 00:00:00 | |
| DO3MHA-11 | 2026-09-02 04:59:11 | 47.73753 | 11.77377 | 101° | 78km/h | 9946m | -6.9m/s | -46.4°C | 55.3% | 279.4hPa | 2.5V | 00:00:00 | 01:18:22 | 00:00:00 | |
| BAUMI2-15 | 2026-09-02 04:59:09 | 47.73758 | 11.77318 | 93° | 78km/h | 9960m | -7.6m/s | -46.5°C | 55.6% | 279.0hPa | 2.5V | 00:00:00 | 01:18:20 | 00:00:00 | |
| OE5MMP-10 | 2026-09-02 04:59:08 | 47.73761 | 11.77289 | 105° | 75km/h | 9967m | -6.5m/s | -46.6°C | 56.1% | 278.8hPa | 2.5V | 00:00:00 | 01:18:19 | 00:00:00 | |
| DG1MJG | 2026-09-02 04:59:07 | 47.73761 | 11.77289 | 105° | 75km/h | 9967m | -6.5m/s | -46.6°C | 49.0% | 278.8hPa | 2.5V | 00:00:00 | 00:00:00 | 00:00:00 | |
| BAUMI2-15 | 2026-09-02 04:59:04 | 47.73773 | 11.77176 | 97° | 77km/h | 9991m | -7.1m/s | -46.8°C | 56.6% | 277.9hPa | 2.5V | 02:15:00 | 01:18:15 | 00:00:00 | |
| DO3MHA-12 | 2026-09-02 04:59:02 | 47.73780 | 11.77119 | 95° | 78km/h | 10006m | -7.4m/s | -46.9°C | 57.7% | 277.3hPa | 2.5V | 00:00:00 | 01:18:13 | 00:00:00 | |
| DO3MHA-11 | 2026-09-02 04:59:01 | 47.73783 | 11.77090 | 104° | 78km/h | 10012m | -5.7m/s | -47.0°C | 57.9% | 277.0hPa | 2.5V | 00:00:00 | 01:18:12 | 00:00:00 | |
| BAUMI2-15 | 2026-09-02 04:58:59 | 47.73789 | 11.77033 | 98° | 78km/h | 10024m | -6.5m/s | -47.1°C | 58.2% | 276.5hPa | 2.5V | 00:00:00 | 01:18:10 | 00:00:00 | |
| OE5MMP-10 | 2026-09-02 04:58:54 | 47.73805 | 11.76888 | 99° | 78km/h | 10054m | -6.6m/s | -47.3°C | 60.2% | 275.4hPa | 2.5V | 02:15:00 | 01:18:05 | 00:00:00 | |
| DO3MHA-12 | 2026-09-02 04:58:52 | 47.73813 | 11.76828 | 98° | 78km/h | 10067m | -5.7m/s | -47.5°C | 61.7% | 274.9hPa | 2.6V | 02:15:00 | 01:18:03 | 00:00:00 | |
| DO3MHA-11 | 2026-09-02 04:58:51 | 47.73817 | 11.76800 | 105° | 78km/h | 10073m | -5.7m/s | -47.5°C | 62.2% | 274.6hPa | 2.7V | 02:15:00 | 01:18:02 | 00:00:00 | |
| BAUMI2-15 | 2026-09-02 04:58:49 | 47.73823 | 11.76742 | 104° | 80km/h | 10084m | -6.0m/s | -47.6°C | 63.5% | 274.3hPa | 2.7V | 02:15:00 | 01:18:00 | 00:00:00 | |
| NBG1-10 | 2026-09-02 04:58:48 | 47.73827 | 11.76712 | 100° | 80km/h | 10090m | -6.5m/s | -47.7°C | 64.0% | 274.0hPa | 2.5V | 00:00:00 | 01:17:59 | 00:00:00 | |
| DH7VM-15 | 2026-09-02 04:58:47 | 47.73827 | 11.76712 | 100° | 88km/h | 10090m | -6.5m/s | 0°C | 0% | 0hPa | 2.5V | 00:00:00 | 00:00:00 | 00:00:00 | |
| BAUMI2-15 | 2026-09-02 04:58:44 | 47.73839 | 11.76593 | 105° | 78km/h | 10114m | -6.1m/s | -47.9°C | 67.0% | 273.1hPa | 2.5V | 00:00:00 | 01:17:55 | 00:00:00 | |
| OE5MMP-10 | 2026-09-02 04:58:43 | 47.73842 | 11.76565 | 93° | 82km/h | 10119m | -4.3m/s | -47.9°C | 68.4% | 272.8hPa | 2.5V | 00:00:00 | 01:17:54 | 00:00:00 | |
| DO3MHA-12 | 2026-09-02 04:58:42 | 47.73844 | 11.76538 | 100° | 80km/h | 10125m | -7.1m/s | -48.0°C | 69.6% | 272.5hPa | 2.5V | 00:00:00 | 01:17:53 | 00:00:00 | |
| OE5DXL-15 | 2026-09-02 04:58:41 | 47.73847 | 11.76510 | 100° | 82km/h | 10132m | -6.0m/s | -48.0°C | 71.2% | 272.3hPa | 2.5V | 02:15:00 | 00:00:00 | 00:00:00 | |
| BAUMI2-15 | 2026-09-02 04:58:39 | 47.73853 | 11.76449 | 100° | 82km/h | 10146m | -5.0m/s | -48.1°C | 74.1% | 271.8hPa | 2.5V | 00:00:00 | 01:17:50 | 00:00:00 | |
| DG1MJG | 2026-09-02 04:58:37 | 47.73855 | 11.76420 | 95° | 84km/h | 10151m | -5.1m/s | -48.3°C | 65.6% | 271.6hPa | 2.5V | 02:15:00 | 00:00:00 | 00:00:00 | |
| BAUMI2-15 | 2026-09-02 04:58:34 | 47.73867 | 11.76296 | 93° | 82km/h | 10175m | -6.3m/s | -48.4°C | 76.4% | 270.7hPa | 2.5V | 02:15:00 | 01:17:45 | 00:00:00 | |
| OE5WHR-10 | 2026-09-02 04:58:33 | 47.73870 | 11.76266 | 106° | 82km/h | 10182m | -6.5m/s | -48.5°C | 76.5% | 270.2hPa | 2.7V | 00:00:00 | 00:00:00 | 00:00:00 | |
| DO3MHA-12 | 2026-09-02 04:58:32 | 47.73873 | 11.76236 | 94° | 82km/h | 10188m | -4.6m/s | -48.6°C | 76.8% | 270.2hPa | 2.7V | 00:00:00 | 01:17:43 | 00:00:00 | |
| DO3MHA-11 | 2026-09-02 04:58:31 | 47.73876 | 11.76206 | 99° | 82km/h | 10193m | -4.3m/s | -48.6°C | 76.2% | 269.9hPa | 2.7V | 00:00:00 | 01:17:42 | 00:00:00 | |
| OE5DRO-10 | 2026-09-02 04:58:30 | 47.73879 | 11.76175 | 100° | 82km/h | 10198m | -5.8m/s | -48.6°C | 76.3% | 269.7hPa | 2.7V | 00:00:00 | 00:00:00 | 00:00:00 | |
| BAUMI2-15 | 2026-09-02 04:58:29 | 47.73882 | 11.76146 | 94° | 82km/h | 10204m | -6.0m/s | -48.7°C | 76.4% | 269.5hPa | 2.7V | 00:00:00 | 01:17:40 | 00:00:00 | |
| OE5MMP-10 | 2026-09-02 04:58:23 | 47.73901 | 11.75963 | 107° | 78km/h | 10241m | -7.1m/s | -49.0°C | 76.1% | 268.0hPa | 2.7V | 02:15:00 | 01:17:34 | 00:00:00 | |
| DO3MHA-12 | 2026-09-02 04:58:22 | 47.73905 | 11.75932 | 94° | 80km/h | 10249m | -5.9m/s | -49.1°C | 75.6% | 267.8hPa | 2.7V | 02:15:00 | 01:17:33 | 00:00:00 | |
| DO3MHA-11 | 2026-09-02 04:58:21 | 47.73908 | 11.75901 | 106° | 80km/h | 10255m | -5.9m/s | -49.2°C | 75.5% | 267.6hPa | 2.7V | 02:15:00 | 01:17:32 | 00:00:00 | |
| NBG1-10 | 2026-09-02 04:58:15 | 47.73928 | 11.75722 | 94° | 80km/h | 10290m | -4.8m/s | -49.5°C | 77.5% | 266.1hPa | 2.7V | 02:15:00 | 01:17:26 | 00:00:00 | |
| DO3MHA-12 | 2026-09-02 04:58:12 | 47.73936 | 11.75634 | 99° | 80km/h | 10304m | -6.1m/s | -49.7°C | 77.8% | 265.4hPa | 2.5V | 00:00:00 | 01:17:23 | 00:00:00 | |
| OE5WHR-10 | 2026-09-02 04:58:11 | 47.73939 | 11.75605 | 100° | 78km/h | 10309m | -6.4m/s | -49.7°C | 77.7% | 265.2hPa | 2.5V | 00:00:00 | 01:17:22 | 00:00:00 | |
| OE5MMP-10 | 2026-09-02 04:58:10 | 47.73942 | 11.75576 | 101° | 80km/h | 10315m | -5.8m/s | -49.8°C | 77.8% | 265.0hPa | 2.5V | 00:00:00 | 01:17:21 | 00:00:00 | |
| DG1MJG | 2026-09-02 04:58:07 | 47.73949 | 11.75516 | 105° | 84km/h | 10326m | -5.4m/s | -49.9°C | 68.5% | 264.5hPa | 2.5V | 02:16:00 | 00:00:00 | 00:00:00 | |
| DO3MHA-12 | 2026-09-02 04:58:02 | 47.73970 | 11.75339 | 92° | 80km/h | 10351m | -3.9m/s | -50.2°C | 77.0% | 263.1hPa | 2.5V | 00:00:00 | 01:17:13 | 00:00:00 | |
| DO3MHA-11 | 2026-09-02 04:58:01 | 47.73971 | 11.75310 | 96° | 82km/h | 10356m | -5.9m/s | -50.3°C | 76.7% | 262.9hPa | 2.5V | 00:00:00 | 01:17:12 | 00:00:00 | |
| OE5MMP-10 | 2026-09-02 04:58:00 | 47.73975 | 11.75280 | 105° | 82km/h | 10361m | -6.0m/s | -50.3°C | 76.2% | 262.7hPa | 2.5V | 00:00:00 | 01:17:11 | 00:00:00 | |
| DO3MHA-12 | 2026-09-02 04:57:52 | 47.74003 | 11.75041 | 98° | 80km/h | 10401m | -5.3m/s | -50.7°C | 71.9% | 260.7hPa | 2.5V | 02:16:00 | 01:17:03 | 00:00:00 | |
| DO3MHA-11 | 2026-09-02 04:57:51 | 47.74006 | 11.75012 | 100° | 78km/h | 10406m | -6.3m/s | -50.7°C | 71.3% | 260.5hPa | 2.5V | 02:16:00 | 01:17:02 | 00:00:00 | |
| OE5MMP-10 | 2026-09-02 04:57:50 | 47.74010 | 11.74984 | 107° | 80km/h | 10411m | -5.0m/s | -50.8°C | 71.4% | 260.3hPa | 2.6V | 02:16:00 | 01:17:01 | 00:00:00 | |
| OE5WHR-10 | 2026-09-02 04:57:47 | 47.74025 | 11.74896 | 103° | 82km/h | 10429m | -6.4m/s | -51.0°C | 70.5% | 259.6hPa | 2.7V | 02:16:00 | 00:00:00 | 00:00:00 | |
| DO3MHA-12 | 2026-09-02 04:57:42 | 47.74046 | 11.74754 | 96° | 78km/h | 10461m | -7.3m/s | -51.2°C | 71.5% | 258.4hPa | 2.5V | 00:00:00 | 01:16:53 | 00:00:00 | |
| DO3MHA-11 | 2026-09-02 04:57:41 | 47.74050 | 11.74725 | 105° | 77km/h | 10468m | -8.6m/s | -51.3°C | 72.4% | 258.1hPa | 2.5V | 00:00:00 | 01:16:52 | 00:00:00 | |
| OE5MMP-10 | 2026-09-02 04:57:40 | 47.74054 | 11.74695 | 98° | 78km/h | 10476m | -8.0m/s | -51.3°C | 72.5% | 257.9hPa | 2.5V | 00:00:00 | 01:16:51 | 00:00:00 | |
| DO8TBO-1 | 2026-09-02 04:57:36 | 47.74073 | 11.74581 | 105° | 84km/h | 10505m | -8.0m/s | 0°C | 0% | 0hPa | 2.5V | 00:00:00 | 01:16:47 | 00:00:00 | |
| OE5DRO-10 | 2026-09-02 04:57:33 | 47.74084 | 11.74492 | 100° | 78km/h | 10524m | -6.1m/s | -51.7°C | 69.7% | 256.2hPa | 2.5V | 00:00:00 | 00:00:00 | 00:00:00 | |
| DO3MHA-12 | 2026-09-02 04:57:32 | 47.74088 | 11.74464 | 106° | 78km/h | 10530m | -7.1m/s | -51.8°C | 68.7% | 256.0hPa | 2.5V | 00:00:00 | 01:16:43 | 00:00:00 | |
| DO3MHA-11 | 2026-09-02 04:57:31 | 47.74093 | 11.74436 | 105° | 78km/h | 10538m | -7.7m/s | -51.8°C | 68.0% | 255.8hPa | 2.5V | 00:00:00 | 01:16:42 | 00:00:00 | |
| OE5MMP-10 | 2026-09-02 04:57:30 | 47.74097 | 11.74406 | 93° | 75km/h | 10545m | -7.6m/s | -51.9°C | 66.9% | 255.6hPa | 2.5V | 00:00:00 | 01:16:41 | 00:00:00 | |
| DG1MFX-10 | 2026-09-02 04:57:29 | 47.74097 | 11.74406 | 93° | 77km/h | 10545m | -7.7m/s | -51.9°C | 57.7% | 255.6hPa | 2.5V | 02:16:00 | 00:00:00 | 00:00:00 | |
| DO3MHA-12 | 2026-09-02 04:57:22 | 47.74124 | 11.74177 | 94° | 80km/h | 10604m | -6.4m/s | -52.3°C | 62.9% | 253.4hPa | 2.5V | 02:16:00 | 01:16:33 | 00:00:00 | |
| DO3MHA-11 | 2026-09-02 04:57:21 | 47.74127 | 11.74147 | 104° | 80km/h | 10611m | -4.9m/s | -52.3°C | 62.7% | 253.2hPa | 2.5V | 02:16:00 | 01:16:32 | 00:00:00 | |
| OE5MMP-10 | 2026-09-02 04:57:19 | 47.74134 | 11.74089 | 97° | 82km/h | 10624m | -5.6m/s | -52.4°C | 62.4% | 252.8hPa | 2.6V | 02:16:00 | 01:16:30 | 00:00:00 | |
| OE5DRO-10 | 2026-09-02 04:57:14 | 47.74151 | 11.73940 | 109° | 82km/h | 10661m | -6.0m/s | -52.6°C | 61.4% | 251.5hPa | 2.5V | 02:16:00 | 00:00:00 | 00:00:00 | |
| DO3MHA-12 | 2026-09-02 04:57:12 | 47.74158 | 11.73880 | 96° | 80km/h | 10673m | -6.0m/s | -52.7°C | 61.4% | 250.9hPa | 2.5V | 00:00:00 | 01:16:23 | 00:00:00 | |
| DO3MHA-11 | 2026-09-02 04:57:11 | 47.74162 | 11.73851 | 105° | 80km/h | 10679m | -5.7m/s | -52.8°C | 61.6% | 250.7hPa | 2.5V | 00:00:00 | 01:16:22 | 00:00:00 | |
| DL6DJ-15 | 2026-09-02 04:57:10 | 47.74165 | 11.73820 | 90° | 82km/h | 10685m | -5.4m/s | -52.9°C | 52.4% | 250.5hPa | 2.5V | 00:00:00 | 00:00:00 | 00:00:00 | |
| NBG1-10 | 2026-09-02 04:57:09 | 47.74168 | 11.73790 | 103° | 82km/h | 10691m | -6.3m/s | -52.9°C | 62.1% | 250.2hPa | 2.5V | 00:00:00 | 01:16:20 | 00:00:00 | |
| OE5MMP-10 | 2026-09-02 04:57:08 | 47.74171 | 11.73758 | 93° | 82km/h | 10698m | -4.5m/s | -53.0°C | 61.6% | 250.0hPa | 2.5V | 00:00:00 | 01:16:19 | 00:00:00 | |
| DG1MJG | 2026-09-02 04:57:05 | 47.74175 | 11.73699 | 102° | 91km/h | 10711m | -6.7m/s | -53.2°C | 52.6% | 249.5hPa | 2.5V | 02:17:00 | 00:00:00 | 00:00:00 | |
| DO3MHA-12 | 2026-09-02 04:57:02 | 47.74188 | 11.73583 | 107° | 80km/h | 10735m | -5.7m/s | -53.3°C | 61.9% | 248.4hPa | 2.5V | 00:00:00 | 01:16:13 | 00:00:00 | |
| DO3MHA-11 | 2026-09-02 04:57:01 | 47.74191 | 11.73553 | 94° | 80km/h | 10740m | -5.3m/s | -53.4°C | 61.8% | 248.2hPa | 2.5V | 00:00:00 | 01:16:12 | 00:00:00 | |
| OE5MMP-10 | 2026-09-02 04:56:58 | 47.74200 | 11.73462 | 92° | 80km/h | 10759m | -5.9m/s | -53.5°C | 62.3% | 247.5hPa | 2.5V | 00:00:00 | 01:16:09 | 00:00:00 | |
| OE5DRO-10 | 2026-09-02 04:56:55 | 47.74206 | 11.73375 | 100° | 82km/h | 10783m | -5.0m/s | -53.7°C | 64.2% | 246.5hPa | 2.5V | 00:00:00 | 00:00:00 | 00:00:00 | |
| DO3MHA-12 | 2026-09-02 04:56:52 | 47.74215 | 11.73287 | 107° | 82km/h | 10801m | -5.1m/s | -53.9°C | 65.6% | 245.9hPa | 2.5V | 02:17:00 | 01:16:03 | 00:00:00 | |
| DG1MFX-10 | 2026-09-02 04:56:51 | 47.74225 | 11.73196 | 103° | 93km/h | 10818m | -6.8m/s | -54.1°C | 54.8% | 245.2hPa | 2.7V | 02:17:00 | 00:00:00 | 00:00:00 | |
| OE5MMP-10 | 2026-09-02 04:56:50 | 47.74227 | 11.73165 | 92° | 82km/h | 10824m | -4.6m/s | -54.1°C | 64.3% | 244.9hPa | 2.7V | 02:17:00 | 01:15:59 | 00:00:00 | |
| DO3MHA-12 | 2026-09-02 04:56:42 | 47.74243 | 11.72980 | 95° | 84km/h | 10861m | -5.4m/s | -54.3°C | 59.7% | 243.4hPa | 2.6V | 00:00:00 | 01:15:53 | 00:00:00 | |
| DO3MHA-11 | 2026-09-02 04:56:41 | 47.74245 | 11.72949 | 98° | 84km/h | 10866m | -6.6m/s | -54.3°C | 58.9% | 243.2hPa | 2.6V | 00:00:00 | 01:15:52 | 00:00:00 | |
| OE5MMP-10 | 2026-09-02 04:56:38 | 47.74252 | 11.72855 | 90° | 86km/h | 10887m | -8.3m/s | -54.5°C | 58.1% | 242.4hPa | 2.6V | 00:00:00 | 01:15:49 | 00:00:00 | |
| OE5DRO-10 | 2026-09-02 04:56:36 | 47.74257 | 11.72792 | 98° | 86km/h | 10901m | -6.7m/s | -54.7°C | 57.9% | 241.8hPa | 2.6V | 00:00:00 | 00:00:00 | 00:00:00 | |
| DG1MJG | 2026-09-02 04:56:35 | 47.74257 | 11.72792 | 98° | 97km/h | 10901m | -6.8m/s | -54.7°C | 48.7% | 241.9hPa | 2.6V | 02:17:00 | 00:00:00 | 00:00:00 | |
| DO3MHA-12 | 2026-09-02 04:56:32 | 47.74264 | 11.72667 | 88° | 91km/h | 10929m | -6.3m/s | -54.8°C | 55.9% | 240.9hPa | 2.6V | 00:00:00 | 01:15:43 | 00:00:00 | |
| DO3MHA-11 | 2026-09-02 04:56:31 | 47.74266 | 11.72633 | 98° | 89km/h | 10936m | -5.7m/s | -54.8°C | 54.9% | 240.7hPa | 2.6V | 00:00:00 | 01:15:42 | 00:00:00 | |
| OE5MMP-10 | 2026-09-02 04:56:28 | 47.74275 | 11.72532 | 101° | 88km/h | 10952m | -5.6m/s | -55.0°C | 53.9% | 239.9hPa | 2.6V | 00:00:00 | 01:15:39 | 00:00:00 | |
| DG1MFX-10 | 2026-09-02 04:56:27 | 47.74275 | 11.72532 | 101° | 89km/h | 10952m | -5.6m/s | -55.0°C | 45.1% | 240.0hPa | 2.6V | 02:17:00 | 00:00:00 | 00:00:00 | |
| BAUMI2-15 | 2026-09-02 04:56:24 | 47.74284 | 11.72405 | 96° | 88km/h | 10978m | -5.7m/s | -55.2°C | 54.5% | 238.8hPa | 2.6V | 00:00:00 | 01:15:35 | 00:00:00 | |
| DO3MHA-11 | 2026-09-02 04:56:21 | 47.74293 | 11.72308 | 92° | 89km/h | 10999m | -5.0m/s | -55.3°C | 55.2% | 238.2hPa | 2.6V | 02:17:00 | 01:15:32 | 00:00:00 | |
| BAUMI2-15 | 2026-09-02 04:56:19 | 47.74295 | 11.72240 | 95° | 88km/h | 11009m | -5.5m/s | -55.4°C | 54.8% | 237.7hPa | 2.6V | 02:17:00 | 01:15:30 | 00:00:00 | |
| OE5MMP-10 | 2026-09-02 04:56:17 | 47.74299 | 11.72176 | 104° | 89km/h | 11021m | -6.1m/s | -55.4°C | 54.4% | 237.3hPa | 2.7V | 02:17:00 | 01:15:28 | 00:00:00 | |
| BAUMI2-15 | 2026-09-02 04:56:14 | 47.74304 | 11.72077 | 99° | 89km/h | 11037m | -5.9m/s | -55.5°C | 54.4% | 236.6hPa | 2.6V | 00:00:00 | 01:15:25 | 00:00:00 | |
| OE5DXL-15 | 2026-09-02 04:56:11 | 47.74313 | 11.71978 | 93° | 91km/h | 11058m | -7.0m/s | -55.7°C | 55.2% | 235.8hPa | 2.6V | 00:00:00 | 00:00:00 | 00:00:00 | |
| BAUMI2-15 | 2026-09-02 04:56:09 | 47.74317 | 11.71911 | 99° | 89km/h | 11070m | -6.7m/s | -55.9°C | 55.2% | 235.4hPa | 2.6V | 00:00:00 | 01:15:20 | 00:00:00 | |
| DL6DJ-15 | 2026-09-02 04:56:08 | 47.74320 | 11.71878 | 92° | 89km/h | 11076m | -7.1m/s | -56.0°C | 45.6% | 235.2hPa | 2.6V | 00:00:00 | 00:00:00 | 00:00:00 | |
| OE5MMP-10 | 2026-09-02 04:56:07 | 47.74323 | 11.71844 | 103° | 93km/h | 11083m | -7.2m/s | -55.9°C | 54.4% | 235.0hPa | 2.6V | 00:00:00 | 01:15:18 | 00:00:00 | |
| DG1MJG | 2026-09-02 04:56:05 | 47.74325 | 11.71811 | 93° | 88km/h | 11090m | -6.5m/s | -56.0°C | 45.4% | 234.7hPa | 2.6V | 02:18:00 | 00:00:00 | 00:00:00 | |
| BAUMI2-15 | 2026-09-02 04:56:04 | 47.74330 | 11.71745 | 102° | 93km/h | 11105m | -8.2m/s | -56.1°C | 54.1% | 234.2hPa | 2.6V | 02:18:00 | 01:15:15 | 00:00:00 | |
| NBG1-10 | 2026-09-02 04:56:03 | 47.74333 | 11.71711 | 92° | 93km/h | 11113m | -6.8m/s | -56.1°C | 54.0% | 234.0hPa | 2.5V | 00:00:00 | 01:15:14 | 00:00:00 | |
| DB0UT-7 | 2026-09-02 04:56:02 | 47.74335 | 11.71676 | 99° | 93km/h | 11119m | -6.3m/s | -56.2°C | 54.0% | 233.7hPa | 2.5V | 00:00:00 | 01:15:13 | 00:00:00 | |
| BAUMI2-15 | 2026-09-02 04:55:59 | 47.74344 | 11.71572 | 101° | 93km/h | 11140m | -6.0m/s | -56.3°C | 53.0% | 233.1hPa | 2.5V | 00:00:00 | 01:15:10 | 00:00:00 | |
| OE5DRO-10 | 2026-09-02 04:55:58 | 47.74347 | 11.71537 | 94° | 95km/h | 11147m | -6.5m/s | -56.3°C | 52.5% | 232.9hPa | 2.5V | 00:00:00 | 00:00:00 | 00:00:00 | |
| OE5MMP-10 | 2026-09-02 04:55:56 | 47.74352 | 11.71470 | 97° | 95km/h | 11161m | -6.0m/s | -56.4°C | 51.6% | 232.3hPa | 2.5V | 00:00:00 | 01:15:07 | 00:00:00 | |
| BAUMI2-15 | 2026-09-02 04:55:54 | 47.74356 | 11.71399 | 99° | 93km/h | 11174m | -5.5m/s | -56.4°C | 50.9% | 232.0hPa | 2.5V | 00:00:00 | 01:15:05 | 00:00:00 | |
| OE5WHR-10 | 2026-09-02 04:55:51 | 47.74365 | 11.71296 | 103° | 97km/h | 11193m | -7.3m/s | -56.6°C | 51.3% | 231.2hPa | 2.5V | 00:00:00 | 01:15:02 | 00:00:00 | |
| BAUMI2-15 | 2026-09-02 04:55:49 | 47.74370 | 11.71228 | 102° | 93km/h | 11207m | -7.6m/s | -56.7°C | 52.2% | 230.8hPa | 2.5V | 02:18:00 | 01:15:00 | 00:00:00 | |
| OE5MMP-10 | 2026-09-02 04:55:46 | 47.74379 | 11.71125 | 98° | 95km/h | 11225m | -5.6m/s | -56.9°C | 52.8% | 230.1hPa | 2.7V | 02:18:00 | 01:14:57 | 00:00:00 | |
| BAUMI2-15 | 2026-09-02 04:55:44 | 47.74385 | 11.71055 | 102° | 95km/h | 11237m | -6.2m/s | -57.0°C | 52.4% | 229.7hPa | 2.7V | 00:00:00 | 01:14:55 | 00:00:00 | |
| DO3MHA-11 | 2026-09-02 04:55:43 | 47.74390 | 11.70985 | 96° | 95km/h | 11249m | -6.7m/s | -57.1°C | 52.0% | 229.2hPa | 2.7V | 00:00:00 | 01:14:53 | 00:00:00 | |
| OE5DXL-15 | 2026-09-02 04:55:41 | 47.74392 | 11.70951 | 98° | 91km/h | 11255m | -6.6m/s | -57.1°C | 51.6% | 229.0hPa | 2.7V | 02:18:00 | 00:00:00 | 00:00:00 | |
| BAUMI2-15 | 2026-09-02 04:55:39 | 47.74397 | 11.70882 | 103° | 95km/h | 11271m | -7.0m/s | -57.2°C | 50.6% | 228.4hPa | 2.7V | 00:00:00 | 01:14:50 | 00:00:00 | |
| DO3MHA-12 | 2026-09-02 04:55:38 | 47.74399 | 11.70846 | 90° | 97km/h | 11278m | -7.5m/s | -57.3°C | 49.7% | 228.1hPa | 2.7V | 02:18:00 | 01:14:49 | 00:00:00 | |
| DL6DJ-15 | 2026-09-02 04:55:37 | 47.74405 | 11.70777 | 95° | 102km/h | 11294m | -7.1m/s | -57.5°C | 40.4% | 227.6hPa | 2.6V | 00:00:00 | 00:00:00 | 00:00:00 | |
| OE5MMP-10 | 2026-09-02 04:55:36 | 47.74405 | 11.70777 | 96° | 97km/h | 11294m | -7.1m/s | -57.4°C | 49.5% | 227.5hPa | 2.6V | 00:00:00 | 01:14:47 | 00:00:00 | |
| BAUMI2-15 | 2026-09-02 04:55:34 | 47.74412 | 11.70706 | 94° | 99km/h | 11309m | -6.5m/s | -57.6°C | 49.5% | 226.9hPa | 2.6V | 02:18:00 | 01:14:45 | 00:00:00 | |
| DG1MJG | 2026-09-02 04:55:33 | 47.74412 | 11.70706 | 95° | 104km/h | 11309m | -6.5m/s | -57.6°C | 40.4% | 226.9hPa | 2.7V | 02:19:00 | 00:00:00 | 00:00:00 | |
| DO3MHA-11 | 2026-09-02 04:55:32 | 47.74419 | 11.70637 | 105° | 93km/h | 11321m | -5.2m/s | -57.7°C | 49.6% | 226.6hPa | 2.7V | 00:00:00 | 01:14:43 | 00:00:00 | |
| OE5HKT-10 | 2026-09-02 04:55:31 | 47.74423 | 11.70603 | 96° | 89km/h | 11326m | -5.2m/s | -57.7°C | 49.5% | 226.4hPa | 2.7V | 00:00:00 | 01:14:42 | 00:00:00 | |
| NBG1-10 | 2026-09-02 04:55:30 | 47.74425 | 11.70567 | 101° | 88km/h | 11332m | -4.6m/s | -57.8°C | 48.8% | 226.1hPa | 2.7V | 00:00:00 | 01:14:41 | 00:00:00 | |
| BAUMI2-15 | 2026-09-02 04:55:29 | 47.74429 | 11.70532 | 100° | 93km/h | 11337m | -4.7m/s | -57.8°C | 48.4% | 225.9hPa | 2.7V | 00:00:00 | 01:14:40 | 00:00:00 | |
| DO3MHA-12 | 2026-09-02 04:55:27 | 47.74436 | 11.70463 | 102° | 91km/h | 11349m | -5.5m/s | -57.9°C | 47.9% | 225.4hPa | 2.7V | 00:00:00 | 01:14:38 | 00:00:00 | |
| OE5MMP-10 | 2026-09-02 04:55:26 | 47.74439 | 11.70427 | 94° | 89km/h | 11354m | -5.5m/s | -57.9°C | 47.3% | 225.2hPa | 2.7V | 00:00:00 | 01:14:37 | 00:00:00 | |
| BAUMI2-15 | 2026-09-02 04:55:24 | 47.74445 | 11.70358 | 97° | 91km/h | 11366m | -6.0m/s | -58.0°C | 46.5% | 224.8hPa | 2.7V | 00:00:00 | 01:14:35 | 00:00:00 | |
| DG1MFX-10 | 2026-09-02 04:55:23 | 47.74445 | 11.70358 | 98° | 99km/h | 11366m | -6.1m/s | -58.0°C | 37.6% | 224.9hPa | 2.7V | 02:19:00 | 00:00:00 | 00:00:00 | |
| DO3MHA-11 | 2026-09-02 04:55:22 | 47.74453 | 11.70290 | 98° | 88km/h | 11378m | -5.7m/s | -58.0°C | 45.7% | 224.4hPa | 2.7V | 02:18:00 | 01:14:33 | 00:00:00 | |
| OE5DRO-10 | 2026-09-02 04:55:20 | 47.74460 | 11.70224 | 104° | 86km/h | 11388m | -5.0m/s | -58.1°C | 45.1% | 224.0hPa | 2.5V | 02:18:00 | 00:00:00 | 00:00:00 | |
| BAUMI2-15 | 2026-09-02 04:55:19 | 47.74464 | 11.70190 | 97° | 86km/h | 11394m | -6.6m/s | -58.0°C | 44.7% | 223.8hPa | 2.5V | 02:18:00 | 01:14:30 | 00:00:00 | |
| DO3MHA-12 | 2026-09-02 04:55:17 | 47.74471 | 11.70126 | 101° | 86km/h | 11407m | -6.6m/s | -58.1°C | 42.8% | 223.4hPa | 2.7V | 00:00:00 | 01:14:28 | 00:00:00 | |
| OE5MMP-10 | 2026-09-02 04:55:16 | 47.74475 | 11.70094 | 101° | 84km/h | 11414m | -6.8m/s | -58.1°C | 42.2% | 223.2hPa | 2.7V | 02:18:00 | 01:14:27 | 00:00:00 | |
| BAUMI2-15 | 2026-09-02 04:55:14 | 47.74483 | 11.70033 | 99° | 86km/h | 11426m | -4.6m/s | -58.1°C | 41.2% | 222.8hPa | 2.7V | 00:00:00 | 01:14:25 | 00:00:00 | |
| DO3MHA-11 | 2026-09-02 04:55:12 | 47.74492 | 11.69969 | 97° | 84km/h | 11437m | -5.7m/s | -58.1°C | 40.0% | 222.3hPa | 2.7V | 00:00:00 | 01:14:23 | 00:00:00 | |
| OE5DXL-15 | 2026-09-02 04:55:11 | 47.74496 | 11.69937 | 103° | 84km/h | 11443m | -4.7m/s | -58.1°C | 39.5% | 222.1hPa | 2.7V | 00:00:00 | 00:00:00 | 00:00:00 | |
| BAUMI2-15 | 2026-09-02 04:55:09 | 47.74504 | 11.69875 | 100° | 84km/h | 11457m | -9.6m/s | -58.1°C | 38.1% | 221.8hPa | 2.7V | 00:00:00 | 01:14:20 | 00:00:00 | |
| OE5HKT-10 | 2026-09-02 04:55:08 | 47.74510 | 11.69845 | 111° | 82km/h | 11465m | -6.1m/s | -58.1°C | 37.7% | 221.5hPa | 2.7V | 02:19:00 | 00:00:00 | 00:00:00 | |
| DO3MHA-12 | 2026-09-02 04:55:07 | 47.74515 | 11.69814 | 96° | 84km/h | 11471m | -5.0m/s | -58.1°C | 37.2% | 221.3hPa | 2.7V | 02:19:00 | 01:14:18 | 00:00:00 | |
| DL6DJ-15 | 2026-09-02 04:55:06 | 47.74522 | 11.69752 | 104° | 80km/h | 11484m | -5.0m/s | -58.2°C | 28.8% | 220.8hPa | 2.7V | 00:00:00 | 00:00:00 | 00:00:00 | |
| BAUMI2-15 | 2026-09-02 04:55:04 | 47.74527 | 11.69722 | 101° | 84km/h | 11490m | -5.5m/s | -58.2°C | 36.5% | 220.6hPa | 2.7V | 02:19:00 | 01:14:15 | 00:00:00 | |
| DB0UT-7 | 2026-09-02 04:55:02 | 47.74536 | 11.69661 | 102° | 84km/h | 11500m | -4.1m/s | -58.2°C | 35.7% | 220.2hPa | 2.5V | 02:19:00 | 01:14:13 | 00:00:00 | |
| OE5DRO-10 | 2026-09-02 04:55:01 | 47.74540 | 11.69629 | 99° | 84km/h | 11505m | -5.5m/s | -58.2°C | 35.1% | 220.1hPa | 2.6V | 00:00:00 | 00:00:00 | 00:00:00 | |
| DO8TBO-1 | 2026-09-02 04:55:00 | 47.74543 | 11.69597 | 100° | 86km/h | 11511m | -5.5m/s | 0°C | 0% | 0hPa | 2.6V | 00:00:00 | 01:14:11 | 00:00:00 | |
| BAUMI2-15 | 2026-09-02 04:54:59 | 47.74547 | 11.69566 | 100° | 84km/h | 11517m | -4.8m/s | -58.2°C | 34.1% | 219.6hPa | 2.6V | 00:00:00 | 01:14:10 | 00:00:00 | |
| OE5WHR-10 | 2026-09-02 04:54:58 | 47.74551 | 11.69533 | 102° | 84km/h | 11521m | -5.6m/s | -58.2°C | 33.5% | 219.4hPa | 2.6V | 00:00:00 | 00:00:00 | 00:00:00 | |
| NBG1-10 | 2026-09-02 04:54:57 | 47.74555 | 11.69503 | 100° | 86km/h | 11528m | -7.4m/s | -58.1°C | 33.1% | 219.2hPa | 2.6V | 02:19:00 | 01:14:08 | 00:00:00 | |
| OE5MMP-10 | 2026-09-02 04:54:56 | 47.74558 | 11.69473 | 101° | 82km/h | 11534m | -4.9m/s | -58.1°C | 33.3% | 218.9hPa | 2.5V | 00:00:00 | 01:14:07 | 00:00:00 | |
| BAUMI2-15 | 2026-09-02 04:54:54 | 47.74564 | 11.69411 | 101° | 82km/h | 11545m | -5.5m/s | -58.2°C | 32.9% | 218.5hPa | 2.5V | 00:00:00 | 01:14:05 | 00:00:00 | |
| DO3MHA-11 | 2026-09-02 04:54:52 | 47.74570 | 11.69351 | 96° | 86km/h | 11558m | -5.7m/s | -58.2°C | 31.5% | 218.1hPa | 2.5V | 02:19:00 | 01:14:03 | 00:00:00 | |
| BAUMI2-15 | 2026-09-02 04:54:49 | 47.74579 | 11.69257 | 97° | 86km/h | 11572m | -5.0m/s | -58.2°C | 30.5% | 217.5hPa | 2.7V | 02:19:00 | 01:14:00 | 00:00:00 | |
| OE5HKT-10 | 2026-09-02 04:54:47 | 47.74585 | 11.69195 | 96° | 88km/h | 11583m | -5.0m/s | -58.1°C | 29.5% | 217.1hPa | 2.7V | 00:00:00 | 00:00:00 | 00:00:00 | |
| OE5MMP-10 | 2026-09-02 04:54:46 | 47.74587 | 11.69164 | 96° | 88km/h | 11588m | -5.4m/s | -58.0°C | 28.8% | 216.9hPa | 2.7V | 02:19:00 | 01:13:57 | 00:00:00 | |
| DO3MHA-12 | 2026-09-02 04:54:45 | 47.74588 | 11.69130 | 92° | 86km/h | 11593m | -5.5m/s | -57.9°C | 27.8% | 216.7hPa | 2.5V | 00:00:00 | 01:13:56 | 00:00:00 | |
| BAUMI2-15 | 2026-09-02 04:54:44 | 47.74590 | 11.69098 | 96° | 86km/h | 11598m | -5.4m/s | -57.8°C | 26.8% | 216.5hPa | 2.5V | 00:00:00 | 01:13:55 | 00:00:00 | |
| DO3MHA-11 | 2026-09-02 04:54:42 | 47.74595 | 11.69034 | 97° | 86km/h | 11608m | -4.8m/s | -57.7°C | 25.4% | 216.1hPa | 2.5V | 00:00:00 | 01:13:53 | 00:00:00 | |
| OE5DXL-15 | 2026-09-02 04:54:41 | 47.74596 | 11.69001 | 92° | 84km/h | 11613m | -6.9m/s | -57.6°C | 24.6% | 215.9hPa | 2.5V | 00:00:00 | 00:00:00 | 00:00:00 | |
| BAUMI2-15 | 2026-09-02 04:54:39 | 47.74601 | 11.68936 | 93° | 86km/h | 11625m | -6.1m/s | -57.2°C | 22.5% | 215.5hPa | 2.5V | 00:00:00 | 01:13:50 | 00:00:00 | |
| OE5WHR-10 | 2026-09-02 04:54:37 | 47.74606 | 11.68873 | 96° | 86km/h | 11636m | -6.7m/s | -57.2°C | 21.7% | 215.0hPa | 2.5V | 00:00:00 | 01:13:48 | 00:00:00 | |
| OE5MMP-10 | 2026-09-02 04:54:36 | 47.74608 | 11.68842 | 95° | 88km/h | 11643m | -7.7m/s | -57.2°C | 21.3% | 214.9hPa | 2.5V | 00:00:00 | 01:13:47 | 00:00:00 | |
| DO3MHA-12 | 2026-09-02 04:54:35 | 47.74611 | 11.68809 | 100° | 88km/h | 11650m | -6.1m/s | -57.2°C | 20.9% | 214.6hPa | 2.5V | 02:19:00 | 01:13:46 | 00:00:00 | |
| BAUMI2-15 | 2026-09-02 04:54:34 | 47.74614 | 11.68774 | 95° | 89km/h | 11656m | -6.7m/s | -57.2°C | 20.5% | 214.5hPa | 2.5V | 02:19:00 | 01:13:45 | 00:00:00 | |
| DO3MHA-11 | 2026-09-02 04:54:32 | 47.74621 | 11.68709 | 100° | 86km/h | 11668m | -5.8m/s | -57.1°C | 19.9% | 214.0hPa | 2.6V | 00:00:00 | 01:13:43 | 00:00:00 | |
| DG1MJG | 2026-09-02 04:54:31 | 47.74621 | 11.68709 | 100° | 95km/h | 11668m | -5.9m/s | -57.2°C | 14.3% | 214.0hPa | 2.6V | 02:20:00 | 00:00:00 | 00:00:00 | |
| DO8TBO-1 | 2026-09-02 04:54:30 | 47.74629 | 11.68640 | 103° | 78km/h | 11682m | -6.3m/s | 0°C | 0% | 0hPa | 2.6V | 00:00:00 | 01:13:41 | 00:00:00 | |
| BAUMI2-15 | 2026-09-02 04:54:29 | 47.74632 | 11.68608 | 97° | 84km/h | 11688m | -6.2m/s | -56.8°C | 18.4% | 213.5hPa | 2.6V | 00:00:00 | 01:13:40 | 00:00:00 | |
| OE5MMP-10 | 2026-09-02 04:54:26 | 47.74646 | 11.68516 | 103° | 80km/h | 11705m | -5.8m/s | -56.3°C | 16.7% | 212.9hPa | 2.6V | 00:00:00 | 01:13:37 | 00:00:00 | |
| DO3MHA-12 | 2026-09-02 04:54:25 | 47.74650 | 11.68484 | 103° | 82km/h | 11710m | -5.8m/s | -56.3°C | 16.3% | 212.6hPa | 2.6V | 00:00:00 | 01:13:36 | 00:00:00 | |
| OE5HKT-10 | 2026-09-02 04:54:24 | 47.74655 | 11.68454 | 99° | 78km/h | 11716m | -6.1m/s | -56.3°C | 16.0% | 212.4hPa | 2.6V | 00:00:00 | 01:13:35 | 00:00:00 | |
| OE5DRO-10 | 2026-09-02 04:54:23 | 47.74658 | 11.68424 | 104° | 78km/h | 11722m | -6.6m/s | -56.3°C | 15.8% | 212.3hPa | 2.6V | 02:19:00 | 00:00:00 | 00:00:00 | |
| DO3MHA-11 | 2026-09-02 04:54:22 | 47.74661 | 11.68393 | 96° | 80km/h | 11727m | -7.1m/s | -56.3°C | 15.5% | 212.1hPa | 2.6V | 02:19:00 | 01:13:33 | 00:00:00 | |
| DG1MFX-10 | 2026-09-02 04:54:21 | 47.74662 | 11.68393 | 97° | 77km/h | 11727m | -7.2m/s | -56.3°C | 10.7% | 212.1hPa | 2.7V | 02:20:00 | 00:00:00 | 00:00:00 | |
| OE5MMP-10 | 2026-09-02 04:54:16 | 47.74680 | 11.68216 | 102° | 78km/h | 11766m | -8.1m/s | -56.0°C | 13.3% | 210.6hPa | 2.7V | 02:19:00 | 01:13:27 | 00:00:00 | |
| DO3MHA-12 | 2026-09-02 04:54:15 | 47.74683 | 11.68184 | 96° | 78km/h | 11774m | -8.1m/s | -56.0°C | 13.1% | 210.5hPa | 2.6V | 00:00:00 | 01:13:26 | 00:00:00 | |
| DO3MHA-11 | 2026-09-02 04:54:12 | 47.74695 | 11.68094 | 112° | 77km/h | 11799m | -5.5m/s | -55.6°C | 11.9% | 209.8hPa | 2.6V | 00:00:00 | 01:13:23 | 00:00:00 | |
| OE5DXL-15 | 2026-09-02 04:54:11 | 47.74700 | 11.68064 | 101° | 75km/h | 11805m | -6.0m/s | -55.6°C | 11.8% | 209.7hPa | 2.6V | 02:19:00 | 00:00:00 | 00:00:00 | |
| DF3TZ-5 | 2026-09-02 04:54:08 | 47.74717 | 11.67928 | 100° | 84km/h | 11842m | -7.2m/s | -55.0°C | 7.0% | 208.6hPa | 2.7V | 00:00:00 | 00:00:00 | 00:00:00 | |
| OE5MMP-10 | 2026-09-02 04:54:05 | 47.74719 | 11.67899 | 96° | 77km/h | 11849m | -6.5m/s | -54.9°C | 10.6% | 208.3hPa | 2.7V | 00:00:00 | 01:13:16 | 00:00:00 | |
| DL6DJ-15 | 2026-09-02 04:54:04 | 47.74725 | 11.67843 | 96° | 73km/h | 11862m | -7.4m/s | -54.9°C | 6.6% | 208.0hPa | 2.7V | 00:00:00 | 00:00:00 | 00:00:00 | |
| DF7PN | 2026-09-02 04:54:01 | 47.74755 | 11.67513 | 93° | 80km/h | 11937m | -6.5m/s | 0°C | -1.0% | -1.0hPa | 2.7V | 00:00:00 | 00:00:00 | 00:00:00 | |
| DG1MJG | 2026-09-02 04:54:00 | 47.74730 | 11.67786 | 97° | 77km/h | 11874m | -5.9m/s | -54.9°C | 6.5% | 207.6hPa | 2.7V | 02:20:00 | 00:00:00 | 00:00:00 | |
| OE5HKT-10 | 2026-09-02 04:53:56 | 47.74743 | 11.67649 | 96° | 75km/h | 11905m | -7.8m/s | -55.1°C | 9.9% | 206.5hPa | 2.7V | 02:20:00 | 00:00:00 | 00:00:00 | |
| DO3MHA-11 | 2026-09-02 04:53:52 | 47.74753 | 11.67542 | 99° | 73km/h | 11930m | -6.6m/s | -55.2°C | 9.6% | 205.5hPa | 2.6V | 02:20:00 | 01:13:03 | 00:00:00 | |
| NBG1-10 | 2026-09-02 04:53:49 | 47.74759 | 11.67460 | 100° | 73km/h | 11951m | -4.8m/s | -55.1°C | 9.4% | 204.9hPa | 2.7V | 00:00:00 | 01:13:00 | 00:00:00 | |
| DO3MHA-12 | 2026-09-02 04:53:45 | 47.74768 | 11.67351 | 89° | 75km/h | 11976m | -8.1m/s | -55.0°C | 8.9% | 204.3hPa | 2.7V | 00:00:00 | 01:12:56 | 00:00:00 | |
| DO3MHA-11 | 2026-09-02 04:53:42 | 47.74774 | 11.67266 | 93° | 75km/h | 11994m | -6.9m/s | -55.0°C | 8.8% | 203.5hPa | 2.7V | 00:00:00 | 01:12:53 | 00:00:00 | |
| OE5DXL-15 | 2026-09-02 04:53:41 | 47.74775 | 11.67238 | 95° | 71km/h | 11999m | -5.3m/s | -54.9°C | 8.6% | 203.4hPa | 2.7V | 00:00:00 | 00:00:00 | 00:00:00 | |
| DG1MFX-10 | 2026-09-02 04:53:40 | 47.74775 | 11.67238 | 96° | 66km/h | 11999m | -5.4m/s | -55.0°C | 5.1% | 203.4hPa | 2.7V | 02:21:00 | 00:00:00 | 00:00:00 | |
| OE5WHR-10 | 2026-09-02 04:53:34 | 47.74790 | 11.67042 | 104° | 69km/h | 12040m | -7.4m/s | -54.6°C | 7.8% | 202.0hPa | 2.7V | 00:00:00 | 01:12:45 | 00:00:00 | |
| DO3MHA-11 | 2026-09-02 04:53:32 | 47.74796 | 11.66989 | 103° | 71km/h | 12053m | -6.6m/s | -54.6°C | 7.8% | 201.6hPa | 2.7V | 00:00:00 | 01:12:43 | 00:00:00 | |
| DG1MJG | 2026-09-02 04:53:29 | 47.74801 | 11.66935 | 98° | 80km/h | 12065m | -5.2m/s | -54.6°C | 4.4% | 201.2hPa | 2.7V | 02:21:00 | 00:00:00 | 00:00:00 | |
| DO3MHA-12 | 2026-09-02 04:53:26 | 47.74816 | 11.66804 | 99° | 71km/h | 12096m | -6.1m/s | -54.4°C | 7.4% | 200.1hPa | 2.7V | 00:00:00 | 01:12:36 | 00:00:00 | |
| DO3MHA-11 | 2026-09-02 04:53:22 | 47.74821 | 11.66724 | 98° | 69km/h | 12114m | -7.7m/s | -54.3°C | 7.2% | 199.5hPa | 2.7V | 02:20:00 | 01:12:33 | 00:00:00 | |
| OE5MMP-10 | 2026-09-02 04:53:21 | 47.74823 | 11.66697 | 100° | 66km/h | 12121m | -6.8m/s | -53.9°C | 7.0% | 199.3hPa | 2.7V | 00:00:00 | 01:12:32 | 00:00:00 | |
| DG1MFX-10 | 2026-09-02 04:53:20 | 47.74823 | 11.66697 | 101° | 66km/h | 12121m | -6.9m/s | -54.0°C | 3.9% | 199.4hPa | 2.7V | 02:21:00 | 00:00:00 | 00:00:00 | |
| NBG1-10 | 2026-09-02 04:53:16 | 47.74833 | 11.66569 | 97° | 69km/h | 12152m | -6.1m/s | -53.5°C | 6.7% | 198.3hPa | 2.7V | 02:20:00 | 01:12:27 | 00:00:00 | |
| DO3MHA-12 | 2026-09-02 04:53:15 | 47.74835 | 11.66547 | 100° | 68km/h | 12158m | -6.2m/s | -53.5°C | 6.6% | 198.1hPa | 2.6V | 00:00:00 | 01:12:26 | 00:00:00 | |
| OE5WHR-10 | 2026-09-02 04:53:13 | 47.74838 | 11.66497 | 101° | 69km/h | 12172m | -6.1m/s | -53.3°C | 6.5% | 197.7hPa | 2.6V | 02:20:00 | 00:00:00 | 00:00:00 | |
| DO3MHA-11 | 2026-09-02 04:53:12 | 47.74840 | 11.66472 | 90° | 68km/h | 12178m | -6.0m/s | -53.3°C | 6.5% | 197.5hPa | 2.7V | 00:00:00 | 01:12:23 | 00:00:00 | |
| OE5DXL-15 | 2026-09-02 04:53:11 | 47.74840 | 11.66447 | 96° | 71km/h | 12183m | -5.0m/s | -53.3°C | 6.5% | 197.3hPa | 2.7V | 00:00:00 | 00:00:00 | 00:00:00 | |
| OE5HKT-10 | 2026-09-02 04:53:10 | 47.74841 | 11.66423 | 97° | 71km/h | 12189m | -6.3m/s | 0°C | 0% | 0hPa | 2.7V | 00:00:00 | 01:12:21 | 00:00:00 | |
| OE5DRO-10 | 2026-09-02 04:53:07 | 47.74845 | 11.66347 | 93° | 71km/h | 12211m | -7.6m/s | -53.5°C | 6.7% | 196.5hPa | 2.7V | 00:00:00 | 00:00:00 | 00:00:00 | |
| DO3MHA-12 | 2026-09-02 04:53:05 | 47.74849 | 11.66295 | 94° | 71km/h | 12227m | -7.0m/s | -53.6°C | 6.8% | 196.2hPa | 2.7V | 02:21:00 | 01:12:16 | 00:00:00 | |
| DL6DJ-15 | 2026-09-02 04:53:01 | 47.74853 | 11.66190 | 95° | 71km/h | 12260m | -7.8m/s | -53.8°C | 3.8% | 195.4hPa | 2.7V | 00:00:00 | 00:00:00 | 00:00:00 | |
| OE5MMP-10 | 2026-09-02 04:53:00 | 47.74854 | 11.66164 | 91° | 73km/h | 12268m | -5.8m/s | -53.7°C | 6.9% | 195.2hPa | 2.7V | 00:00:00 | 01:12:11 | 00:00:00 | |
| DG1MFX-10 | 2026-09-02 04:52:59 | 47.74854 | 11.66164 | 91° | 64km/h | 12268m | -5.9m/s | -53.8°C | 3.9% | 195.2hPa | 2.7V | 02:21:00 | 00:00:00 | 00:00:00 | |
| DO3MHA-12 | 2026-09-02 04:52:55 | 47.74854 | 11.66030 | 95° | 73km/h | 12305m | -5.6m/s | -53.8°C | 7.1% | 194.2hPa | 2.7V | 00:00:00 | 01:12:06 | 00:00:00 | |
| DO3MHA-11 | 2026-09-02 04:52:52 | 47.74858 | 11.65949 | 94° | 73km/h | 12324m | -7.4m/s | -53.8°C | 7.0% | 193.6hPa | 2.7V | 02:21:00 | 01:12:03 | 00:00:00 | |
| OE5MMP-10 | 2026-09-02 04:52:50 | 47.74860 | 11.65893 | 92° | 71km/h | 12336m | -5.0m/s | -53.7°C | 7.1% | 193.2hPa | 2.7V | 00:00:00 | 01:12:01 | 00:00:00 | |
| OE5HKT-10 | 2026-09-02 04:52:49 | 47.74861 | 11.65866 | 94° | 73km/h | 12343m | -6.7m/s | 0°C | 0% | 0hPa | 2.7V | 02:21:00 | 00:00:00 | 00:00:00 | |
| OE5DRO-10 | 2026-09-02 04:52:48 | 47.74861 | 11.65839 | 87° | 73km/h | 12350m | -5.6m/s | -53.3°C | 6.8% | 192.9hPa | 2.7V | 00:00:00 | 00:00:00 | 00:00:00 | |
| DO3MHA-12 | 2026-09-02 04:52:45 | 47.74862 | 11.65758 | 87° | 71km/h | 12369m | -5.6m/s | -53.2°C | 6.7% | 192.2hPa | 2.7V | 00:00:00 | 01:11:56 | 00:00:00 | |
| DO8TBO-1 | 2026-09-02 04:52:44 | 47.74862 | 11.65732 | 99° | 77km/h | 12375m | -6.7m/s | 0°C | 0% | 0hPa | 2.7V | 00:00:00 | 01:11:55 | 00:00:00 | |
| DO3MHA-11 | 2026-09-02 04:52:42 | 47.74864 | 11.65678 | 98° | 73km/h | 12388m | -4.8m/s | -53.2°C | 6.6% | 191.6hPa | 2.7V | 00:00:00 | 01:11:53 | 00:00:00 | |
| OE5DXL-15 | 2026-09-02 04:52:41 | 47.74866 | 11.65652 | 97° | 78km/h | 12393m | -6.3m/s | -53.2°C | 6.7% | 191.5hPa | 2.7V | 02:21:00 | 00:00:00 | 00:00:00 | |
| OE5MMP-10 | 2026-09-02 04:52:40 | 47.74867 | 11.65626 | 88° | 73km/h | 12399m | -4.3m/s | -53.2°C | 6.6% | 191.4hPa | 2.7V | 02:21:00 | 01:11:51 | 00:00:00 | |
| DG1MFX-10 | 2026-09-02 04:52:38 | 47.74868 | 11.65600 | 100° | 71km/h | 12404m | -7.1m/s | -53.3°C | 3.7% | 191.2hPa | 2.7V | 02:21:00 | 00:00:00 | 00:00:00 | |
| DO3MHA-12 | 2026-09-02 04:52:35 | 47.74868 | 11.65492 | 80° | 77km/h | 12429m | -5.8m/s | -53.3°C | 6.7% | 190.4hPa | 2.7V | 02:21:00 | 01:11:46 | 00:00:00 | |
| DO3MHA-11 | 2026-09-02 04:52:32 | 47.74865 | 11.65406 | 82° | 78km/h | 12449m | -7.9m/s | -53.4°C | 6.8% | 189.7hPa | 2.6V | 00:00:00 | 01:11:43 | 00:00:00 | |
| OE5WHR-10 | 2026-09-02 04:52:31 | 47.74864 | 11.65377 | 98° | 80km/h | 12457m | -6.2m/s | -53.4°C | 6.8% | 189.6hPa | 2.6V | 00:00:00 | 01:11:42 | 00:00:00 | |
| OE5MMP-10 | 2026-09-02 04:52:30 | 47.74866 | 11.65348 | 91° | 77km/h | 12463m | -5.1m/s | -53.5°C | 6.8% | 189.3hPa | 2.6V | 00:00:00 | 01:11:41 | 00:00:00 | |
| OE5HKT-10 | 2026-09-02 04:52:28 | 47.74870 | 11.65294 | 95° | 80km/h | 12475m | -7.3m/s | 0°C | 0% | 0hPa | 2.6V | 00:00:00 | 00:00:00 | 00:00:00 | |
| DO3MHA-12 | 2026-09-02 04:52:25 | 47.74869 | 11.65204 | 89° | 80km/h | 12495m | -4.6m/s | -53.7°C | 6.7% | 188.3hPa | 2.6V | 00:00:00 | 01:11:36 | 00:00:00 | |
| BAUMI2-15 | 2026-09-02 04:52:24 | 47.74868 | 11.65174 | 88° | 78km/h | 12501m | -7.7m/s | -53.8°C | 6.7% | 188.2hPa | 2.6V | 00:00:00 | 01:11:35 | 00:00:00 | |
| DO3MHA-11 | 2026-09-02 04:52:22 | 47.74868 | 11.65115 | 90° | 84km/h | 12517m | -10.0m/s | -53.8°C | 6.7% | 187.8hPa | 2.6V | 02:21:00 | 01:11:33 | 00:00:00 | |
| OE5MMP-10 | 2026-09-02 04:52:20 | 47.74868 | 11.65056 | 91° | 84km/h | 12531m | -8.8m/s | -53.8°C | 6.8% | 187.4hPa | 2.7V | 00:00:00 | 01:11:31 | 00:00:00 | |
| BAUMI2-15 | 2026-09-02 04:52:19 | 47.74868 | 11.65026 | 91° | 84km/h | 12539m | -6.6m/s | -53.9°C | 6.8% | 187.1hPa | 2.7V | 02:21:00 | 01:11:30 | 00:00:00 | |
| DG1MFX-10 | 2026-09-02 04:52:18 | 47.74869 | 11.64996 | 96° | 88km/h | 12546m | -6.3m/s | -53.9°C | 3.6% | 186.9hPa | 2.6V | 02:21:00 | 00:00:00 | 00:00:00 | |
| DO3MHA-12 | 2026-09-02 04:52:15 | 47.74869 | 11.64902 | 92° | 82km/h | 12565m | -6.7m/s | -53.4°C | 6.6% | 186.3hPa | 2.6V | 00:00:00 | 01:11:26 | 00:00:00 | |
| BAUMI2-15 | 2026-09-02 04:52:14 | 47.74869 | 11.64868 | 90° | 84km/h | 12572m | -5.9m/s | -53.2°C | 6.5% | 186.1hPa | 2.6V | 00:00:00 | 01:11:25 | 00:00:00 | |
| DO3MHA-11 | 2026-09-02 04:52:12 | 47.74870 | 11.64803 | 94° | 78km/h | 12585m | -6.0m/s | -53.0°C | 6.3% | 185.8hPa | 2.6V | 00:00:00 | 01:11:23 | 00:00:00 | |
| OE5DXL-15 | 2026-09-02 04:52:11 | 47.74869 | 11.64774 | 84° | 82km/h | 12591m | -6.4m/s | -52.9°C | 6.3% | 185.5hPa | 2.6V | 00:00:00 | 00:00:00 | 00:00:00 | |
| NBG1-10 | 2026-09-02 04:52:10 | 47.74868 | 11.64743 | 92° | 82km/h | 12597m | -6.4m/s | -52.9°C | 6.3% | 185.4hPa | 2.6V | 00:00:00 | 01:11:21 | 00:00:00 | |
| BAUMI2-15 | 2026-09-02 04:52:09 | 47.74869 | 11.64714 | 93° | 78km/h | 12604m | -7.0m/s | -52.8°C | 6.3% | 185.2hPa | 2.6V | 00:00:00 | 01:11:20 | 00:00:00 | |
| OE5HKT-10 | 2026-09-02 04:52:07 | 47.74870 | 11.64655 | 101° | 78km/h | 12618m | -6.0m/s | 0°C | 0% | 0hPa | 2.6V | 00:00:00 | 01:11:18 | 00:00:00 | |
| DO3MHA-12 | 2026-09-02 04:52:05 | 47.74873 | 11.64597 | 90° | 82km/h | 12630m | -5.8m/s | -52.3°C | 5.8% | 184.4hPa | 2.6V | 02:22:00 | 01:11:16 | 00:00:00 | |
| DF3TZ-5 | 2026-09-02 04:52:04 | 47.74873 | 11.64536 | 88° | 77km/h | 12644m | -9.2m/s | -52.2°C | 2.9% | 184.2hPa | 2.6V | 00:00:00 | 00:00:00 | 00:00:00 | |
| DL6DJ-15 | 2026-09-02 04:51:59 | 47.74878 | 11.64412 | 92° | 77km/h | 12671m | -7.5m/s | -52.2°C | 2.9% | 183.3hPa | 2.6V | 00:00:00 | 00:00:00 | 00:00:00 | |
| BAUMI2-15 | 2026-09-02 04:51:58 | 47.74879 | 11.64382 | 95° | 82km/h | 12678m | -6.5m/s | -52.1°C | 5.7% | 183.1hPa | 2.6V | 00:00:00 | 01:11:09 | 00:00:00 | |
| DG1MFX-10 | 2026-09-02 04:51:56 | 47.74879 | 11.64351 | 89° | 86km/h | 12684m | -5.5m/s | -52.1°C | 3.0% | 182.9hPa | 2.6V | 02:22:00 | 00:00:00 | 00:00:00 | |
| DO3MHA-12 | 2026-09-02 04:51:55 | 47.74880 | 11.64288 | 96° | 84km/h | 12700m | -6.6m/s | -52.1°C | 5.6% | 182.5hPa | 2.6V | 00:00:00 | 01:11:06 | 00:00:00 | |
| BAUMI2-15 | 2026-09-02 04:51:53 | 47.74882 | 11.64226 | 97° | 86km/h | 12713m | -6.8m/s | -52.1°C | 5.6% | 182.0hPa | 2.6V | 00:00:00 | 01:11:04 | 00:00:00 | |
| DO3MHA-11 | 2026-09-02 04:51:52 | 47.74884 | 11.64193 | 92° | 84km/h | 12721m | -6.6m/s | -52.1°C | 5.6% | 181.8hPa | 2.6V | 02:22:00 | 01:11:03 | 00:00:00 | |
| OE5DRO-10 | 2026-09-02 04:51:51 | 47.74885 | 11.64160 | 92° | 82km/h | 12728m | -7.7m/s | -52.1°C | 5.6% | 181.6hPa | 2.6V | 00:00:00 | 00:00:00 | 00:00:00 | |
| OE5MMP-10 | 2026-09-02 04:51:50 | 47.74886 | 11.64129 | 98° | 82km/h | 12736m | -6.7m/s | -52.1°C | 5.6% | 181.5hPa | 2.6V | 00:00:00 | 01:11:01 | 00:00:00 | |
| OE5WHR-10 | 2026-09-02 04:51:49 | 47.74888 | 11.64098 | 92° | 82km/h | 12743m | -6.5m/s | -52.2°C | 5.6% | 181.3hPa | 2.6V | 00:00:00 | 00:00:00 | 00:00:00 | |
| BAUMI2-15 | 2026-09-02 04:51:48 | 47.74889 | 11.64065 | 92° | 82km/h | 12749m | -6.9m/s | -52.2°C | 5.7% | 181.1hPa | 2.6V | 02:22:00 | 01:10:59 | 00:00:00 | |
| PG1ADW-2 | 2026-09-02 04:51:47 | 47.74890 | 11.64034 | 96° | 82km/h | 12757m | -7.9m/s | -52.2°C | 5.6% | 180.9hPa | 2.7V | 00:00:00 | 00:00:00 | 00:00:00 | |
| OE5HKT-10 | 2026-09-02 04:51:44 | 47.74894 | 11.63941 | 90° | 80km/h | 12777m | -6.1m/s | 0°C | 0% | 0hPa | 2.7V | 00:00:00 | 00:00:00 | 00:00:00 | |
| BAUMI2-15 | 2026-09-02 04:51:43 | 47.74894 | 11.63911 | 93° | 80km/h | 12783m | -6.0m/s | -52.4°C | 5.6% | 180.1hPa | 2.7V | 00:00:00 | 01:10:54 | 00:00:00 | |
| DO3MHA-11 | 2026-09-02 04:51:42 | 47.74895 | 11.63881 | 93° | 82km/h | 12789m | -5.8m/s | -52.4°C | 5.5% | 179.9hPa | 2.7V | 00:00:00 | 01:10:53 | 00:00:00 | |
| OE5DXL-15 | 2026-09-02 04:51:41 | 47.74897 | 11.63851 | 96° | 86km/h | 12795m | -6.3m/s | -52.4°C | 5.6% | 179.7hPa | 2.7V | 00:00:00 | 00:00:00 | 00:00:00 | |
| OE5MMP-10 | 2026-09-02 04:51:40 | 47.74897 | 11.63820 | 86° | 82km/h | 12801m | -6.0m/s | -52.5°C | 5.6% | 179.6hPa | 2.7V | 02:22:00 | 01:10:51 | 00:00:00 | |
| BAUMI2-15 | 2026-09-02 04:51:38 | 47.74896 | 11.63762 | 94° | 80km/h | 12816m | -7.7m/s | -52.6°C | 5.5% | 179.1hPa | 2.6V | 00:00:00 | 01:10:49 | 00:00:00 | |
| NBG1-10 | 2026-09-02 04:51:37 | 47.74896 | 11.63732 | 91° | 88km/h | 12823m | -6.5m/s | -52.7°C | 5.6% | 179.0hPa | 2.6V | 02:22:00 | 01:10:48 | 00:00:00 | |
| DO3MHA-12 | 2026-09-02 04:51:35 | 47.74898 | 11.63669 | 89° | 84km/h | 12836m | -5.9m/s | -52.7°C | 5.5% | 178.6hPa | 2.6V | 02:22:00 | 01:10:46 | 00:00:00 | |
| BAUMI2-15 | 2026-09-02 04:51:33 | 47.74899 | 11.63607 | 96° | 86km/h | 12851m | -7.4m/s | -52.7°C | 5.5% | 178.2hPa | 2.7V | 02:22:00 | 01:10:44 | 00:00:00 | |
| DO3MHA-11 | 2026-09-02 04:51:32 | 47.74900 | 11.63575 | 87° | 86km/h | 12858m | -5.8m/s | -52.7°C | 5.5% | 178.1hPa | 2.7V | 00:00:00 | 01:10:43 | 00:00:00 | |
| OE5MMP-10 | 2026-09-02 04:51:30 | 47.74901 | 11.63513 | 92° | 86km/h | 12870m | -6.7m/s | -52.7°C | 5.6% | 177.5hPa | 2.7V | 00:00:00 | 01:10:41 | 00:00:00 | |
| BAUMI2-15 | 2026-09-02 04:51:28 | 47.74901 | 11.63448 | 94° | 88km/h | 12884m | -6.6m/s | -52.7°C | 5.5% | 177.4hPa | 2.7V | 00:00:00 | 01:10:39 | 00:00:00 | |
| PG1ADW-2 | 2026-09-02 04:51:27 | 47.74901 | 11.63416 | 88° | 86km/h | 12893m | -9.7m/s | -52.6°C | 5.5% | 177.2hPa | 2.7V | 02:22:00 | 01:10:38 | 00:00:00 | |
| DO3MHA-12 | 2026-09-02 04:51:25 | 47.74903 | 11.63351 | 86° | 88km/h | 12909m | -8.1m/s | -52.5°C | 5.4% | 176.6hPa | 2.7V | 00:00:00 | 01:10:36 | 00:00:00 | |
| BAUMI2-15 | 2026-09-02 04:51:23 | 47.74905 | 11.63285 | 91° | 89km/h | 12925m | -7.7m/s | -52.8°C | 5.5% | 176.2hPa | 2.7V | 00:00:00 | 01:10:34 | 00:00:00 | |
| DO3MHA-11 | 2026-09-02 04:51:22 | 47.74905 | 11.63252 | 93° | 89km/h | 12933m | -6.7m/s | -52.9°C | 5.5% | 176.0hPa | 2.7V | 02:22:00 | 01:10:33 | 00:00:00 | |
| OE5MMP-10 | 2026-09-02 04:51:20 | 47.74908 | 11.63188 | 90° | 89km/h | 12948m | -7.2m/s | -53.0°C | 5.5% | 175.6hPa | 2.6V | 00:00:00 | 01:10:31 | 00:00:00 | |
| BAUMI2-15 | 2026-09-02 04:51:18 | 47.74909 | 11.63121 | 88° | 86km/h | 12961m | -6.6m/s | -53.1°C | 5.6% | 175.2hPa | 2.6V | 02:22:00 | 01:10:29 | 00:00:00 | |
| DO3MHA-12 | 2026-09-02 04:51:15 | 47.74911 | 11.63021 | 96° | 88km/h | 12982m | -7.0m/s | -53.0°C | 5.5% | 174.7hPa | 2.7V | 00:00:00 | 01:10:26 | 00:00:00 | |
| BAUMI2-15 | 2026-09-02 04:51:13 | 47.74915 | 11.62956 | 92° | 88km/h | 12996m | -8.0m/s | -52.9°C | 5.4% | 174.3hPa | 2.7V | 00:00:00 | 01:10:24 | 00:00:00 | |
| DO3MHA-11 | 2026-09-02 04:51:12 | 47.74918 | 11.62922 | 103° | 88km/h | 13004m | -7.5m/s | -53.0°C | 5.5% | 174.0hPa | 2.7V | 00:00:00 | 01:10:23 | 00:00:00 | |
| OE5DXL-15 | 2026-09-02 04:51:11 | 47.74920 | 11.62890 | 92° | 82km/h | 13010m | -5.8m/s | -53.0°C | 5.5% | 173.8hPa | 2.7V | 02:22:00 | 00:00:00 | 00:00:00 | |
| OE5MMP-10 | 2026-09-02 04:51:10 | 47.74923 | 11.62856 | 100° | 86km/h | 13017m | -7.7m/s | -53.0°C | 5.5% | 173.6hPa | 2.7V | 02:22:00 | 01:10:21 | 00:00:00 | |
| DO8TBO-1 | 2026-09-02 04:51:09 | 47.74926 | 11.62825 | 97° | 77km/h | 13025m | -8.0m/s | 0°C | 0% | 0hPa | 2.7V | 00:00:00 | 01:10:20 | 00:00:00 | |
| BAUMI2-15 | 2026-09-02 04:51:08 | 47.74928 | 11.62794 | 97° | 88km/h | 13033m | -6.4m/s | -52.6°C | 5.2% | 173.3hPa | 2.7V | 00:00:00 | 01:10:19 | 00:00:00 | |
| PG1ADW-2 | 2026-09-02 04:51:06 | 47.74933 | 11.62729 | 94° | 84km/h | 13046m | -6.4m/s | -52.5°C | 5.2% | 173.0hPa | 2.7V | 00:00:00 | 00:00:00 | 00:00:00 | |
| DO3MHA-12 | 2026-09-02 04:51:05 | 47.74936 | 11.62695 | 100° | 86km/h | 13053m | -7.2m/s | -52.5°C | 5.1% | 172.7hPa | 2.7V | 02:23:00 | 01:10:16 | 00:00:00 | |
| NBG1-10 | 2026-09-02 04:51:04 | 47.74940 | 11.62662 | 101° | 80km/h | 13060m | -6.9m/s | -52.4°C | 5.2% | 172.5hPa | 2.6V | 00:00:00 | 01:10:15 | 00:00:00 | |
| BAUMI2-15 | 2026-09-02 04:51:03 | 47.74941 | 11.62631 | 89° | 82km/h | 13067m | -7.7m/s | -52.4°C | 5.2% | 172.3hPa | 2.6V | 02:23:00 | 01:10:14 | 00:00:00 | |
| DF3TZ-5 | 2026-09-02 04:51:02 | 47.74950 | 11.62442 | 105° | 80km/h | 13113m | -7.1m/s | -51.8°C | 2.4% | 171.1hPa | 2.6V | 00:00:00 | 00:00:00 | 00:00:00 | |
| DL6DJ-15 | 2026-09-02 04:50:57 | 47.74950 | 11.62442 | 105° | 80km/h | 13113m | -7.1m/s | -51.8°C | 2.4% | 171.1hPa | 2.6V | 00:00:00 | 00:00:00 | 00:00:00 | |
| DF7PN | 2026-09-02 04:50:55 | 47.74959 | 11.62352 | 99° | 68km/h | 13135m | -7.4m/s | -51.9°C | 2.3% | 170.6hPa | 2.6V | 00:00:00 | 00:00:00 | 00:00:00 | |
| OE5DRO-10 | 2026-09-02 04:50:54 | 47.74958 | 11.62352 | 100° | 77km/h | 13135m | -7.4m/s | -51.8°C | 5.0% | 170.6hPa | 2.6V | 00:00:00 | 00:00:00 | 00:00:00 | |
| BAUMI2-15 | 2026-09-02 04:50:53 | 47.74960 | 11.62323 | 93° | 82km/h | 13143m | -8.3m/s | -51.8°C | 5.0% | 170.3hPa | 2.6V | 00:00:00 | 01:10:04 | 00:00:00 | |
| DO3MHA-11 | 2026-09-02 04:50:52 | 47.74963 | 11.62293 | 105° | 78km/h | 13151m | -6.6m/s | -51.8°C | 5.0% | 170.2hPa | 2.6V | 02:23:00 | 01:10:03 | 00:00:00 | |
| OE5MMP-10 | 2026-09-02 04:50:50 | 47.74970 | 11.62233 | 102° | 77km/h | 13166m | -7.7m/s | -51.9°C | 4.9% | 169.7hPa | 2.7V | 00:00:00 | 01:10:01 | 00:00:00 | |
| BAUMI2-15 | 2026-09-02 04:50:48 | 47.74977 | 11.62174 | 91° | 78km/h | 13182m | -8.2m/s | -51.9°C | 4.9% | 169.4hPa | 2.7V | 02:23:00 | 01:09:59 | 00:00:00 | |
| IN3HCDX | 2026-09-02 04:50:47 | 47.74977 | 11.62174 | 91° | 84km/h | 13182m | -8.2m/s | -51.9°C | 2.2% | 169.4hPa | 2.6V | 00:00:00 | 00:00:00 | 00:00:00 | |
| DO3MHA-12 | 2026-09-02 04:50:45 | 47.74987 | 11.62086 | 98° | 75km/h | 13206m | -10.3m/s | -51.6°C | 4.8% | 168.6hPa | 2.6V | 00:00:00 | 01:09:56 | 00:00:00 | |
| PG1ADW-2 | 2026-09-02 04:50:44 | 47.74991 | 11.62059 | 110° | 75km/h | 13215m | -7.6m/s | -51.4°C | 4.7% | 168.5hPa | 2.6V | 00:00:00 | 00:00:00 | 00:00:00 | |
| BAUMI2-15 | 2026-09-02 04:50:43 | 47.74994 | 11.62034 | 95° | 73km/h | 13222m | -7.9m/s | -51.3°C | 4.7% | 168.2hPa | 2.6V | 00:00:00 | 01:09:54 | 00:00:00 | |
| DO3MHA-11 | 2026-09-02 04:50:42 | 47.74997 | 11.62006 | 104° | 77km/h | 13230m | -7.1m/s | -51.4°C | 4.6% | 168.1hPa | 2.6V | 00:00:00 | 01:09:53 | 00:00:00 | |
| OE5WHR-10 | 2026-09-02 04:50:41 | 47.75001 | 11.61978 | 100° | 75km/h | 13238m | -9.2m/s | -51.4°C | 4.6% | 168.0hPa | 2.6V | 00:00:00 | 00:00:00 | 00:00:00 | |
| OE5MMP-10 | 2026-09-02 04:50:40 | 47.75003 | 11.61953 | 99° | 77km/h | 13247m | -8.4m/s | -51.5°C | 4.6% | 167.7hPa | 2.6V | 02:23:00 | 01:09:51 | 00:00:00 | |
| BAUMI2-15 | 2026-09-02 04:50:38 | 47.75008 | 11.61897 | 101° | 78km/h | 13267m | -7.5m/s | -51.5°C | 4.6% | 167.2hPa | 2.6V | 00:00:00 | 01:09:49 | 00:00:00 | |
| DO3MHA-12 | 2026-09-02 04:50:35 | 47.75014 | 11.61812 | 96° | 80km/h | 13296m | -11.5m/s | -51.7°C | 4.7% | 166.5hPa | 2.6V | 02:23:00 | 01:09:46 | 00:00:00 | |
| DG1MFX-10 | 2026-09-02 04:50:34 | 47.75014 | 11.61812 | 97° | 77km/h | 13296m | -11.5m/s | -51.7°C | 2.2% | 166.6hPa | 2.6V | 02:23:00 | 00:00:00 | 00:00:00 | |
| BAUMI2-15 | 2026-09-02 04:50:33 | 47.75020 | 11.61753 | 100° | 80km/h | 13310m | -6.5m/s | -51.8°C | 4.7% | 166.1hPa | 2.6V | 02:23:00 | 01:09:44 | 00:00:00 | |
| DO3MHA-11 | 2026-09-02 04:50:32 | 47.75023 | 11.61723 | 97° | 80km/h | 13316m | -6.2m/s | -51.8°C | 4.7% | 165.9hPa | 2.6V | 00:00:00 | 01:09:43 | 00:00:00 | |
| OE5MMP-10 | 2026-09-02 04:50:30 | 47.75027 | 11.61662 | 95° | 78km/h | 13331m | -6.2m/s | -51.8°C | 4.7% | 165.5hPa | 2.6V | 00:00:00 | 01:09:41 | 00:00:00 | |
| BAUMI2-15 | 2026-09-02 04:50:28 | 47.75032 | 11.61601 | 99° | 78km/h | 13345m | -7.7m/s | -51.7°C | 4.6% | 165.1hPa | 2.6V | 00:00:00 | 01:09:39 | 00:00:00 | |
| DG1MJG | 2026-09-02 04:50:27 | 47.75032 | 11.61601 | 100° | 86km/h | 13345m | -7.8m/s | -51.7°C | 2.1% | 165.2hPa | 2.6V | 02:24:00 | 00:00:00 | 00:00:00 | |
| DL6DJ-15 | 2026-09-02 04:50:26 | 47.75035 | 11.61542 | 94° | 78km/h | 13359m | -6.9m/s | -51.6°C | 2.0% | 164.8hPa | 2.6V | 00:00:00 | 00:00:00 | 00:00:00 | |
| DO3MHA-12 | 2026-09-02 04:50:25 | 47.75037 | 11.61514 | 104° | 78km/h | 13366m | -7.3m/s | -51.5°C | 4.6% | 164.7hPa | 2.6V | 00:00:00 | 01:09:36 | 00:00:00 | |
| PG1ADW-2 | 2026-09-02 04:50:24 | 47.75040 | 11.61485 | 93° | 75km/h | 13373m | -6.4m/s | -51.5°C | 4.6% | 164.4hPa | 2.6V | 02:23:00 | 00:00:00 | 00:00:00 | |
| IN3HCDX | 2026-09-02 04:50:23 | 47.75040 | 11.61485 | 94° | 80km/h | 13373m | -6.5m/s | -51.6°C | 2.0% | 164.4hPa | 2.6V | 00:00:00 | 00:00:00 | 00:00:00 | |
| DO3MHA-11 | 2026-09-02 04:50:22 | 47.75043 | 11.61427 | 87° | 75km/h | 13390m | -6.7m/s | -51.5°C | 4.5% | 164.0hPa | 2.6V | 02:23:00 | 01:09:33 | 00:00:00 | |
| OE5WHR-10 | 2026-09-02 04:50:19 | 47.75047 | 11.61344 | 87° | 69km/h | 13409m | -6.0m/s | -51.6°C | 4.5% | 163.5hPa | 2.7V | 00:00:00 | 01:09:30 | 00:00:00 | |
| OE5DRO-10 | 2026-09-02 04:50:16 | 47.75053 | 11.61255 | 94° | 73km/h | 13432m | -8.0m/s | -51.7°C | 4.6% | 162.8hPa | 2.7V | 00:00:00 | 00:00:00 | 00:00:00 | |
| DO3MHA-12 | 2026-09-02 04:50:15 | 47.75055 | 11.61226 | 96° | 73km/h | 13439m | -6.5m/s | -51.7°C | 4.6% | 162.6hPa | 2.7V | 00:00:00 | 01:09:26 | 00:00:00 | |
| DG1MFX-10 | 2026-09-02 04:50:13 | 47.75057 | 11.61200 | 100° | 73km/h | 13446m | -9.2m/s | -51.8°C | 2.1% | 162.5hPa | 2.7V | 02:24:00 | 00:00:00 | 00:00:00 | |
| DO3MHA-11 | 2026-09-02 04:50:12 | 47.75058 | 11.61147 | 98° | 73km/h | 13461m | -6.8m/s | -51.9°C | 4.6% | 162.1hPa | 2.7V | 00:00:00 | 01:09:23 | 00:00:00 | |
| OE5DXL-15 | 2026-09-02 04:50:11 | 47.75059 | 11.61119 | 90° | 71km/h | 13470m | -10.9m/s | -51.9°C | 4.5% | 161.9hPa | 2.7V | 00:00:00 | 00:00:00 | 00:00:00 | |
| OE5MMP-10 | 2026-09-02 04:50:10 | 47.75060 | 11.61092 | 98° | 73km/h | 13479m | -8.7m/s | -51.9°C | 4.6% | 161.7hPa | 2.7V | 02:23:00 | 01:09:21 | 00:00:00 | |
| DO8TBO-1 | 2026-09-02 04:50:06 | 47.75067 | 11.60983 | 98° | 66km/h | 13512m | -8.9m/s | 0°C | 0% | 0hPa | 2.7V | 00:00:00 | 01:09:17 | 00:00:00 | |
| DO3MHA-12 | 2026-09-02 04:50:05 | 47.75069 | 11.60958 | 95° | 69km/h | 13520m | -6.8m/s | -52.2°C | 4.6% | 160.7hPa | 2.7V | 02:24:00 | 01:09:16 | 00:00:00 | |
| DO3MHA-11 | 2026-09-02 04:50:02 | 47.75074 | 11.60876 | 99° | 69km/h | 13542m | -6.3m/s | -52.2°C | 4.6% | 160.2hPa | 2.6V | 00:00:00 | 01:09:13 | 00:00:00 | |
| OE5MMP-10 | 2026-09-02 04:50:00 | 47.75077 | 11.60823 | 97° | 71km/h | 13555m | -5.9m/s | -52.2°C | 4.6% | 159.8hPa | 2.6V | 00:00:00 | 01:09:11 | 00:00:00 | |
| OE5HKT-10 | 2026-09-02 04:49:59 | 47.75078 | 11.60797 | 89° | 66km/h | 13561m | -7.2m/s | 0°C | 0% | 0hPa | 2.6V | 00:00:00 | 00:00:00 | 00:00:00 | |
| NBG1-10 | 2026-09-02 04:49:57 | 47.75080 | 11.60744 | 92° | 75km/h | 13577m | -7.6m/s | -52.4°C | 4.5% | 159.3hPa | 2.6V | 02:24:00 | 01:09:08 | 00:00:00 | |
| DG1MJG | 2026-09-02 04:49:56 | 47.75080 | 11.60744 | 92° | 60km/h | 13577m | -7.7m/s | -52.4°C | 1.9% | 159.4hPa | 2.7V | 02:24:00 | 00:00:00 | 00:00:00 | |
| DO3MHA-12 | 2026-09-02 04:49:55 | 47.75079 | 11.60694 | 90° | 71km/h | 13594m | -6.9m/s | -52.5°C | 4.5% | 158.9hPa | 2.7V | 00:00:00 | 01:09:06 | 00:00:00 | |
| OE5WHR-10 | 2026-09-02 04:49:53 | 47.75078 | 11.60641 | 80° | 73km/h | 13608m | -7.5m/s | -52.6°C | 4.6% | 158.7hPa | 2.7V | 02:24:00 | 00:00:00 | 00:00:00 | |
| DO3MHA-11 | 2026-09-02 04:49:52 | 47.75077 | 11.60612 | 91° | 71km/h | 13616m | -8.1m/s | -52.7°C | 4.6% | 158.4hPa | 2.7V | 02:24:00 | 01:09:03 | 00:00:00 | |
| OE5MMP-10 | 2026-09-02 04:49:50 | 47.75077 | 11.60558 | 93° | 71km/h | 13632m | -7.9m/s | -52.6°C | 4.8% | 158.0hPa | 2.7V | 00:00:00 | 01:09:01 | 00:00:00 | |
| DO3MHA-12 | 2026-09-02 04:49:45 | 47.75075 | 11.60425 | 92° | 75km/h | 13671m | -9.1m/s | -52.9°C | 4.8% | 157.0hPa | 2.7V | 00:00:00 | 01:08:56 | 00:00:00 | |
| DO3MHA-11 | 2026-09-02 04:49:42 | 47.75072 | 11.60342 | 82° | 77km/h | 13694m | -8.5m/s | -53.2°C | 4.8% | 156.5hPa | 2.7V | 00:00:00 | 01:08:53 | 00:00:00 | |
| OE5DXL-15 | 2026-09-02 04:49:41 | 47.75070 | 11.60313 | 92° | 80km/h | 13702m | -6.8m/s | -53.2°C | 4.7% | 156.3hPa | 2.7V | 02:24:00 | 00:00:00 | 00:00:00 | |
| OE5MMP-10 | 2026-09-02 04:49:40 | 47.75069 | 11.60287 | 82° | 77km/h | 13709m | -7.3m/s | -53.3°C | 4.7% | 156.1hPa | 2.6V | 02:24:00 | 01:08:51 | 00:00:00 | |
| OE5DRO-10 | 2026-09-02 04:49:38 | 47.75068 | 11.60231 | 80° | 80km/h | 13725m | -7.0m/s | -53.4°C | 4.8% | 155.8hPa | 2.6V | 02:24:00 | 00:00:00 | 00:00:00 | |
| DO3MHA-12 | 2026-09-02 04:49:35 | 47.75065 | 11.60146 | 85° | 80km/h | 13753m | -9.1m/s | -53.3°C | 4.8% | 155.0hPa | 2.6V | 02:24:00 | 01:08:46 | 00:00:00 | |
| IN3HCDX | 2026-09-02 04:49:34 | 47.75065 | 11.60146 | 86° | 86km/h | 13753m | -9.1m/s | -53.3°C | 2.0% | 155.0hPa | 2.6V | 00:00:00 | 00:00:00 | 00:00:00 | |
| DO3MHA-11 | 2026-09-02 04:49:32 | 47.75064 | 11.60057 | 89° | 80km/h | 13779m | -7.1m/s | -53.5°C | 4.9% | 154.4hPa | 2.6V | 00:00:00 | 01:08:43 | 00:00:00 | |
| DG1MFX-10 | 2026-09-02 04:49:31 | 47.75064 | 11.60057 | 89° | 91km/h | 13779m | -7.2m/s | -53.6°C | 2.1% | 154.5hPa | 2.6V | 02:25:00 | 00:00:00 | 00:00:00 | |
| OE5MMP-10 | 2026-09-02 04:49:30 | 47.75063 | 11.59998 | 86° | 82km/h | 13793m | -7.5m/s | -53.5°C | 4.9% | 154.0hPa | 2.6V | 00:00:00 | 01:08:41 | 00:00:00 | |
| DF3TZ-5 | 2026-09-02 04:49:28 | 47.75062 | 11.59877 | 90° | 77km/h | 13823m | -6.3m/s | -53.5°C | 2.0% | 153.4hPa | 2.6V | 00:00:00 | 00:00:00 | 00:00:00 | |
| DO3MHA-12 | 2026-09-02 04:49:25 | 47.75062 | 11.59847 | 90° | 84km/h | 13830m | -7.5m/s | -53.5°C | 4.9% | 153.2hPa | 2.6V | 00:00:00 | 01:08:36 | 00:00:00 | |
| DL6DJ-15 | 2026-09-02 04:49:24 | 47.75062 | 11.59816 | 87° | 77km/h | 13838m | -9.2m/s | -53.5°C | 2.1% | 153.0hPa | 2.6V | 00:00:00 | 00:00:00 | 00:00:00 | |
| NBG1-10 | 2026-09-02 04:49:23 | 47.75062 | 11.59786 | 92° | 78km/h | 13846m | -7.3m/s | -53.5°C | 4.9% | 152.8hPa | 2.6V | 00:00:00 | 01:08:34 | 00:00:00 | |
| DO3MHA-11 | 2026-09-02 04:49:22 | 47.75061 | 11.59756 | 84° | 84km/h | 13854m | -7.1m/s | -53.5°C | 5.0% | 152.7hPa | 2.6V | 02:24:00 | 01:08:33 | 00:00:00 | |
| PG1ADW-2 | 2026-09-02 04:49:21 | 47.75060 | 11.59723 | 94° | 80km/h | 13861m | -6.7m/s | -53.5°C | 4.9% | 152.5hPa | 2.7V | 02:24:00 | 00:00:00 | 00:00:00 | |
| OE5MMP-10 | 2026-09-02 04:49:20 | 47.75060 | 11.59692 | 87° | 82km/h | 13869m | -8.0m/s | -53.5°C | 4.9% | 152.3hPa | 2.7V | 00:00:00 | 01:08:31 | 00:00:00 | |
| OE5DRO-10 | 2026-09-02 04:49:19 | 47.75059 | 11.59660 | 89° | 80km/h | 13876m | -7.2m/s | -53.6°C | 4.9% | 152.1hPa | 2.7V | 00:00:00 | 00:00:00 | 00:00:00 | |
| DH7VM-15 | 2026-09-02 04:49:17 | 47.75059 | 11.59629 | 89° | 78km/h | 13884m | -7.7m/s | 0°C | 0% | 0hPa | 2.7V | 00:00:00 | 00:00:00 | 00:00:00 | |
| DO3MHA-12 | 2026-09-02 04:49:15 | 47.75058 | 11.59535 | 93° | 78km/h | 13906m | -5.3m/s | -53.5°C | 5.0% | 151.3hPa | 2.7V | 00:00:00 | 01:08:26 | 00:00:00 | |
| DG1MFX-10 | 2026-09-02 04:49:12 | 47.75060 | 11.59444 | 93° | 86km/h | 13926m | -7.5m/s | -53.2°C | 2.1% | 150.9hPa | 2.7V | 02:25:00 | 00:00:00 | 00:00:00 | |
| OE5DXL-15 | 2026-09-02 04:49:11 | 47.75060 | 11.59414 | 87° | 73km/h | 13933m | -6.9m/s | -53.1°C | 4.8% | 150.7hPa | 2.7V | 00:00:00 | 00:00:00 | 00:00:00 | |
| OE5MMP-10 | 2026-09-02 04:49:10 | 47.75060 | 11.59385 | 94° | 78km/h | 13941m | -7.5m/s | -53.0°C | 4.8% | 150.5hPa | 2.7V | 02:24:00 | 01:08:21 | 00:00:00 | |
| DO3MHA-12 | 2026-09-02 04:49:05 | 47.75067 | 11.59240 | 98° | 75km/h | 13980m | -8.6m/s | -53.1°C | 4.8% | 149.6hPa | 2.6V | 02:25:00 | 01:08:16 | 00:00:00 | |
| DF3TZ-5 | 2026-09-02 04:48:57 | 47.75086 | 11.58963 | 97° | 66km/h | 14060m | -7.7m/s | -52.6°C | 2.0% | 147.9hPa | 2.7V | 00:00:00 | 00:00:00 | 00:00:00 | |
| DL6DJ-15 | 2026-09-02 04:48:53 | 47.75090 | 11.58909 | 91° | 71km/h | 14076m | -6.7m/s | -52.5°C | 1.9% | 147.6hPa | 2.7V | 00:00:00 | 00:00:00 | 00:00:00 | |
| DO3MHA-11 | 2026-09-02 04:48:52 | 47.75092 | 11.58883 | 100° | 68km/h | 14084m | -7.7m/s | -52.4°C | 4.6% | 147.3hPa | 2.7V | 02:25:00 | 01:08:03 | 00:00:00 | |
| DG1MFX-10 | 2026-09-02 04:48:51 | 47.75092 | 11.58883 | 100° | 68km/h | 14084m | -7.7m/s | -52.5°C | 1.9% | 147.4hPa | 2.6V | 02:25:00 | 00:00:00 | 00:00:00 | |
| NBG1-10 | 2026-09-02 04:48:50 | 47.75098 | 11.58830 | 93° | 66km/h | 14103m | -7.9m/s | -52.4°C | 4.4% | 147.0hPa | 2.6V | 00:00:00 | 01:08:01 | 00:00:00 | |
| DO3MHA-12 | 2026-09-02 04:48:45 | 47.75112 | 11.58703 | 101° | 66km/h | 14146m | -6.9m/s | -52.5°C | 4.6% | 145.9hPa | 2.6V | 00:00:00 | 01:07:56 | 00:00:00 | |
| DO3MHA-11 | 2026-09-02 04:48:42 | 47.75119 | 11.58633 | 105° | 68km/h | 14172m | -10.9m/s | -52.4°C | 4.5% | 145.5hPa | 2.6V | 00:00:00 | 01:07:53 | 00:00:00 | |
| PG1ADW-2 | 2026-09-02 04:48:41 | 47.75122 | 11.58608 | 97° | 66km/h | 14181m | -7.5m/s | -52.4°C | 4.6% | 145.2hPa | 2.6V | 00:00:00 | 01:07:52 | 00:00:00 | |
| IN3HCDX | 2026-09-02 04:48:40 | 47.75122 | 11.58608 | 97° | 73km/h | 14181m | -7.6m/s | -52.4°C | 1.9% | 145.2hPa | 2.6V | 02:26:00 | 00:00:00 | 00:00:00 | |
| OE5MMP-10 | 2026-09-02 04:48:39 | 47.75125 | 11.58559 | 98° | 68km/h | 14196m | -6.6m/s | -52.5°C | 4.6% | 144.8hPa | 2.6V | 02:25:00 | 01:07:50 | 00:00:00 | |
| DO3MHA-12 | 2026-09-02 04:48:35 | 47.75134 | 11.58458 | 99° | 68km/h | 14225m | -6.7m/s | -52.6°C | 4.6% | 144.1hPa | 2.6V | 02:25:00 | 01:07:46 | 00:00:00 | |
| DO3MHA-11 | 2026-09-02 04:48:32 | 47.75146 | 11.58386 | 108° | 68km/h | 14247m | -7.2m/s | -52.8°C | 4.6% | 143.7hPa | 2.7V | 00:00:00 | 01:07:43 | 00:00:00 | |
| DG1MFX-10 | 2026-09-02 04:48:31 | 47.75149 | 11.58364 | 103° | 60km/h | 14256m | -9.3m/s | -52.9°C | 2.0% | 143.6hPa | 2.7V | 02:26:00 | 00:00:00 | 00:00:00 | |
| DB0UT-7 | 2026-09-02 04:48:30 | 47.75154 | 11.58339 | 107° | 55km/h | 14265m | -8.0m/s | -52.9°C | 4.6% | 143.3hPa | 2.7V | 00:00:00 | 00:00:00 | 00:00:00 | |
| OE5MMP-10 | 2026-09-02 04:48:29 | 47.75158 | 11.58314 | 97° | 64km/h | 14273m | -7.6m/s | -52.9°C | 4.7% | 143.1hPa | 2.7V | 00:00:00 | 01:07:40 | 00:00:00 | |
| DF3TZ-5 | 2026-09-02 04:48:26 | 47.75174 | 11.58216 | 115° | 66km/h | 14304m | -7.9m/s | -53.1°C | 2.0% | 142.4hPa | 2.7V | 00:00:00 | 00:00:00 | 00:00:00 | |
| DO3MHA-12 | 2026-09-02 04:48:25 | 47.75174 | 11.58216 | 116° | 62km/h | 14304m | -7.9m/s | -53.0°C | 4.7% | 142.4hPa | 2.7V | 00:00:00 | 01:07:36 | 00:00:00 | |
| BAUMI2-15 | 2026-09-02 04:48:24 | 47.75179 | 11.58193 | 97° | 62km/h | 14312m | -7.4m/s | -53.0°C | 4.7% | 142.1hPa | 2.7V | 00:00:00 | 01:07:35 | 00:00:00 | |
| DK5PH-5 | 2026-09-02 04:48:22 | 47.75186 | 11.58145 | 102° | 55km/h | 14329m | -8.1m/s | -53.1°C | 4.7% | 141.8hPa | 2.7V | 00:00:00 | 01:07:33 | 00:00:00 | |
| OE5DRO-10 | 2026-09-02 04:48:21 | 47.75189 | 11.58124 | 104° | 55km/h | 14337m | -7.7m/s | -53.1°C | 4.7% | 141.5hPa | 2.7V | 00:00:00 | 00:00:00 | 00:00:00 | |
| PG1ADW-2 | 2026-09-02 04:48:20 | 47.75194 | 11.58101 | 112° | 55km/h | 14346m | -9.8m/s | -53.2°C | 4.7% | 141.4hPa | 2.7V | 02:25:00 | 00:00:00 | 00:00:00 | |
| OE5MMP-10 | 2026-09-02 04:48:19 | 47.75197 | 11.58080 | 91° | 57km/h | 14355m | -8.2m/s | -53.2°C | 4.7% | 141.3hPa | 2.7V | 00:00:00 | 01:07:30 | 00:00:00 | |
| NBG1-10 | 2026-09-02 04:48:16 | 47.75205 | 11.58013 | 100° | 53km/h | 14379m | -8.1m/s | -53.1°C | 4.7% | 140.7hPa | 2.7V | 02:25:00 | 01:07:27 | 00:00:00 | |
| DO3MHA-12 | 2026-09-02 04:48:15 | 47.75208 | 11.57993 | 108° | 55km/h | 14387m | -8.1m/s | -53.1°C | 4.7% | 140.5hPa | 2.7V | 00:00:00 | 01:07:26 | 00:00:00 | |
| BAUMI2-15 | 2026-09-02 04:48:14 | 47.75212 | 11.57971 | 98° | 55km/h | 14395m | -8.9m/s | -53.0°C | 4.6% | 140.3hPa | 2.7V | 00:00:00 | 01:07:25 | 00:00:00 | |
| DO3MHA-11 | 2026-09-02 04:48:12 | 47.75215 | 11.57930 | 94° | 53km/h | 14412m | -8.4m/s | -52.9°C | 4.5% | 140.0hPa | 2.7V | 00:00:00 | 01:07:23 | 00:00:00 | |
| OE5DXL-15 | 2026-09-02 04:48:11 | 47.75217 | 11.57910 | 100° | 53km/h | 14419m | -8.2m/s | -53.0°C | 4.5% | 139.8hPa | 2.7V | 02:25:00 | 00:00:00 | 00:00:00 | |
| OE5MMP-10 | 2026-09-02 04:48:09 | 47.75221 | 11.57872 | 88° | 53km/h | 14436m | -6.6m/s | -53.1°C | 4.5% | 139.5hPa | 2.7V | 02:26:00 | 01:07:20 | 00:00:00 | |
| BAUMI2-15 | 2026-09-02 04:48:05 | 47.75229 | 11.57775 | 82° | 53km/h | 14475m | -10.3m/s | -53.3°C | 4.6% | 138.6hPa | 2.7V | 02:26:00 | 01:07:15 | 00:00:00 | |
| DL6DJ-15 | 2026-09-02 04:47:51 | 47.75224 | 11.57511 | 78° | 62km/h | 14595m | -9.4m/s | -53.9°C | 2.0% | 136.2hPa | 2.7V | 00:00:00 | 00:00:00 | 00:00:00 | |
| IN3HCDX | 2026-09-02 04:47:50 | 47.75226 | 11.57532 | 87° | 53km/h | 14585m | -8.9m/s | -53.9°C | 2.0% | 136.3hPa | 2.7V | 02:27:00 | 00:00:00 | 00:00:00 | |
| BAUMI2-15 | 2026-09-02 04:47:49 | 47.75221 | 11.57491 | 84° | 53km/h | 14604m | -8.6m/s | -54.0°C | 4.9% | 135.9hPa | 2.7V | 02:26:00 | 01:07:00 | 00:00:00 | |
| DG1MFX-10 | 2026-09-02 04:47:48 | 47.75221 | 11.57491 | 85° | 44km/h | 14604m | -8.6m/s | -54.0°C | 2.0% | 136.0hPa | 2.7V | 02:27:00 | 00:00:00 | 00:00:00 | |
| OM5KV | 2026-09-02 04:47:47 | 47.75220 | 11.57471 | 87° | 60km/h | 14613m | -8.6m/s | 0°C | 0% | 0hPa | 2.7V | 00:00:00 | 00:00:00 | 00:00:00 | |
| DO3MHA-12 | 2026-09-02 04:47:45 | 47.75213 | 11.57412 | 77° | 62km/h | 14638m | -6.9m/s | -54.0°C | 4.9% | 135.2hPa | 2.7V | 00:00:00 | 01:06:56 | 00:00:00 | |
| BAUMI2-15 | 2026-09-02 04:47:44 | 47.75210 | 11.57391 | 83° | 60km/h | 14646m | -8.1m/s | -53.9°C | 4.9% | 135.0hPa | 2.7V | 00:00:00 | 01:06:55 | 00:00:00 | |
| DO3MHA-11 | 2026-09-02 04:47:42 | 47.75207 | 11.57344 | 82° | 60km/h | 14664m | -7.7m/s | -53.9°C | 4.9% | 134.5hPa | 2.7V | 00:00:00 | 01:06:53 | 00:00:00 | |
| OE5DXL-15 | 2026-09-02 04:47:41 | 47.75206 | 11.57323 | 94° | 66km/h | 14672m | -8.9m/s | -53.9°C | 5.0% | 134.4hPa | 2.7V | 00:00:00 | 00:00:00 | 00:00:00 | |
| DO3MHA-12 | 2026-09-02 04:47:34 | 47.75203 | 11.57165 | 87° | 68km/h | 14728m | -10.7m/s | -54.1°C | 4.9% | 133.4hPa | 2.7V | 02:26:00 | 01:06:45 | 00:00:00 | |
| DB0UT-7 | 2026-09-02 04:47:31 | 47.75203 | 11.57068 | 97° | 66km/h | 14761m | -8.7m/s | -53.8°C | 4.8% | 132.7hPa | 2.6V | 02:26:00 | 00:00:00 | 00:00:00 | |
| IN3HCDX | 2026-09-02 04:47:30 | 47.75203 | 11.57068 | 98° | 73km/h | 14761m | -8.7m/s | -53.9°C | 1.9% | 132.7hPa | 2.7V | 02:27:00 | 00:00:00 | 00:00:00 | |
| OE5MMP-10 | 2026-09-02 04:47:29 | 47.75203 | 11.57041 | 88° | 68km/h | 14769m | -8.3m/s | -53.8°C | 4.8% | 132.5hPa | 2.7V | 00:00:00 | 01:06:40 | 00:00:00 | |
| DG1MFX-10 | 2026-09-02 04:47:27 | 47.75203 | 11.57014 | 94° | 69km/h | 14777m | -7.5m/s | -53.7°C | 1.9% | 132.4hPa | 2.7V | 02:27:00 | 00:00:00 | 00:00:00 | |
| DO3MHA-12 | 2026-09-02 04:47:24 | 47.75207 | 11.56910 | 92° | 66km/h | 14811m | -7.3m/s | -53.5°C | 4.7% | 131.6hPa | 2.7V | 00:00:00 | 01:06:35 | 00:00:00 | |
| OE5DRO-10 | 2026-09-02 04:47:23 | 47.75207 | 11.56885 | 89° | 66km/h | 14818m | -7.7m/s | -53.6°C | 4.8% | 131.5hPa | 2.7V | 00:00:00 | 00:00:00 | 00:00:00 | |
| DK5PH-5 | 2026-09-02 04:47:22 | 47.75207 | 11.56860 | 94° | 66km/h | 14826m | -8.1m/s | -53.6°C | 4.7% | 131.3hPa | 2.7V | 00:00:00 | 01:06:33 | 00:00:00 | |
| DO3MHA-11 | 2026-09-02 04:47:21 | 47.75208 | 11.56835 | 92° | 66km/h | 14835m | -8.6m/s | -53.6°C | 4.8% | 131.1hPa | 2.7V | 02:26:00 | 01:06:32 | 00:00:00 | |
| PG1ADW-2 | 2026-09-02 04:47:20 | 47.75208 | 11.56811 | 88° | 66km/h | 14843m | -8.7m/s | -53.5°C | 4.8% | 131.0hPa | 2.6V | 02:26:00 | 01:06:31 | 00:00:00 | |
| OE5MMP-10 | 2026-09-02 04:47:19 | 47.75208 | 11.56787 | 93° | 66km/h | 14851m | -6.6m/s | -53.6°C | 4.8% | 130.8hPa | 2.6V | 00:00:00 | 01:06:30 | 00:00:00 | |
| OE5WHR-10 | 2026-09-02 04:47:18 | 47.75208 | 11.56762 | 88° | 69km/h | 14859m | -8.3m/s | -53.5°C | 4.7% | 130.7hPa | 2.6V | 00:00:00 | 00:00:00 | 00:00:00 | |
| DO3MHA-12 | 2026-09-02 04:47:14 | 47.75212 | 11.56666 | 103° | 64km/h | 14892m | -7.2m/s | -53.6°C | 4.8% | 130.0hPa | 2.6V | 00:00:00 | 01:06:25 | 00:00:00 | |
| DO3MHA-11 | 2026-09-02 04:47:11 | 47.75218 | 11.56593 | 91° | 64km/h | 14916m | -7.7m/s | -53.7°C | 4.8% | 129.5hPa | 2.6V | 00:00:00 | 01:06:22 | 00:00:00 | |
| NBG1-10 | 2026-09-02 04:47:09 | 47.75221 | 11.56545 | 91° | 66km/h | 14932m | -8.9m/s | -53.8°C | 4.8% | 129.2hPa | 2.6V | 00:00:00 | 01:06:20 | 00:00:00 | |
| DG1MFX-10 | 2026-09-02 04:47:06 | 47.75222 | 11.56499 | 91° | 64km/h | 14948m | -6.7m/s | -53.9°C | 1.9% | 128.9hPa | 2.6V | 02:27:00 | 00:00:00 | 00:00:00 | |
| DO3MHA-12 | 2026-09-02 04:47:04 | 47.75223 | 11.56427 | 87° | 64km/h | 14968m | -7.9m/s | -53.7°C | 4.8% | 128.5hPa | 2.6V | 02:27:00 | 01:06:15 | 00:00:00 | |
| BAUMI2-15 | 2026-09-02 04:47:03 | 47.75223 | 11.56404 | 93° | 64km/h | 14976m | -8.5m/s | -53.6°C | 4.7% | 128.3hPa | 2.6V | 02:27:00 | 01:06:14 | 00:00:00 | |
| DL6DJ-15 | 2026-09-02 04:46:49 | 47.75219 | 11.56041 | 93° | 66km/h | 15081m | -8.6m/s | -53.8°C | 1.9% | 126.0hPa | 2.7V | 00:00:00 | 00:00:00 | 00:00:00 | |
| DF7PN | 2026-09-02 04:46:46 | 47.75221 | 11.55966 | 96° | 58km/h | 15101m | -7.6m/s | -53.6°C | 1.8% | 125.6hPa | 2.7V | 00:00:00 | 00:00:00 | 00:00:00 | |
| OE5DRO-10 | 2026-09-02 04:46:45 | 47.75221 | 11.55966 | 97° | 66km/h | 15101m | -7.5m/s | -53.6°C | 4.7% | 125.5hPa | 2.7V | 02:27:00 | 00:00:00 | 00:00:00 | |
| DO3MHA-12 | 2026-09-02 04:46:44 | 47.75223 | 11.55942 | 94° | 66km/h | 15109m | -7.8m/s | -53.6°C | 4.8% | 125.3hPa | 2.7V | 00:00:00 | 01:05:55 | 00:00:00 | |
| BAUMI2-15 | 2026-09-02 04:46:43 | 47.75224 | 11.55918 | 96° | 66km/h | 15117m | -9.3m/s | -53.6°C | 4.8% | 125.2hPa | 2.7V | 00:00:00 | 01:05:54 | 00:00:00 | |
| DO3MHA-11 | 2026-09-02 04:46:41 | 47.75226 | 11.55870 | 91° | 66km/h | 15134m | -7.3m/s | -53.6°C | 4.8% | 124.9hPa | 2.7V | 00:00:00 | 01:05:52 | 00:00:00 | |
| PG1ADW-2 | 2026-09-02 04:46:40 | 47.75227 | 11.55846 | 99° | 68km/h | 15142m | -7.2m/s | -53.7°C | 4.9% | 124.8hPa | 2.7V | 00:00:00 | 00:00:00 | 00:00:00 | |
| OE5MMP-10 | 2026-09-02 04:46:39 | 47.75228 | 11.55820 | 90° | 68km/h | 15149m | -8.1m/s | -53.7°C | 4.8% | 124.6hPa | 2.7V | 02:27:00 | 01:05:50 | 00:00:00 | |
| BAUMI2-15 | 2026-09-02 04:46:38 | 47.75229 | 11.55794 | 97° | 66km/h | 15158m | -8.7m/s | -53.7°C | 4.8% | 124.4hPa | 2.7V | 00:00:00 | 01:05:49 | 00:00:00 | |
| NBG1-10 | 2026-09-02 04:46:35 | 47.75231 | 11.55721 | 86° | 66km/h | 15185m | -10.1m/s | -53.6°C | 4.8% | 123.9hPa | 2.7V | 02:27:00 | 01:05:46 | 00:00:00 | |
| DO3MHA-12 | 2026-09-02 04:46:34 | 47.75231 | 11.55697 | 95° | 68km/h | 15196m | -8.9m/s | -53.6°C | 4.8% | 123.8hPa | 2.6V | 02:27:00 | 01:05:45 | 00:00:00 | |
| BAUMI2-15 | 2026-09-02 04:46:33 | 47.75230 | 11.55672 | 85° | 68km/h | 15205m | -9.9m/s | -53.7°C | 4.8% | 123.7hPa | 2.6V | 02:27:00 | 01:05:44 | 00:00:00 | |
| DO3MHA-11 | 2026-09-02 04:46:31 | 47.75231 | 11.55622 | 92° | 68km/h | 15225m | -8.6m/s | -53.8°C | 4.9% | 123.3hPa | 2.6V | 00:00:00 | 01:05:42 | 00:00:00 | |
| DB0UT-7 | 2026-09-02 04:46:30 | 47.75231 | 11.55597 | 89° | 66km/h | 15234m | -9.4m/s | -53.8°C | 4.8% | 123.1hPa | 2.6V | 00:00:00 | 00:00:00 | 00:00:00 | |
| OE5MMP-10 | 2026-09-02 04:46:29 | 47.75231 | 11.55571 | 96° | 68km/h | 15244m | -9.2m/s | -53.8°C | 4.8% | 123.0hPa | 2.6V | 00:00:00 | 01:05:40 | 00:00:00 | |
| DF1GD-15 | 2026-09-02 04:46:28 | 47.75233 | 11.55546 | 94° | 66km/h | 15255m | -9.2m/s | -53.8°C | 1.9% | 122.9hPa | 2.6V | 00:00:00 | 00:00:00 | 00:00:00 | |
| OE5DRO-10 | 2026-09-02 04:46:26 | 47.75236 | 11.55497 | 99° | 66km/h | 15274m | -8.6m/s | -53.6°C | 4.8% | 122.5hPa | 2.6V | 00:00:00 | 00:00:00 | 00:00:00 | |
| DG1MFX-10 | 2026-09-02 04:46:25 | 47.75236 | 11.55497 | 99° | 69km/h | 15274m | -8.7m/s | -53.7°C | 1.9% | 122.5hPa | 2.6V | 02:27:00 | 00:00:00 | 00:00:00 | |
| DO3MHA-12 | 2026-09-02 04:46:24 | 47.75239 | 11.55446 | 94° | 66km/h | 15293m | -9.3m/s | -53.6°C | 4.8% | 122.1hPa | 2.6V | 00:00:00 | 01:05:35 | 00:00:00 | |
| OE5WHR-10 | 2026-09-02 04:46:23 | 47.75240 | 11.55421 | 97° | 66km/h | 15302m | -8.9m/s | -53.6°C | 4.8% | 121.9hPa | 2.6V | 02:27:00 | 00:00:00 | 00:00:00 | |
| DK5PH-5 | 2026-09-02 04:46:22 | 47.75242 | 11.55395 | 93° | 64km/h | 15311m | -9.5m/s | -53.5°C | 4.8% | 121.8hPa | 2.6V | 02:27:00 | 01:05:33 | 00:00:00 | |
| DO3MHA-11 | 2026-09-02 04:46:21 | 47.75243 | 11.55371 | 97° | 66km/h | 15321m | -9.0m/s | -53.5°C | 4.7% | 121.6hPa | 2.6V | 02:27:00 | 01:05:32 | 00:00:00 | |
| PG1ADW-2 | 2026-09-02 04:46:20 | 47.75244 | 11.55346 | 92° | 66km/h | 15330m | -8.4m/s | -53.5°C | 4.7% | 121.4hPa | 2.7V | 02:27:00 | 00:00:00 | 00:00:00 | |
| DL6DJ-15 | 2026-09-02 04:46:17 | 47.75245 | 11.55273 | 92° | 66km/h | 15356m | -8.1m/s | -53.7°C | 1.9% | 121.0hPa | 2.7V | 00:00:00 | 00:00:00 | 00:00:00 | |
| DF7PN | 2026-09-02 04:46:15 | 47.75247 | 11.55200 | 93° | 66km/h | 15382m | -7.8m/s | -53.4°C | 1.8% | 120.4hPa | 2.7V | 00:00:00 | 00:00:00 | 00:00:00 | |
| DO3MHA-12 | 2026-09-02 04:46:14 | 47.75247 | 11.55200 | 94° | 66km/h | 15382m | -7.8m/s | -53.3°C | 4.6% | 120.4hPa | 2.7V | 00:00:00 | 01:05:25 | 00:00:00 | |
| OE5DXL-15 | 2026-09-02 04:46:11 | 47.75249 | 11.55126 | 90° | 64km/h | 15409m | -8.6m/s | -53.3°C | 4.6% | 120.0hPa | 2.7V | 00:00:00 | 00:00:00 | 00:00:00 | |
| OE5MMP-10 | 2026-09-02 04:46:09 | 47.75249 | 11.55076 | 90° | 64km/h | 15425m | -8.5m/s | -53.3°C | 4.6% | 119.6hPa | 2.7V | 02:28:00 | 01:05:20 | 00:00:00 | |
| OE5DRO-10 | 2026-09-02 04:46:07 | 47.75250 | 11.55027 | 93° | 62km/h | 15442m | -8.1m/s | -53.3°C | 4.5% | 119.3hPa | 2.6V | 00:00:00 | 00:00:00 | 00:00:00 | |
| DG1MFX-10 | 2026-09-02 04:46:04 | 47.75251 | 11.54978 | 91° | 64km/h | 15459m | -9.0m/s | -53.5°C | 1.8% | 119.1hPa | 2.6V | 02:28:00 | 00:00:00 | 00:00:00 | |
| DL1ZP-14 | 2026-09-02 04:45:56 | 47.75252 | 11.54741 | 96° | 66km/h | 15543m | -8.7m/s | 0°C | -1.0% | -1.0hPa | 2.6V | 00:00:00 | 00:00:00 | 00:00:00 | |
| DF3TZ-5 | 2026-09-02 04:45:51 | 47.75254 | 11.54627 | 98° | 60km/h | 15586m | -8.2m/s | -53.8°C | 1.9% | 116.8hPa | 2.7V | 00:00:00 | 00:00:00 | 00:00:00 | |
| DL6DJ-15 | 2026-09-02 04:45:46 | 47.75258 | 11.54534 | 93° | 60km/h | 15619m | -8.3m/s | -54.0°C | 1.8% | 116.1hPa | 2.7V | 00:00:00 | 00:00:00 | 00:00:00 | |
| DG1MFX-10 | 2026-09-02 04:45:45 | 47.75260 | 11.54511 | 100° | 64km/h | 15628m | -8.6m/s | -54.0°C | 1.9% | 116.0hPa | 2.7V | 02:28:00 | 00:00:00 | 00:00:00 | |
| DO3MHA-12 | 2026-09-02 04:45:44 | 47.75261 | 11.54488 | 85° | 62km/h | 15637m | -9.9m/s | -54.0°C | 4.8% | 115.8hPa | 2.7V | 00:00:00 | 01:04:55 | 00:00:00 | |
| DO3MHA-11 | 2026-09-02 04:45:41 | 47.75264 | 11.54416 | 92° | 60km/h | 15663m | -8.7m/s | -54.1°C | 4.8% | 115.3hPa | 2.7V | 00:00:00 | 01:04:52 | 00:00:00 | |
| PG1ADW-2 | 2026-09-02 04:45:40 | 47.75265 | 11.54392 | 95° | 60km/h | 15672m | -7.7m/s | -54.1°C | 4.9% | 115.2hPa | 2.7V | 00:00:00 | 00:00:00 | 00:00:00 | |
| OE5MMP-10 | 2026-09-02 04:45:39 | 47.75267 | 11.54369 | 99° | 58km/h | 15680m | -8.4m/s | -54.1°C | 4.8% | 115.0hPa | 2.7V | 02:28:00 | 01:04:50 | 00:00:00 | |
| OE5WHR-10 | 2026-09-02 04:45:38 | 47.75269 | 11.54346 | 96° | 62km/h | 15688m | -7.3m/s | -54.0°C | 4.7% | 114.8hPa | 2.6V | 00:00:00 | 01:04:49 | 00:00:00 | |
| DO3MHA-12 | 2026-09-02 04:45:34 | 47.75279 | 11.54257 | 104° | 58km/h | 15722m | -7.2m/s | -53.9°C | 4.7% | 114.2hPa | 2.6V | 02:28:00 | 01:04:45 | 00:00:00 | |
| DH7VM-15 | 2026-09-02 04:45:33 | 47.75278 | 11.54257 | 104° | 64km/h | 15722m | -7.3m/s | 0°C | 0% | 0hPa | 2.6V | 00:00:00 | 00:00:00 | 00:00:00 | |
| DO3MHA-11 | 2026-09-02 04:45:31 | 47.75282 | 11.54193 | 98° | 58km/h | 15748m | -9.0m/s | -53.9°C | 4.8% | 113.8hPa | 2.6V | 00:00:00 | 01:04:42 | 00:00:00 | |
| DB0UT-7 | 2026-09-02 04:45:30 | 47.75284 | 11.54173 | 106° | 57km/h | 15757m | -9.0m/s | -53.8°C | 4.7% | 113.6hPa | 2.6V | 00:00:00 | 00:00:00 | 00:00:00 | |
| OE5MMP-10 | 2026-09-02 04:45:29 | 47.75287 | 11.54152 | 96° | 58km/h | 15766m | -9.6m/s | -53.7°C | 4.7% | 113.4hPa | 2.6V | 00:00:00 | 01:04:40 | 00:00:00 | |
| IN3HCDX | 2026-09-02 04:45:28 | 47.75287 | 11.54152 | 97° | 68km/h | 15766m | -9.6m/s | -53.8°C | 1.8% | 113.5hPa | 2.6V | 00:00:00 | 00:00:00 | 00:00:00 | |
| NBG1-10 | 2026-09-02 04:45:27 | 47.75291 | 11.54110 | 106° | 57km/h | 15785m | -9.4m/s | -54.0°C | 4.7% | 113.2hPa | 2.6V | 00:00:00 | 01:04:38 | 00:00:00 | |
| DO3MHA-12 | 2026-09-02 04:45:24 | 47.75295 | 11.54045 | 92° | 58km/h | 15811m | -7.0m/s | -54.2°C | 4.9% | 112.7hPa | 2.6V | 00:00:00 | 01:04:35 | 00:00:00 | |
| DK5PH-5 | 2026-09-02 04:45:22 | 47.75297 | 11.54001 | 98° | 57km/h | 15826m | -6.5m/s | -54.3°C | 4.9% | 112.4hPa | 2.6V | 00:00:00 | 01:04:33 | 00:00:00 | |
| DO3MHA-11 | 2026-09-02 04:45:21 | 47.75298 | 11.53978 | 92° | 58km/h | 15834m | -7.6m/s | -54.3°C | 4.9% | 112.3hPa | 2.6V | 02:28:00 | 01:04:32 | 00:00:00 | |
| PG1ADW-2 | 2026-09-02 04:45:20 | 47.75299 | 11.53956 | 92° | 57km/h | 15842m | -7.1m/s | -54.2°C | 4.8% | 112.1hPa | 2.6V | 02:28:00 | 00:00:00 | 00:00:00 | |
| OE5MMP-10 | 2026-09-02 04:45:19 | 47.75299 | 11.53936 | 95° | 57km/h | 15849m | -7.6m/s | -54.3°C | 4.8% | 112.0hPa | 2.7V | 00:00:00 | 01:04:30 | 00:00:00 | |
| OE5WHR-10 | 2026-09-02 04:45:17 | 47.75301 | 11.53891 | 89° | 57km/h | 15866m | -7.7m/s | 0°C | 0% | 0hPa | 2.7V | 02:28:00 | 00:00:00 | 00:00:00 | |
| DL6DJ-15 | 2026-09-02 04:45:15 | 47.75302 | 11.53846 | 94° | 53km/h | 15881m | -6.8m/s | -54.6°C | 1.9% | 111.5hPa | 2.7V | 00:00:00 | 00:00:00 | 00:00:00 | |
| DO3MHA-12 | 2026-09-02 04:45:14 | 47.75303 | 11.53825 | 90° | 55km/h | 15889m | -9.0m/s | -54.6°C | 5.0% | 111.3hPa | 2.7V | 00:00:00 | 01:04:25 | 00:00:00 | |
| DF7PN | 2026-09-02 04:45:13 | 47.75303 | 11.53805 | 91° | 53km/h | 15897m | -8.0m/s | -54.7°C | 1.9% | 111.2hPa | 2.7V | 00:00:00 | 00:00:00 | 00:00:00 | |
| OE5DXL-15 | 2026-09-02 04:45:11 | 47.75307 | 11.53764 | 95° | 57km/h | 15914m | -8.7m/s | -54.8°C | 5.1% | 110.8hPa | 2.7V | 02:28:00 | 00:00:00 | 00:00:00 | |
| OE5DRO-10 | 2026-09-02 04:45:10 | 47.75308 | 11.53743 | 88° | 53km/h | 15922m | -8.4m/s | -54.8°C | 5.1% | 110.7hPa | 2.6V | 00:00:00 | 00:00:00 | 00:00:00 | |
| OE5MMP-10 | 2026-09-02 04:45:09 | 47.75308 | 11.53723 | 96° | 53km/h | 15931m | -8.4m/s | -54.9°C | 5.2% | 110.6hPa | 2.6V | 02:29:00 | 01:04:20 | 00:00:00 | |
| IN3HCDX | 2026-09-02 04:45:07 | 47.75308 | 11.53702 | 90° | 58km/h | 15939m | -8.3m/s | -55.0°C | 0% | 110.4hPa | 2.6V | 02:29:00 | 00:00:00 | 00:00:00 | |
| DO3MHA-12 | 2026-09-02 04:45:04 | 47.75312 | 11.53623 | 99° | 55km/h | 15971m | -9.3m/s | -54.8°C | 5.0% | 109.8hPa | 2.6V | 02:29:00 | 01:04:15 | 00:00:00 | |
| DO3MHA-11 | 2026-09-02 04:45:01 | 47.75317 | 11.53562 | 93° | 55km/h | 15998m | -8.6m/s | -54.7°C | 5.0% | 109.4hPa | 2.7V | 00:00:00 | 01:04:12 | 00:00:00 | |
| PG1ADW-2 | 2026-09-02 04:45:00 | 47.75319 | 11.53542 | 104° | 58km/h | 16007m | -7.8m/s | -54.8°C | 5.0% | 109.3hPa | 2.7V | 00:00:00 | 00:00:00 | 00:00:00 | |
| OE5MMP-10 | 2026-09-02 04:44:59 | 47.75321 | 11.53523 | 98° | 57km/h | 16014m | -7.8m/s | -54.8°C | 5.1% | 109.1hPa | 2.7V | 00:00:00 | 01:04:10 | 00:00:00 | |
| DF1GD-15 | 2026-09-02 04:44:57 | 47.75322 | 11.53502 | 96° | 53km/h | 16022m | -8.7m/s | -54.8°C | 0% | 0hPa | 2.7V | 02:29:00 | 00:00:00 | 00:00:00 | |
| OE5WHR-10 | 2026-09-02 04:44:56 | 47.75327 | 11.53461 | 99° | 60km/h | 16041m | -9.4m/s | 0°C | 0% | 0hPa | 2.7V | 00:00:00 | 00:00:00 | 00:00:00 | |
| DO3MHA-12 | 2026-09-02 04:44:54 | 47.75330 | 11.53422 | 92° | 60km/h | 16061m | -8.5m/s | -54.6°C | 5.1% | 108.4hPa | 2.7V | 00:00:00 | 01:04:05 | 00:00:00 | |
| DK5PH-5 | 2026-09-02 04:44:52 | 47.75332 | 11.53381 | 94° | 60km/h | 16077m | -7.6m/s | -54.6°C | 5.2% | 108.1hPa | 2.7V | 02:29:00 | 01:04:03 | 00:00:00 | |
| DG1MJG | 2026-09-02 04:44:51 | 47.75332 | 11.53358 | 94° | 64km/h | 16086m | -8.4m/s | -54.7°C | 1.9% | 108.0hPa | 2.6V | 00:00:00 | 00:00:00 | 00:00:00 | |
| OE5MMP-10 | 2026-09-02 04:44:49 | 47.75334 | 11.53314 | 89° | 64km/h | 16101m | -8.4m/s | -54.6°C | 5.2% | 107.7hPa | 2.6V | 00:00:00 | 01:04:00 | 00:00:00 | |
| IN3HCDX | 2026-09-02 04:44:45 | 47.75334 | 11.53245 | 92° | 64km/h | 16125m | -7.8m/s | -54.6°C | 0% | 107.4hPa | 2.6V | 02:29:00 | 00:00:00 | 00:00:00 | |
| DO3MHA-12 | 2026-09-02 04:44:44 | 47.75335 | 11.53196 | 92° | 64km/h | 16140m | -8.2m/s | -54.5°C | 5.0% | 107.0hPa | 2.6V | 00:00:00 | 01:03:55 | 00:00:00 | |
| DG1MFX-10 | 2026-09-02 04:44:42 | 47.75336 | 11.53171 | 100° | 66km/h | 16150m | -12.2m/s | -54.4°C | 1.9% | 107.0hPa | 2.6V | 02:29:00 | 00:00:00 | 00:00:00 | |
| DO3MHA-11 | 2026-09-02 04:44:41 | 47.75339 | 11.53123 | 97° | 60km/h | 16172m | -8.3m/s | -53.9°C | 4.9% | 106.5hPa | 2.6V | 00:00:00 | 01:03:52 | 00:00:00 | |
| PG1ADW-2 | 2026-09-02 04:44:40 | 47.75340 | 11.53100 | 95° | 58km/h | 16180m | -7.9m/s | -53.9°C | 4.8% | 106.4hPa | 2.6V | 00:00:00 | 01:03:51 | 00:00:00 | |
| OE5MMP-10 | 2026-09-02 04:44:39 | 47.75341 | 11.53076 | 87° | 58km/h | 16188m | -7.8m/s | -53.8°C | 4.8% | 106.2hPa | 2.6V | 02:29:00 | 01:03:50 | 00:00:00 | |
| DF1GD-15 | 2026-09-02 04:44:36 | 47.75345 | 11.53030 | 94° | 57km/h | 16206m | -8.6m/s | -53.8°C | 0% | 0hPa | 2.6V | 02:29:00 | 00:00:00 | 00:00:00 | |
| OE5WHR-10 | 2026-09-02 04:44:35 | 47.75350 | 11.52986 | 110° | 55km/h | 16225m | -9.3m/s | 0°C | 0% | 0hPa | 2.6V | 00:00:00 | 01:03:46 | 00:00:00 | |
| DO3MHA-12 | 2026-09-02 04:44:34 | 47.75354 | 11.52964 | 100° | 57km/h | 16235m | -10.0m/s | -53.5°C | 4.7% | 105.5hPa | 2.6V | 02:29:00 | 01:03:45 | 00:00:00 | |
| OE5DRO-10 | 2026-09-02 04:44:32 | 47.75360 | 11.52923 | 98° | 55km/h | 16254m | -8.8m/s | -53.5°C | 4.7% | 105.2hPa | 2.7V | 00:00:00 | 00:00:00 | 00:00:00 | |
| DO3MHA-11 | 2026-09-02 04:44:31 | 47.75362 | 11.52901 | 101° | 57km/h | 16263m | -9.5m/s | -53.5°C | 4.7% | 104.9hPa | 2.7V | 00:00:00 | 01:03:42 | 00:00:00 | |
| DB0UT-7 | 2026-09-02 04:44:30 | 47.75365 | 11.52881 | 103° | 53km/h | 16273m | -9.9m/s | -53.5°C | 4.7% | 104.9hPa | 2.7V | 02:29:00 | 00:00:00 | 00:00:00 | |
| OE5MMP-10 | 2026-09-02 04:44:29 | 47.75368 | 11.52860 | 105° | 57km/h | 16282m | -9.5m/s | -53.4°C | 4.6% | 104.7hPa | 2.6V | 00:00:00 | 01:03:40 | 00:00:00 | |
| DO3MHA-12 | 2026-09-02 04:44:24 | 47.75382 | 11.52756 | 97° | 53km/h | 16327m | -9.0m/s | -53.2°C | 4.5% | 104.0hPa | 2.6V | 00:00:00 | 01:03:35 | 00:00:00 | |
| BAUMI2-15 | 2026-09-02 04:44:22 | 47.75388 | 11.52674 | 96° | 51km/h | 16362m | -8.0m/s | -53.3°C | 4.6% | 103.4hPa | 2.6V | 00:00:00 | 01:03:31 | 00:00:00 | |
| PG1ADW-2 | 2026-09-02 04:44:21 | 47.75388 | 11.52674 | 96° | 53km/h | 16362m | -8.0m/s | -53.3°C | 4.6% | 103.4hPa | 2.6V | 02:29:00 | 00:00:00 | 00:00:00 | |
| OE5MMP-10 | 2026-09-02 04:44:19 | 47.75390 | 11.52655 | 102° | 51km/h | 16370m | -7.4m/s | -53.3°C | 4.5% | 103.3hPa | 2.7V | 00:00:00 | 01:03:30 | 00:00:00 | |
| DF3TZ-5 | 2026-09-02 04:44:18 | 47.75393 | 11.52597 | 94° | 51km/h | 16395m | -8.6m/s | -53.4°C | 1.7% | 102.9hPa | 2.7V | 00:00:00 | 00:00:00 | 00:00:00 | |
| BAUMI2-15 | 2026-09-02 04:44:15 | 47.75395 | 11.52577 | 95° | 51km/h | 16404m | -8.6m/s | -53.4°C | 4.6% | 102.7hPa | 2.7V | 02:29:00 | 01:03:26 | 00:00:00 | |
| DO3MHA-12 | 2026-09-02 04:44:14 | 47.75396 | 11.52559 | 99° | 53km/h | 16413m | -8.5m/s | -53.4°C | 4.6% | 102.6hPa | 2.6V | 00:00:00 | 01:03:25 | 00:00:00 | |
| OE5WHR-10 | 2026-09-02 04:44:13 | 47.75398 | 11.52540 | 99° | 51km/h | 16421m | -8.8m/s | 0°C | 0% | 0hPa | 2.6V | 02:29:00 | 00:00:00 | 00:00:00 | |
| OE5DRO-10 | 2026-09-02 04:44:12 | 47.75400 | 11.52519 | 99° | 51km/h | 16429m | -7.8m/s | -53.3°C | 4.6% | 102.4hPa | 2.6V | 00:00:00 | 00:00:00 | 00:00:00 | |
| OE5DXL-15 | 2026-09-02 04:44:11 | 47.75402 | 11.52501 | 101° | 49km/h | 16437m | -8.1m/s | -53.3°C | 4.6% | 102.2hPa | 2.6V | 00:00:00 | 00:00:00 | 00:00:00 | |
| BAUMI2-15 | 2026-09-02 04:44:10 | 47.75404 | 11.52482 | 96° | 51km/h | 16445m | -7.7m/s | -53.3°C | 4.6% | 102.1hPa | 2.6V | 00:00:00 | 01:03:21 | 00:00:00 | |
| OE5MMP-10 | 2026-09-02 04:44:09 | 47.75405 | 11.52461 | 95° | 53km/h | 16452m | -8.1m/s | -53.2°C | 4.6% | 101.9hPa | 2.6V | 02:30:00 | 01:03:20 | 00:00:00 | |
| BAUMI2-15 | 2026-09-02 04:44:05 | 47.75408 | 11.52383 | 88° | 53km/h | 16487m | -8.8m/s | -53.2°C | 4.5% | 101.4hPa | 2.6V | 00:00:00 | 01:03:16 | 00:00:00 | |
| DO3MHA-12 | 2026-09-02 04:44:04 | 47.75409 | 11.52363 | 101° | 49km/h | 16496m | -9.9m/s | -53.1°C | 4.5% | 101.2hPa | 2.6V | 02:30:00 | 01:03:15 | 00:00:00 | |
| DG1MFX-10 | 2026-09-02 04:44:02 | 47.75409 | 11.52344 | 86° | 53km/h | 16506m | -9.2m/s | -53.3°C | 1.6% | 101.2hPa | 2.7V | 02:30:00 | 00:00:00 | 00:00:00 | |
| DL1ZP-14 | 2026-09-02 04:43:51 | 47.75408 | 11.52121 | 96° | 53km/h | 16610m | -10.0m/s | 0°C | -1.0% | -1.0hPa | 2.7V | 00:00:00 | 00:00:00 | 00:00:00 | |
| DF3TZ-5 | 2026-09-02 04:43:47 | 47.75411 | 11.52048 | 93° | 44km/h | 16646m | -9.5m/s | -53.3°C | 1.6% | 98.9hPa | 2.7V | 00:00:00 | 00:00:00 | 00:00:00 | |
| BAUMI2-15 | 2026-09-02 04:43:45 | 47.75412 | 11.52014 | 86° | 47km/h | 16666m | -9.0m/s | -53.3°C | 4.5% | 98.6hPa | 2.7V | 02:30:00 | 01:02:56 | 00:00:00 | |
| DO3MHA-12 | 2026-09-02 04:43:44 | 47.75412 | 11.51996 | 91° | 46km/h | 16675m | -9.6m/s | -53.4°C | 4.5% | 98.5hPa | 2.7V | 00:00:00 | 01:02:55 | 00:00:00 | |
| DL6DJ-15 | 2026-09-02 04:43:42 | 47.75412 | 11.51961 | 90° | 44km/h | 16695m | -8.7m/s | -53.6°C | 1.6% | 98.3hPa | 2.7V | 00:00:00 | 00:00:00 | 00:00:00 | |
| OE5DXL-15 | 2026-09-02 04:43:41 | 47.75412 | 11.51944 | 97° | 42km/h | 16705m | -9.3m/s | -53.6°C | 4.5% | 98.1hPa | 2.7V | 02:30:00 | 00:00:00 | 00:00:00 | |
| PG1ADW-2 | 2026-09-02 04:43:40 | 47.75413 | 11.51926 | 89° | 44km/h | 16714m | -7.8m/s | -53.6°C | 4.6% | 98.0hPa | 2.7V | 00:00:00 | 00:00:00 | 00:00:00 | |
| IN3HCDX | 2026-09-02 04:43:39 | 47.75413 | 11.51910 | 90° | 44km/h | 16722m | -7.8m/s | -53.7°C | 0% | 97.8hPa | 2.7V | 00:00:00 | 00:00:00 | 00:00:00 | |
| DG1MJG | 2026-09-02 04:43:38 | 47.75413 | 11.51910 | 90° | 44km/h | 16722m | -7.8m/s | -53.7°C | 1.6% | 97.8hPa | 2.7V | 00:00:00 | 00:00:00 | 00:00:00 | |
| BAUMI2-15 | 2026-09-02 04:43:35 | 47.75414 | 11.51845 | 95° | 44km/h | 16755m | -8.6m/s | -53.6°C | 4.5% | 97.3hPa | 2.7V | 00:00:00 | 01:02:46 | 00:00:00 | |
| DO3MHA-12 | 2026-09-02 04:43:34 | 47.75414 | 11.51828 | 87° | 44km/h | 16764m | -9.1m/s | -53.6°C | 4.6% | 97.2hPa | 2.7V | 02:30:00 | 01:02:45 | 00:00:00 | |
| DF1GD-15 | 2026-09-02 04:43:32 | 47.75414 | 11.51812 | 93° | 42km/h | 16773m | -9.4m/s | -53.7°C | 0% | 0hPa | 2.7V | 02:31:00 | 00:00:00 | 00:00:00 | |
| DO3MHA-11 | 2026-09-02 04:43:31 | 47.75414 | 11.51780 | 91° | 44km/h | 16791m | -7.7m/s | -53.8°C | 4.7% | 96.8hPa | 2.7V | 00:00:00 | 01:02:42 | 00:00:00 | |
| BAUMI2-15 | 2026-09-02 04:43:30 | 47.75414 | 11.51763 | 87° | 44km/h | 16799m | -7.5m/s | -53.8°C | 4.7% | 96.7hPa | 2.7V | 02:30:00 | 01:02:41 | 00:00:00 | |
| OE5MMP-10 | 2026-09-02 04:43:29 | 47.75414 | 11.51746 | 91° | 42km/h | 16806m | -7.0m/s | -53.8°C | 4.7% | 96.5hPa | 2.7V | 00:00:00 | 01:02:40 | 00:00:00 | |
| BAUMI2-15 | 2026-09-02 04:43:25 | 47.75411 | 11.51681 | 82° | 40km/h | 16837m | -7.4m/s | -53.9°C | 4.8% | 96.1hPa | 2.7V | 00:00:00 | 01:02:36 | 00:00:00 | |
| DO3MHA-12 | 2026-09-02 04:43:24 | 47.75410 | 11.51666 | 86° | 40km/h | 16845m | -7.5m/s | -53.9°C | 4.8% | 95.9hPa | 2.7V | 00:00:00 | 01:02:35 | 00:00:00 | |
| DK5PH-5 | 2026-09-02 04:43:22 | 47.75407 | 11.51636 | 80° | 40km/h | 16862m | -8.7m/s | 0°C | 0% | 0hPa | 2.7V | 02:30:00 | 01:02:33 | 00:00:00 | |
| DO3MHA-11 | 2026-09-02 04:43:21 | 47.75405 | 11.51621 | 79° | 38km/h | 16870m | -6.2m/s | -53.9°C | 4.9% | 95.5hPa | 2.7V | 02:30:00 | 01:02:32 | 00:00:00 | |
| BAUMI2-15 | 2026-09-02 04:43:20 | 47.75403 | 11.51607 | 80° | 38km/h | 16876m | -6.4m/s | -53.9°C | 4.9% | 95.5hPa | 2.7V | 00:00:00 | 01:02:31 | 00:00:00 | |
| OE5MMP-10 | 2026-09-02 04:43:19 | 47.75400 | 11.51593 | 70° | 40km/h | 16882m | -5.0m/s | -53.9°C | 4.9% | 95.4hPa | 2.7V | 00:00:00 | 01:02:30 | 00:00:00 | |
| IN3HCDX | 2026-09-02 04:43:17 | 47.75397 | 11.51579 | 75° | 40km/h | 16889m | -8.5m/s | -54.0°C | 0% | 0hPa | 2.7V | 00:00:00 | 00:00:00 | 00:00:00 | |
| DF3TZ-5 | 2026-09-02 04:43:16 | 47.75391 | 11.51552 | 64° | 38km/h | 16904m | -7.6m/s | -54.0°C | 1.8% | 95.1hPa | 2.7V | 00:00:00 | 00:00:00 | 00:00:00 | |
| NBG1-10 | 2026-09-02 04:43:15 | 47.75388 | 11.51539 | 72° | 46km/h | 16911m | -8.3m/s | -53.9°C | 4.9% | 94.9hPa | 2.7V | 02:30:00 | 01:02:26 | 00:00:00 | |
| DO3MHA-12 | 2026-09-02 04:43:14 | 47.75384 | 11.51525 | 65° | 40km/h | 16919m | -6.8m/s | -53.9°C | 4.9% | 94.8hPa | 2.7V | 00:00:00 | 01:02:25 | 00:00:00 | |
| DF1GD-15 | 2026-09-02 04:43:12 | 47.75380 | 11.51512 | 67° | 38km/h | 16925m | -5.6m/s | -54.0°C | 0% | 0hPa | 2.7V | 02:31:00 | 00:00:00 | 00:00:00 | |
| DO3MHA-11 | 2026-09-02 04:43:11 | 47.75375 | 11.51485 | 80° | 44km/h | 16934m | -1.9m/s | -54.4°C | 5.3% | 94.5hPa | 2.7V | 00:00:00 | 01:02:22 | 00:00:00 | |
| BAUMI2-15 | 2026-09-02 04:43:10 | 47.75371 | 11.51464 | 75° | 40km/h | 16934m | 2.6m/s | -55.2°C | 6.1% | 94.5hPa | 2.7V | 00:00:00 | 01:02:21 | 00:00:00 | |
| OE5MMP-10 | 2026-09-02 04:43:08 | 47.75363 | 11.51440 | 72° | 38km/h | 16919m | 2.3m/s | -53.8°C | 4.6% | 94.7hPa | 2.7V | 02:31:00 | 01:02:19 | 00:00:00 | |
| BAUMI2-15 | 2026-09-02 04:43:05 | 47.75349 | 11.51395 | 75° | 46km/h | 16906m | 4.6m/s | -53.9°C | 4.6% | 94.9hPa | 2.7V | 00:00:00 | 01:02:16 | 00:00:00 | |
| DO3MHA-12 | 2026-09-02 04:43:04 | 47.75347 | 11.51382 | 95° | 42km/h | 16903m | -0.1m/s | -53.9°C | 4.6% | 95.0hPa | 2.7V | 02:31:00 | 01:02:15 | 00:00:00 | |
| DO3MHA-11 | 2026-09-02 04:43:01 | 47.75336 | 11.51337 | 62° | 42km/h | 16886m | 5.3m/s | -53.8°C | 4.6% | 95.2hPa | 2.7V | 00:00:00 | 01:02:12 | 00:00:00 | |
| DB0UT-7 | 2026-09-02 04:43:00 | 47.75334 | 11.51323 | 94° | 44km/h | 16881m | 4.2m/s | -53.8°C | 4.6% | 95.3hPa | 2.7V | 02:31:00 | 01:02:11 | 00:00:00 | |
| DG1MFX-10 | 2026-09-02 04:42:59 | 47.75334 | 11.51323 | 95° | 38km/h | 16881m | 4.3m/s | -53.9°C | 1.6% | 95.4hPa | 2.6V | 02:31:00 | 00:00:00 | 00:00:00 | |
| OE5MMP-10 | 2026-09-02 04:42:57 | 47.75326 | 11.51280 | 85° | 42km/h | 16862m | 3.1m/s | -53.9°C | 4.7% | 95.5hPa | 2.6V | 00:00:00 | 01:02:08 | 00:00:00 | |
| OE5DRO-10 | 2026-09-02 04:42:56 | 47.75326 | 11.51264 | 98° | 46km/h | 16859m | 0.4m/s | -53.9°C | 4.7% | 95.6hPa | 2.6V | 02:31:00 | 00:00:00 | 00:00:00 | |
| BAUMI2-15 | 2026-09-02 04:42:55 | 47.75326 | 11.51247 | 81° | 47km/h | 16858m | 5.3m/s | -53.9°C | 4.7% | 95.7hPa | 2.6V | 00:00:00 | 01:02:06 | 00:00:00 | |
| DO3MHA-12 | 2026-09-02 04:42:54 | 47.75323 | 11.51230 | 72° | 42km/h | 16851m | 8.1m/s | -53.8°C | 4.7% | 95.8hPa | 2.6V | 00:00:00 | 01:02:05 | 00:00:00 | |
| DK5PH-5 | 2026-09-02 04:42:52 | 47.75322 | 11.51203 | 98° | 44km/h | 16842m | 8.4m/s | 0°C | 0% | 0hPa | 2.6V | 00:00:00 | 01:02:03 | 00:00:00 | |
| DO3MHA-11 | 2026-09-02 04:42:51 | 47.75322 | 11.51182 | 84° | 46km/h | 16837m | 2.7m/s | -53.9°C | 4.7% | 96.0hPa | 2.6V | 02:31:00 | 01:02:02 | 00:00:00 | |
| BAUMI2-15 | 2026-09-02 04:42:50 | 47.75321 | 11.51165 | 85° | 42km/h | 16832m | 8.3m/s | -53.8°C | 4.7% | 96.1hPa | 2.6V | 00:00:00 | 01:02:01 | 00:00:00 | |
| OE5MMP-10 | 2026-09-02 04:42:47 | 47.75321 | 11.51119 | 84° | 46km/h | 16818m | -0.6m/s | -53.8°C | 4.6% | 96.3hPa | 2.6V | 00:00:00 | 01:01:58 | 00:00:00 | |
| DF3TZ-5 | 2026-09-02 04:42:45 | 47.75321 | 11.51052 | 91° | 55km/h | 16795m | 7.3m/s | -53.8°C | 1.6% | 96.7hPa | 2.6V | 00:00:00 | 00:00:00 | 00:00:00 | |
| NBG1-10 | 2026-09-02 04:42:42 | 47.75320 | 11.51032 | 76° | 47km/h | 16791m | 3.1m/s | -53.7°C | 4.7% | 96.7hPa | 2.6V | 00:00:00 | 01:01:53 | 00:00:00 | |
| DO3MHA-11 | 2026-09-02 04:42:41 | 47.75320 | 11.51015 | 108° | 46km/h | 16786m | 8.5m/s | -53.6°C | 4.6% | 96.8hPa | 2.6V | 00:00:00 | 01:01:52 | 00:00:00 | |
| BAUMI2-15 | 2026-09-02 04:42:40 | 47.75322 | 11.51003 | 100° | 40km/h | 16781m | 3.5m/s | -53.6°C | 4.6% | 96.9hPa | 2.6V | 00:00:00 | 01:01:51 | 00:00:00 | |
| DG1MFX-10 | 2026-09-02 04:42:39 | 47.75322 | 11.51003 | 100° | 22km/h | 16781m | 3.6m/s | -53.7°C | 1.6% | 96.9hPa | 2.6V | 02:32:00 | 00:00:00 | 00:00:00 | |
| OE5MMP-10 | 2026-09-02 04:42:37 | 47.75322 | 11.50951 | 97° | 46km/h | 16766m | 8.2m/s | -53.5°C | 4.7% | 97.1hPa | 2.6V | 02:31:00 | 01:01:48 | 00:00:00 | |
| BAUMI2-15 | 2026-09-02 04:42:35 | 47.75325 | 11.50923 | 93° | 49km/h | 16756m | 9.7m/s | -53.6°C | 4.6% | 97.2hPa | 2.7V | 00:00:00 | 01:01:46 | 00:00:00 | |
| DO3MHA-12 | 2026-09-02 04:42:34 | 47.75323 | 11.50903 | 71° | 44km/h | 16750m | 1.8m/s | -53.6°C | 4.7% | 97.3hPa | 2.7V | 02:31:00 | 01:01:45 | 00:00:00 | |
| DO3MHA-11 | 2026-09-02 04:42:31 | 47.75327 | 11.50852 | 105° | 44km/h | 16735m | 9.8m/s | -53.6°C | 4.6% | 97.5hPa | 2.6V | 00:00:00 | 01:01:42 | 00:00:00 | |
| DF1GD-15 | 2026-09-02 04:42:30 | 47.75327 | 11.50852 | 106° | 55km/h | 16735m | 9.8m/s | -53.7°C | 0% | 0hPa | 2.6V | 02:32:00 | 00:00:00 | 00:00:00 | |
| BAUMI2-15 | 2026-09-02 04:42:29 | 47.75323 | 11.50816 | 90° | 44km/h | 16723m | 7.0m/s | 0°C | 0% | 0hPa | 2.6V | 02:31:00 | 01:01:40 | 00:00:00 | |
| OE5MMP-10 | 2026-09-02 04:42:27 | 47.75327 | 11.50785 | 104° | 46km/h | 16713m | 7.1m/s | -53.5°C | 4.5% | 97.8hPa | 2.6V | 00:00:00 | 01:01:38 | 00:00:00 | |
| DO3MHA-12 | 2026-09-02 04:42:24 | 47.75324 | 11.50740 | 114° | 46km/h | 16695m | 2.9m/s | -53.4°C | 4.6% | 98.1hPa | 2.6V | 00:00:00 | 01:01:35 | 00:00:00 | |
| DO3MHA-11 | 2026-09-02 04:42:21 | 47.75324 | 11.50690 | 87° | 47km/h | 16680m | 3.4m/s | -53.3°C | 4.6% | 98.4hPa | 2.6V | 02:31:00 | 01:01:32 | 00:00:00 | |
| DK5PH-5 | 2026-09-02 04:42:19 | 47.75327 | 11.50654 | 94° | 51km/h | 16671m | 2.8m/s | 0°C | 0% | 0hPa | 2.6V | 00:00:00 | 01:01:30 | 00:00:00 | |
| DG1MFX-10 | 2026-09-02 04:42:18 | 47.75327 | 11.50654 | 95° | 64km/h | 16671m | 2.8m/s | -53.3°C | 1.6% | 98.6hPa | 2.6V | 02:32:00 | 00:00:00 | 00:00:00 | |
| OE5DRO-10 | 2026-09-02 04:42:16 | 47.75325 | 11.50606 | 101° | 49km/h | 16653m | 8.1m/s | -53.2°C | 4.6% | 98.7hPa | 2.6V | 00:00:00 | 00:00:00 | 00:00:00 | |
| DO3MHA-12 | 2026-09-02 04:42:14 | 47.75326 | 11.50563 | 88° | 51km/h | 16642m | 5.6m/s | -53.1°C | 4.6% | 98.9hPa | 2.6V | 00:00:00 | 01:01:25 | 00:00:00 | |
| OE5DXL-15 | 2026-09-02 04:42:11 | 47.75330 | 11.50509 | 87° | 53km/h | 16627m | 8.6m/s | -53.2°C | 4.6% | 99.2hPa | 2.6V | 02:31:00 | 00:00:00 | 00:00:00 | |
| DL6DJ-15 | 2026-09-02 04:42:09 | 47.75327 | 11.50466 | 92° | 38km/h | 16617m | 8.9m/s | -53.3°C | 1.6% | 99.3hPa | 2.6V | 00:00:00 | 00:00:00 | 00:00:00 | |
| DF1GD-15 | 2026-09-02 04:42:08 | 47.75327 | 11.50466 | 94° | 38km/h | 16617m | 8.9m/s | -53.3°C | 0% | 0hPa | 2.6V | 02:32:00 | 00:00:00 | 00:00:00 | |
| DF7PN | 2026-09-02 04:42:07 | 47.75330 | 11.50431 | 91° | 62km/h | 16608m | 7.9m/s | -53.2°C | 1.6% | 99.5hPa | 2.6V | 00:00:00 | 00:00:00 | 00:00:00 | |
| NBG1-10 | 2026-09-02 04:42:06 | 47.75328 | 11.50410 | 70° | 53km/h | 16602m | 4.5m/s | -53.2°C | 4.4% | 99.6hPa | 2.6V | 00:00:00 | 01:01:17 | 00:00:00 | |
| OE5MMP-10 | 2026-09-02 04:42:05 | 47.75325 | 11.50391 | 78° | 47km/h | 16597m | 6.2m/s | -53.2°C | 4.4% | 99.7hPa | 2.6V | 02:32:00 | 01:01:16 | 00:00:00 | |
| DO3MHA-12 | 2026-09-02 04:42:03 | 47.75328 | 11.50356 | 92° | 51km/h | 16587m | 6.5m/s | -53.2°C | 4.5% | 99.8hPa | 2.7V | 02:32:00 | 01:01:14 | 00:00:00 | |
| DO3MHA-11 | 2026-09-02 04:42:01 | 47.75324 | 11.50319 | 81° | 53km/h | 16575m | 3.4m/s | -53.1°C | 4.5% | 100.0hPa | 2.6V | 00:00:00 | 01:01:12 | 00:00:00 | |
| PG1ADW-2 | 2026-09-02 04:41:59 | 47.75325 | 11.50286 | 89° | 47km/h | 16566m | 4.0m/s | -53.1°C | 4.5% | 100.1hPa | 2.6V | 00:00:00 | 00:00:00 | 00:00:00 | |
| DG1MFX-10 | 2026-09-02 04:41:57 | 47.75323 | 11.50269 | 77° | 62km/h | 16559m | 7.9m/s | -53.2°C | 1.7% | 100.2hPa | 2.6V | 02:32:00 | 00:00:00 | 00:00:00 | |
| OE5DRO-10 | 2026-09-02 04:41:56 | 47.75322 | 11.50224 | 108° | 55km/h | 16548m | 5.7m/s | -53.1°C | 4.5% | 100.3hPa | 2.6V | 02:32:00 | 00:00:00 | 00:00:00 | |
| OE5MMP-10 | 2026-09-02 04:41:55 | 47.75324 | 11.50210 | 82° | 57km/h | 16545m | 1.2m/s | -53.2°C | 4.6% | 100.4hPa | 2.6V | 00:00:00 | 01:01:06 | 00:00:00 | |
| DO3MHA-12 | 2026-09-02 04:41:53 | 47.75322 | 11.50167 | 99° | 55km/h | 16533m | 4.2m/s | -53.2°C | 4.6% | 100.6hPa | 2.6V | 00:00:00 | 01:01:04 | 00:00:00 | |
| DO3MHA-11 | 2026-09-02 04:41:51 | 47.75323 | 11.50127 | 72° | 55km/h | 16522m | 1.7m/s | -53.2°C | 4.6% | 100.8hPa | 2.6V | 02:32:00 | 01:01:02 | 00:00:00 | |
| DF1GD-15 | 2026-09-02 04:41:47 | 47.75325 | 11.50064 | 98° | 55km/h | 16506m | 3.4m/s | -53.4°C | 0% | 0hPa | 2.6V | 02:32:00 | 00:00:00 | 00:00:00 | |
| DK5PH-5 | 2026-09-02 04:41:46 | 47.75323 | 11.50021 | 93° | 53km/h | 16498m | 4.9m/s | 0°C | 0% | 0hPa | 2.6V | 02:32:00 | 01:00:57 | 00:00:00 | |
| OE5MMP-10 | 2026-09-02 04:41:45 | 47.75326 | 11.49999 | 108° | 53km/h | 16492m | 7.0m/s | -53.3°C | 4.6% | 101.2hPa | 2.6V | 00:00:00 | 01:00:56 | 00:00:00 | |
| DO3MHA-12 | 2026-09-02 04:41:43 | 47.75328 | 11.49965 | 72° | 55km/h | 16484m | 8.0m/s | -53.3°C | 4.5% | 101.4hPa | 2.6V | 00:00:00 | 01:00:54 | 00:00:00 | |
| OE5DXL-15 | 2026-09-02 04:41:41 | 47.75328 | 11.49923 | 108° | 53km/h | 16474m | 7.6m/s | -53.3°C | 4.6% | 101.5hPa | 2.6V | 00:00:00 | 00:00:00 | 00:00:00 | |
| PG1ADW-2 | 2026-09-02 04:41:39 | 47.75333 | 11.49891 | 87° | 53km/h | 16464m | 6.9m/s | -53.3°C | 4.6% | 101.7hPa | 2.6V | 00:00:00 | 00:00:00 | 00:00:00 | |
| DL6DJ-15 | 2026-09-02 04:41:38 | 47.75332 | 11.49868 | 78° | 71km/h | 16460m | 3.0m/s | -53.4°C | 1.7% | 101.9hPa | 2.6V | 00:00:00 | 00:00:00 | 00:00:00 | |
| DG1MFX-10 | 2026-09-02 04:41:36 | 47.75331 | 11.49845 | 97° | 57km/h | 16455m | 8.1m/s | -53.4°C | 1.8% | 101.9hPa | 2.6V | 02:32:00 | 00:00:00 | 00:00:00 | |
| OE5DRO-10 | 2026-09-02 04:41:35 | 47.75334 | 11.49812 | 98° | 51km/h | 16444m | 3.9m/s | -53.4°C | 4.7% | 102.1hPa | 2.6V | 00:00:00 | 00:00:00 | 00:00:00 | |
| IN3HCDX | 2026-09-02 04:41:34 | 47.75334 | 11.49812 | 99° | 49km/h | 16444m | 4.0m/s | -53.4°C | 0% | 0hPa | 2.6V | 02:32:00 | 00:00:00 | 00:00:00 | |
| NBG1-10 | 2026-09-02 04:41:32 | 47.75338 | 11.49749 | 99° | 57km/h | 16428m | 7.7m/s | -53.4°C | 4.7% | 102.3hPa | 2.6V | 02:32:00 | 01:00:43 | 00:00:00 | |
| DO3MHA-11 | 2026-09-02 04:41:31 | 47.75340 | 11.49734 | 94° | 51km/h | 16423m | 2.4m/s | -53.4°C | 4.7% | 102.4hPa | 2.7V | 00:00:00 | 01:00:42 | 00:00:00 | |
| DB0UT-7 | 2026-09-02 04:41:29 | 47.75341 | 11.49694 | 97° | 57km/h | 16414m | 3.2m/s | -53.4°C | 4.7% | 102.6hPa | 2.7V | 02:32:00 | 00:00:00 | 00:00:00 | |
| OE5MMP-10 | 2026-09-02 04:41:25 | 47.75344 | 11.49620 | 101° | 55km/h | 16396m | 5.6m/s | -53.4°C | 4.7% | 102.8hPa | 2.6V | 00:00:00 | 01:00:36 | 00:00:00 | |
| DO3MHA-12 | 2026-09-02 04:41:22 | 47.75347 | 11.49556 | 91° | 55km/h | 16384m | 4.5m/s | -53.4°C | 4.7% | 103.1hPa | 2.6V | 00:00:00 | 01:00:33 | 00:00:00 | |
| DO3MHA-11 | 2026-09-02 04:41:21 | 47.75348 | 11.49540 | 101° | 55km/h | 16380m | 3.8m/s | -53.4°C | 4.8% | 103.1hPa | 2.6V | 02:32:00 | 01:00:32 | 00:00:00 | |
| PG1ADW-2 | 2026-09-02 04:41:16 | 47.75356 | 11.49438 | 101° | 57km/h | 16356m | 4.9m/s | -53.3°C | 4.7% | 103.5hPa | 2.6V | 02:32:00 | 00:00:00 | 00:00:00 | |
| OE5MMP-10 | 2026-09-02 04:41:15 | 47.75358 | 11.49423 | 103° | 57km/h | 16352m | 4.3m/s | -53.2°C | 4.7% | 103.6hPa | 2.6V | 00:00:00 | 01:00:26 | 00:00:00 | |
| DK5PH-5 | 2026-09-02 04:41:13 | 47.75362 | 11.49378 | 99° | 58km/h | 16341m | 4.5m/s | 0°C | 0% | 0hPa | 2.6V | 00:00:00 | 01:00:24 | 00:00:00 | |
| DO3MHA-12 | 2026-09-02 04:41:12 | 47.75364 | 11.49353 | 93° | 57km/h | 16335m | 5.3m/s | -53.2°C | 4.6% | 103.8hPa | 2.6V | 00:00:00 | 01:00:23 | 00:00:00 | |
| OE5DXL-15 | 2026-09-02 04:41:11 | 47.75365 | 11.49335 | 102° | 58km/h | 16329m | 4.9m/s | -53.2°C | 4.7% | 103.9hPa | 2.6V | 00:00:00 | 00:00:00 | 00:00:00 | |
| DL6DJ-15 | 2026-09-02 04:41:07 | 47.75376 | 11.49253 | 112° | 60km/h | 16309m | 4.1m/s | -53.3°C | 1.8% | 104.2hPa | 2.6V | 00:00:00 | 00:00:00 | 00:00:00 | |
| OE5MMP-10 | 2026-09-02 04:41:05 | 47.75387 | 11.49213 | 114° | 58km/h | 16300m | 3.6m/s | -53.3°C | 4.7% | 104.3hPa | 2.6V | 02:33:00 | 01:00:16 | 00:00:00 | |
| DF1GD-15 | 2026-09-02 04:41:04 | 47.75387 | 11.49213 | 114° | 51km/h | 16300m | 3.7m/s | -53.3°C | 0% | 0hPa | 2.6V | 00:00:00 | 00:00:00 | 00:00:00 | |
| DO3MHA-12 | 2026-09-02 04:41:02 | 47.75395 | 11.49144 | 109° | 58km/h | 16289m | 2.6m/s | -53.4°C | 4.7% | 104.5hPa | 2.6V | 02:33:00 | 01:00:13 | 00:00:00 | |
| DO3MHA-11 | 2026-09-02 04:41:01 | 47.75401 | 11.49123 | 116° | 55km/h | 16285m | 6.5m/s | -53.5°C | 4.6% | 104.6hPa | 2.6V | 00:00:00 | 01:00:12 | 00:00:00 | |
| DB0UT-7 | 2026-09-02 04:40:59 | 47.75403 | 11.49089 | 105° | 62km/h | 16278m | 6.4m/s | -53.5°C | 4.7% | 104.7hPa | 2.6V | 00:00:00 | 01:00:10 | 00:00:00 | |
| OE5DRO-10 | 2026-09-02 04:40:56 | 47.75412 | 11.49019 | 84° | 66km/h | 16260m | 7.9m/s | -53.5°C | 4.7% | 105.0hPa | 2.6V | 02:33:00 | 00:00:00 | 00:00:00 | |
| OE5MMP-10 | 2026-09-02 04:40:55 | 47.75414 | 11.49000 | 118° | 60km/h | 16254m | 4.5m/s | -53.5°C | 4.7% | 105.1hPa | 2.6V | 00:00:00 | 01:00:06 | 00:00:00 | |
| DO3MHA-12 | 2026-09-02 04:40:52 | 47.75426 | 11.48937 | 95° | 58km/h | 16241m | 10.3m/s | -53.5°C | 4.7% | 105.3hPa | 2.6V | 00:00:00 | 01:00:03 | 00:00:00 | |
| DO3MHA-11 | 2026-09-02 04:40:51 | 47.75427 | 11.48921 | 99° | 62km/h | 16234m | 3.6m/s | -53.5°C | 4.7% | 105.5hPa | 2.6V | 02:33:00 | 01:00:02 | 00:00:00 | |
| OE5MMP-10 | 2026-09-02 04:40:44 | 47.75442 | 11.48767 | 87° | 62km/h | 16197m | 3.6m/s | -53.7°C | 4.7% | 106.0hPa | 2.7V | 00:00:00 | 00:59:55 | 00:00:00 | |
| DK5PH-5 | 2026-09-02 04:40:43 | 47.75445 | 11.48746 | 114° | 60km/h | 16192m | 6.0m/s | 0°C | 0% | 0hPa | 2.7V | 00:00:00 | 00:59:54 | 00:00:00 | |
| DO3MHA-12 | 2026-09-02 04:40:42 | 47.75450 | 11.48722 | 101° | 66km/h | 16187m | 3.9m/s | -53.8°C | 4.7% | 106.2hPa | 2.7V | 00:00:00 | 00:59:53 | 00:00:00 | |
| DF3TZ-5 | 2026-09-02 04:40:41 | 47.75450 | 11.48673 | 92° | 49km/h | 16177m | 0.3m/s | -53.9°C | 1.8% | 106.4hPa | 2.7V | 00:00:00 | 00:00:00 | 00:00:00 | |
| DL6DJ-15 | 2026-09-02 04:40:36 | 47.75457 | 11.48558 | 100° | 60km/h | 16150m | 4.3m/s | -54.3°C | 1.9% | 106.8hPa | 2.7V | 00:00:00 | 00:00:00 | 00:00:00 | |
| OE5MMP-10 | 2026-09-02 04:40:34 | 47.75458 | 11.48532 | 88° | 62km/h | 16144m | 8.6m/s | -54.4°C | 5.0% | 106.8hPa | 2.7V | 02:33:00 | 00:59:45 | 00:00:00 | |
| DF7PN | 2026-09-02 04:40:33 | 47.75455 | 11.48483 | 91° | 49km/h | 16135m | 6.3m/s | -54.5°C | 1.9% | 107.1hPa | 2.6V | 00:00:00 | 00:00:00 | 00:00:00 | |
| DO3MHA-12 | 2026-09-02 04:40:32 | 47.75455 | 11.48483 | 92° | 60km/h | 16135m | 6.2m/s | -54.4°C | 5.0% | 107.0hPa | 2.6V | 02:33:00 | 00:59:43 | 00:00:00 | |
| DO3MHA-11 | 2026-09-02 04:40:31 | 47.75457 | 11.48463 | 101° | 60km/h | 16130m | 3.2m/s | -54.5°C | 5.0% | 107.1hPa | 2.7V | 00:00:00 | 00:59:42 | 00:00:00 | |
| DB0UT-7 | 2026-09-02 04:40:28 | 47.75456 | 11.48395 | 84° | 53km/h | 16117m | 4.8m/s | -54.5°C | 5.0% | 107.4hPa | 2.7V | 00:00:00 | 00:00:00 | 00:00:00 | |
| NBG1-10 | 2026-09-02 04:40:26 | 47.75459 | 11.48352 | 103° | 49km/h | 16103m | 3.1m/s | -54.4°C | 5.0% | 107.6hPa | 2.7V | 00:00:00 | 00:59:37 | 00:00:00 | |
| OE5MMP-10 | 2026-09-02 04:40:23 | 47.75458 | 11.48287 | 102° | 55km/h | 16087m | 8.7m/s | -54.5°C | 5.0% | 107.8hPa | 2.7V | 00:00:00 | 00:59:34 | 00:00:00 | |
| DO3MHA-12 | 2026-09-02 04:40:21 | 47.75461 | 11.48244 | 75° | 57km/h | 16076m | 8.5m/s | -54.4°C | 5.1% | 108.0hPa | 2.7V | 00:00:00 | 00:59:32 | 00:00:00 | |
| DF1GD-15 | 2026-09-02 04:40:16 | 47.75464 | 11.48158 | 101° | 46km/h | 16052m | 4.1m/s | -54.5°C | 0% | 0hPa | 2.7V | 00:00:00 | 00:00:00 | 00:00:00 | |
| BAUMI2-15 | 2026-09-02 04:40:15 | 47.75462 | 11.48119 | 96° | 55km/h | 16043m | 7.7m/s | 0°C | 0% | 0hPa | 2.7V | 00:00:00 | 00:59:26 | 00:00:00 | |
| DK5PH-5 | 2026-09-02 04:40:14 | 47.75469 | 11.48077 | 95° | 49km/h | 16031m | 5.5m/s | 0°C | 0% | 0hPa | 2.7V | 02:33:00 | 00:59:24 | 00:00:00 | |
| DF3TZ-5 | 2026-09-02 04:40:10 | 47.75474 | 11.47997 | 107° | 42km/h | 16010m | 4.9m/s | -54.6°C | 1.9% | 109.1hPa | 2.7V | 00:00:00 | 00:00:00 | 00:00:00 | |
| PG1ADW-2 | 2026-09-02 04:40:09 | 47.75474 | 11.47997 | 108° | 44km/h | 16010m | 4.9m/s | -54.5°C | 5.0% | 109.1hPa | 2.7V | 02:34:00 | 00:00:00 | 00:00:00 | |
| BAUMI2-15 | 2026-09-02 04:40:05 | 47.75480 | 11.47917 | 108° | 53km/h | 15990m | 3.2m/s | 0°C | 0% | 0hPa | 2.7V | 00:00:00 | 00:59:16 | 00:00:00 | |
| OE5MMP-10 | 2026-09-02 04:40:03 | 47.75481 | 11.47877 | 102° | 49km/h | 15983m | 6.2m/s | -54.5°C | 4.9% | 109.6hPa | 2.7V | 02:34:00 | 00:59:14 | 00:00:00 | |
| DF7PN | 2026-09-02 04:40:02 | 47.75491 | 11.47776 | 106° | 51km/h | 15954m | 4.2m/s | -54.7°C | 1.9% | 110.1hPa | 2.7V | 00:00:00 | 00:00:00 | 00:00:00 | |
| DO3MHA-12 | 2026-09-02 04:40:00 | 47.75486 | 11.47820 | 91° | 49km/h | 15961m | 6.2m/s | -54.5°C | 4.9% | 109.9hPa | 2.7V | 02:34:00 | 00:59:11 | 00:00:00 | |
| DB0UT-7 | 2026-09-02 04:39:58 | 47.75491 | 11.47776 | 107° | 57km/h | 15954m | 4.2m/s | -54.6°C | 5.0% | 110.0hPa | 2.6V | 02:34:00 | 00:59:09 | 00:00:00 | |
| DG1MJG | 2026-09-02 04:39:57 | 47.75491 | 11.47776 | 108° | 51km/h | 15954m | 4.2m/s | -54.7°C | 1.9% | 110.1hPa | 2.7V | 02:34:00 | 00:00:00 | 00:00:00 | |
| BAUMI2-15 | 2026-09-02 04:39:55 | 47.75491 | 11.47727 | 96° | 53km/h | 15942m | 5.6m/s | 0°C | 0% | 0hPa | 2.7V | 02:34:00 | 00:59:06 | 00:00:00 | |
| OE5DRO-10 | 2026-09-02 04:39:54 | 47.75494 | 11.47707 | 110° | 47km/h | 15937m | 4.3m/s | -54.7°C | 5.2% | 110.4hPa | 2.7V | 02:34:00 | 00:00:00 | 00:00:00 | |
| OE5MMP-10 | 2026-09-02 04:39:53 | 47.75495 | 11.47690 | 89° | 55km/h | 15932m | 6.4m/s | -54.7°C | 5.2% | 110.5hPa | 2.6V | 00:00:00 | 00:59:04 | 00:00:00 | |
| DF1GD-15 | 2026-09-02 04:39:52 | 47.75495 | 11.47690 | 90° | 46km/h | 15932m | 6.5m/s | -54.7°C | 0% | 0hPa | 2.6V | 00:00:00 | 00:00:00 | 00:00:00 | |
| BAUMI2-15 | 2026-09-02 04:39:50 | 47.75497 | 11.47630 | 105° | 49km/h | 15916m | 3.6m/s | 0°C | 0% | 0hPa | 2.6V | 00:00:00 | 00:59:01 | 00:00:00 | |
| DO3MHA-12 | 2026-09-02 04:39:49 | 47.75497 | 11.47614 | 77° | 55km/h | 15909m | 7.7m/s | -54.6°C | 5.1% | 110.8hPa | 2.6V | 00:00:00 | 00:59:00 | 00:00:00 | |
| PG1ADW-2 | 2026-09-02 04:39:48 | 47.75495 | 11.47592 | 94° | 57km/h | 15905m | 0.8m/s | -54.6°C | 5.1% | 111.0hPa | 2.6V | 00:00:00 | 00:00:00 | 00:00:00 | |
| BAUMI2-15 | 2026-09-02 04:39:45 | 47.75497 | 11.47537 | 81° | 55km/h | 15887m | 6.3m/s | 0°C | 0% | 0hPa | 2.6V | 00:00:00 | 00:58:56 | 00:00:00 | |
| OE5MMP-10 | 2026-09-02 04:39:43 | 47.75501 | 11.47495 | 108° | 51km/h | 15877m | 4.2m/s | -54.4°C | 4.9% | 111.4hPa | 2.6V | 00:00:00 | 00:58:54 | 00:00:00 | |
| OE5DXL-15 | 2026-09-02 04:39:41 | 47.75498 | 11.47456 | 78° | 55km/h | 15865m | 3.2m/s | -54.3°C | 4.9% | 111.6hPa | 2.6V | 00:00:00 | 00:00:00 | 00:00:00 | |
| BAUMI2-15 | 2026-09-02 04:39:40 | 47.75497 | 11.47435 | 101° | 55km/h | 15858m | 8.9m/s | 0°C | 0% | 0hPa | 2.6V | 02:34:00 | 00:58:51 | 00:00:00 | |
| DF3TZ-5 | 2026-09-02 04:39:39 | 47.75500 | 11.47400 | 84° | 53km/h | 15845m | 5.8m/s | -54.2°C | 1.8% | 112.0hPa | 2.6V | 00:00:00 | 00:00:00 | 00:00:00 | |
| BAUMI2-15 | 2026-09-02 04:39:35 | 47.75503 | 11.47337 | 92° | 58km/h | 15835m | 6.4m/s | 0°C | 0% | 0hPa | 2.6V | 00:00:00 | 00:58:46 | 00:00:00 | |
| DL6DJ-15 | 2026-09-02 04:39:34 | 47.75504 | 11.47296 | 92° | 69km/h | 15821m | 2.2m/s | -54.0°C | 1.8% | 112.5hPa | 2.6V | 00:00:00 | 00:00:00 | 00:00:00 | |
| OE5MMP-10 | 2026-09-02 04:39:33 | 47.75503 | 11.47296 | 93° | 58km/h | 15821m | 2.1m/s | -54.0°C | 4.9% | 112.4hPa | 2.6V | 02:34:00 | 00:58:44 | 00:00:00 | |
| DF7PN | 2026-09-02 04:39:31 | 47.75505 | 11.47231 | 93° | 49km/h | 15802m | 2.6m/s | -54.0°C | 1.9% | 112.8hPa | 2.6V | 00:00:00 | 00:00:00 | 00:00:00 | |
| BAUMI2-15 | 2026-09-02 04:39:30 | 47.75505 | 11.47231 | 94° | 55km/h | 15802m | 2.5m/s | 0°C | 0% | 0hPa | 2.6V | 00:00:00 | 00:58:41 | 00:00:00 | |
| DO3MHA-11 | 2026-09-02 04:39:29 | 47.75506 | 11.47209 | 97° | 57km/h | 15798m | 5.6m/s | -54.0°C | 4.9% | 112.8hPa | 2.6V | 00:00:00 | 00:58:40 | 00:00:00 | |
| PG1ADW-2 | 2026-09-02 04:39:28 | 47.75508 | 11.47184 | 100° | 57km/h | 15794m | 1.9m/s | -54.0°C | 4.9% | 112.9hPa | 2.6V | 00:00:00 | 00:58:39 | 00:00:00 | |
| DB0UT-7 | 2026-09-02 04:39:27 | 47.75511 | 11.47163 | 101° | 57km/h | 15789m | 8.9m/s | -53.9°C | 4.9% | 113.0hPa | 2.6V | 00:00:00 | 00:00:00 | 00:00:00 | |
| DG1MJG | 2026-09-02 04:39:26 | 47.75511 | 11.47163 | 102° | 42km/h | 15789m | 9.0m/s | -54.0°C | 1.8% | 113.0hPa | 2.6V | 00:00:00 | 00:00:00 | 00:00:00 | |
| BAUMI2-15 | 2026-09-02 04:39:25 | 47.75511 | 11.47128 | 91° | 57km/h | 15781m | 5.5m/s | 0°C | 0% | 0hPa | 2.6V | 02:34:00 | 00:58:36 | 00:00:00 | |
| OE5MMP-10 | 2026-09-02 04:39:23 | 47.75517 | 11.47086 | 114° | 55km/h | 15770m | 7.0m/s | -53.8°C | 4.7% | 113.3hPa | 2.6V | 00:00:00 | 00:58:34 | 00:00:00 | |
| NBG1-10 | 2026-09-02 04:39:20 | 47.75519 | 11.47027 | 117° | 58km/h | 15754m | 4.2m/s | -53.7°C | 4.7% | 113.6hPa | 2.6V | 00:00:00 | 00:58:31 | 00:00:00 | |
| DO3MHA-11 | 2026-09-02 04:39:19 | 47.75525 | 11.47007 | 103° | 51km/h | 15748m | 5.8m/s | -53.7°C | 4.7% | 113.7hPa | 2.6V | 02:34:00 | 00:58:30 | 00:00:00 | |
| OE5DRO-10 | 2026-09-02 04:39:16 | 47.75530 | 11.46945 | 101° | 55km/h | 15733m | 7.2m/s | -53.5°C | 4.6% | 114.0hPa | 2.7V | 00:00:00 | 00:00:00 | 00:00:00 | |
| DK5PH-5 | 2026-09-02 04:39:12 | 47.75539 | 11.46866 | 109° | 58km/h | 15713m | 9.8m/s | 0°C | 0% | 0hPa | 2.7V | 00:00:00 | 00:58:23 | 00:00:00 | |
| OE5DXL-15 | 2026-09-02 04:39:11 | 47.75542 | 11.46849 | 98° | 60km/h | 15706m | 3.4m/s | -53.5°C | 4.7% | 114.5hPa | 2.7V | 02:34:00 | 00:00:00 | 00:00:00 | |
| DO3MHA-12 | 2026-09-02 04:39:09 | 47.75544 | 11.46810 | 100° | 60km/h | 15697m | 4.0m/s | -53.6°C | 4.7% | 114.7hPa | 2.6V | 00:00:00 | 00:58:20 | 00:00:00 | |
| DF3TZ-5 | 2026-09-02 04:39:08 | 47.75551 | 11.46727 | 99° | 69km/h | 15676m | 8.1m/s | -53.6°C | 1.8% | 115.1hPa | 2.6V | 00:00:00 | 00:00:00 | 00:00:00 | |
| BAUMI2-15 | 2026-09-02 04:39:00 | 47.75556 | 11.46614 | 109° | 60km/h | 15647m | 2.8m/s | 0°C | 0% | 0hPa | 2.6V | 00:00:00 | 00:58:11 | 00:00:00 | |
| DO3MHA-12 | 2026-09-02 04:38:59 | 47.75558 | 11.46595 | 87° | 62km/h | 15641m | 6.8m/s | -53.8°C | 4.9% | 115.6hPa | 2.6V | 02:35:00 | 00:58:10 | 00:00:00 | |
| DB0UT-7 | 2026-09-02 04:38:57 | 47.75562 | 11.46545 | 105° | 62km/h | 15632m | 8.6m/s | -53.8°C | 4.8% | 115.8hPa | 2.7V | 00:00:00 | 00:58:08 | 00:00:00 | |
| DG1MJG | 2026-09-02 04:38:55 | 47.75562 | 11.46502 | 80° | 57km/h | 15621m | 3.7m/s | -53.8°C | 1.8% | 116.0hPa | 2.7V | 00:00:00 | 00:00:00 | 00:00:00 | |
| OE5MMP-10 | 2026-09-02 04:38:52 | 47.75567 | 11.46432 | 97° | 60km/h | 15602m | 9.5m/s | -53.7°C | 4.7% | 116.2hPa | 2.7V | 00:00:00 | 00:58:03 | 00:00:00 | |
| BAUMI2-15 | 2026-09-02 04:38:50 | 47.75563 | 11.46385 | 93° | 62km/h | 15592m | 6.9m/s | 0°C | 0% | 0hPa | 2.7V | 02:35:00 | 00:58:01 | 00:00:00 | |
| DO3MHA-11 | 2026-09-02 04:38:49 | 47.75567 | 11.46365 | 118° | 62km/h | 15588m | 3.6m/s | -53.6°C | 4.7% | 116.7hPa | 2.7V | 02:35:00 | 00:58:00 | 00:00:00 | |
| PG1ADW-2 | 2026-09-02 04:38:48 | 47.75570 | 11.46347 | 98° | 58km/h | 15583m | 6.2m/s | 0°C | 0% | 0hPa | 2.6V | 00:00:00 | 00:00:00 | 00:00:00 | |
| DG1MFX-10 | 2026-09-02 04:38:47 | 47.75570 | 11.46347 | 99° | 46km/h | 15583m | 6.2m/s | -53.6°C | 1.8% | 116.7hPa | 2.6V | 02:35:00 | 00:00:00 | 00:00:00 | |
| NBG1-10 | 2026-09-02 04:38:46 | 47.75572 | 11.46297 | 96° | 62km/h | 15575m | 5.1m/s | -53.5°C | 4.7% | 116.8hPa | 2.6V | 00:00:00 | 00:57:57 | 00:00:00 | |
| BAUMI2-15 | 2026-09-02 04:38:45 | 47.75574 | 11.46274 | 103° | 60km/h | 15568m | 8.7m/s | 0°C | 0% | 0hPa | 2.6V | 00:00:00 | 00:57:56 | 00:00:00 | |
| OE5DXL-15 | 2026-09-02 04:38:41 | 47.75578 | 11.46182 | 95° | 62km/h | 15546m | 7.7m/s | -53.4°C | 4.8% | 117.3hPa | 2.6V | 00:00:00 | 00:00:00 | 00:00:00 | |
| BAUMI2-15 | 2026-09-02 04:38:40 | 47.75576 | 11.46162 | 70° | 58km/h | 15542m | 1.1m/s | 0°C | 0% | 0hPa | 2.6V | 00:00:00 | 00:57:51 | 00:00:00 | |
| DO3MHA-11 | 2026-09-02 04:38:39 | 47.75573 | 11.46139 | 87° | 62km/h | 15537m | 9.3m/s | -53.3°C | 4.7% | 117.5hPa | 2.6V | 00:00:00 | 00:57:50 | 00:00:00 | |
| DF3TZ-5 | 2026-09-02 04:38:36 | 47.75576 | 11.46074 | 82° | 66km/h | 15521m | 3.1m/s | -53.3°C | 1.8% | 118.0hPa | 2.6V | 00:00:00 | 00:00:00 | 00:00:00 | |
| BAUMI2-15 | 2026-09-02 04:38:35 | 47.75576 | 11.46048 | 92° | 62km/h | 15517m | 7.9m/s | 0°C | 0% | 0hPa | 2.6V | 02:35:00 | 00:57:46 | 00:00:00 | |
| DL6DJ-15 | 2026-09-02 04:38:32 | 47.75575 | 11.45958 | 96° | 66km/h | 15491m | 4.3m/s | -53.3°C | 1.8% | 118.4hPa | 2.6V | 00:00:00 | 00:00:00 | 00:00:00 | |
| OE5MMP-10 | 2026-09-02 04:38:31 | 47.75575 | 11.45958 | 97° | 60km/h | 15491m | 4.2m/s | -53.2°C | 4.6% | 118.3hPa | 2.6V | 02:35:00 | 00:57:42 | 00:00:00 | |
| BAUMI2-15 | 2026-09-02 04:38:29 | 47.75574 | 11.45918 | 71° | 66km/h | 15479m | 1.6m/s | 0°C | 0% | 0hPa | 2.6V | 00:00:00 | 00:57:40 | 00:00:00 | |
| DO3MHA-11 | 2026-09-02 04:38:28 | 47.75573 | 11.45894 | 97° | 60km/h | 15473m | 9.4m/s | -53.2°C | 4.6% | 118.6hPa | 2.6V | 00:00:00 | 00:57:39 | 00:00:00 | |
| DB0UT-7 | 2026-09-02 04:38:26 | 47.75576 | 11.45848 | 82° | 64km/h | 15462m | 5.9m/s | -53.1°C | 4.7% | 118.8hPa | 2.6V | 02:35:00 | 00:00:00 | 00:00:00 | |
| OE5MMP-10 | 2026-09-02 04:38:21 | 47.75571 | 11.45735 | 89° | 66km/h | 15435m | 4.9m/s | -53.1°C | 4.7% | 119.3hPa | 2.6V | 00:00:00 | 00:57:32 | 00:00:00 | |
| DK5PH-5 | 2026-09-02 04:38:19 | 47.75572 | 11.45685 | 88° | 68km/h | 15425m | 7.4m/s | 0°C | 0% | 0hPa | 2.6V | 00:00:00 | 00:57:30 | 00:00:00 | |
| DO3MHA-11 | 2026-09-02 04:38:17 | 47.75568 | 11.45640 | 87° | 71km/h | 15414m | 9.3m/s | -53.0°C | 4.6% | 119.7hPa | 2.6V | 02:35:00 | 00:57:28 | 00:00:00 | |
| OE5DRO-10 | 2026-09-02 04:38:16 | 47.75572 | 11.45592 | 87° | 68km/h | 15402m | 8.1m/s | -52.9°C | 4.6% | 119.9hPa | 2.7V | 00:00:00 | 00:00:00 | 00:00:00 | |
| DO3MHA-12 | 2026-09-02 04:38:15 | 47.75572 | 11.45592 | 87° | 64km/h | 15402m | 8.1m/s | -52.9°C | 4.6% | 119.9hPa | 2.7V | 00:00:00 | 00:57:26 | 00:00:00 | |
| NBG1-10 | 2026-09-02 04:38:13 | 47.75570 | 11.45542 | 99° | 68km/h | 15392m | 8.7m/s | -52.9°C | 4.6% | 120.1hPa | 2.7V | 02:35:00 | 00:57:24 | 00:00:00 | |
| OE5MMP-10 | 2026-09-02 04:38:11 | 47.75573 | 11.45496 | 82° | 66km/h | 15383m | 10.0m/s | -52.9°C | 4.6% | 120.3hPa | 2.6V | 00:00:00 | 00:57:22 | 00:00:00 | |
| DO3MHA-11 | 2026-09-02 04:38:07 | 47.75573 | 11.45399 | 86° | 68km/h | 15358m | 5.9m/s | -52.9°C | 4.5% | 120.7hPa | 2.6V | 00:00:00 | 00:57:18 | 00:00:00 | |
| DO3MHA-12 | 2026-09-02 04:38:05 | 47.75575 | 11.45347 | 98° | 64km/h | 15346m | 3.2m/s | -53.0°C | 4.6% | 120.9hPa | 2.6V | 00:00:00 | 00:57:16 | 00:00:00 | |
| DL6DJ-15 | 2026-09-02 04:38:00 | 47.75580 | 11.45233 | 99° | 55km/h | 15319m | 3.9m/s | -53.4°C | 1.8% | 121.5hPa | 2.6V | 00:00:00 | 00:00:00 | 00:00:00 | |
| DF7PN | 2026-09-02 04:37:58 | 47.75584 | 11.45136 | 84° | 55km/h | 15298m | 5.7m/s | -53.3°C | 1.8% | 121.9hPa | 2.6V | 00:00:00 | 00:00:00 | 00:00:00 | |
| DO3MHA-11 | 2026-09-02 04:37:57 | 47.75583 | 11.45156 | 110° | 58km/h | 15303m | 3.5m/s | -53.2°C | 4.7% | 121.8hPa | 2.6V | 00:00:00 | 00:57:08 | 00:00:00 | |
| DB0UT-7 | 2026-09-02 04:37:56 | 47.75584 | 11.45136 | 85° | 64km/h | 15298m | 5.6m/s | -53.2°C | 4.6% | 121.8hPa | 2.6V | 00:00:00 | 00:57:07 | 00:00:00 | |
| DO3MHA-12 | 2026-09-02 04:37:55 | 47.75583 | 11.45111 | 87° | 68km/h | 15295m | 2.6m/s | -53.3°C | 4.7% | 121.9hPa | 2.6V | 02:36:00 | 00:57:06 | 00:00:00 | |
| OE5MMP-10 | 2026-09-02 04:37:51 | 47.75586 | 11.45012 | 92° | 68km/h | 15276m | 6.6m/s | -53.4°C | 4.8% | 122.4hPa | 2.7V | 00:00:00 | 00:57:02 | 00:00:00 | |
| DO3MHA-11 | 2026-09-02 04:37:47 | 47.75590 | 11.44916 | 99° | 68km/h | 15256m | 8.5m/s | -53.4°C | 4.7% | 122.7hPa | 2.7V | 02:36:00 | 00:56:58 | 00:00:00 | |
| DG1MFX-10 | 2026-09-02 04:37:45 | 47.75595 | 11.44889 | 108° | 71km/h | 15250m | 3.0m/s | -53.5°C | 1.9% | 122.9hPa | 2.7V | 02:36:00 | 00:00:00 | 00:00:00 | |
| PG1ADW-2 | 2026-09-02 04:37:43 | 47.75598 | 11.44810 | 100° | 64km/h | 15236m | 7.0m/s | 0°C | 0% | 0hPa | 2.7V | 00:00:00 | 00:00:00 | 00:00:00 | |
| OE5MMP-10 | 2026-09-02 04:37:42 | 47.75602 | 11.44764 | 83° | 66km/h | 15226m | 6.2m/s | -53.5°C | 4.8% | 123.3hPa | 2.7V | 00:00:00 | 00:56:52 | 00:00:00 | |
| DO3MHA-12 | 2026-09-02 04:37:41 | 47.75602 | 11.44764 | 83° | 68km/h | 15226m | 6.2m/s | -53.5°C | 4.8% | 123.3hPa | 2.7V | 00:00:00 | 00:56:52 | 00:00:00 | |
| OE5DXL-15 | 2026-09-02 04:37:40 | 47.75600 | 11.44739 | 85° | 66km/h | 15222m | 3.3m/s | -53.5°C | 4.7% | 123.4hPa | 2.7V | 02:36:00 | 00:00:00 | 00:00:00 | |
| DO3MHA-11 | 2026-09-02 04:37:37 | 47.75603 | 11.44666 | 80° | 66km/h | 15206m | 6.9m/s | -53.6°C | 4.7% | 123.7hPa | 2.6V | 00:00:00 | 00:56:48 | 00:00:00 | |
| OE5DRO-10 | 2026-09-02 04:37:35 | 47.75605 | 11.44615 | 109° | 64km/h | 15196m | 7.0m/s | -53.5°C | 4.7% | 123.9hPa | 2.6V | 00:00:00 | 00:00:00 | 00:00:00 | |
| DF3TZ-5 | 2026-09-02 04:37:34 | 47.75604 | 11.44570 | 83° | 80km/h | 15188m | 6.8m/s | -53.5°C | 1.8% | 124.2hPa | 2.6V | 00:00:00 | 00:00:00 | 00:00:00 | |
| DO3MHA-12 | 2026-09-02 04:37:31 | 47.75607 | 11.44517 | 82° | 64km/h | 15178m | 7.8m/s | -53.4°C | 4.8% | 124.3hPa | 2.6V | 00:00:00 | 00:56:42 | 00:00:00 | |
| DL6DJ-15 | 2026-09-02 04:37:29 | 47.75607 | 11.44470 | 100° | 62km/h | 15170m | 5.5m/s | -53.4°C | 1.9% | 124.6hPa | 2.6V | 00:00:00 | 00:00:00 | 00:00:00 | |
| DO3MHA-11 | 2026-09-02 04:37:27 | 47.75612 | 11.44427 | 84° | 64km/h | 15160m | 9.2m/s | -53.4°C | 4.8% | 124.7hPa | 2.6V | 00:00:00 | 00:56:38 | 00:00:00 | |
| DB0UT-7 | 2026-09-02 04:37:25 | 47.75609 | 11.44373 | 95° | 66km/h | 15148m | 10.0m/s | -53.4°C | 4.8% | 124.9hPa | 2.6V | 00:00:00 | 00:00:00 | 00:00:00 | |
| DG1MFX-10 | 2026-09-02 04:37:24 | 47.75609 | 11.44373 | 95° | 75km/h | 15148m | 10.0m/s | -53.5°C | 1.9% | 124.9hPa | 2.6V | 02:37:00 | 00:00:00 | 00:00:00 | |
| PG1ADW-2 | 2026-09-02 04:37:23 | 47.75612 | 11.44331 | 86° | 66km/h | 15136m | 5.4m/s | 0°C | 0% | 0hPa | 2.6V | 00:00:00 | 00:00:00 | 00:00:00 | |
| DO3MHA-12 | 2026-09-02 04:37:21 | 47.75612 | 11.44274 | 101° | 66km/h | 15127m | 7.1m/s | -53.4°C | 4.7% | 125.3hPa | 2.6V | 02:36:00 | 00:56:32 | 00:00:00 | |
| DO3MHA-11 | 2026-09-02 04:37:19 | 47.75612 | 11.44177 | 105° | 68km/h | 15103m | 5.1m/s | -53.2°C | 4.6% | 125.7hPa | 2.6V | 02:36:00 | 00:56:28 | 00:00:00 | |
| IN3HCDX | 2026-09-02 04:37:17 | 47.75612 | 11.44177 | 106° | 78km/h | 15103m | 5.1m/s | 0°C | 0% | 0hPa | 2.6V | 00:00:00 | 00:00:00 | 00:00:00 | |
| OE5DRO-10 | 2026-09-02 04:37:14 | 47.75612 | 11.44105 | 91° | 64km/h | 15084m | 5.2m/s | -53.5°C | 4.7% | 126.0hPa | 2.6V | 00:00:00 | 00:00:00 | 00:00:00 | |
| DO3MHA-12 | 2026-09-02 04:37:11 | 47.75617 | 11.44033 | 75° | 66km/h | 15069m | 3.3m/s | -53.7°C | 4.8% | 126.3hPa | 2.6V | 00:00:00 | 00:56:22 | 00:00:00 | |
| OE5DXL-15 | 2026-09-02 04:37:10 | 47.75614 | 11.44008 | 84° | 66km/h | 15064m | 5.8m/s | -53.6°C | 4.7% | 126.4hPa | 2.6V | 00:00:00 | 00:00:00 | 00:00:00 | |
| DO3MHA-11 | 2026-09-02 04:37:07 | 47.75613 | 11.43934 | 77° | 62km/h | 15044m | 5.8m/s | -53.6°C | 4.8% | 126.7hPa | 2.6V | 00:00:00 | 00:56:18 | 00:00:00 | |
| DF3TZ-5 | 2026-09-02 04:37:03 | 47.75614 | 11.43842 | 90° | 71km/h | 15028m | 5.1m/s | -53.6°C | 1.9% | 127.2hPa | 2.6V | 00:00:00 | 00:00:00 | 00:00:00 | |
| DG1MFX-10 | 2026-09-02 04:37:02 | 47.75614 | 11.43842 | 91° | 71km/h | 15028m | 5.1m/s | -53.6°C | 1.9% | 127.2hPa | 2.6V | 02:37:00 | 00:00:00 | 00:00:00 | |
| DL6DJ-15 | 2026-09-02 04:36:58 | 47.75612 | 11.43724 | 72° | 64km/h | 15006m | 1.8m/s | -53.5°C | 1.9% | 127.7hPa | 2.6V | 00:00:00 | 00:00:00 | 00:00:00 | |
| DF7PN | 2026-09-02 04:36:56 | 47.75623 | 11.43555 | 87° | 66km/h | 14968m | 7.2m/s | 0°C | -1.0% | 128.4hPa | 2.6V | 00:00:00 | 00:00:00 | 00:00:00 | |
| DO3MHA-11 | 2026-09-02 04:36:55 | 47.75616 | 11.43654 | 91° | 62km/h | 14986m | 6.4m/s | -53.5°C | 4.8% | 128.0hPa | 2.6V | 00:00:00 | 00:56:06 | 00:00:00 | |
| OE5MMP-10 | 2026-09-02 04:36:51 | 47.75623 | 11.43555 | 88° | 68km/h | 14968m | 7.2m/s | -53.6°C | 4.8% | 128.4hPa | 2.6V | 00:00:00 | 00:56:02 | 00:00:00 | |
| IN3HCDX | 2026-09-02 04:36:42 | 47.75627 | 11.43365 | 81° | 73km/h | 14933m | 8.1m/s | 0°C | 0% | 0hPa | 2.6V | 00:00:00 | 00:00:00 | 00:00:00 | |
| OE5MMP-10 | 2026-09-02 04:36:41 | 47.75632 | 11.43313 | 95° | 60km/h | 14923m | 10.0m/s | -53.7°C | 4.9% | 129.4hPa | 2.6V | 00:00:00 | 00:55:52 | 00:00:00 | |
| OE5DXL-15 | 2026-09-02 04:36:40 | 47.75633 | 11.43290 | 99° | 66km/h | 14916m | 1.7m/s | -53.7°C | 5.0% | 129.5hPa | 2.6V | 00:00:00 | 00:00:00 | 00:00:00 | |
| DO3MHA-12 | 2026-09-02 04:36:39 | 47.75633 | 11.43268 | 83° | 60km/h | 14913m | 6.5m/s | -53.6°C | 4.9% | 129.6hPa | 2.6V | 00:00:00 | 00:55:50 | 00:00:00 | |
| OE5DRO-10 | 2026-09-02 04:36:35 | 47.75640 | 11.43177 | 84° | 68km/h | 14889m | 6.7m/s | -53.6°C | 4.9% | 130.0hPa | 2.6V | 00:00:00 | 00:00:00 | 00:00:00 | |
| NBG1-10 | 2026-09-02 04:36:33 | 47.75642 | 11.43131 | 101° | 69km/h | 14875m | 3.7m/s | -53.6°C | 4.8% | 130.2hPa | 2.6V | 02:37:00 | 00:55:44 | 00:00:00 | |
| DF3TZ-5 | 2026-09-02 04:36:32 | 47.75644 | 11.43108 | 91° | 62km/h | 14869m | 9.9m/s | -53.6°C | 1.9% | 130.4hPa | 2.6V | 00:00:00 | 00:00:00 | 00:00:00 | |
| OE5MMP-10 | 2026-09-02 04:36:31 | 47.75643 | 11.43085 | 78° | 69km/h | 14862m | 3.7m/s | -53.6°C | 4.8% | 130.5hPa | 2.6V | 02:37:00 | 00:55:42 | 00:00:00 | |
| DO3MHA-11 | 2026-09-02 04:36:29 | 47.75646 | 11.43038 | 102° | 69km/h | 14849m | 3.0m/s | -53.6°C | 4.8% | 130.7hPa | 2.6V | 00:00:00 | 00:55:40 | 00:00:00 | |
| DO3MHA-12 | 2026-09-02 04:36:28 | 47.75646 | 11.43013 | 82° | 69km/h | 14843m | 8.2m/s | -53.6°C | 4.8% | 130.8hPa | 2.6V | 02:37:00 | 00:55:39 | 00:00:00 | |
| DL6DJ-15 | 2026-09-02 04:36:27 | 47.75644 | 11.42989 | 81° | 66km/h | 14837m | 2.3m/s | -53.7°C | 1.9% | 131.0hPa | 2.7V | 00:00:00 | 00:00:00 | 00:00:00 | |
| DB0UT-7 | 2026-09-02 04:36:25 | 47.75646 | 11.42939 | 99° | 68km/h | 14825m | 3.4m/s | -53.6°C | 4.9% | 131.1hPa | 2.7V | 00:00:00 | 00:00:00 | 00:00:00 | |
| DG1MFX-10 | 2026-09-02 04:36:21 | 47.75646 | 11.42836 | 99° | 75km/h | 14805m | 1.0m/s | -53.7°C | 2.0% | 131.6hPa | 2.7V | 02:38:00 | 00:00:00 | 00:00:00 | |
| OE5MMP-10 | 2026-09-02 04:36:20 | 47.75647 | 11.42810 | 88° | 68km/h | 14799m | 7.5m/s | -53.6°C | 4.9% | 131.6hPa | 2.7V | 00:00:00 | 00:55:31 | 00:00:00 | |
| DO3MHA-11 | 2026-09-02 04:36:19 | 47.75645 | 11.42786 | 79° | 68km/h | 14795m | -1.1m/s | -53.6°C | 4.9% | 131.7hPa | 2.7V | 00:00:00 | 00:55:30 | 00:00:00 | |
| DO3MHA-12 | 2026-09-02 04:36:18 | 47.75644 | 11.42758 | 94° | 71km/h | 14792m | 6.6m/s | -53.7°C | 4.8% | 131.8hPa | 2.7V | 00:00:00 | 00:55:29 | 00:00:00 | |
| BAUMI2-15 | 2026-09-02 04:36:16 | 47.75650 | 11.42704 | 99° | 60km/h | 14784m | 4.9m/s | 0°C | 0% | 0hPa | 2.7V | 02:37:00 | 00:55:27 | 00:00:00 | |
| OE5DRO-10 | 2026-09-02 04:36:14 | 47.75647 | 11.42653 | 91° | 64km/h | 14776m | 7.4m/s | -53.7°C | 4.8% | 132.2hPa | 2.7V | 00:00:00 | 00:00:00 | 00:00:00 | |
| IN3HCDX | 2026-09-02 04:36:11 | 47.75651 | 11.42601 | 90° | 62km/h | 14767m | 4.6m/s | 0°C | 0% | 0hPa | 2.7V | 00:00:00 | 00:00:00 | 00:00:00 | |
| OE5DXL-15 | 2026-09-02 04:36:10 | 47.75649 | 11.42553 | 96° | 58km/h | 14760m | 5.7m/s | -53.9°C | 4.9% | 132.6hPa | 2.7V | 02:37:00 | 00:00:00 | 00:00:00 | |
| DO3MHA-11 | 2026-09-02 04:36:09 | 47.75649 | 11.42527 | 86° | 68km/h | 14753m | 6.5m/s | -54.0°C | 5.0% | 132.7hPa | 2.7V | 02:38:00 | 00:55:20 | 00:00:00 | |
| DO3MHA-12 | 2026-09-02 04:36:07 | 47.75667 | 11.42470 | 81° | 60km/h | 14744m | 8.6m/s | -54.0°C | 4.9% | 132.9hPa | 2.6V | 00:00:00 | 00:55:18 | 00:00:00 | |
| DF3TZ-5 | 2026-09-02 04:36:01 | 47.75653 | 11.42314 | 74° | 82km/h | 14707m | 4.5m/s | -54.1°C | 2.0% | 133.8hPa | 2.6V | 00:00:00 | 00:00:00 | 00:00:00 | |
| DL6DJ-15 | 2026-09-02 04:35:56 | 47.75650 | 11.42228 | 75° | 60km/h | 14678m | 8.5m/s | -53.8°C | 2.0% | 134.4hPa | 2.6V | 00:00:00 | 00:00:00 | 00:00:00 | |
| DF7PN | 2026-09-02 04:35:54 | 47.75647 | 11.42159 | 89° | 60km/h | 14655m | 5.5m/s | 0°C | -1.0% | 134.7hPa | 2.6V | 00:00:00 | 00:00:00 | 00:00:00 | |
| DO3MHA-11 | 2026-09-02 04:35:49 | 47.75639 | 11.42078 | 85° | 53km/h | 14638m | 2.7m/s | -53.9°C | 5.0% | 135.1hPa | 2.6V | 00:00:00 | 00:55:00 | 00:00:00 | |
| DO3MHA-12 | 2026-09-02 04:35:46 | 47.75630 | 11.42020 | 76° | 49km/h | 14621m | 10.2m/s | -53.8°C | 5.0% | 135.5hPa | 2.6V | 00:00:00 | 00:54:57 | 00:00:00 | |
| DG1MFX-10 | 2026-09-02 04:35:40 | 47.75619 | 11.41923 | 90° | 55km/h | 14589m | 10.7m/s | -53.9°C | 2.0% | 136.2hPa | 2.6V | 02:38:00 | 00:00:00 | 00:00:00 | |
| OE5MMP-10 | 2026-09-02 04:35:39 | 47.75617 | 11.41879 | 89° | 47km/h | 14579m | 8.7m/s | -53.8°C | 4.9% | 136.4hPa | 2.6V | 00:00:00 | 00:54:50 | 00:00:00 | |
| DO3MHA-11 | 2026-09-02 04:35:37 | 47.75617 | 11.41849 | 95° | 53km/h | 14566m | 9.4m/s | -53.8°C | 4.9% | 136.6hPa | 2.6V | 02:38:00 | 00:54:48 | 00:00:00 | |
| DO3MHA-12 | 2026-09-02 04:35:35 | 47.75614 | 11.41808 | 79° | 51km/h | 14555m | 4.0m/s | -53.7°C | 5.0% | 136.8hPa | 2.6V | 00:00:00 | 00:54:46 | 00:00:00 | |
| IN3HCDX | 2026-09-02 04:35:33 | 47.75612 | 11.41791 | 98° | 42km/h | 14551m | 2.5m/s | 0°C | 0% | 0hPa | 2.6V | 00:00:00 | 00:00:00 | 00:00:00 | |
| DF3TZ-5 | 2026-09-02 04:35:30 | 47.75610 | 11.41717 | 106° | 55km/h | 14524m | 4.0m/s | -53.6°C | 2.0% | 137.4hPa | 2.6V | 00:00:00 | 00:00:00 | 00:00:00 | |
| OE5MMP-10 | 2026-09-02 04:35:29 | 47.75612 | 11.41694 | 85° | 55km/h | 14519m | 5.1m/s | -53.4°C | 4.9% | 137.5hPa | 2.6V | 02:38:00 | 00:54:40 | 00:00:00 | |
| DG1MJG | 2026-09-02 04:35:28 | 47.75611 | 11.41694 | 85° | 69km/h | 14519m | 5.1m/s | -53.5°C | 2.0% | 137.6hPa | 2.6V | 02:38:00 | 00:00:00 | 00:00:00 | |
| DO3MHA-11 | 2026-09-02 04:35:26 | 47.75611 | 11.41647 | 92° | 55km/h | 14505m | 7.3m/s | -53.3°C | 5.0% | 137.9hPa | 2.6V | 00:00:00 | 00:54:37 | 00:00:00 | |
| DO3MHA-12 | 2026-09-02 04:35:25 | 47.75611 | 11.41626 | 95° | 55km/h | 14499m | 4.0m/s | -53.2°C | 4.9% | 138.1hPa | 2.6V | 02:38:00 | 00:54:36 | 00:00:00 | |
| DF7PN | 2026-09-02 04:35:23 | 47.75611 | 11.41567 | 87° | 47km/h | 14483m | 6.2m/s | 0°C | -1.0% | 138.5hPa | 2.6V | 00:00:00 | 00:00:00 | 00:00:00 | |
| PG1ADW-2 | 2026-09-02 04:35:22 | 47.75611 | 11.41567 | 88° | 55km/h | 14483m | 6.1m/s | 0°C | 0% | 0hPa | 2.6V | 00:00:00 | 00:00:00 | 00:00:00 | |
| DG1MFX-10 | 2026-09-02 04:35:20 | 47.75612 | 11.41549 | 108° | 46km/h | 14478m | 2.4m/s | -53.2°C | 2.0% | 138.6hPa | 2.6V | 02:38:00 | 00:00:00 | 00:00:00 | |
| OE5MMP-10 | 2026-09-02 04:35:19 | 47.75619 | 11.41514 | 107° | 53km/h | 14468m | 9.1m/s | -53.1°C | 4.8% | 138.8hPa | 2.6V | 00:00:00 | 00:54:30 | 00:00:00 | |
| DO3MHA-11 | 2026-09-02 04:35:16 | 47.75624 | 11.41453 | 95° | 53km/h | 14449m | 3.0m/s | -53.1°C | 4.8% | 139.2hPa | 2.6V | 00:00:00 | 00:54:27 | 00:00:00 | |
| DO3MHA-12 | 2026-09-02 04:35:15 | 47.75622 | 11.41436 | 72° | 57km/h | 14442m | 8.3m/s | -53.2°C | 4.8% | 139.2hPa | 2.6V | 00:00:00 | 00:54:26 | 00:00:00 | |
| OE5DXL-15 | 2026-09-02 04:35:09 | 47.75636 | 11.41309 | 103° | 66km/h | 14412m | 7.4m/s | -53.0°C | 4.8% | 140.0hPa | 2.6V | 00:00:00 | 00:00:00 | 00:00:00 | |
| IN3HCDX | 2026-09-02 04:35:08 | 47.75636 | 11.41309 | 103° | 44km/h | 14412m | 7.4m/s | 0°C | 0% | 0hPa | 2.6V | 02:39:00 | 00:00:00 | 00:00:00 | |
| DO3MHA-11 | 2026-09-02 04:35:06 | 47.75644 | 11.41245 | 115° | 60km/h | 14393m | 5.4m/s | -52.8°C | 4.6% | 140.4hPa | 2.6V | 02:39:00 | 00:54:17 | 00:00:00 | |
| DO3MHA-12 | 2026-09-02 04:35:05 | 47.75649 | 11.41221 | 106° | 62km/h | 14386m | 9.4m/s | -52.7°C | 4.5% | 140.5hPa | 2.7V | 00:00:00 | 00:54:16 | 00:00:00 | |
| DF3TZ-5 | 2026-09-02 04:34:59 | 47.75673 | 11.41067 | 97° | 53km/h | 14343m | 2.9m/s | -53.1°C | 2.0% | 141.5hPa | 2.7V | 00:00:00 | 00:00:00 | 00:00:00 | |
| DL6DJ-15 | 2026-09-02 04:34:54 | 47.75694 | 11.40953 | 98° | 62km/h | 14320m | 3.6m/s | -52.6°C | 1.9% | 142.0hPa | 2.7V | 00:00:00 | 00:00:00 | 00:00:00 | |
| DF7PN | 2026-09-02 04:34:52 | 47.75700 | 11.40905 | 108° | 69km/h | 14309m | 2.5m/s | 0°C | -1.0% | 142.3hPa | 2.7V | 00:00:00 | 00:00:00 | 00:00:00 | |
| DO3MHA-11 | 2026-09-02 04:34:46 | 47.75720 | 11.40783 | 110° | 71km/h | 14284m | 5.1m/s | -52.9°C | 4.8% | 142.8hPa | 2.7V | 00:00:00 | 00:53:57 | 00:00:00 | |
| DO3MHA-12 | 2026-09-02 04:34:45 | 47.75727 | 11.40759 | 112° | 66km/h | 14278m | 5.9m/s | -52.9°C | 4.8% | 142.9hPa | 2.7V | 00:00:00 | 00:53:56 | 00:00:00 | |
| OE5DXL-15 | 2026-09-02 04:34:39 | 47.75745 | 11.40607 | 116° | 68km/h | 14246m | 9.0m/s | -52.8°C | 4.8% | 143.5hPa | 2.7V | 02:39:00 | 00:00:00 | 00:00:00 | |
| DO3MHA-11 | 2026-09-02 04:34:36 | 47.75753 | 11.40529 | 92° | 60km/h | 14227m | 4.8m/s | -52.7°C | 4.7% | 144.0hPa | 2.6V | 02:39:00 | 00:53:47 | 00:00:00 | |
| OE5MMP-10 | 2026-09-02 04:34:35 | 47.75755 | 11.40510 | 103° | 58km/h | 14221m | 6.9m/s | -52.7°C | 4.7% | 144.0hPa | 2.6V | 00:00:00 | 00:53:46 | 00:00:00 | |
| DF3TZ-5 | 2026-09-02 04:34:28 | 47.75774 | 11.40316 | 99° | 53km/h | 14180m | 3.0m/s | 0°C | -1.0% | 145.1hPa | 2.6V | 00:00:00 | 00:00:00 | 00:00:00 | |
| DO3MHA-11 | 2026-09-02 04:34:26 | 47.75775 | 11.40291 | 93° | 69km/h | 14175m | 6.9m/s | -52.5°C | 4.7% | 145.1hPa | 2.6V | 00:00:00 | 00:53:37 | 00:00:00 | |
| DO3MHA-12 | 2026-09-02 04:34:25 | 47.75775 | 11.40263 | 85° | 69km/h | 14169m | 3.7m/s | -52.6°C | 4.7% | 145.3hPa | 2.6V | 02:39:00 | 00:53:36 | 00:00:00 | |
| OE5MMP-10 | 2026-09-02 04:34:24 | 47.75775 | 11.40241 | 98° | 69km/h | 14163m | 8.1m/s | -52.6°C | 4.7% | 145.4hPa | 2.7V | 02:39:00 | 00:53:35 | 00:00:00 | |
| DL6DJ-15 | 2026-09-02 04:34:23 | 47.75778 | 11.40219 | 104° | 62km/h | 14157m | 3.7m/s | -52.6°C | 2.0% | 145.6hPa | 2.6V | 00:00:00 | 00:00:00 | 00:00:00 | |
| OE5WHR-10 | 2026-09-02 04:34:22 | 47.75782 | 11.40195 | 109° | 71km/h | 14150m | 6.7m/s | 0°C | 0% | 0hPa | 2.6V | 02:39:00 | 00:00:00 | 00:00:00 | |
| DF1GD-15 | 2026-09-02 04:34:21 | 47.75784 | 11.40167 | 88° | 80km/h | 14145m | 0.4m/s | -52.6°C | 0% | 0hPa | 2.6V | 00:00:00 | 00:00:00 | 00:00:00 | |
| NBG1-10 | 2026-09-02 04:34:18 | 47.75793 | 11.40093 | 96° | 75km/h | 14130m | 2.2m/s | -52.6°C | 4.8% | 146.2hPa | 2.6V | 00:00:00 | 00:53:29 | 00:00:00 | |
| DO3MHA-11 | 2026-09-02 04:34:16 | 47.75799 | 11.40035 | 102° | 73km/h | 14121m | 10.1m/s | -52.6°C | 4.7% | 146.3hPa | 2.6V | 00:00:00 | 00:53:27 | 00:00:00 | |
| DO3MHA-12 | 2026-09-02 04:34:15 | 47.75802 | 11.40010 | 96° | 69km/h | 14115m | 2.9m/s | -52.5°C | 4.8% | 146.5hPa | 2.6V | 00:00:00 | 00:53:26 | 00:00:00 | |
| OE5MMP-10 | 2026-09-02 04:34:14 | 47.75802 | 11.39986 | 89° | 71km/h | 14110m | 4.9m/s | -52.5°C | 4.8% | 146.6hPa | 2.6V | 00:00:00 | 00:53:25 | 00:00:00 | |
| OE5DXL-15 | 2026-09-02 04:34:09 | 47.75810 | 11.39851 | 95° | 73km/h | 14080m | 7.2m/s | -52.6°C | 4.7% | 147.3hPa | 2.6V | 00:00:00 | 00:00:00 | 00:00:00 | |
| IN3HCDX | 2026-09-02 04:34:06 | 47.75814 | 11.39799 | 90° | 62km/h | 14070m | 7.1m/s | 0°C | 0% | 0hPa | 2.6V | 00:00:00 | 00:00:00 | 00:00:00 | |
| DO3MHA-12 | 2026-09-02 04:34:05 | 47.75817 | 11.39740 | 110° | 71km/h | 14059m | 6.2m/s | -52.5°C | 4.6% | 147.7hPa | 2.6V | 00:00:00 | 00:53:16 | 00:00:00 | |
| OE5MMP-10 | 2026-09-02 04:34:03 | 47.75823 | 11.39689 | 86° | 73km/h | 14048m | 6.1m/s | -52.5°C | 4.6% | 148.0hPa | 2.6V | 00:00:00 | 00:53:14 | 00:00:00 | |
| DF3TZ-5 | 2026-09-02 04:33:57 | 47.75833 | 11.39528 | 100° | 68km/h | 14018m | 6.8m/s | 0°C | -1.0% | -1.0hPa | 2.6V | 00:00:00 | 00:00:00 | 00:00:00 | |
| DL6DJ-15 | 2026-09-02 04:33:52 | 47.75843 | 11.39397 | 88° | 62km/h | 13991m | 3.1m/s | -52.9°C | 2.1% | 149.5hPa | 2.6V | 00:00:00 | 00:00:00 | 00:00:00 | |
| DF7PN | 2026-09-02 04:33:50 | 47.75847 | 11.39315 | 101° | 71km/h | 13977m | 4.5m/s | 0°C | -1.0% | -1.0hPa | 2.6V | 00:00:00 | 00:00:00 | 00:00:00 | |
| DF1GD-15 | 2026-09-02 04:33:48 | 47.75847 | 11.39314 | 102° | 73km/h | 13977m | 4.5m/s | -52.9°C | 0% | 0hPa | 2.6V | 00:00:00 | 00:00:00 | 00:00:00 | |
| DO3MHA-11 | 2026-09-02 04:33:45 | 47.75853 | 11.39203 | 104° | 78km/h | 13954m | 1.5m/s | -52.8°C | 4.9% | 150.3hPa | 2.6V | 00:00:00 | 00:52:56 | 00:00:00 | |
| OE5MMP-10 | 2026-09-02 04:33:42 | 47.75853 | 11.39114 | 93° | 75km/h | 13937m | 8.0m/s | -52.7°C | 4.8% | 150.7hPa | 2.6V | 00:00:00 | 00:52:53 | 00:00:00 | |
| OE5DXL-15 | 2026-09-02 04:33:39 | 47.75854 | 11.39030 | 95° | 84km/h | 13920m | 3.2m/s | -52.6°C | 4.8% | 151.1hPa | 2.6V | 00:00:00 | 00:00:00 | 00:00:00 | |
| OE5WHR-10 | 2026-09-02 04:33:38 | 47.75857 | 11.38999 | 101° | 80km/h | 13915m | 7.4m/s | 0°C | 0% | 0hPa | 2.6V | 00:00:00 | 00:52:49 | 00:00:00 | |
| OE5DRO-10 | 2026-09-02 04:33:37 | 47.75860 | 11.38973 | 91° | 82km/h | 13911m | 1.8m/s | -52.6°C | 4.8% | 151.3hPa | 2.6V | 00:00:00 | 00:00:00 | 00:00:00 | |
| DO3MHA-11 | 2026-09-02 04:33:35 | 47.75862 | 11.38911 | 102° | 82km/h | 13899m | 4.0m/s | -52.7°C | 4.8% | 151.6hPa | 2.6V | 02:40:00 | 00:52:46 | 00:00:00 | |
| OE5MMP-10 | 2026-09-02 04:33:32 | 47.75860 | 11.38822 | 94° | 84km/h | 13882m | 9.0m/s | -52.7°C | 4.7% | 152.0hPa | 2.7V | 00:00:00 | 00:52:43 | 00:00:00 | |
| IN3HCDX | 2026-09-02 04:33:28 | 47.75866 | 11.38732 | 87° | 88km/h | 13863m | 3.6m/s | 0°C | 0% | 0hPa | 2.7V | 00:00:00 | 00:00:00 | 00:00:00 | |
| DF3TZ-5 | 2026-09-02 04:33:26 | 47.75867 | 11.38636 | 93° | 66km/h | 13850m | 3.9m/s | 0°C | -1.0% | -1.0hPa | 2.7V | 00:00:00 | 00:00:00 | 00:00:00 | |
| DO3MHA-12 | 2026-09-02 04:33:25 | 47.75867 | 11.38608 | 83° | 84km/h | 13843m | 9.0m/s | -53.0°C | 4.9% | 153.0hPa | 2.7V | 02:40:00 | 00:52:36 | 00:00:00 | |
| DG1MJG | 2026-09-02 04:33:24 | 47.75867 | 11.38608 | 83° | 84km/h | 13843m | 9.0m/s | -53.0°C | 2.1% | 153.0hPa | 2.7V | 00:00:00 | 00:00:00 | 00:00:00 | |
| OE5MMP-10 | 2026-09-02 04:33:21 | 47.75863 | 11.38485 | 94° | 84km/h | 13819m | 7.5m/s | -52.9°C | 4.9% | 153.5hPa | 2.7V | 02:40:00 | 00:52:32 | 00:00:00 | |
| OE5DRO-10 | 2026-09-02 04:33:18 | 47.75859 | 11.38387 | 89° | 82km/h | 13802m | 4.9m/s | -52.8°C | 4.9% | 153.9hPa | 2.6V | 00:00:00 | 00:00:00 | 00:00:00 | |
| OE5WHR-10 | 2026-09-02 04:33:17 | 47.75859 | 11.38360 | 89° | 82km/h | 13796m | 6.3m/s | 0°C | 0% | 0hPa | 2.6V | 00:00:00 | 00:00:00 | 00:00:00 | |
| DG1MFX-10 | 2026-09-02 04:33:16 | 47.75859 | 11.38360 | 90° | 77km/h | 13796m | 6.3m/s | -52.9°C | 2.2% | 154.1hPa | 2.6V | 02:41:00 | 00:00:00 | 00:00:00 | |
| DO3MHA-12 | 2026-09-02 04:33:15 | 47.75855 | 11.38292 | 84° | 82km/h | 13784m | 5.6m/s | -52.8°C | 4.9% | 154.3hPa | 2.6V | 00:00:00 | 00:52:26 | 00:00:00 | |
| NBG1-10 | 2026-09-02 04:33:12 | 47.75848 | 11.38204 | 86° | 80km/h | 13763m | 8.3m/s | -52.7°C | 4.8% | 154.8hPa | 2.6V | 02:40:00 | 00:52:23 | 00:00:00 | |
| OE5MMP-10 | 2026-09-02 04:33:11 | 47.75848 | 11.38170 | 92° | 84km/h | 13756m | 3.3m/s | -52.7°C | 4.9% | 154.9hPa | 2.7V | 00:00:00 | 00:52:22 | 00:00:00 | |
| OE5DXL-15 | 2026-09-02 04:33:09 | 47.75848 | 11.38106 | 83° | 78km/h | 13744m | 2.7m/s | -52.7°C | 4.9% | 155.2hPa | 2.7V | 02:41:00 | 00:00:00 | 00:00:00 | |
| DO3MHA-11 | 2026-09-02 04:33:05 | 47.75842 | 11.37988 | 78° | 82km/h | 13721m | 8.0m/s | -52.6°C | 4.9% | 155.7hPa | 2.7V | 02:41:00 | 00:52:16 | 00:00:00 | |
| DL6DJ-15 | 2026-09-02 04:32:50 | 47.75817 | 11.37530 | 84° | 78km/h | 13635m | 5.7m/s | -52.6°C | 2.2% | 157.8hPa | 2.7V | 00:00:00 | 00:00:00 | 00:00:00 | |
| DF7PN | 2026-09-02 04:32:47 | 47.75819 | 11.37473 | 91° | 68km/h | 13624m | 9.5m/s | 0°C | -1.0% | -1.0hPa | 2.7V | 00:00:00 | 00:00:00 | 00:00:00 | |
| DO3MHA-12 | 2026-09-02 04:32:45 | 47.75812 | 11.37418 | 86° | 73km/h | 13611m | 4.7m/s | -52.4°C | 4.9% | 158.2hPa | 2.7V | 00:00:00 | 00:51:56 | 00:00:00 | |
| OE5MMP-10 | 2026-09-02 04:32:41 | 47.75802 | 11.37306 | 79° | 73km/h | 13592m | 5.9m/s | 0°C | 0% | 0hPa | 2.7V | 00:00:00 | 00:51:52 | 00:00:00 | |
| NBG1-10 | 2026-09-02 04:32:39 | 47.75803 | 11.37254 | 85° | 71km/h | 13580m | 6.2m/s | -52.1°C | 4.8% | 159.0hPa | 2.7V | 00:00:00 | 00:51:50 | 00:00:00 | |
| DG1MFX-10 | 2026-09-02 04:32:36 | 47.75797 | 11.37201 | 81° | 77km/h | 13568m | 4.7m/s | -52.0°C | 2.2% | 159.4hPa | 2.7V | 00:00:00 | 00:00:00 | 00:00:00 | |
| DO3MHA-12 | 2026-09-02 04:32:35 | 47.75793 | 11.37146 | 97° | 71km/h | 13557m | 2.3m/s | -51.9°C | 4.8% | 159.6hPa | 2.7V | 00:00:00 | 00:51:46 | 00:00:00 | |
| OE5MMP-10 | 2026-09-02 04:32:30 | 47.75788 | 11.37014 | 93° | 68km/h | 13527m | 4.3m/s | 0°C | 0% | 0hPa | 2.7V | 00:00:00 | 00:51:41 | 00:00:00 | |
| OE5WHR-10 | 2026-09-02 04:32:26 | 47.75783 | 11.36907 | 82° | 71km/h | 13515m | 1.7m/s | 0°C | 0% | 0hPa | 2.7V | 00:00:00 | 00:51:37 | 00:00:00 | |
| DO3MHA-11 | 2026-09-02 04:32:25 | 47.75780 | 11.36882 | 82° | 71km/h | 13509m | 9.4m/s | -51.6°C | 4.7% | 160.9hPa | 2.7V | 00:00:00 | 00:51:36 | 00:00:00 | |
| OE5DRO-10 | 2026-09-02 04:32:20 | 47.75782 | 11.36746 | 108° | 71km/h | 13480m | 3.4m/s | -51.4°C | 4.7% | 161.7hPa | 2.7V | 00:00:00 | 00:00:00 | 00:00:00 | |
| DL6DJ-15 | 2026-09-02 04:32:19 | 47.75785 | 11.36695 | 79° | 75km/h | 13469m | 3.5m/s | -51.4°C | 2.1% | 162.0hPa | 2.7V | 00:00:00 | 00:00:00 | 00:00:00 | |
| DG1MFX-10 | 2026-09-02 04:32:17 | 47.75785 | 11.36639 | 105° | 58km/h | 13460m | 2.5m/s | -51.4°C | 2.2% | 162.3hPa | 2.7V | 00:00:00 | 00:00:00 | 00:00:00 | |
| DO3MHA-12 | 2026-09-02 04:32:16 | 47.75786 | 11.36617 | 91° | 73km/h | 13456m | 5.6m/s | -51.3°C | 4.7% | 162.3hPa | 2.7V | 00:00:00 | 00:51:26 | 00:00:00 | |
| DO3MHA-11 | 2026-09-02 04:32:15 | 47.75786 | 11.36617 | 91° | 73km/h | 13456m | 5.6m/s | -51.3°C | 4.7% | 162.3hPa | 2.7V | 00:00:00 | 00:51:26 | 00:00:00 | |
| OE5DXL-15 | 2026-09-02 04:32:08 | 47.75798 | 11.36429 | 97° | 78km/h | 13421m | 7.1m/s | -51.2°C | 4.8% | 163.2hPa | 2.7V | 00:00:00 | 00:00:00 | 00:00:00 | |
| DG1MJG | 2026-09-02 04:32:07 | 47.75798 | 11.36429 | 98° | 64km/h | 13421m | 7.2m/s | -51.3°C | 2.2% | 163.3hPa | 2.7V | 00:00:00 | 00:00:00 | 00:00:00 | |
| DO3MHA-11 | 2026-09-02 04:32:04 | 47.75806 | 11.36319 | 87° | 78km/h | 13401m | 6.4m/s | -51.2°C | 4.8% | 163.7hPa | 2.7V | 02:42:00 | 00:51:15 | 00:00:00 | |
| DL6DJ-15 | 2026-09-02 04:31:48 | 47.75820 | 11.35835 | 87° | 60km/h | 13312m | 1.8m/s | -51.0°C | 2.2% | 165.9hPa | 2.7V | 00:00:00 | 00:00:00 | 00:00:00 | |
| DO3MHA-12 | 2026-09-02 04:31:44 | 47.75823 | 11.35744 | 98° | 80km/h | 13298m | 6.8m/s | -50.9°C | 4.8% | 166.3hPa | 2.7V | 00:00:00 | 00:50:55 | 00:00:00 | |
| OE5DRO-10 | 2026-09-02 04:31:43 | 47.75822 | 11.35684 | 98° | 82km/h | 13289m | 8.4m/s | -51.0°C | 4.8% | 166.5hPa | 2.7V | 00:00:00 | 00:00:00 | 00:00:00 | |
| OE5MMP-10 | 2026-09-02 04:31:38 | 47.75827 | 11.35560 | 99° | 84km/h | 13271m | 8.9m/s | 0°C | 0% | 0hPa | 2.7V | 00:00:00 | 00:50:49 | 00:00:00 | |
| DG1MJG | 2026-09-02 04:31:36 | 47.75829 | 11.35531 | 93° | 60km/h | 13266m | 4.5m/s | -51.1°C | 2.3% | 167.2hPa | 2.7V | 00:00:00 | 00:00:00 | 00:00:00 | |
| DG1MFX-10 | 2026-09-02 04:31:35 | 47.75829 | 11.35506 | 92° | 71km/h | 13259m | 8.5m/s | -51.2°C | 2.3% | 167.3hPa | 2.7V | 02:43:00 | 00:00:00 | 00:00:00 | |
| DO3MHA-11 | 2026-09-02 04:31:34 | 47.75830 | 11.35438 | 99° | 84km/h | 13245m | 8.9m/s | -51.2°C | 5.0% | 167.5hPa | 2.7V | 02:42:00 | 00:50:45 | 00:00:00 | |
| NBG1-10 | 2026-09-02 04:31:32 | 47.75832 | 11.35383 | 92° | 82km/h | 13233m | 7.4m/s | -51.2°C | 5.1% | 167.8hPa | 2.7V | 02:42:00 | 00:50:43 | 00:00:00 | |
| OE5MMP-10 | 2026-09-02 04:31:27 | 47.75843 | 11.35230 | 98° | 82km/h | 13204m | 8.4m/s | 0°C | 0% | 0hPa | 2.6V | 00:00:00 | 00:50:38 | 00:00:00 | |
| DF1GD-15 | 2026-09-02 04:31:24 | 47.75852 | 11.35172 | 94° | 78km/h | 13194m | 7.3m/s | -51.0°C | 0% | 0hPa | 2.6V | 00:00:00 | 00:00:00 | 00:00:00 | |
| DO3MHA-12 | 2026-09-02 04:31:23 | 47.75858 | 11.35108 | 108° | 78km/h | 13185m | 5.7m/s | -51.0°C | 4.9% | 169.0hPa | 2.6V | 02:42:00 | 00:50:34 | 00:00:00 | |
| OE5MMP-10 | 2026-09-02 04:31:17 | 47.75871 | 11.34935 | 91° | 82km/h | 13154m | 4.8m/s | 0°C | 0% | 0hPa | 2.7V | 02:42:00 | 00:50:28 | 00:00:00 | |
| DL6DJ-15 | 2026-09-02 04:31:16 | 47.75875 | 11.34907 | 109° | 69km/h | 13151m | -0.1m/s | -51.0°C | 2.4% | 170.0hPa | 2.7V | 00:00:00 | 00:00:00 | 00:00:00 | |
| DF7PN | 2026-09-02 04:31:14 | 47.75883 | 11.34818 | 106° | 84km/h | 13137m | 8.1m/s | 0°C | -1.0% | -1.0hPa | 2.7V | 00:00:00 | 00:00:00 | 00:00:00 | |
| DO3MHA-11 | 2026-09-02 04:31:13 | 47.75882 | 11.34818 | 107° | 84km/h | 13137m | 8.1m/s | -51.1°C | 5.1% | 170.4hPa | 2.7V | 00:00:00 | 00:50:24 | 00:00:00 | |
| OE5MMP-10 | 2026-09-02 04:31:09 | 47.75905 | 11.34640 | 98° | 86km/h | 13106m | 6.6m/s | 0°C | 0% | 0hPa | 2.7V | 00:00:00 | 00:50:18 | 00:00:00 | |
| DG1MJG | 2026-09-02 04:31:06 | 47.75905 | 11.34640 | 99° | 93km/h | 13106m | 6.7m/s | -51.3°C | 2.5% | 171.2hPa | 2.7V | 00:00:00 | 00:00:00 | 00:00:00 | |
| DO3MHA-12 | 2026-09-02 04:31:03 | 47.75919 | 11.34511 | 101° | 88km/h | 13085m | 6.4m/s | -51.3°C | 5.1% | 171.6hPa | 2.7V | 00:00:00 | 00:50:14 | 00:00:00 | |
| DF1GD-15 | 2026-09-02 04:31:02 | 47.75919 | 11.34511 | 101° | 97km/h | 13085m | 6.4m/s | -51.3°C | 0% | 0hPa | 2.7V | 00:00:00 | 00:00:00 | 00:00:00 | |
| DL6DJ-15 | 2026-09-02 04:30:45 | 47.75961 | 11.33941 | 90° | 84km/h | 13008m | 4.0m/s | -51.9°C | 2.8% | 174.0hPa | 2.7V | 00:00:00 | 00:00:00 | 00:00:00 | |
| DO3MHA-12 | 2026-09-02 04:30:43 | 47.75966 | 11.33870 | 98° | 89km/h | 13002m | 5.5m/s | -51.9°C | 5.5% | 174.2hPa | 2.7V | 00:00:00 | 00:49:54 | 00:00:00 | |
| OE5DXL-15 | 2026-09-02 04:30:38 | 47.75977 | 11.33707 | 91° | 89km/h | 12975m | 4.2m/s | -52.4°C | 5.8% | 174.8hPa | 2.7V | 00:00:00 | 00:00:00 | 00:00:00 | |
| DF1GD-15 | 2026-09-02 04:30:37 | 47.75977 | 11.33707 | 92° | 99km/h | 12975m | 4.3m/s | -52.5°C | 0% | 0hPa | 2.7V | 00:00:00 | 00:00:00 | 00:00:00 | |
| OE5MMP-10 | 2026-09-02 04:30:36 | 47.75981 | 11.33642 | 104° | 88km/h | 12966m | 2.9m/s | 0°C | 0% | 0hPa | 2.7V | 00:00:00 | 00:49:47 | 00:00:00 | |
| DG1MJG | 2026-09-02 04:30:35 | 47.75981 | 11.33642 | 105° | 82km/h | 12966m | 3.0m/s | -52.4°C | 3.0% | 175.2hPa | 2.7V | 02:44:00 | 00:00:00 | 00:00:00 | |
| DO3MHA-11 | 2026-09-02 04:30:33 | 47.75985 | 11.33542 | 98° | 89km/h | 12950m | 7.7m/s | -52.3°C | 5.8% | 175.5hPa | 2.7V | 02:43:00 | 00:49:44 | 00:00:00 | |
| NBG1-10 | 2026-09-02 04:30:25 | 47.75995 | 11.33273 | 90° | 88km/h | 12910m | 8.8m/s | -52.8°C | 6.0% | 176.6hPa | 2.7V | 00:00:00 | 00:49:36 | 00:00:00 | |
| DO3MHA-11 | 2026-09-02 04:30:23 | 47.76000 | 11.33209 | 91° | 91km/h | 12898m | 4.4m/s | -52.7°C | 6.2% | 176.8hPa | 2.7V | 00:00:00 | 00:49:34 | 00:00:00 | |
| DB0UT-7 | 2026-09-02 04:30:22 | 47.75999 | 11.33175 | 88° | 88km/h | 12894m | 5.1m/s | -52.7°C | 6.2% | 176.9hPa | 2.7V | 00:00:00 | 00:00:00 | 00:00:00 | |
| DF1GD-15 | 2026-09-02 04:30:17 | 47.75999 | 11.33001 | 104° | 86km/h | 12874m | 1.9m/s | -52.6°C | 0% | 0hPa | 2.7V | 00:00:00 | 00:00:00 | 00:00:00 | |
| DL6DJ-15 | 2026-09-02 04:30:15 | 47.76000 | 11.32900 | 95° | 88km/h | 12856m | 2.6m/s | -52.6°C | 3.3% | 177.9hPa | 2.7V | 00:00:00 | 00:00:00 | 00:00:00 | |
| DO3MHA-12 | 2026-09-02 04:30:14 | 47.76000 | 11.32870 | 85° | 80km/h | 12853m | 0.5m/s | -52.6°C | 6.3% | 178.1hPa | 2.7V | 00:00:00 | 00:49:24 | 00:00:00 | |
| DO3MHA-11 | 2026-09-02 04:30:13 | 47.76000 | 11.32870 | 85° | 80km/h | 12853m | 0.5m/s | -52.6°C | 6.3% | 178.1hPa | 2.7V | 00:00:00 | 00:49:24 | 00:00:00 | |
| OE5DXL-15 | 2026-09-02 04:30:08 | 47.75997 | 11.32716 | 90° | 86km/h | 12828m | 7.8m/s | -52.5°C | 6.2% | 178.8hPa | 2.7V | 02:44:00 | 00:00:00 | 00:00:00 | |
| DG1MJG | 2026-09-02 04:30:05 | 47.75999 | 11.32654 | 92° | 91km/h | 12815m | 5.0m/s | -52.5°C | 3.3% | 179.1hPa | 2.7V | 02:44:00 | 00:00:00 | 00:00:00 | |
| OE5DRO-10 | 2026-09-02 04:30:04 | 47.75996 | 11.32595 | 85° | 86km/h | 12802m | 5.3m/s | -52.5°C | 6.1% | 179.3hPa | 2.7V | 02:44:00 | 00:00:00 | 00:00:00 | |
| DO3MHA-11 | 2026-09-02 04:30:03 | 47.75997 | 11.32563 | 103° | 86km/h | 12796m | 4.8m/s | -52.5°C | 6.2% | 179.5hPa | 2.7V | 02:44:00 | 00:49:14 | 00:00:00 | |
| OE5MMP-10 | 2026-09-02 04:30:00 | 47.75999 | 11.32473 | 95° | 88km/h | 12782m | 4.0m/s | 0°C | 0% | 0hPa | 2.7V | 00:00:00 | 00:49:11 | 00:00:00 | |
| DF1GD-15 | 2026-09-02 04:29:55 | 47.76003 | 11.32343 | 101° | 82km/h | 12769m | 4.9m/s | 0°C | 0% | 0hPa | 2.7V | 02:44:00 | 00:00:00 | 00:00:00 | |
| DO3MHA-11 | 2026-09-02 04:29:53 | 47.76002 | 11.32247 | 93° | 88km/h | 12757m | 9.1m/s | -52.3°C | 6.4% | 180.8hPa | 2.7V | 00:00:00 | 00:49:04 | 00:00:00 | |
| NBG1-10 | 2026-09-02 04:29:52 | 47.76004 | 11.32217 | 100° | 86km/h | 12752m | 2.9m/s | -52.3°C | 6.4% | 181.0hPa | 2.7V | 02:44:00 | 00:49:03 | 00:00:00 | |
| OE5MMP-10 | 2026-09-02 04:29:49 | 47.76006 | 11.32119 | 94° | 86km/h | 12737m | 7.9m/s | 0°C | 0% | 0hPa | 2.7V | 00:00:00 | 00:49:00 | 00:00:00 | |
| OE5DRO-10 | 2026-09-02 04:29:45 | 47.76009 | 11.31985 | 93° | 84km/h | 12717m | 8.7m/s | -52.5°C | 6.4% | 182.0hPa | 2.7V | 00:00:00 | 00:00:00 | 00:00:00 | |
| DO3MHA-11 | 2026-09-02 04:29:43 | 47.76014 | 11.31921 | 91° | 88km/h | 12706m | 8.2m/s | -52.5°C | 6.5% | 182.2hPa | 2.7V | 00:00:00 | 00:48:54 | 00:00:00 | |
| DF7PN | 2026-09-02 04:29:41 | 47.76016 | 11.31789 | 90° | 75km/h | 12684m | 8.2m/s | 0°C | -1.0% | -1.0hPa | 2.7V | 00:00:00 | 00:00:00 | 00:00:00 | |
| OE5MMP-10 | 2026-09-02 04:29:39 | 47.76016 | 11.31789 | 91° | 82km/h | 12684m | 8.1m/s | 0°C | 0% | 0hPa | 2.7V | 02:44:00 | 00:48:50 | 00:00:00 | |
| OE5DXL-15 | 2026-09-02 04:29:38 | 47.76017 | 11.31756 | 93° | 89km/h | 12678m | 3.6m/s | -52.4°C | 6.5% | 183.0hPa | 2.7V | 00:00:00 | 00:00:00 | 00:00:00 | |
| DF1GD-15 | 2026-09-02 04:29:34 | 47.76021 | 11.31655 | 99° | 73km/h | 12665m | 3.9m/s | 0°C | 0% | 0hPa | 2.7V | 02:44:00 | 00:00:00 | 00:00:00 | |
| DO3MHA-12 | 2026-09-02 04:29:33 | 47.76027 | 11.31592 | 88° | 84km/h | 12652m | 4.9m/s | -52.7°C | 6.6% | 183.7hPa | 2.7V | 00:00:00 | 00:48:44 | 00:00:00 | |
| DG1MFX-10 | 2026-09-02 04:29:31 | 47.76026 | 11.31559 | 92° | 88km/h | 12646m | 7.9m/s | -52.8°C | 3.8% | 183.9hPa | 2.7V | 02:44:00 | 00:00:00 | 00:00:00 | |
| OE5DRO-10 | 2026-09-02 04:29:25 | 47.76033 | 11.31342 | 87° | 89km/h | 12614m | 7.9m/s | -53.1°C | 6.9% | 184.9hPa | 2.7V | 00:00:00 | 00:00:00 | 00:00:00 | |
| DO3MHA-12 | 2026-09-02 04:29:23 | 47.76032 | 11.31273 | 95° | 91km/h | 12603m | 6.7m/s | -53.1°C | 6.9% | 185.2hPa | 2.7V | 02:44:00 | 00:48:34 | 00:00:00 | |
| DB0UT-7 | 2026-09-02 04:29:22 | 47.76033 | 11.31243 | 93° | 86km/h | 12599m | 4.3m/s | -53.1°C | 6.9% | 185.3hPa | 2.7V | 02:44:00 | 00:00:00 | 00:00:00 | |
| OE5MMP-10 | 2026-09-02 04:29:20 | 47.76035 | 11.31170 | 90° | 93km/h | 12590m | 6.2m/s | 0°C | 0% | 0hPa | 2.6V | 00:00:00 | 00:48:31 | 00:00:00 | |
| NBG1-10 | 2026-09-02 04:29:19 | 47.76036 | 11.31136 | 95° | 86km/h | 12585m | 4.5m/s | -53.1°C | 7.2% | 185.8hPa | 2.6V | 00:00:00 | 00:48:30 | 00:00:00 | |
| DO3MHA-11 | 2026-09-02 04:29:13 | 47.76047 | 11.30927 | 104° | 88km/h | 12557m | 8.3m/s | -53.3°C | 7.3% | 186.5hPa | 2.6V | 00:00:00 | 00:48:24 | 00:00:00 | |
| DL6DJ-15 | 2026-09-02 04:29:12 | 47.76048 | 11.30890 | 81° | 99km/h | 12551m | 6.1m/s | -53.4°C | 4.2% | 186.8hPa | 2.6V | 00:00:00 | 00:00:00 | 00:00:00 | |
| DG1MFX-10 | 2026-09-02 04:29:11 | 47.76048 | 11.30890 | 82° | 100km/h | 12551m | 6.1m/s | -53.4°C | 4.2% | 186.8hPa | 2.6V | 02:45:00 | 00:00:00 | 00:00:00 | |
| OE5MMP-10 | 2026-09-02 04:29:10 | 47.76046 | 11.30827 | 99° | 86km/h | 12541m | 4.7m/s | 0°C | 0% | 0hPa | 2.6V | 00:00:00 | 00:48:21 | 00:00:00 | |
| OE5DXL-15 | 2026-09-02 04:29:08 | 47.76043 | 11.30758 | 82° | 78km/h | 12529m | 5.7m/s | -53.6°C | 7.5% | 187.3hPa | 2.6V | 00:00:00 | 00:00:00 | 00:00:00 | |
| OE5DRO-10 | 2026-09-02 04:29:06 | 47.76046 | 11.30696 | 96° | 80km/h | 12516m | 8.5m/s | -53.7°C | 7.5% | 187.6hPa | 2.6V | 02:45:00 | 00:00:00 | 00:00:00 | |
| DO3MHA-11 | 2026-09-02 04:29:03 | 47.76045 | 11.30608 | 102° | 80km/h | 12497m | 2.6m/s | -53.8°C | 7.7% | 188.2hPa | 2.7V | 02:45:00 | 00:48:14 | 00:00:00 | |
| DB0ND-19 | 2026-09-02 04:28:58 | 47.76051 | 11.30135 | 97° | 71km/h | 12405m | 6.9m/s | 0°C | -1.0% | 190.8hPa | 2.7V | 00:00:00 | 00:00:00 | 00:00:00 | |
| OE5MMP-10 | 2026-09-02 04:28:57 | 47.76045 | 11.30428 | 96° | 78km/h | 12462m | 3.0m/s | 0°C | 0% | 0hPa | 2.7V | 02:45:00 | 00:48:08 | 00:00:00 | |
| DO3MHA-12 | 2026-09-02 04:28:53 | 47.76045 | 11.30314 | 95° | 78km/h | 12442m | 8.1m/s | -53.5°C | 7.6% | 189.8hPa | 2.7V | 02:45:00 | 00:48:04 | 00:00:00 | |
| DB0UT-7 | 2026-09-02 04:28:51 | 47.76049 | 11.30253 | 86° | 75km/h | 12431m | 6.4m/s | -53.4°C | 7.6% | 190.0hPa | 2.7V | 00:00:00 | 00:48:02 | 00:00:00 | |
| NBG1-10 | 2026-09-02 04:28:46 | 47.76050 | 11.30105 | 80° | 77km/h | 12397m | 3.8m/s | -53.3°C | 7.5% | 190.9hPa | 2.7V | 00:00:00 | 00:47:57 | 00:00:00 | |
| DO3MHA-12 | 2026-09-02 04:28:43 | 47.76051 | 11.30018 | 97° | 73km/h | 12380m | 2.5m/s | -53.2°C | 7.3% | 191.2hPa | 2.7V | 00:00:00 | 00:47:54 | 00:00:00 | |
| DL6DJ-15 | 2026-09-02 04:28:41 | 47.76050 | 11.29967 | 83° | 75km/h | 12371m | 1.7m/s | -53.2°C | 4.2% | 191.8hPa | 2.7V | 00:00:00 | 00:00:00 | 00:00:00 | |
| OE5DXL-15 | 2026-09-02 04:28:38 | 47.76054 | 11.29882 | 95° | 73km/h | 12353m | 9.6m/s | -53.0°C | 7.2% | 192.1hPa | 2.7V | 02:45:00 | 00:00:00 | 00:00:00 | |
| DO3MHA-11 | 2026-09-02 04:28:33 | 47.76061 | 11.29741 | 97° | 71km/h | 12327m | 8.7m/s | -53.1°C | 7.4% | 193.1hPa | 2.7V | 02:45:00 | 00:47:44 | 00:00:00 | |
| DG1MJG | 2026-09-02 04:28:32 | 47.76061 | 11.29741 | 98° | 69km/h | 12327m | 8.7m/s | -53.1°C | 4.4% | 193.1hPa | 2.7V | 02:45:00 | 00:00:00 | 00:00:00 | |
| DG1MFX-10 | 2026-09-02 04:28:30 | 47.76060 | 11.29691 | 96° | 68km/h | 12315m | 7.3m/s | -53.5°C | 4.5% | 193.3hPa | 2.7V | 02:45:00 | 00:00:00 | 00:00:00 | |
| OE5MMP-10 | 2026-09-02 04:28:27 | 47.76068 | 11.29580 | 100° | 71km/h | 12293m | 6.8m/s | 0°C | 0% | 0hPa | 2.7V | 00:00:00 | 00:47:38 | 00:00:00 | |
| DF1GD-15 | 2026-09-02 04:28:24 | 47.76068 | 11.29524 | 84° | 73km/h | 12283m | 2.8m/s | 0°C | 0% | 0hPa | 2.7V | 02:45:00 | 00:00:00 | 00:00:00 | |
| DO3MHA-11 | 2026-09-02 04:28:23 | 47.76071 | 11.29472 | 104° | 71km/h | 12274m | 3.1m/s | -53.8°C | 7.9% | 194.6hPa | 2.7V | 00:00:00 | 00:47:34 | 00:00:00 | |
| DB0UT-7 | 2026-09-02 04:28:18 | 47.76078 | 11.29335 | 85° | 71km/h | 12249m | 2.5m/s | -53.7°C | 8.0% | 195.4hPa | 2.7V | 00:00:00 | 00:00:00 | 00:00:00 | |
| DO3MHA-12 | 2026-09-02 04:28:13 | 47.76090 | 11.29206 | 106° | 68km/h | 12226m | 6.9m/s | -53.7°C | 8.0% | 196.1hPa | 2.7V | 00:00:00 | 00:47:24 | 00:00:00 | |
| DG1MFX-10 | 2026-09-02 04:28:11 | 47.76091 | 11.29150 | 93° | 62km/h | 12216m | 6.1m/s | -53.7°C | 5.0% | 196.5hPa | 2.7V | 02:46:00 | 00:00:00 | 00:00:00 | |
| DL6DJ-15 | 2026-09-02 04:28:10 | 47.76096 | 11.29126 | 115° | 78km/h | 12212m | 2.5m/s | -53.7°C | 5.0% | 196.7hPa | 2.7V | 00:00:00 | 00:00:00 | 00:00:00 | |
| OE5DXL-15 | 2026-09-02 04:28:08 | 47.76102 | 11.29070 | 92° | 71km/h | 12201m | 4.8m/s | -53.6°C | 8.4% | 197.0hPa | 2.7V | 00:00:00 | 00:00:00 | 00:00:00 | |
| OE5DRO-10 | 2026-09-02 04:28:07 | 47.76106 | 11.29047 | 112° | 71km/h | 12194m | 7.2m/s | -53.6°C | 8.5% | 197.1hPa | 2.7V | 02:46:00 | 00:00:00 | 00:00:00 | |
| DG1MJG | 2026-09-02 04:28:00 | 47.76122 | 11.28899 | 92° | 69km/h | 12166m | 4.3m/s | -54.0°C | 5.8% | 198.2hPa | 2.7V | 02:46:00 | 00:00:00 | 00:00:00 | |
| DO3MHA-12 | 2026-09-02 04:27:52 | 47.76161 | 11.28663 | 104° | 77km/h | 12123m | 9.1m/s | -54.5°C | 10.6% | 199.6hPa | 2.7V | 02:46:00 | 00:47:03 | 00:00:00 | |
| DG1MFX-10 | 2026-09-02 04:27:49 | 47.76166 | 11.28602 | 100° | 66km/h | 12112m | 9.1m/s | -54.6°C | 7.0% | 200.0hPa | 2.7V | 02:46:00 | 00:00:00 | 00:00:00 | |
| DB0UT-7 | 2026-09-02 04:27:48 | 47.76177 | 11.28549 | 102° | 78km/h | 12102m | 9.3m/s | -54.7°C | 10.9% | 200.2hPa | 2.7V | 02:46:00 | 00:46:59 | 00:00:00 | |
| DO3MHA-12 | 2026-09-02 04:27:42 | 47.76200 | 11.28387 | 108° | 75km/h | 12070m | 7.2m/s | -54.7°C | 11.7% | 201.2hPa | 2.7V | 00:00:00 | 00:46:53 | 00:00:00 | |
| DF1GD-15 | 2026-09-02 04:27:41 | 47.76200 | 11.28387 | 108° | 75km/h | 12070m | 7.3m/s | 0°C | 0% | 0hPa | 2.7V | 00:00:00 | 00:00:00 | 00:00:00 | |
| OE5MMP-10 | 2026-09-02 04:27:40 | 47.76206 | 11.28326 | 93° | 78km/h | 12060m | 8.4m/s | 0°C | 0% | 0hPa | 2.7V | 00:00:00 | 00:46:51 | 00:00:00 | |
| DL6DJ-15 | 2026-09-02 04:27:39 | 47.76208 | 11.28301 | 101° | 60km/h | 12053m | 3.9m/s | -54.6°C | 8.1% | 201.7hPa | 2.7V | 00:00:00 | 00:00:00 | 00:00:00 | |
| OE5DXL-15 | 2026-09-02 04:27:38 | 47.76212 | 11.28275 | 106° | 80km/h | 12048m | 8.4m/s | -54.5°C | 12.1% | 201.8hPa | 2.7V | 00:00:00 | 00:00:00 | 00:00:00 | |
| NBG1-10 | 2026-09-02 04:27:37 | 47.76216 | 11.28245 | 91° | 82km/h | 12042m | 4.9m/s | -54.5°C | 12.3% | 201.9hPa | 2.7V | 00:00:00 | 00:46:48 | 00:00:00 | |
| DO3MHA-11 | 2026-09-02 04:27:32 | 47.76229 | 11.28099 | 88° | 80km/h | 12016m | 4.8m/s | -54.9°C | 13.3% | 202.8hPa | 2.7V | 02:46:00 | 00:46:43 | 00:00:00 | |
| DG1MJG | 2026-09-02 04:27:30 | 47.76229 | 11.28070 | 95° | 75km/h | 12008m | 8.7m/s | -55.2°C | 9.7% | 203.0hPa | 2.7V | 02:47:00 | 00:00:00 | 00:00:00 | |
| OE5DRO-10 | 2026-09-02 04:27:29 | 47.76236 | 11.28010 | 94° | 82km/h | 11998m | 7.0m/s | -55.2°C | 14.6% | 203.2hPa | 2.7V | 00:00:00 | 00:00:00 | 00:00:00 | |
| DG1MFX-10 | 2026-09-02 04:27:28 | 47.76237 | 11.28010 | 95° | 77km/h | 11998m | 7.1m/s | -55.2°C | 10.2% | 203.3hPa | 2.7V | 02:47:00 | 00:00:00 | 00:00:00 | |
| DB0ND-19 | 2026-09-02 04:27:25 | 47.76250 | 11.27892 | 103° | 82km/h | 11975m | 6.7m/s | 0°C | -1.0% | 204.0hPa | 2.7V | 00:00:00 | 00:00:00 | 00:00:00 | |
| DO3MHA-11 | 2026-09-02 04:27:22 | 47.76254 | 11.27801 | 106° | 80km/h | 11961m | 4.9m/s | -55.0°C | 16.1% | 204.5hPa | 2.7V | 00:00:00 | 00:46:33 | 00:00:00 | |
| DB0UT-7 | 2026-09-02 04:27:18 | 47.76261 | 11.27682 | 99° | 86km/h | 11941m | 1.5m/s | -55.0°C | 17.1% | 205.0hPa | 2.7V | 00:00:00 | 00:00:00 | 00:00:00 | |
| DO3MHA-12 | 2026-09-02 04:27:12 | 47.76277 | 11.27501 | 94° | 84km/h | 11913m | 7.9m/s | -54.9°C | 18.9% | 206.1hPa | 2.7V | 00:00:00 | 00:46:23 | 00:00:00 | |
| OE5DRO-10 | 2026-09-02 04:27:10 | 47.76286 | 11.27439 | 98° | 86km/h | 11903m | 7.4m/s | -55.1°C | 19.9% | 206.4hPa | 2.7V | 02:46:00 | 00:00:00 | 00:00:00 | |
| DF1GD-15 | 2026-09-02 04:27:09 | 47.76286 | 11.27439 | 99° | 77km/h | 11903m | 7.4m/s | 0°C | 0% | 0hPa | 2.7V | 00:00:00 | 00:00:00 | 00:00:00 | |
| OE5DXL-15 | 2026-09-02 04:27:08 | 47.76289 | 11.27373 | 100° | 88km/h | 11893m | 9.4m/s | -55.3°C | 20.5% | 206.6hPa | 2.7V | 02:47:00 | 00:00:00 | 00:00:00 | |
| NBG1-10 | 2026-09-02 04:27:04 | 47.76305 | 11.27247 | 109° | 91km/h | 11875m | 6.4m/s | -55.2°C | 22.4% | 207.3hPa | 2.7V | 00:00:00 | 00:46:15 | 00:00:00 | |
| DO3MHA-11 | 2026-09-02 04:27:02 | 47.76310 | 11.27189 | 91° | 88km/h | 11866m | 6.0m/s | -55.2°C | 23.4% | 207.6hPa | 2.7V | 02:47:00 | 00:46:13 | 00:00:00 | |
| DO3MHA-12 | 2026-09-02 04:27:01 | 47.76313 | 11.27156 | 107° | 91km/h | 11862m | 3.8m/s | -55.1°C | 24.0% | 207.8hPa | 2.7V | 00:00:00 | 00:46:12 | 00:00:00 | |
| DG1MFX-10 | 2026-09-02 04:27:00 | 47.76313 | 11.27156 | 107° | 95km/h | 11862m | 3.9m/s | -55.2°C | 18.4% | 207.9hPa | 2.7V | 02:47:00 | 00:00:00 | 00:00:00 | |
| DO3MHA-11 | 2026-09-02 04:26:52 | 47.76349 | 11.26872 | 90° | 78km/h | 11819m | 2.5m/s | -56.0°C | 30.7% | 209.2hPa | 2.7V | 00:00:00 | 00:46:03 | 00:00:00 | |
| OE5DRO-10 | 2026-09-02 04:26:51 | 47.76350 | 11.26839 | 97° | 89km/h | 11813m | 8.4m/s | -56.2°C | 31.8% | 209.4hPa | 2.7V | 00:00:00 | 00:00:00 | 00:00:00 | |
| DB0UT-7 | 2026-09-02 04:26:48 | 47.76362 | 11.26744 | 92° | 91km/h | 11799m | 3.2m/s | -56.5°C | 34.3% | 209.9hPa | 2.7V | 00:00:00 | 00:45:59 | 00:00:00 | |
| DO3MHA-11 | 2026-09-02 04:26:40 | 47.76396 | 11.26482 | 106° | 99km/h | 11757m | 2.4m/s | -57.4°C | 41.1% | 211.2hPa | 2.7V | 00:00:00 | 00:45:51 | 00:00:00 | |
| DG1MFX-10 | 2026-09-02 04:26:39 | 47.76396 | 11.26482 | 106° | 106km/h | 11757m | 2.4m/s | -57.4°C | 33.0% | 211.2hPa | 2.7V | 02:48:00 | 00:00:00 | 00:00:00 | |
| OE5DXL-15 | 2026-09-02 04:26:37 | 47.76408 | 11.26382 | 105° | 88km/h | 11745m | 6.9m/s | -57.6°C | 43.4% | 211.7hPa | 2.7V | 00:00:00 | 00:00:00 | 00:00:00 | |
| OE5DRO-10 | 2026-09-02 04:26:32 | 47.76425 | 11.26208 | 105° | 88km/h | 11722m | 3.1m/s | -58.1°C | 47.8% | 212.5hPa | 2.7V | 00:00:00 | 00:00:00 | 00:00:00 | |
| NBG1-10 | 2026-09-02 04:26:31 | 47.76429 | 11.26176 | 96° | 86km/h | 11718m | 6.0m/s | -58.3°C | 48.7% | 212.6hPa | 2.7V | 02:47:00 | 00:45:42 | 00:00:00 | |
| DG1MJG | 2026-09-02 04:26:30 | 47.76429 | 11.26176 | 97° | 75km/h | 11718m | 6.0m/s | -58.3°C | 39.5% | 212.6hPa | 2.7V | 02:48:00 | 00:00:00 | 00:00:00 | |
| DO3MHA-11 | 2026-09-02 04:26:26 | 47.76439 | 11.26006 | 86° | 86km/h | 11692m | 2.9m/s | -58.7°C | 52.9% | 213.4hPa | 2.7V | 02:47:00 | 00:45:37 | 00:00:00 | |
| DB0UT-7 | 2026-09-02 04:26:18 | 47.76459 | 11.25744 | 91° | 88km/h | 11649m | 2.7m/s | -59.2°C | 57.8% | 214.8hPa | 2.7V | 02:47:00 | 00:00:00 | 00:00:00 | |
| DO3MHA-12 | 2026-09-02 04:26:16 | 47.76464 | 11.25676 | 99° | 86km/h | 11639m | 4.8m/s | -59.3°C | 58.1% | 215.1hPa | 2.7V | 00:00:00 | 00:45:27 | 00:00:00 | |
| OE5DRO-10 | 2026-09-02 04:26:13 | 47.76471 | 11.25581 | 98° | 86km/h | 11624m | 6.7m/s | -59.4°C | 58.8% | 215.6hPa | 2.7V | 02:47:00 | 00:00:00 | 00:00:00 | |
| DL6DJ-15 | 2026-09-02 04:26:07 | 47.76496 | 11.25367 | 96° | 91km/h | 11595m | 1.2m/s | -59.3°C | 49.6% | 216.8hPa | 2.7V | 00:00:00 | 00:00:00 | 00:00:00 | |
| DO3MHA-11 | 2026-09-02 04:26:06 | 47.76495 | 11.25367 | 97° | 88km/h | 11595m | 1.2m/s | -59.3°C | 60.6% | 216.7hPa | 2.7V | 00:00:00 | 00:45:17 | 00:00:00 | |
| DF7PN | 2026-09-02 04:26:04 | 47.76528 | 11.25148 | 105° | 86km/h | 11556m | 5.6m/s | 0°C | -1.0% | -1.0hPa | 2.7V | 00:00:00 | 00:00:00 | 00:00:00 | |
| DG1MJG | 2026-09-02 04:26:00 | 47.76515 | 11.25209 | 105° | 89km/h | 11566m | 6.4m/s | -59.4°C | 52.0% | 217.6hPa | 2.7V | 02:48:00 | 00:00:00 | 00:00:00 | |
| NBG1-10 | 2026-09-02 04:25:58 | 47.76532 | 11.25114 | 94° | 97km/h | 11551m | 3.3m/s | -59.4°C | 64.9% | 218.1hPa | 2.7V | 00:00:00 | 00:45:09 | 00:00:00 | |
| DG1MFX-10 | 2026-09-02 04:25:57 | 47.76532 | 11.25114 | 95° | 93km/h | 11551m | 3.4m/s | -59.5°C | 53.4% | 218.2hPa | 2.7V | 02:48:00 | 00:00:00 | 00:00:00 | |
| DO3MHA-11 | 2026-09-02 04:25:56 | 47.76535 | 11.25048 | 98° | 91km/h | 11544m | 9.3m/s | -59.4°C | 64.6% | 218.4hPa | 2.7V | 02:48:00 | 00:45:07 | 00:00:00 | |
| OE5DRO-10 | 2026-09-02 04:25:54 | 47.76546 | 11.24985 | 102° | 91km/h | 11533m | 6.8m/s | -59.4°C | 64.3% | 218.8hPa | 2.7V | 00:00:00 | 00:00:00 | 00:00:00 | |
| DB0UT-7 | 2026-09-02 04:25:48 | 47.76569 | 11.24790 | 106° | 95km/h | 11505m | 6.4m/s | -59.2°C | 65.7% | 219.9hPa | 2.7V | 00:00:00 | 00:44:59 | 00:00:00 | |
| DO3MHA-11 | 2026-09-02 04:25:46 | 47.76578 | 11.24716 | 91° | 93km/h | 11496m | 9.0m/s | -59.1°C | 65.0% | 220.3hPa | 2.7V | 00:00:00 | 00:44:57 | 00:00:00 | |
| OE5DXL-15 | 2026-09-02 04:25:37 | 47.76604 | 11.24404 | 89° | 97km/h | 11450m | 8.9m/s | -58.8°C | 62.0% | 221.9hPa | 2.7V | 02:48:00 | 00:00:00 | 00:00:00 | |
| DG1MFX-10 | 2026-09-02 04:25:36 | 47.76604 | 11.24404 | 90° | 88km/h | 11450m | 9.0m/s | -58.8°C | 51.0% | 222.0hPa | 2.7V | 02:49:00 | 00:00:00 | 00:00:00 | |
| OE5DRO-10 | 2026-09-02 04:25:35 | 47.76614 | 11.24337 | 100° | 95km/h | 11438m | 8.2m/s | -58.7°C | 60.9% | 222.3hPa | 2.7V | 00:00:00 | 00:00:00 | 00:00:00 | |
| DG1MJG | 2026-09-02 04:25:30 | 47.76625 | 11.24194 | 94° | 106km/h | 11420m | 7.4m/s | -58.6°C | 50.0% | 223.1hPa | 2.7V | 02:49:00 | 00:00:00 | 00:00:00 | |
| DO3MHA-11 | 2026-09-02 04:25:26 | 47.76642 | 11.24020 | 101° | 99km/h | 11396m | 3.0m/s | -58.3°C | 61.6% | 223.9hPa | 2.7V | 02:48:00 | 00:44:37 | 00:00:00 | |
| NBG1-10 | 2026-09-02 04:25:25 | 47.76645 | 11.23990 | 97° | 99km/h | 11392m | 7.7m/s | -58.2°C | 61.1% | 224.0hPa | 2.7V | 00:00:00 | 00:44:36 | 00:00:00 | |
| DB0UT-7 | 2026-09-02 04:25:18 | 47.76612 | 11.23775 | 95° | 97km/h | 11405m | 26.4m/s | -57.8°C | 58.0% | 225.5hPa | 2.7V | 00:00:00 | 00:00:00 | 00:00:00 | |
| DO3MHA-12 | 2026-09-02 04:25:16 | 47.76653 | 11.23680 | 138° | 102km/h | 11362m | 24.6m/s | -57.8°C | 57.2% | 225.9hPa | 2.7V | 00:00:00 | 00:44:27 | 00:00:00 | |
| DG1MFX-10 | 2026-09-02 04:25:11 | 47.76684 | 11.23527 | 91° | 80km/h | 11314m | 5.0m/s | -57.7°C | 48.5% | 226.7hPa | 2.7V | 02:49:00 | 00:00:00 | 00:00:00 | |
| OE5DXL-15 | 2026-09-02 04:25:07 | 47.76699 | 11.23357 | 99° | 91km/h | 11282m | 9.1m/s | -57.4°C | 59.4% | 227.6hPa | 2.7V | 00:00:00 | 00:00:00 | 00:00:00 | |
| DO3MHA-11 | 2026-09-02 04:25:06 | 47.76703 | 11.23320 | 103° | 93km/h | 11276m | 2.9m/s | -57.3°C | 59.8% | 227.9hPa | 2.7V | 00:00:00 | 00:44:17 | 00:00:00 | |
| DL6DJ-15 | 2026-09-02 04:25:04 | 47.76711 | 11.23217 | 94° | 89km/h | 11258m | 6.8m/s | -57.3°C | 49.4% | 228.4hPa | 2.7V | 00:00:00 | 00:00:00 | 00:00:00 | |
| DG1MJG | 2026-09-02 04:24:59 | 47.76724 | 11.23113 | 95° | 80km/h | 11242m | 2.9m/s | -57.2°C | 50.5% | 229.1hPa | 2.7V | 02:49:00 | 00:00:00 | 00:00:00 | |
| OE5DRO-10 | 2026-09-02 04:24:57 | 47.76732 | 11.23009 | 97° | 95km/h | 11227m | 5.1m/s | -57.0°C | 61.8% | 229.5hPa | 2.7V | 00:00:00 | 00:00:00 | 00:00:00 | |
| DO3MHA-12 | 2026-09-02 04:24:56 | 47.76736 | 11.22974 | 99° | 93km/h | 11222m | 4.6m/s | -57.0°C | 62.8% | 229.8hPa | 2.7V | 02:49:00 | 00:44:07 | 00:00:00 | |
| DG1MFX-10 | 2026-09-02 04:24:50 | 47.76751 | 11.22805 | 103° | 100km/h | 11193m | 2.7m/s | -56.9°C | 52.1% | 230.7hPa | 2.7V | 00:00:00 | 00:00:00 | 00:00:00 | |
| NBG1-10 | 2026-09-02 04:24:48 | 47.76757 | 11.22701 | 99° | 91km/h | 11176m | 6.4m/s | -56.7°C | 62.2% | 231.2hPa | 2.7V | 02:49:00 | 00:43:59 | 00:00:00 | |
| DO3MHA-12 | 2026-09-02 04:24:46 | 47.76762 | 11.22630 | 94° | 89km/h | 11165m | 5.2m/s | -56.7°C | 61.7% | 231.6hPa | 2.7V | 00:00:00 | 00:43:57 | 00:00:00 | |
| OE5DXL-15 | 2026-09-02 04:24:37 | 47.76782 | 11.22327 | 105° | 86km/h | 11124m | 0.1m/s | -56.3°C | 62.2% | 233.4hPa | 2.7V | 00:00:00 | 00:00:00 | 00:00:00 | |
| DO3MHA-11 | 2026-09-02 04:24:36 | 47.76787 | 11.22293 | 101° | 88km/h | 11122m | 4.9m/s | -56.3°C | 61.4% | 233.5hPa | 2.7V | 00:00:00 | 00:43:47 | 00:00:00 | |
| DL6DJ-15 | 2026-09-02 04:24:33 | 47.76795 | 11.22158 | 87° | 91km/h | 11104m | 7.8m/s | -56.1°C | 51.2% | 234.3hPa | 2.7V | 00:00:00 | 00:00:00 | 00:00:00 | |
| DG1MFX-10 | 2026-09-02 04:24:28 | 47.76801 | 11.22062 | 92° | 102km/h | 11090m | 3.8m/s | -56.0°C | 51.5% | 235.0hPa | 2.7V | 00:00:00 | 00:00:00 | 00:00:00 | |
| DO3MHA-11 | 2026-09-02 04:24:26 | 47.76808 | 11.21966 | 99° | 88km/h | 11073m | 9.6m/s | -55.9°C | 61.8% | 235.5hPa | 2.7V | 02:49:00 | 00:43:37 | 00:00:00 | |
| DB0ND-19 | 2026-09-02 04:24:19 | 47.76826 | 11.21705 | 96° | 77km/h | 11032m | 5.3m/s | 0°C | -1.0% | -1.0hPa | 2.7V | 00:00:00 | 00:00:00 | 00:00:00 | |
| DO3MHA-12 | 2026-09-02 04:24:16 | 47.76835 | 11.21642 | 95° | 89km/h | 11022m | 7.1m/s | -55.5°C | 65.8% | 237.4hPa | 2.7V | 00:00:00 | 00:43:27 | 00:00:00 | |
| NBG1-10 | 2026-09-02 04:24:15 | 47.76836 | 11.21610 | 90° | 86km/h | 11017m | 4.6m/s | -55.4°C | 66.1% | 237.6hPa | 2.7V | 00:00:00 | 00:43:26 | 00:00:00 | |
| OE5DXL-15 | 2026-09-02 04:24:07 | 47.76854 | 11.21358 | 106° | 82km/h | 10973m | 7.0m/s | -55.2°C | 64.7% | 239.1hPa | 2.7V | 02:50:00 | 00:00:00 | 00:00:00 | |
| DO3MHA-12 | 2026-09-02 04:24:06 | 47.76856 | 11.21326 | 86° | 84km/h | 10968m | 3.9m/s | -55.1°C | 65.5% | 239.4hPa | 2.7V | 00:00:00 | 00:43:17 | 00:00:00 | |
| DL6DJ-15 | 2026-09-02 04:24:02 | 47.76870 | 11.21177 | 106° | 91km/h | 10939m | 7.4m/s | -55.0°C | 54.8% | 240.3hPa | 2.7V | 00:00:00 | 00:00:00 | 00:00:00 | |
| DO3MHA-11 | 2026-09-02 04:23:56 | 47.76886 | 11.21021 | 89° | 82km/h | 10912m | 4.2m/s | -54.9°C | 66.1% | 241.3hPa | 2.7V | 02:50:00 | 00:43:07 | 00:00:00 | |
| DG1MJG | 2026-09-02 04:23:55 | 47.76886 | 11.21021 | 90° | 80km/h | 10912m | 4.2m/s | -54.9°C | 55.8% | 241.3hPa | 2.7V | 00:00:00 | 00:00:00 | 00:00:00 | |
| DB0UT-7 | 2026-09-02 04:23:48 | 47.76911 | 11.20779 | 99° | 80km/h | 10866m | 7.1m/s | -54.5°C | 63.6% | 242.7hPa | 2.7V | 00:00:00 | 00:42:59 | 00:00:00 | |
| DO3MHA-11 | 2026-09-02 04:23:46 | 47.76919 | 11.20714 | 94° | 80km/h | 10857m | 4.6m/s | -54.5°C | 64.3% | 243.2hPa | 2.7V | 00:00:00 | 00:42:57 | 00:00:00 | |
| DG1MFX-10 | 2026-09-02 04:23:44 | 47.76922 | 11.20686 | 102° | 64km/h | 10855m | 2.7m/s | -54.5°C | 54.3% | 243.4hPa | 2.7V | 02:50:00 | 00:00:00 | 00:00:00 | |
| NBG1-10 | 2026-09-02 04:23:42 | 47.76930 | 11.20595 | 91° | 80km/h | 10841m | 5.1m/s | -54.3°C | 64.6% | 244.0hPa | 2.7V | 00:00:00 | 00:42:53 | 00:00:00 | |
| OE5DXL-15 | 2026-09-02 04:23:37 | 47.76942 | 11.20449 | 103° | 78km/h | 10819m | 4.5m/s | -54.1°C | 64.8% | 245.1hPa | 2.7V | 00:00:00 | 00:00:00 | 00:00:00 | |
| DO3MHA-12 | 2026-09-02 04:23:36 | 47.76946 | 11.20417 | 97° | 82km/h | 10814m | 6.4m/s | -54.1°C | 64.3% | 245.2hPa | 2.7V | 00:00:00 | 00:42:47 | 00:00:00 | |
| DL6DJ-15 | 2026-09-02 04:23:31 | 47.76959 | 11.20241 | 90° | 80km/h | 10785m | 6.7m/s | -53.9°C | 59.6% | 246.5hPa | 2.7V | 00:00:00 | 00:00:00 | 00:00:00 | |
| DO3MHA-12 | 2026-09-02 04:23:26 | 47.76972 | 11.20127 | 104° | 80km/h | 10767m | 7.9m/s | -53.6°C | 70.0% | 247.1hPa | 2.7V | 02:50:00 | 00:42:37 | 00:00:00 | |
| IN3HCDX | 2026-09-02 04:23:25 | 47.76972 | 11.20127 | 105° | 75km/h | 10767m | 7.9m/s | 0°C | 0% | 0hPa | 2.7V | 00:00:00 | 00:00:00 | 00:00:00 | |
| DG1MFX-10 | 2026-09-02 04:23:24 | 47.76977 | 11.20098 | 105° | 88km/h | 10761m | 4.2m/s | -53.6°C | 61.4% | 247.4hPa | 2.7V | 02:50:00 | 00:00:00 | 00:00:00 | |
| DB0UT-7 | 2026-09-02 04:23:18 | 47.76998 | 11.19886 | 93° | 80km/h | 10727m | 6.6m/s | -53.3°C | 74.1% | 248.8hPa | 2.7V | 02:50:00 | 00:00:00 | 00:00:00 | |
| DO3MHA-11 | 2026-09-02 04:23:16 | 47.77006 | 11.19828 | 107° | 78km/h | 10720m | 4.9m/s | -53.3°C | 75.5% | 249.1hPa | 2.7V | 00:00:00 | 00:42:27 | 00:00:00 | |
| NBG1-10 | 2026-09-02 04:23:09 | 47.77025 | 11.19625 | 95° | 80km/h | 10677m | 6.3m/s | -53.0°C | 79.4% | 250.6hPa | 2.7V | 02:51:00 | 00:42:20 | 00:00:00 | |
| OE5DXL-15 | 2026-09-02 04:23:07 | 47.77036 | 11.19568 | 114° | 80km/h | 10666m | 4.0m/s | -52.9°C | 80.5% | 251.0hPa | 2.7V | 00:00:00 | 00:00:00 | 00:00:00 | |
| DO3MHA-11 | 2026-09-02 04:23:06 | 47.77042 | 11.19540 | 105° | 82km/h | 10660m | 8.8m/s | -52.9°C | 80.8% | 251.2hPa | 2.7V | 00:00:00 | 00:42:17 | 00:00:00 | |
| DG1MFX-10 | 2026-09-02 04:23:04 | 47.77045 | 11.19511 | 93° | 78km/h | 10654m | 3.2m/s | -52.9°C | 69.9% | 251.4hPa | 2.7V | 00:00:00 | 00:00:00 | 00:00:00 | |
| DO3MHA-12 | 2026-09-02 04:22:56 | 47.77080 | 11.19244 | 105° | 78km/h | 10606m | 5.5m/s | -52.5°C | 84.2% | 253.1hPa | 2.7V | 02:51:00 | 00:42:07 | 00:00:00 | |
| DG1MJG | 2026-09-02 04:22:53 | 47.77087 | 11.19182 | 93° | 84km/h | 10594m | 3.9m/s | -52.5°C | 75.6% | 253.6hPa | 2.7V | 02:51:00 | 00:00:00 | 00:00:00 | |
| DB0UT-7 | 2026-09-02 04:22:48 | 47.77113 | 11.19010 | 109° | 80km/h | 10565m | 4.1m/s | -52.2°C | 90.1% | 254.6hPa | 2.7V | 00:00:00 | 00:41:59 | 00:00:00 | |
| DO3MHA-12 | 2026-09-02 04:22:46 | 47.77118 | 11.18954 | 98° | 80km/h | 10552m | 5.0m/s | -52.1°C | 91.7% | 255.1hPa | 2.7V | 00:00:00 | 00:41:57 | 00:00:00 | |
| DG1MFX-10 | 2026-09-02 04:22:43 | 47.77127 | 11.18891 | 106° | 89km/h | 10542m | 5.6m/s | -52.1°C | 79.9% | 255.6hPa | 2.7V | 00:00:00 | 00:00:00 | 00:00:00 | |
| DM7RM-13 | 2026-09-02 04:22:41 | 47.77135 | 11.18832 | 102° | 71km/h | 10532m | 6.6m/s | 0°C | 0% | 0hPa | 2.7V | 00:00:00 | 00:00:00 | 00:00:00 | |
| OE5DXL-15 | 2026-09-02 04:22:37 | 47.77157 | 11.18687 | 96° | 80km/h | 10507m | 2.9m/s | -51.7°C | 87.1% | 256.8hPa | 2.7V | 02:51:00 | 00:00:00 | 00:00:00 | |
| DO3MHA-11 | 2026-09-02 04:22:36 | 47.77160 | 11.18657 | 100° | 82km/h | 10500m | 10.5m/s | -51.6°C | 87.6% | 257.0hPa | 2.7V | 00:00:00 | 00:41:47 | 00:00:00 | |
| NBG1-10 | 2026-09-02 04:22:35 | 47.77164 | 11.18624 | 103° | 80km/h | 10492m | 4.7m/s | -51.6°C | 89.5% | 257.4hPa | 2.7V | 00:00:00 | 00:41:46 | 00:00:00 | |
| DL6DJ-15 | 2026-09-02 04:22:28 | 47.77184 | 11.18419 | 101° | 91km/h | 10458m | 3.1m/s | -51.3°C | 76.4% | 258.9hPa | 2.7V | 00:00:00 | 00:00:00 | 00:00:00 | |
| DO3MHA-11 | 2026-09-02 04:22:26 | 47.77193 | 11.18356 | 103° | 84km/h | 10448m | 10.0m/s | -51.1°C | 85.6% | 259.2hPa | 2.7V | 02:51:00 | 00:41:37 | 00:00:00 | |
| DG1MFX-10 | 2026-09-02 04:22:24 | 47.77199 | 11.18290 | 100° | 88km/h | 10436m | 5.9m/s | -51.1°C | 73.6% | 259.7hPa | 2.7V | 00:00:00 | 00:00:00 | 00:00:00 | |
| DG1MJG | 2026-09-02 04:22:23 | 47.77199 | 11.18290 | 100° | 88km/h | 10436m | 5.9m/s | -51.1°C | 73.5% | 259.7hPa | 2.7V | 02:52:00 | 00:00:00 | 00:00:00 | |
| DB0UT-7 | 2026-09-02 04:22:18 | 47.77218 | 11.18112 | 101° | 80km/h | 10406m | 6.7m/s | -50.7°C | 80.8% | 260.9hPa | 2.7V | 00:00:00 | 00:00:00 | 00:00:00 | |
| DM7RM-13 | 2026-09-02 04:22:17 | 47.77217 | 11.18112 | 102° | 77km/h | 10406m | 6.7m/s | 0°C | 0% | 0hPa | 2.7V | 02:52:00 | 00:00:00 | 00:00:00 | |
| DO3MHA-12 | 2026-09-02 04:22:16 | 47.77224 | 11.18048 | 97° | 80km/h | 10395m | 5.5m/s | -50.6°C | 79.4% | 261.3hPa | 2.7V | 00:00:00 | 00:41:27 | 00:00:00 | |
| DO3MHA-12 | 2026-09-02 04:22:06 | 47.77253 | 11.17755 | 93° | 82km/h | 10341m | 8.8m/s | -50.1°C | 70.4% | 263.5hPa | 2.7V | 00:00:00 | 00:41:17 | 00:00:00 | |
| DG1MFX-10 | 2026-09-02 04:22:03 | 47.77254 | 11.17699 | 102° | 73km/h | 10331m | 6.1m/s | -50.0°C | 61.2% | 264.1hPa | 2.7V | 00:00:00 | 00:00:00 | 00:00:00 | |
| DL6DJ-15 | 2026-09-02 04:21:57 | 47.77276 | 11.17489 | 106° | 84km/h | 10296m | 4.3m/s | -49.7°C | 57.2% | 265.5hPa | 2.7V | 00:00:00 | 00:00:00 | 00:00:00 | |
| DO3MHA-12 | 2026-09-02 04:21:56 | 47.77278 | 11.17458 | 86° | 78km/h | 10290m | 7.2m/s | -49.6°C | 66.3% | 265.7hPa | 2.7V | 02:52:00 | 00:41:07 | 00:00:00 | |
| DO3MHA-11 | 2026-09-02 04:21:55 | 47.77277 | 11.17429 | 93° | 78km/h | 10284m | 5.4m/s | -49.5°C | 66.3% | 266.0hPa | 2.7V | 02:52:00 | 00:41:06 | 00:00:00 | |
| DG1MJG | 2026-09-02 04:21:52 | 47.77285 | 11.17368 | 99° | 78km/h | 10274m | 4.1m/s | -49.5°C | 0% | 266.4hPa | 2.7V | 02:52:00 | 00:00:00 | 00:00:00 | |
| DB0UT-7 | 2026-09-02 04:21:48 | 47.77305 | 11.17225 | 99° | 77km/h | 10249m | 8.5m/s | -49.2°C | 62.1% | 267.5hPa | 2.7V | 02:52:00 | 00:40:59 | 00:00:00 | |
| DO3MHA-11 | 2026-09-02 04:21:45 | 47.77318 | 11.17142 | 84° | 80km/h | 10235m | 5.6m/s | -49.0°C | 61.6% | 268.1hPa | 2.7V | 00:00:00 | 00:40:56 | 00:00:00 | |
| OE5DXL-15 | 2026-09-02 04:21:37 | 47.77338 | 11.16910 | 95° | 75km/h | 10192m | 2.9m/s | -48.6°C | 58.2% | 269.8hPa | 2.7V | 00:00:00 | 00:00:00 | 00:00:00 | |
| DM7RM-13 | 2026-09-02 04:21:36 | 47.77338 | 11.16910 | 95° | 88km/h | 10192m | 2.9m/s | 0°C | 0% | 0hPa | 2.7V | 02:52:00 | 00:00:00 | 00:00:00 | |
| DO3MHA-11 | 2026-09-02 04:21:35 | 47.77349 | 11.16851 | 113° | 75km/h | 10178m | 3.8m/s | -48.5°C | 56.8% | 270.3hPa | 2.7V | 00:00:00 | 00:40:46 | 00:00:00 | |
| DG1MFX-10 | 2026-09-02 04:21:33 | 47.77354 | 11.16827 | 106° | 71km/h | 10173m | 8.9m/s | -48.5°C | 48.0% | 270.5hPa | 2.7V | 00:00:00 | 00:00:00 | 00:00:00 | |
| NBG1-10 | 2026-09-02 04:21:29 | 47.77371 | 11.16689 | 113° | 71km/h | 10138m | 3.0m/s | -48.2°C | 54.3% | 271.8hPa | 2.7V | 02:52:00 | 00:40:40 | 00:00:00 | |
| DL6DJ-15 | 2026-09-02 04:21:26 | 47.77381 | 11.16601 | 115° | 71km/h | 10125m | 4.7m/s | -48.1°C | 46.0% | 272.4hPa | 2.7V | 00:00:00 | 00:00:00 | 00:00:00 | |
| DO3MHA-11 | 2026-09-02 04:21:25 | 47.77386 | 11.16574 | 96° | 75km/h | 10117m | 9.7m/s | -48.0°C | 52.5% | 272.6hPa | 2.7V | 02:52:00 | 00:40:36 | 00:00:00 | |
| DG1MJG | 2026-09-02 04:21:22 | 47.77395 | 11.16516 | 115° | 73km/h | 10105m | 6.8m/s | 0°C | 0% | 0hPa | 2.7V | 00:00:00 | 00:00:00 | 00:00:00 | |
| DB0UT-7 | 2026-09-02 04:21:17 | 47.77416 | 11.16357 | 96° | 73km/h | 10071m | 6.5m/s | -47.6°C | 52.3% | 274.3hPa | 2.7V | 00:00:00 | 00:00:00 | 00:00:00 | |
| DO3MHA-12 | 2026-09-02 04:21:15 | 47.77424 | 11.16306 | 102° | 75km/h | 10060m | 5.3m/s | -47.4°C | 52.2% | 274.9hPa | 2.7V | 00:00:00 | 00:40:26 | 00:00:00 | |
| DM7RM-13 | 2026-09-02 04:21:14 | 47.77424 | 11.16306 | 103° | 60km/h | 10060m | 5.4m/s | 0°C | 0% | 0hPa | 2.7V | 00:00:00 | 00:00:00 | 00:00:00 | |
| DG1MFX-10 | 2026-09-02 04:21:10 | 47.77438 | 11.16197 | 87° | 69km/h | 10039m | 2.8m/s | -47.3°C | 43.8% | 275.8hPa | 2.7V | 00:00:00 | 00:00:00 | 00:00:00 | |
| OE5DXL-15 | 2026-09-02 04:21:07 | 47.77448 | 11.16088 | 94° | 73km/h | 10018m | 4.7m/s | -47.0°C | 49.2% | 276.7hPa | 2.7V | 02:53:00 | 00:40:18 | 00:00:00 | |
| OE5DRO-10 | 2026-09-02 04:20:57 | 47.77481 | 11.15830 | 96° | 71km/h | 9969m | 4.6m/s | -46.5°C | 49.2% | 279.0hPa | 2.7V | 02:53:00 | 00:00:00 | 00:00:00 | |
| NBG1-10 | 2026-09-02 04:20:56 | 47.77485 | 11.15803 | 105° | 73km/h | 9965m | 5.0m/s | -46.5°C | 49.2% | 279.3hPa | 2.7V | 00:00:00 | 00:40:07 | 00:00:00 | |
| DO3MHA-11 | 2026-09-02 04:20:55 | 47.77490 | 11.15775 | 108° | 73km/h | 9959m | 8.7m/s | -46.4°C | 48.8% | 279.4hPa | 2.7V | 02:53:00 | 00:40:06 | 00:00:00 | |
| DM7RM-13 | 2026-09-02 04:20:54 | 47.77490 | 11.15775 | 109° | 69km/h | 9959m | 8.8m/s | 0°C | 0% | 0hPa | 2.7V | 00:00:00 | 00:00:00 | 00:00:00 | |
| DG1MJG | 2026-09-02 04:20:52 | 47.77492 | 11.15723 | 93° | 68km/h | 9948m | 5.0m/s | 0°C | 0% | 0hPa | 2.7V | 00:00:00 | 00:00:00 | 00:00:00 | |
| DG1MFX-10 | 2026-09-02 04:20:49 | 47.77505 | 11.15644 | 93° | 86km/h | 9931m | 3.9m/s | -46.2°C | 43.8% | 280.7hPa | 2.7V | 00:00:00 | 00:00:00 | 00:00:00 | |
| DB0UT-7 | 2026-09-02 04:20:47 | 47.77512 | 11.15564 | 93° | 71km/h | 9916m | 5.5m/s | -46.0°C | 50.5% | 281.1hPa | 2.7V | 00:00:00 | 00:39:58 | 00:00:00 | |
| DO3MHA-12 | 2026-09-02 04:20:45 | 47.77520 | 11.15508 | 107° | 73km/h | 9907m | 6.0m/s | -46.0°C | 50.9% | 281.6hPa | 2.7V | 00:00:00 | 00:39:56 | 00:00:00 | |
| DB0ND-19 | 2026-09-02 04:20:42 | 47.77535 | 11.15377 | 95° | 66km/h | 9879m | 7.9m/s | 0°C | -1.0% | -1.0hPa | 2.7V | 00:00:00 | 00:00:00 | 00:00:00 | |
| OE5DRO-10 | 2026-09-02 04:20:38 | 47.77538 | 11.15323 | 105° | 71km/h | 9869m | 7.1m/s | -45.6°C | 54.0% | 283.3hPa | 2.7V | 00:00:00 | 00:00:00 | 00:00:00 | |
| OE5DXL-15 | 2026-09-02 04:20:37 | 47.77542 | 11.15299 | 102° | 73km/h | 9862m | 5.3m/s | -45.6°C | 54.3% | 283.5hPa | 2.7V | 00:00:00 | 00:00:00 | 00:00:00 | |
| DO3MHA-11 | 2026-09-02 04:20:33 | 47.77559 | 11.15191 | 94° | 73km/h | 9842m | 4.3m/s | -45.4°C | 53.0% | 284.4hPa | 2.7V | 00:00:00 | 00:39:44 | 00:00:00 | |
| DM7RM-13 | 2026-09-02 04:20:32 | 47.77559 | 11.15191 | 95° | 62km/h | 9842m | 4.4m/s | 0°C | 0% | 0hPa | 2.7V | 00:00:00 | 00:00:00 | 00:00:00 | |
| DG1MFX-10 | 2026-09-02 04:20:28 | 47.77573 | 11.15084 | 94° | 64km/h | 9818m | 4.4m/s | -45.2°C | 48.3% | 285.5hPa | 2.7V | 00:00:00 | 00:00:00 | 00:00:00 | |
| DL6DJ-15 | 2026-09-02 04:20:24 | 47.77591 | 11.14949 | 99° | 80km/h | 9791m | 5.5m/s | -45.0°C | 50.8% | 286.5hPa | 2.7V | 00:00:00 | 00:00:00 | 00:00:00 | |
| DO3MHA-11 | 2026-09-02 04:20:23 | 47.77595 | 11.14922 | 109° | 71km/h | 9785m | 6.3m/s | -44.9°C | 57.6% | 286.6hPa | 2.7V | 02:53:00 | 00:39:34 | 00:00:00 | |
| DG1MJG | 2026-09-02 04:20:22 | 47.77595 | 11.14922 | 110° | 64km/h | 9785m | 6.4m/s | 0°C | 0% | 0hPa | 2.7V | 00:00:00 | 00:00:00 | 00:00:00 | |
| OE5DRO-10 | 2026-09-02 04:20:19 | 47.77610 | 11.14821 | 110° | 77km/h | 9766m | 3.1m/s | -44.7°C | 58.5% | 287.5hPa | 2.7V | 00:00:00 | 00:00:00 | 00:00:00 | |
| DB0UT-7 | 2026-09-02 04:20:17 | 47.77617 | 11.14768 | 92° | 77km/h | 9755m | 3.8m/s | -44.6°C | 59.8% | 288.0hPa | 2.7V | 02:53:00 | 00:00:00 | 00:00:00 | |
| DO3MHA-12 | 2026-09-02 04:20:13 | 47.77631 | 11.14663 | 94° | 77km/h | 9736m | 4.8m/s | -44.4°C | 63.2% | 288.9hPa | 2.7V | 00:00:00 | 00:39:24 | 00:00:00 | |
| DM7RM-13 | 2026-09-02 04:20:10 | 47.77637 | 11.14606 | 111° | 78km/h | 9725m | 3.5m/s | 0°C | 0% | 0hPa | 2.7V | 00:00:00 | 00:00:00 | 00:00:00 | |
| DG1MFX-10 | 2026-09-02 04:20:08 | 47.77644 | 11.14549 | 92° | 71km/h | 9713m | 3.9m/s | -44.3°C | 55.2% | 290.0hPa | 2.7V | 00:00:00 | 00:00:00 | 00:00:00 | |
| OE5DXL-15 | 2026-09-02 04:20:07 | 47.77652 | 11.14498 | 102° | 75km/h | 9705m | 6.4m/s | -44.2°C | 61.5% | 290.2hPa | 2.7V | 00:00:00 | 00:00:00 | 00:00:00 | |
| DO3MHA-12 | 2026-09-02 04:20:03 | 47.77665 | 11.14382 | 108° | 77km/h | 9682m | 1.5m/s | -44.0°C | 59.0% | 291.2hPa | 2.7V | 00:00:00 | 00:39:14 | 00:00:00 | |
| OE5DRO-10 | 2026-09-02 04:20:00 | 47.77675 | 11.14301 | 115° | 75km/h | 9664m | 6.6m/s | -43.8°C | 57.0% | 292.0hPa | 2.7V | 02:54:00 | 00:00:00 | 00:00:00 | |
| DH7VM-15 | 2026-09-02 04:19:58 | 47.77682 | 11.14276 | 111° | 84km/h | 9661m | 0.3m/s | 0°C | 0% | 0hPa | 2.7V | 00:00:00 | 00:00:00 | 00:00:00 | |
| DO3MHA-11 | 2026-09-02 04:19:53 | 47.77704 | 11.14111 | 104° | 77km/h | 9629m | 1.7m/s | -43.5°C | 56.0% | 293.8hPa | 2.7V | 02:54:00 | 00:39:04 | 00:00:00 | |
| DB0UT-7 | 2026-09-02 04:19:47 | 47.77735 | 11.13947 | 105° | 73km/h | 9592m | 4.9m/s | -43.3°C | 54.0% | 295.2hPa | 2.9V | 00:00:00 | 00:38:58 | 00:00:00 | |
| DO3MHA-11 | 2026-09-02 04:19:43 | 47.77755 | 11.13836 | 117° | 71km/h | 9572m | 7.3m/s | -43.2°C | 53.2% | 296.0hPa | 2.9V | 00:00:00 | 00:38:54 | 00:00:00 | |
| OE5DRO-10 | 2026-09-02 04:19:41 | 47.77765 | 11.13791 | 104° | 71km/h | 9560m | 8.3m/s | -43.1°C | 53.0% | 296.4hPa | 2.9V | 00:00:00 | 00:00:00 | 00:00:00 | |
| OE5DXL-15 | 2026-09-02 04:19:37 | 47.77794 | 11.13691 | 105° | 71km/h | 9538m | 3.7m/s | -42.9°C | 53.0% | 297.4hPa | 2.9V | 02:54:00 | 00:00:00 | 00:00:00 | |
| DM7RM-13 | 2026-09-02 04:19:36 | 47.77794 | 11.13691 | 105° | 84km/h | 9538m | 3.7m/s | 0°C | 0% | 0hPa | 2.9V | 00:00:00 | 00:00:00 | 00:00:00 | |
| DO3MHA-11 | 2026-09-02 04:19:33 | 47.77815 | 11.13583 | 107° | 69km/h | 9514m | 5.2m/s | -42.8°C | 53.8% | 298.4hPa | 2.9V | 00:00:00 | 00:38:44 | 00:00:00 | |
| NBG1-10 | 2026-09-02 04:19:31 | 47.77830 | 11.13533 | 116° | 71km/h | 9500m | 4.3m/s | -42.7°C | 56.0% | 299.0hPa | 2.9V | 02:54:00 | 00:38:42 | 00:00:00 | |
| DO3MHA-11 | 2026-09-02 04:19:23 | 47.77885 | 11.13344 | 111° | 73km/h | 9457m | 4.3m/s | -42.4°C | 54.3% | 300.8hPa | 2.9V | 02:54:00 | 00:38:34 | 00:00:00 | |
| OE5DRO-10 | 2026-09-02 04:19:22 | 47.77892 | 11.13315 | 108° | 73km/h | 9451m | 8.0m/s | -42.4°C | 54.0% | 300.9hPa | 2.7V | 00:00:00 | 00:00:00 | 00:00:00 | |
| DG1MFX-10 | 2026-09-02 04:19:21 | 47.77892 | 11.13315 | 108° | 73km/h | 9451m | 8.1m/s | -42.4°C | 47.9% | 301.0hPa | 2.7V | 00:00:00 | 00:00:00 | 00:00:00 | |
| DB0UT-7 | 2026-09-02 04:19:17 | 47.77932 | 11.13191 | 113° | 71km/h | 9426m | 4.3m/s | -42.2°C | 55.2% | 302.3hPa | 2.7V | 00:00:00 | 00:00:00 | 00:00:00 | |
| DO3MHA-11 | 2026-09-02 04:19:13 | 47.77963 | 11.13096 | 107° | 73km/h | 9407m | 3.0m/s | -42.0°C | 54.7% | 303.2hPa | 2.7V | 00:00:00 | 00:38:24 | 00:00:00 | |
| OE5DXL-15 | 2026-09-02 04:19:07 | 47.78009 | 11.12948 | 121° | 73km/h | 9377m | 7.6m/s | -41.8°C | 53.0% | 304.6hPa | 2.7V | 00:00:00 | 00:00:00 | 00:00:00 | |
| DO3MHA-11 | 2026-09-02 04:19:03 | 47.78045 | 11.12847 | 123° | 71km/h | 9356m | 4.2m/s | -41.6°C | 53.3% | 305.5hPa | 2.7V | 00:00:00 | 00:38:14 | 00:00:00 | |
| DL6DJ-15 | 2026-09-02 04:18:51 | 47.78142 | 11.12566 | 117° | 62km/h | 9304m | 6.2m/s | -41.0°C | 44.3% | 308.1hPa | 2.7V | 00:00:00 | 00:00:00 | 00:00:00 | |
| DB0UT-7 | 2026-09-02 04:18:47 | 47.78177 | 11.12472 | 125° | 75km/h | 9284m | 8.7m/s | -40.8°C | 48.1% | 309.1hPa | 2.7V | 02:55:00 | 00:37:58 | 00:00:00 | |
| OE5DRO-10 | 2026-09-02 04:18:44 | 47.78200 | 11.12395 | 129° | 75km/h | 9267m | 4.2m/s | -40.7°C | 48.5% | 309.9hPa | 2.9V | 00:00:00 | 00:00:00 | 00:00:00 | |
| DO3MHA-12 | 2026-09-02 04:18:43 | 47.78212 | 11.12369 | 119° | 75km/h | 9261m | 6.9m/s | -40.6°C | 48.0% | 310.0hPa | 2.9V | 00:00:00 | 00:37:54 | 00:00:00 | |
| DG1MFX-10 | 2026-09-02 04:18:40 | 47.78229 | 11.12325 | 128° | 62km/h | 9250m | 6.0m/s | -40.6°C | 42.6% | 310.5hPa | 2.9V | 02:55:00 | 00:00:00 | 00:00:00 | |
| OE5DXL-15 | 2026-09-02 04:18:37 | 47.78265 | 11.12227 | 129° | 75km/h | 9229m | 7.2m/s | -40.3°C | 47.4% | 311.3hPa | 2.9V | 00:00:00 | 00:00:00 | 00:00:00 | |
| DO3MHA-11 | 2026-09-02 04:18:33 | 47.78297 | 11.12127 | 118° | 77km/h | 9206m | 7.0m/s | -40.1°C | 48.1% | 312.3hPa | 2.9V | 00:00:00 | 00:37:44 | 00:00:00 | |
| OE5DRO-10 | 2026-09-02 04:18:25 | 47.78360 | 11.11929 | 121° | 75km/h | 9168m | 7.4m/s | -39.7°C | 46.6% | 314.3hPa | 2.9V | 00:00:00 | 00:00:00 | 00:00:00 | |
| DO3MHA-11 | 2026-09-02 04:18:23 | 47.78380 | 11.11877 | 109° | 75km/h | 9156m | 7.6m/s | -39.6°C | 46.4% | 314.8hPa | 2.9V | 02:55:00 | 00:37:34 | 00:00:00 | |
| NBG1-10 | 2026-09-02 04:18:21 | 47.78395 | 11.11829 | 122° | 80km/h | 9146m | 6.3m/s | -39.6°C | 46.3% | 315.3hPa | 2.7V | 00:00:00 | 00:37:32 | 00:00:00 | |
| DL6DJ-15 | 2026-09-02 04:18:20 | 47.78405 | 11.11799 | 107° | 82km/h | 9139m | 7.6m/s | -39.6°C | 40.5% | 315.4hPa | 2.7V | 00:00:00 | 00:00:00 | 00:00:00 | |
| DB0UT-7 | 2026-09-02 04:18:16 | 47.78438 | 11.11704 | 114° | 75km/h | 9120m | 6.7m/s | -39.3°C | 45.4% | 316.3hPa | 2.7V | 00:00:00 | 00:00:00 | 00:00:00 | |
| DO3MHA-12 | 2026-09-02 04:18:13 | 47.78467 | 11.11630 | 104° | 73km/h | 9104m | 3.3m/s | -39.2°C | 45.1% | 317.1hPa | 2.7V | 00:00:00 | 00:37:24 | 00:00:00 | |
| OE5DXL-15 | 2026-09-02 04:18:07 | 47.78521 | 11.11476 | 106° | 75km/h | 9072m | 3.4m/s | -38.9°C | 42.9% | 318.5hPa | 2.7V | 02:56:00 | 00:00:00 | 00:00:00 | |
| OE5DRO-10 | 2026-09-02 04:18:06 | 47.78528 | 11.11453 | 125° | 75km/h | 9068m | 6.6m/s | -38.8°C | 43.0% | 318.8hPa | 2.9V | 02:56:00 | 00:00:00 | 00:00:00 | |
| DO3MHA-12 | 2026-09-02 04:18:03 | 47.78554 | 11.11380 | 115° | 75km/h | 9049m | 4.8m/s | -38.7°C | 42.6% | 319.6hPa | 2.9V | 00:00:00 | 00:37:14 | 00:00:00 | |
| DL6DJ-15 | 2026-09-02 04:17:49 | 47.78708 | 11.10955 | 123° | 58km/h | 8957m | 5.3m/s | -37.9°C | 24.0% | 323.6hPa | 2.9V | 00:00:00 | 00:00:00 | 00:00:00 | |
| DO3MHA-11 | 2026-09-02 04:17:43 | 47.78742 | 11.10880 | 115° | 77km/h | 8945m | 1.9m/s | -37.7°C | 29.1% | 324.3hPa | 2.9V | 00:00:00 | 00:36:54 | 00:00:00 | |
| DO3MHA-12 | 2026-09-02 04:17:33 | 47.78838 | 11.10624 | 133° | 77km/h | 8905m | 4.2m/s | -37.2°C | 29.0% | 326.6hPa | 2.9V | 00:00:00 | 00:36:44 | 00:00:00 | |
| OE5DRO-10 | 2026-09-02 04:17:26 | 47.78906 | 11.10453 | 125° | 77km/h | 8866m | 6.4m/s | -36.9°C | 26.7% | 328.3hPa | 2.9V | 00:00:00 | 00:00:00 | 00:00:00 | |
| DO3MHA-12 | 2026-09-02 04:17:23 | 47.78933 | 11.10380 | 119° | 78km/h | 8850m | 4.5m/s | -36.7°C | 26.5% | 329.1hPa | 2.9V | 02:56:00 | 00:36:34 | 00:00:00 | |
| DG1MJG | 2026-09-02 04:17:21 | 47.78940 | 11.10353 | 105° | 73km/h | 8847m | 2.5m/s | -36.7°C | 22.5% | 329.4hPa | 2.9V | 02:56:00 | 00:00:00 | 00:00:00 | |
| DL6DJ-15 | 2026-09-02 04:17:18 | 47.78984 | 11.10221 | 110° | 77km/h | 8821m | 4.7m/s | -36.5°C | 16.3% | 330.6hPa | 2.9V | 00:00:00 | 00:00:00 | 00:00:00 | |
| DB0UT-7 | 2026-09-02 04:17:15 | 47.79005 | 11.10170 | 132° | 75km/h | 8811m | 4.5m/s | -36.4°C | 17.7% | 330.9hPa | 2.9V | 02:56:00 | 00:00:00 | 00:00:00 | |
| DO3MHA-11 | 2026-09-02 04:17:13 | 47.79022 | 11.10121 | 113° | 77km/h | 8799m | 6.6m/s | -36.3°C | 16.1% | 331.4hPa | 2.9V | 00:00:00 | 00:36:24 | 00:00:00 | |
| NBG1-10 | 2026-09-02 04:17:11 | 47.79042 | 11.10067 | 118° | 77km/h | 8789m | 6.6m/s | -36.2°C | 13.6% | 331.9hPa | 2.9V | 00:00:00 | 00:36:22 | 00:00:00 | |
| DO3MHA-11 | 2026-09-02 04:17:03 | 47.79119 | 11.09872 | 110° | 77km/h | 8749m | 6.1m/s | -35.9°C | 12.2% | 333.9hPa | 2.9V | 00:00:00 | 00:36:14 | 00:00:00 | |
| DL6DJ-15 | 2026-09-02 04:16:47 | 47.79286 | 11.09460 | 132° | 66km/h | 8655m | 5.0m/s | -35.3°C | 10.5% | 338.4hPa | 2.9V | 00:00:00 | 00:00:00 | 00:00:00 | |
| DB0UT-7 | 2026-09-02 04:16:45 | 47.79296 | 11.09440 | 123° | 75km/h | 8649m | 5.4m/s | -35.2°C | 12.5% | 338.6hPa | 2.9V | 00:00:00 | 00:35:56 | 00:00:00 | |
| DO3MHA-12 | 2026-09-02 04:16:43 | 47.79319 | 11.09389 | 136° | 77km/h | 8640m | 2.8m/s | -35.1°C | 12.6% | 339.1hPa | 2.9V | 00:00:00 | 00:35:54 | 00:00:00 | |
| OE3JTB-15 | 2026-09-02 04:16:38 | 47.79371 | 11.09269 | 127° | 73km/h | 8614m | 5.5m/s | 0°C | 0% | 0hPa | 2.9V | 00:00:00 | 00:00:00 | 00:00:00 | |
| OE5DXL-15 | 2026-09-02 04:16:37 | 47.79382 | 11.09245 | 118° | 71km/h | 8608m | 6.0m/s | -34.9°C | 12.3% | 340.6hPa | 2.9V | 02:57:00 | 00:00:00 | 00:00:00 | |
| DO3MHA-11 | 2026-09-02 04:16:33 | 47.79422 | 11.09151 | 121° | 71km/h | 8592m | 5.1m/s | -34.7°C | 12.1% | 341.6hPa | 2.7V | 00:00:00 | 00:35:44 | 00:00:00 | |
| OE5DRO-10 | 2026-09-02 04:16:29 | 47.79464 | 11.09060 | 140° | 73km/h | 8578m | 5.3m/s | -34.5°C | 11.9% | 342.5hPa | 2.7V | 00:00:00 | 00:00:00 | 00:00:00 | |
| DO3MHA-12 | 2026-09-02 04:16:23 | 47.79525 | 11.08928 | 126° | 75km/h | 8543m | 6.7m/s | -34.3°C | 11.9% | 344.0hPa | 2.7V | 02:57:00 | 00:35:34 | 00:00:00 | |
| DG1MJG | 2026-09-02 04:16:20 | 47.79544 | 11.08890 | 130° | 73km/h | 8534m | 6.6m/s | -34.3°C | 9.8% | 344.6hPa | 2.7V | 02:58:00 | 00:00:00 | 00:00:00 | |
| DL6DJ-15 | 2026-09-02 04:16:16 | 47.79606 | 11.08751 | 128° | 75km/h | 8508m | 9.8m/s | -34.1°C | 9.9% | 346.0hPa | 2.7V | 00:00:00 | 00:00:00 | 00:00:00 | |
| DB0UT-7 | 2026-09-02 04:16:15 | 47.79606 | 11.08751 | 129° | 71km/h | 8508m | 9.7m/s | -34.0°C | 11.7% | 346.0hPa | 2.7V | 00:00:00 | 00:00:00 | 00:00:00 | |
| DO3MHA-12 | 2026-09-02 04:16:13 | 47.79633 | 11.08706 | 130° | 68km/h | 8498m | 6.3m/s | -33.9°C | 11.6% | 346.4hPa | 2.7V | 00:00:00 | 00:35:24 | 00:00:00 | |
| OE5DXL-15 | 2026-09-02 04:16:07 | 47.79698 | 11.08582 | 129° | 71km/h | 8466m | 8.5m/s | -33.6°C | 10.9% | 347.9hPa | 2.7V | 00:00:00 | 00:00:00 | 00:00:00 | |
| DN1GJH-1 | 2026-09-02 04:16:06 | 47.79698 | 11.08582 | 129° | 78km/h | 8466m | 8.5m/s | 0°C | 0% | 0hPa | 2.7V | 02:58:00 | 00:00:00 | 00:00:00 | |
| NBG1-10 | 2026-09-02 04:16:05 | 47.79716 | 11.08536 | 126° | 71km/h | 8455m | 6.5m/s | -33.5°C | 10.7% | 348.4hPa | 2.7V | 02:58:00 | 00:35:16 | 00:00:00 | |
| DO3MHA-12 | 2026-09-02 04:16:03 | 47.79739 | 11.08497 | 123° | 73km/h | 8447m | 7.1m/s | -33.4°C | 10.7% | 349.0hPa | 2.9V | 00:00:00 | 00:35:14 | 00:00:00 | |
| DB0ND-19 | 2026-09-02 04:16:02 | 47.79782 | 11.08410 | 120° | 80km/h | 8427m | 1.2m/s | -33.3°C | -1.0% | 349.9hPa | 2.9V | 00:00:00 | 00:00:00 | 00:00:00 | |
| DG1MFX-10 | 2026-09-02 04:15:55 | 47.79812 | 11.08342 | 135° | 58km/h | 8416m | 6.2m/s | -33.2°C | 8.7% | 350.5hPa | 2.9V | 02:58:00 | 00:00:00 | 00:00:00 | |
| DO3MHA-11 | 2026-09-02 04:15:53 | 47.79840 | 11.08275 | 130° | 71km/h | 8396m | 3.1m/s | -33.0°C | 10.5% | 351.3hPa | 2.9V | 02:58:00 | 00:35:04 | 00:00:00 | |
| DG1MJG | 2026-09-02 04:15:49 | 47.79871 | 11.08210 | 117° | 75km/h | 8380m | 5.6m/s | -33.0°C | 8.9% | 352.1hPa | 2.9V | 02:58:00 | 00:00:00 | 00:00:00 | |
| OE5DRO-10 | 2026-09-02 04:15:48 | 47.79891 | 11.08166 | 128° | 73km/h | 8367m | 6.5m/s | -32.9°C | 10.5% | 352.5hPa | 2.9V | 00:00:00 | 00:00:00 | 00:00:00 | |
| DL6DJ-15 | 2026-09-02 04:15:45 | 47.79943 | 11.08054 | 123° | 68km/h | 8342m | 5.4m/s | -32.8°C | 8.9% | 353.7hPa | 2.9V | 00:00:00 | 00:00:00 | 00:00:00 | |
| DO3MHA-11 | 2026-09-02 04:15:43 | 47.79943 | 11.08054 | 124° | 69km/h | 8342m | 5.3m/s | -32.8°C | 10.5% | 353.7hPa | 2.9V | 00:00:00 | 00:34:54 | 00:00:00 | |
| OE5DXL-15 | 2026-09-02 04:15:37 | 47.80004 | 11.07927 | 128° | 73km/h | 8311m | 4.5m/s | -32.5°C | 10.0% | 355.2hPa | 2.9V | 00:00:00 | 00:00:00 | 00:00:00 | |
| DG1MFX-10 | 2026-09-02 04:15:34 | 47.80026 | 11.07882 | 133° | 62km/h | 8300m | 3.6m/s | -32.5°C | 8.6% | 355.8hPa | 2.9V | 00:00:00 | 00:00:00 | 00:00:00 | |
| DO3MHA-12 | 2026-09-02 04:15:33 | 47.80048 | 11.07840 | 121° | 73km/h | 8291m | 2.1m/s | -32.3°C | 10.2% | 356.2hPa | 2.9V | 00:00:00 | 00:34:44 | 00:00:00 | |
| NBG1-10 | 2026-09-02 04:15:32 | 47.80056 | 11.07817 | 120° | 71km/h | 8285m | 7.4m/s | -32.3°C | 10.1% | 356.3hPa | 2.9V | 00:00:00 | 00:34:43 | 00:00:00 | |
| DB0ND-19 | 2026-09-02 04:15:31 | 47.80100 | 11.07731 | 127° | 62km/h | 8265m | 6.1m/s | -32.2°C | -1.0% | 357.4hPa | 2.9V | 00:00:00 | 00:00:00 | 00:00:00 | |
| OE5DRO-10 | 2026-09-02 04:15:28 | 47.80100 | 11.07730 | 128° | 75km/h | 8265m | 6.1m/s | -32.1°C | 10.4% | 357.3hPa | 2.9V | 00:00:00 | 00:00:00 | 00:00:00 | |
| DO3MHA-12 | 2026-09-02 04:15:23 | 47.80159 | 11.07619 | 120° | 73km/h | 8243m | 3.5m/s | -31.9°C | 10.5% | 358.6hPa | 2.9V | 02:58:00 | 00:34:34 | 00:00:00 | |
| DG1MJG | 2026-09-02 04:15:19 | 47.80195 | 11.07549 | 123° | 88km/h | 8231m | 6.8m/s | -31.8°C | 8.8% | 359.3hPa | 2.7V | 00:00:00 | 00:00:00 | 00:00:00 | |
| DB0UT-7 | 2026-09-02 04:15:15 | 47.80246 | 11.07439 | 134° | 69km/h | 8207m | 3.0m/s | -31.6°C | 10.1% | 360.5hPa | 2.7V | 00:00:00 | 00:00:00 | 00:00:00 | |
| DO3MHA-11 | 2026-09-02 04:15:13 | 47.80268 | 11.07399 | 119° | 71km/h | 8197m | 2.8m/s | -31.5°C | 10.0% | 361.0hPa | 2.7V | 00:00:00 | 00:34:24 | 00:00:00 | |
| OE5DRO-10 | 2026-09-02 04:15:09 | 47.80310 | 11.07310 | 123° | 69km/h | 8179m | 4.3m/s | -31.3°C | 9.6% | 361.9hPa | 2.7V | 02:59:00 | 00:00:00 | 00:00:00 | |
| OE5DXL-15 | 2026-09-02 04:15:07 | 47.80334 | 11.07269 | 136° | 69km/h | 8169m | 4.5m/s | -31.3°C | 9.4% | 362.5hPa | 2.9V | 02:59:00 | 00:00:00 | 00:00:00 | |
| DO3MHA-11 | 2026-09-02 04:15:03 | 47.80376 | 11.07191 | 126° | 69km/h | 8152m | 8.4m/s | -31.1°C | 8.9% | 363.4hPa | 2.9V | 00:00:00 | 00:34:14 | 00:00:00 | |
| NBG1-10 | 2026-09-02 04:14:55 | 47.80463 | 11.07022 | 128° | 66km/h | 8115m | 6.6m/s | -30.9°C | 9.3% | 365.6hPa | 2.9V | 00:00:00 | 00:34:06 | 00:00:00 | |
| DO3MHA-12 | 2026-09-02 04:14:53 | 47.80478 | 11.06980 | 117° | 69km/h | 8107m | 4.7m/s | -30.9°C | 9.6% | 366.0hPa | 2.9V | 02:59:00 | 00:34:04 | 00:00:00 | |
| OE5DRO-10 | 2026-09-02 04:14:50 | 47.80511 | 11.06922 | 124° | 66km/h | 8096m | 4.7m/s | -30.9°C | 10.1% | 366.7hPa | 2.9V | 00:00:00 | 00:00:00 | 00:00:00 | |
| DG1MJG | 2026-09-02 04:14:49 | 47.80511 | 11.06922 | 125° | 60km/h | 8096m | 4.8m/s | -30.9°C | 8.7% | 366.8hPa | 2.9V | 00:00:00 | 00:00:00 | 00:00:00 | |
| DB0UT-7 | 2026-09-02 04:14:45 | 47.80554 | 11.06805 | 123° | 64km/h | 8067m | 9.9m/s | -30.9°C | 10.9% | 368.1hPa | 2.9V | 00:00:00 | 00:33:56 | 00:00:00 | |
| DO3MHA-12 | 2026-09-02 04:14:43 | 47.80573 | 11.06769 | 119° | 66km/h | 8056m | 8.9m/s | -30.9°C | 11.2% | 368.8hPa | 2.9V | 00:00:00 | 00:33:54 | 00:00:00 | |
| OE5DXL-15 | 2026-09-02 04:14:37 | 47.80621 | 11.06638 | 125° | 62km/h | 8022m | 8.3m/s | -30.7°C | 11.7% | 370.4hPa | 2.9V | 00:00:00 | 00:00:00 | 00:00:00 | |
| DO3MHA-12 | 2026-09-02 04:14:33 | 47.80647 | 11.06550 | 120° | 62km/h | 7995m | 7.8m/s | -30.7°C | 12.3% | 371.6hPa | 2.9V | 00:00:00 | 00:33:44 | 00:00:00 | |
| DO3MHA-11 | 2026-09-02 04:14:32 | 47.80653 | 11.06531 | 111° | 62km/h | 7989m | 1.6m/s | -30.7°C | 12.3% | 371.8hPa | 2.9V | 00:00:00 | 00:33:43 | 00:00:00 | |
| OE5DRO-10 | 2026-09-02 04:14:29 | 47.80675 | 11.06465 | 105° | 62km/h | 7977m | 4.2m/s | -30.6°C | 12.4% | 372.6hPa | 2.9V | 00:00:00 | 00:00:00 | 00:00:00 | |
| DO3MHA-12 | 2026-09-02 04:14:23 | 47.80706 | 11.06335 | 118° | 58km/h | 7944m | 4.1m/s | -30.4°C | 13.0% | 374.2hPa | 2.9V | 02:59:00 | 00:33:34 | 00:00:00 | |
| DO3MHA-11 | 2026-09-02 04:14:22 | 47.80711 | 11.06316 | 106° | 64km/h | 7939m | 6.3m/s | -30.5°C | 13.4% | 374.4hPa | 2.9V | 02:59:00 | 00:33:33 | 00:00:00 | |
| DN1GJH-1 | 2026-09-02 04:14:21 | 47.80711 | 11.06316 | 107° | 55km/h | 7939m | 6.3m/s | 0°C | 0% | 0hPa | 2.9V | 00:00:00 | 00:00:00 | 00:00:00 | |
| DG1MJG | 2026-09-02 04:14:17 | 47.80734 | 11.06224 | 101° | 66km/h | 7919m | 7.8m/s | -30.6°C | 14.1% | 375.4hPa | 2.9V | 03:00:00 | 00:00:00 | 00:00:00 | |
| DB0UT-7 | 2026-09-02 04:14:15 | 47.80744 | 11.06157 | 97° | 62km/h | 7903m | 5.8m/s | -30.5°C | 16.3% | 376.0hPa | 2.9V | 02:59:00 | 00:00:00 | 00:00:00 | |
| DO3MHA-12 | 2026-09-02 04:14:13 | 47.80754 | 11.06110 | 115° | 60km/h | 7893m | 4.1m/s | -30.4°C | 16.4% | 376.7hPa | 2.9V | 00:00:00 | 00:33:24 | 00:00:00 | |
| DO3MHA-11 | 2026-09-02 04:14:12 | 47.80761 | 11.06087 | 114° | 60km/h | 7888m | 5.1m/s | -30.4°C | 16.5% | 377.0hPa | 2.9V | 00:00:00 | 00:33:23 | 00:00:00 | |
| DL6DJ-15 | 2026-09-02 04:14:11 | 47.80766 | 11.06069 | 109° | 47km/h | 7884m | 2.9m/s | -30.4°C | 14.5% | 377.3hPa | 2.9V | 00:00:00 | 00:00:00 | 00:00:00 | |
| OE5DRO-10 | 2026-09-02 04:14:10 | 47.80770 | 11.06048 | 110° | 62km/h | 7878m | 7.3m/s | -30.3°C | 16.5% | 377.6hPa | 2.9V | 02:59:00 | 00:00:00 | 00:00:00 | |
| OE5DXL-15 | 2026-09-02 04:14:07 | 47.80783 | 11.05980 | 107° | 64km/h | 7866m | 3.3m/s | -30.2°C | 16.7% | 378.3hPa | 2.7V | 00:00:00 | 00:00:00 | 00:00:00 | |
| DO3MHA-12 | 2026-09-02 04:14:03 | 47.80804 | 11.05897 | 98° | 64km/h | 7848m | 3.1m/s | -30.0°C | 16.5% | 379.3hPa | 2.7V | 00:00:00 | 00:33:14 | 00:00:00 | |
| DO3MHA-11 | 2026-09-02 04:14:02 | 47.80807 | 11.05876 | 102° | 66km/h | 7844m | 7.1m/s | -29.9°C | 16.5% | 379.6hPa | 2.7V | 00:00:00 | 00:33:13 | 00:00:00 | |
| DO3MHA-12 | 2026-09-02 04:13:53 | 47.80856 | 11.05668 | 114° | 64km/h | 7796m | 4.3m/s | -29.7°C | 18.9% | 381.8hPa | 2.7V | 00:00:00 | 00:33:04 | 00:00:00 | |
| DO3MHA-11 | 2026-09-02 04:13:52 | 47.80859 | 11.05646 | 88° | 62km/h | 7791m | 3.7m/s | -29.7°C | 19.3% | 382.2hPa | 2.9V | 00:00:00 | 00:33:03 | 00:00:00 | |
| OE5DRO-10 | 2026-09-02 04:13:51 | 47.80860 | 11.05622 | 96° | 62km/h | 7787m | 3.0m/s | 0°C | 0% | 0hPa | 2.9V | 00:00:00 | 00:00:00 | 00:00:00 | |
| NBG1-10 | 2026-09-02 04:13:49 | 47.80869 | 11.05582 | 107° | 62km/h | 7779m | 5.3m/s | -29.6°C | 19.8% | 382.8hPa | 2.9V | 00:00:00 | 00:33:00 | 00:00:00 | |
| DG1MFX-10 | 2026-09-02 04:13:48 | 47.80869 | 11.05582 | 107° | 53km/h | 7779m | 5.4m/s | -29.6°C | 17.8% | 382.9hPa | 2.9V | 03:01:00 | 00:00:00 | 00:00:00 | |
| DG1MJG | 2026-09-02 04:13:47 | 47.80872 | 11.05559 | 98° | 77km/h | 7775m | 2.8m/s | -29.6°C | 18.0% | 383.3hPa | 2.9V | 03:01:00 | 00:00:00 | 00:00:00 | |
| DB0UT-7 | 2026-09-02 04:13:45 | 47.80882 | 11.05489 | 95° | 62km/h | 7761m | 8.4m/s | -29.4°C | 19.9% | 383.9hPa | 2.9V | 03:00:00 | 00:32:56 | 00:00:00 | |
| DO3MHA-12 | 2026-09-02 04:13:43 | 47.80891 | 11.05441 | 103° | 62km/h | 7750m | 4.6m/s | -29.4°C | 20.4% | 384.5hPa | 2.9V | 03:00:00 | 00:32:54 | 00:00:00 | |
| DO3MHA-11 | 2026-09-02 04:13:42 | 47.80894 | 11.05422 | 100° | 62km/h | 7746m | 3.8m/s | -29.3°C | 20.3% | 384.8hPa | 2.9V | 03:00:00 | 00:32:53 | 00:00:00 | |
| DL6DJ-15 | 2026-09-02 04:13:40 | 47.80901 | 11.05382 | 88° | 57km/h | 7738m | 8.2m/s | -29.3°C | 18.1% | 385.2hPa | 2.9V | 00:00:00 | 00:00:00 | 00:00:00 | |
| OE5DXL-15 | 2026-09-02 04:13:37 | 47.80911 | 11.05309 | 106° | 64km/h | 7726m | -1.0m/s | -29.1°C | 20.6% | 386.1hPa | 2.9V | 00:00:00 | 00:00:00 | 00:00:00 | |
| DO3MHA-11 | 2026-09-02 04:13:32 | 47.80929 | 11.05195 | 105° | 64km/h | 7700m | 5.5m/s | -29.0°C | 21.1% | 387.5hPa | 2.9V | 00:00:00 | 00:32:43 | 00:00:00 | |
| DG1MFX-10 | 2026-09-02 04:13:27 | 47.80947 | 11.05099 | 116° | 82km/h | 7682m | 7.4m/s | -28.9°C | 18.7% | 388.5hPa | 2.9V | 03:01:00 | 00:00:00 | 00:00:00 | |
| DO3MHA-11 | 2026-09-02 04:13:22 | 47.80983 | 11.04971 | 117° | 62km/h | 7642m | 5.3m/s | -28.7°C | 22.3% | 390.5hPa | 2.9V | 00:00:00 | 00:32:33 | 00:00:00 | |
| DG1MJG | 2026-09-02 04:13:17 | 47.81004 | 11.04882 | 101° | 55km/h | 7621m | 5.3m/s | -28.7°C | 20.7% | 391.6hPa | 2.9V | 03:01:00 | 00:00:00 | 00:00:00 | |
| NBG1-10 | 2026-09-02 04:13:16 | 47.81017 | 11.04837 | 122° | 66km/h | 7611m | 4.2m/s | -28.5°C | 23.0% | 392.0hPa | 2.9V | 00:00:00 | 00:32:27 | 00:00:00 | |
| DB0UT-7 | 2026-09-02 04:13:14 | 47.81026 | 11.04793 | 112° | 64km/h | 7603m | 4.6m/s | -28.4°C | 23.1% | 392.6hPa | 2.9V | 00:00:00 | 00:00:00 | 00:00:00 | |
| OE5DRO-10 | 2026-09-02 04:13:13 | 47.81033 | 11.04772 | 123° | 62km/h | 7598m | 4.5m/s | 0°C | 0% | 0hPa | 2.9V | 00:00:00 | 00:00:00 | 00:00:00 | |
| OE5DXL-15 | 2026-09-02 04:13:07 | 47.81061 | 11.04642 | 103° | 66km/h | 7564m | 5.5m/s | -28.2°C | 23.1% | 394.5hPa | 2.9V | 00:00:00 | 00:00:00 | 00:00:00 | |
| DG1MFX-10 | 2026-09-02 04:13:06 | 47.81061 | 11.04642 | 103° | 55km/h | 7564m | 5.5m/s | -28.2°C | 21.0% | 394.6hPa | 2.9V | 03:01:00 | 00:00:00 | 00:00:00 | |
| DO3MHA-12 | 2026-09-02 04:13:02 | 47.81082 | 11.04532 | 108° | 66km/h | 7540m | 4.1m/s | -28.0°C | 23.8% | 396.1hPa | 2.9V | 03:01:00 | 00:32:13 | 00:00:00 | |
| OE5DRO-10 | 2026-09-02 04:12:54 | 47.81119 | 11.04347 | 99° | 68km/h | 7497m | 2.0m/s | 0°C | 0% | 0hPa | 2.9V | 03:01:00 | 00:00:00 | 00:00:00 | |
| DO3MHA-11 | 2026-09-02 04:12:52 | 47.81125 | 11.04301 | 114° | 68km/h | 7486m | 2.3m/s | -27.7°C | 25.5% | 398.6hPa | 2.9V | 00:00:00 | 00:32:03 | 00:00:00 | |
| DG1MJG | 2026-09-02 04:12:46 | 47.81148 | 11.04181 | 107° | 53km/h | 7467m | 2.7m/s | -27.6°C | 23.2% | 399.8hPa | 2.9V | 03:01:00 | 00:00:00 | 00:00:00 | |
| DB0UT-7 | 2026-09-02 04:12:44 | 47.81160 | 11.04107 | 95° | 66km/h | 7456m | 2.4m/s | -27.5°C | 26.0% | 400.5hPa | 2.9V | 00:00:00 | 00:31:55 | 00:00:00 | |
| NBG1-10 | 2026-09-02 04:12:43 | 47.81163 | 11.04085 | 107° | 64km/h | 7452m | 4.9m/s | -27.4°C | 26.1% | 400.8hPa | 2.9V | 03:01:00 | 00:31:54 | 00:00:00 | |
| DO3MHA-11 | 2026-09-02 04:12:42 | 47.81166 | 11.04059 | 95° | 68km/h | 7449m | 2.7m/s | -27.4°C | 26.7% | 401.0hPa | 2.7V | 00:00:00 | 00:31:53 | 00:00:00 | |
| DL6DJ-15 | 2026-09-02 04:12:38 | 47.81183 | 11.03961 | 97° | 66km/h | 7432m | 6.1m/s | -27.4°C | 29.2% | 402.1hPa | 2.7V | 00:00:00 | 00:00:00 | 00:00:00 | |
| OE5DXL-15 | 2026-09-02 04:12:37 | 47.81186 | 11.03937 | 108° | 64km/h | 7428m | 3.5m/s | -27.4°C | 34.7% | 402.3hPa | 2.7V | 03:01:00 | 00:00:00 | 00:00:00 | |
| OE5DRO-10 | 2026-09-02 04:12:35 | 47.81198 | 11.03887 | 106° | 64km/h | 7419m | 3.7m/s | 0°C | 0% | 0hPa | 2.7V | 00:00:00 | 00:00:00 | 00:00:00 | |
| DO3MHA-12 | 2026-09-02 04:12:32 | 47.81208 | 11.03821 | 94° | 66km/h | 7403m | 6.6m/s | -27.3°C | 36.9% | 403.8hPa | 2.7V | 00:00:00 | 00:31:43 | 00:00:00 | |
| DG1MFX-10 | 2026-09-02 04:12:24 | 47.81229 | 11.03658 | 110° | 53km/h | 7369m | 3.0m/s | -27.0°C | 34.9% | 405.8hPa | 2.7V | 00:00:00 | 00:00:00 | 00:00:00 | |
| DO3MHA-11 | 2026-09-02 04:12:22 | 47.81245 | 11.03590 | 107° | 64km/h | 7352m | 7.2m/s | -26.8°C | 37.3% | 406.7hPa | 2.7V | 03:01:00 | 00:31:33 | 00:00:00 | |
| OE5DRO-10 | 2026-09-02 04:12:16 | 47.81271 | 11.03454 | 106° | 58km/h | 7319m | 7.1m/s | 0°C | 0% | 0hPa | 2.9V | 00:00:00 | 00:00:00 | 00:00:00 | |
| DG1MJG | 2026-09-02 04:12:15 | 47.81271 | 11.03454 | 106° | 62km/h | 7319m | 7.2m/s | -26.6°C | 34.2% | 408.5hPa | 2.9V | 03:01:00 | 00:00:00 | 00:00:00 | |
| DB0UT-7 | 2026-09-02 04:12:14 | 47.81276 | 11.03408 | 105° | 58km/h | 7309m | 5.3m/s | -26.4°C | 37.0% | 409.0hPa | 2.9V | 00:00:00 | 00:00:00 | 00:00:00 | |
| DO3MHA-11 | 2026-09-02 04:12:12 | 47.81284 | 11.03367 | 93° | 58km/h | 7299m | 4.8m/s | -26.3°C | 36.8% | 409.6hPa | 2.9V | 00:00:00 | 00:31:23 | 00:00:00 | |
| NBG1-10 | 2026-09-02 04:12:10 | 47.81290 | 11.03332 | 114° | 57km/h | 7287m | 6.3m/s | -26.3°C | 35.9% | 410.1hPa | 2.9V | 00:00:00 | 00:31:21 | 00:00:00 | |
| OE5DXL-15 | 2026-09-02 04:12:07 | 47.81298 | 11.03258 | 110° | 57km/h | 7268m | 4.4m/s | -26.1°C | 35.7% | 411.1hPa | 2.9V | 00:00:00 | 00:00:00 | 00:00:00 | |
| DB0ND-19 | 2026-09-02 04:11:54 | 47.81335 | 11.02989 | 96° | 68km/h | 7203m | 5.8m/s | 0°C | -1.0% | 414.6hPa | 2.9V | 00:00:00 | 00:00:00 | 00:00:00 | |
| DO3MHA-12 | 2026-09-02 04:11:52 | 47.81344 | 11.02944 | 112° | 57km/h | 7193m | 4.5m/s | -25.4°C | 35.6% | 415.1hPa | 2.9V | 00:00:00 | 00:31:03 | 00:00:00 | |
| DG1MJG | 2026-09-02 04:11:45 | 47.81361 | 11.02813 | 107° | 47km/h | 7160m | 7.4m/s | -25.2°C | 33.2% | 416.9hPa | 2.9V | 03:02:00 | 00:00:00 | 00:00:00 | |
| DB0UT-7 | 2026-09-02 04:11:44 | 47.81364 | 11.02776 | 91° | 53km/h | 7150m | 4.8m/s | -25.1°C | 36.5% | 417.6hPa | 2.9V | 03:02:00 | 00:30:55 | 00:00:00 | |
| DO3MHA-12 | 2026-09-02 04:11:42 | 47.81371 | 11.02740 | 102° | 55km/h | 7140m | 6.4m/s | -25.1°C | 36.3% | 418.0hPa | 2.9V | 03:02:00 | 00:30:53 | 00:00:00 | |
| OE5DRO-10 | 2026-09-02 04:11:38 | 47.81385 | 11.02661 | 109° | 53km/h | 7118m | -0.0m/s | 0°C | 0% | 0hPa | 2.9V | 00:00:00 | 00:00:00 | 00:00:00 | |
| OE5DXL-15 | 2026-09-02 04:11:37 | 47.81390 | 11.02643 | 118° | 57km/h | 7113m | 6.6m/s | -24.8°C | 36.6% | 419.2hPa | 2.9V | 00:00:00 | 00:00:00 | 00:00:00 | |
| DL6DJ-15 | 2026-09-02 04:11:36 | 47.81399 | 11.02582 | 113° | 64km/h | 7100m | 4.3m/s | -24.8°C | 34.3% | 420.1hPa | 2.9V | 00:00:00 | 00:00:00 | 00:00:00 | |
| NBG1-10 | 2026-09-02 04:11:34 | 47.81399 | 11.02582 | 114° | 58km/h | 7101m | 4.3m/s | -24.8°C | 36.9% | 420.0hPa | 2.9V | 00:00:00 | 00:30:45 | 00:00:00 | |
| DO3MHA-11 | 2026-09-02 04:11:32 | 47.81402 | 11.02543 | 121° | 57km/h | 7093m | 3.6m/s | -24.7°C | 36.5% | 420.6hPa | 2.9V | 00:00:00 | 00:30:43 | 00:00:00 | |
| DO3MHA-11 | 2026-09-02 04:11:22 | 47.81430 | 11.02340 | 101° | 57km/h | 7045m | 4.9m/s | -24.2°C | 34.9% | 423.7hPa | 2.9V | 00:00:00 | 00:30:33 | 00:00:00 | |
| OE5DRO-10 | 2026-09-02 04:11:18 | 47.81450 | 11.02261 | 122° | 58km/h | 7028m | 6.3m/s | 0°C | 0% | 0hPa | 2.7V | 00:00:00 | 00:00:00 | 00:00:00 | |
| DG1MFX-10 | 2026-09-02 04:11:17 | 47.81450 | 11.02261 | 122° | 75km/h | 7028m | 6.3m/s | -24.1°C | 31.9% | 424.7hPa | 2.7V | 00:00:00 | 00:00:00 | 00:00:00 | |
| DB0UT-7 | 2026-09-02 04:11:14 | 47.81466 | 11.02177 | 103° | 57km/h | 7010m | 7.3m/s | -23.9°C | 35.0% | 426.1hPa | 2.7V | 00:00:00 | 00:00:00 | 00:00:00 | |
| DO3MHA-12 | 2026-09-02 04:11:12 | 47.81471 | 11.02138 | 106° | 57km/h | 7001m | 3.3m/s | -23.8°C | 35.2% | 426.7hPa | 2.7V | 00:00:00 | 00:30:23 | 00:00:00 | |
| OE5DXL-15 | 2026-09-02 04:11:07 | 47.81492 | 11.02037 | 105° | 57km/h | 6980m | 5.3m/s | -23.6°C | 34.0% | 428.0hPa | 2.7V | 00:00:00 | 00:00:00 | 00:00:00 | |
| DL6DJ-15 | 2026-09-02 04:11:05 | 47.81502 | 11.02001 | 116° | 49km/h | 6970m | 5.3m/s | -23.6°C | 32.1% | 428.7hPa | 2.7V | 00:00:00 | 00:00:00 | 00:00:00 | |
| DO3MHA-12 | 2026-09-02 04:11:02 | 47.81514 | 11.01940 | 115° | 57km/h | 6957m | 4.2m/s | -23.4°C | 34.3% | 429.5hPa | 2.7V | 03:03:00 | 00:30:13 | 00:00:00 | |
| NBG1-10 | 2026-09-02 04:11:01 | 47.81519 | 11.01924 | 110° | 55km/h | 6952m | 6.7m/s | -23.3°C | 34.0% | 429.8hPa | 2.7V | 00:00:00 | 00:30:12 | 00:00:00 | |
| OE5DRO-10 | 2026-09-02 04:10:58 | 47.81531 | 11.01859 | 111° | 62km/h | 6942m | 3.4m/s | 0°C | 0% | 0hPa | 2.9V | 00:00:00 | 00:00:00 | 00:00:00 | |
| DG1MFX-10 | 2026-09-02 04:10:56 | 47.81537 | 11.01837 | 114° | 60km/h | 6937m | 8.3m/s | -23.2°C | 31.2% | 430.9hPa | 2.9V | 00:00:00 | 00:00:00 | 00:00:00 | |
| DO3MHA-11 | 2026-09-02 04:10:52 | 47.81558 | 11.01741 | 107° | 57km/h | 6910m | 5.2m/s | -22.9°C | 33.4% | 432.3hPa | 2.9V | 00:00:00 | 00:30:03 | 00:00:00 | |
| DB0UT-7 | 2026-09-02 04:10:44 | 47.81595 | 11.01581 | 112° | 55km/h | 6869m | 8.9m/s | 0°C | 0% | 0hPa | 2.9V | 00:00:00 | 00:29:55 | 00:00:00 | |
| DG1MJG | 2026-09-02 04:10:43 | 47.81595 | 11.01581 | 113° | 71km/h | 6869m | 8.9m/s | -22.6°C | 30.6% | 434.5hPa | 2.9V | 03:03:00 | 00:00:00 | 00:00:00 | |
| DO3MHA-11 | 2026-09-02 04:10:42 | 47.81603 | 11.01543 | 136° | 55km/h | 6857m | 7.7m/s | -22.5°C | 32.7% | 435.1hPa | 2.9V | 00:00:00 | 00:29:53 | 00:00:00 | |
| OE5DXL-15 | 2026-09-02 04:10:37 | 47.81631 | 11.01439 | 106° | 53km/h | 6828m | 7.6m/s | -22.3°C | 32.5% | 436.8hPa | 2.9V | 03:03:00 | 00:00:00 | 00:00:00 | |
| DG1MFX-10 | 2026-09-02 04:10:36 | 47.81631 | 11.01439 | 107° | 51km/h | 6828m | 7.7m/s | -22.3°C | 0% | 436.8hPa | 2.9V | 00:00:00 | 00:00:00 | 00:00:00 | |
| DL6DJ-15 | 2026-09-02 04:10:34 | 47.81650 | 11.01374 | 118° | 44km/h | 6808m | 5.6m/s | -22.1°C | 30.3% | 438.1hPa | 2.9V | 00:00:00 | 00:00:00 | 00:00:00 | |
| DO3MHA-12 | 2026-09-02 04:10:32 | 47.81656 | 11.01356 | 114° | 55km/h | 6803m | 3.8m/s | -22.1°C | 33.1% | 438.4hPa | 2.9V | 00:00:00 | 00:29:43 | 00:00:00 | |
| NBG1-10 | 2026-09-02 04:10:26 | 47.81686 | 11.01244 | 113° | 55km/h | 6773m | 8.6m/s | -21.8°C | 32.3% | 440.2hPa | 2.9V | 03:03:00 | 00:29:37 | 00:00:00 | |
| DO3MHA-12 | 2026-09-02 04:10:22 | 47.81706 | 11.01169 | 114° | 55km/h | 6751m | 5.5m/s | -21.6°C | 31.8% | 441.4hPa | 2.9V | 03:03:00 | 00:29:33 | 00:00:00 | |
| DB0ND-19 | 2026-09-02 04:10:21 | 47.81745 | 11.01012 | 107° | 62km/h | 6708m | 3.7m/s | 0°C | -1.0% | 443.8hPa | 2.7V | 00:00:00 | 00:00:00 | 00:00:00 | |
| DB0UT-7 | 2026-09-02 04:10:13 | 47.81749 | 11.00993 | 110° | 53km/h | 6704m | 4.0m/s | 0°C | 0% | 0hPa | 2.7V | 00:00:00 | 00:00:00 | 00:00:00 | |
| DO3MHA-11 | 2026-09-02 04:10:12 | 47.81753 | 11.00976 | 109° | 53km/h | 6699m | 5.5m/s | -21.1°C | 30.8% | 444.2hPa | 2.7V | 00:00:00 | 00:29:23 | 00:00:00 | |
| DG1MFX-10 | 2026-09-02 04:10:10 | 47.81756 | 11.00958 | 100° | 42km/h | 6692m | 5.3m/s | -21.1°C | 0% | 0hPa | 2.7V | 00:00:00 | 00:00:00 | 00:00:00 | |
| OE5DXL-15 | 2026-09-02 04:10:07 | 47.81779 | 11.00881 | 124° | 53km/h | 6670m | 6.2m/s | -20.9°C | 30.0% | 445.6hPa | 2.7V | 00:00:00 | 00:00:00 | 00:00:00 | |
| DO3MHA-11 | 2026-09-02 04:10:02 | 47.81803 | 11.00789 | 113° | 51km/h | 6645m | 3.0m/s | -20.7°C | 30.5% | 447.2hPa | 2.7V | 00:00:00 | 00:29:13 | 00:00:00 | |
| DO3MHA-12 | 2026-09-02 04:09:52 | 47.81853 | 11.00617 | 123° | 51km/h | 6588m | 4.6m/s | -20.1°C | 28.9% | 450.7hPa | 2.7V | 00:00:00 | 00:29:03 | 00:00:00 | |
| DG1MFX-10 | 2026-09-02 04:09:49 | 47.81862 | 11.00580 | 136° | 40km/h | 6578m | 3.8m/s | -20.0°C | 0% | 0hPa | 2.9V | 00:00:00 | 00:00:00 | 00:00:00 | |
| DB0UT-7 | 2026-09-02 04:09:43 | 47.81900 | 11.00462 | 100° | 49km/h | 6553m | 6.3m/s | 0°C | 0% | 0hPa | 2.9V | 03:04:00 | 00:28:54 | 00:00:00 | |
| DO3MHA-11 | 2026-09-02 04:09:42 | 47.81904 | 11.00441 | 113° | 51km/h | 6549m | 3.5m/s | -19.6°C | 28.5% | 454.0hPa | 2.9V | 03:04:00 | 00:28:53 | 00:00:00 | |
| OE5DXL-15 | 2026-09-02 04:09:37 | 47.81927 | 11.00353 | 94° | 51km/h | 6523m | 4.2m/s | -19.3°C | 28.0% | 455.7hPa | 2.9V | 00:00:00 | 00:00:00 | 00:00:00 | |
| DO3MHA-11 | 2026-09-02 04:09:32 | 47.81947 | 11.00268 | 110° | 51km/h | 6496m | 8.9m/s | -19.1°C | 27.5% | 457.1hPa | 2.9V | 00:00:00 | 00:28:43 | 00:00:00 | |
| DO3MHA-11 | 2026-09-02 04:09:22 | 47.81996 | 11.00091 | 96° | 55km/h | 6439m | 4.1m/s | -18.8°C | 30.0% | 460.4hPa | 2.9V | 00:00:00 | 00:28:33 | 00:00:00 | |
| NBG1-10 | 2026-09-02 04:09:19 | 47.82007 | 11.00029 | 93° | 57km/h | 6423m | 5.2m/s | -18.7°C | 30.9% | 461.4hPa | 2.9V | 00:00:00 | 00:28:30 | 00:00:00 | |
| DO3MHA-12 | 2026-09-02 04:09:12 | 47.82030 | 10.99893 | 103° | 53km/h | 6389m | 6.8m/s | -18.6°C | 37.6% | 463.8hPa | 2.9V | 00:00:00 | 00:28:23 | 00:00:00 | |
| DG1MJG | 2026-09-02 04:09:11 | 47.82030 | 10.99893 | 104° | 60km/h | 6389m | 6.8m/s | -18.7°C | 35.6% | 463.8hPa | 2.9V | 03:05:00 | 00:00:00 | 00:00:00 | |
| OE5DXL-15 | 2026-09-02 04:09:07 | 47.82044 | 10.99799 | 121° | 55km/h | 6362m | 8.5m/s | -18.4°C | 37.9% | 465.2hPa | 2.9V | 00:00:00 | 00:00:00 | 00:00:00 | |
| DL6DJ-15 | 2026-09-02 04:09:01 | 47.82068 | 10.99659 | 107° | 62km/h | 6317m | 2.0m/s | -18.1°C | 36.2% | 467.8hPa | 2.9V | 00:00:00 | 00:00:00 | 00:00:00 | |
| OE5DRO-10 | 2026-09-02 04:08:58 | 47.82075 | 10.99618 | 111° | 58km/h | 6307m | 4.9m/s | 0°C | 0% | 0hPa | 2.9V | 00:00:00 | 00:00:00 | 00:00:00 | |
| DO3MHA-11 | 2026-09-02 04:08:52 | 47.82097 | 10.99503 | 112° | 57km/h | 6274m | 4.7m/s | -17.7°C | 37.7% | 470.4hPa | 2.9V | 00:00:00 | 00:28:03 | 00:00:00 | |
| DG1MFX-10 | 2026-09-02 04:08:50 | 47.82102 | 10.99485 | 110° | 66km/h | 6270m | 3.3m/s | 0°C | 0% | 0hPa | 2.7V | 00:00:00 | 00:00:00 | 00:00:00 | |
| DB0ND-19 | 2026-09-02 04:08:48 | 47.82145 | 10.99305 | 111° | 53km/h | 6221m | 7.3m/s | 0°C | -1.0% | 473.7hPa | 2.7V | 00:00:00 | 00:00:00 | 00:00:00 | |
| DO3MHA-11 | 2026-09-02 04:08:42 | 47.82145 | 10.99305 | 112° | 57km/h | 6221m | 7.2m/s | -17.3°C | 36.5% | 473.7hPa | 2.7V | 00:00:00 | 00:27:53 | 00:00:00 | |
| DG1MJG | 2026-09-02 04:08:41 | 47.82145 | 10.99305 | 112° | 53km/h | 6221m | 7.3m/s | -17.3°C | 34.6% | 473.7hPa | 2.7V | 03:06:00 | 00:00:00 | 00:00:00 | |
| OE5DXL-15 | 2026-09-02 04:08:36 | 47.82171 | 10.99189 | 119° | 57km/h | 6193m | 3.0m/s | -17.0°C | 35.9% | 475.5hPa | 2.7V | 03:05:00 | 00:00:00 | 00:00:00 | |
| DO3MHA-12 | 2026-09-02 04:08:32 | 47.82192 | 10.99105 | 97° | 60km/h | 6176m | 3.5m/s | -16.8°C | 35.4% | 476.6hPa | 2.7V | 00:00:00 | 00:27:43 | 00:00:00 | |
| DG1MFX-10 | 2026-09-02 04:08:29 | 47.82204 | 10.99064 | 108° | 73km/h | 6163m | 3.3m/s | 0°C | 0% | 0hPa | 2.7V | 00:00:00 | 00:00:00 | 00:00:00 | |
| NBG1-10 | 2026-09-02 04:08:24 | 47.82238 | 10.98935 | 104° | 58km/h | 6130m | 2.2m/s | -16.7°C | 39.8% | 479.3hPa | 2.7V | 00:00:00 | 00:27:35 | 00:00:00 | |
| DO3MHA-11 | 2026-09-02 04:08:22 | 47.82245 | 10.98894 | 118° | 57km/h | 6122m | 2.3m/s | -16.6°C | 39.0% | 480.0hPa | 2.7V | 03:05:00 | 00:27:33 | 00:00:00 | |
| DB0ND-19 | 2026-09-02 04:08:17 | 47.82266 | 10.98795 | 103° | 62km/h | 6095m | 2.2m/s | 0°C | -1.0% | 481.9hPa | 2.9V | 00:00:00 | 00:00:00 | 00:00:00 | |
| DO3MHA-11 | 2026-09-02 04:08:12 | 47.82287 | 10.98695 | 108° | 57km/h | 6075m | 0.9m/s | -16.1°C | 32.0% | 483.3hPa | 2.9V | 00:00:00 | 00:27:23 | 00:00:00 | |
| DG1MJG | 2026-09-02 04:08:10 | 47.82289 | 10.98671 | 85° | 64km/h | 6072m | 5.8m/s | -16.1°C | 27.8% | 483.6hPa | 2.9V | 03:06:00 | 00:00:00 | 00:00:00 | |
| OE5DXL-15 | 2026-09-02 04:08:06 | 47.82314 | 10.98577 | 107° | 60km/h | 6054m | 5.3m/s | -16.0°C | 25.6% | 485.2hPa | 2.9V | 00:00:00 | 00:00:00 | 00:00:00 | |
| DL6DJ-15 | 2026-09-02 04:07:59 | 47.82383 | 10.98298 | 106° | 69km/h | 5975m | 6.1m/s | -16.6°C | 41.0% | 490.2hPa | 2.9V | 00:00:00 | 00:00:00 | 00:00:00 | |
| DO3MHA-12 | 2026-09-02 04:07:52 | 47.82383 | 10.98297 | 107° | 66km/h | 5975m | 6.0m/s | -16.6°C | 43.1% | 490.2hPa | 2.9V | 00:00:00 | 00:27:03 | 00:00:00 | |
| NBG1-10 | 2026-09-02 04:07:51 | 47.82389 | 10.98275 | 114° | 62km/h | 5969m | 4.5m/s | -16.7°C | 46.6% | 490.5hPa | 2.9V | 03:06:00 | 00:27:02 | 00:00:00 | |
| DO3MHA-11 | 2026-09-02 04:07:42 | 47.82442 | 10.98074 | 108° | 64km/h | 5922m | 4.5m/s | -16.6°C | 55.6% | 493.4hPa | 2.9V | 03:06:00 | 00:26:53 | 00:00:00 | |
| DG1MJG | 2026-09-02 04:07:40 | 47.82451 | 10.98027 | 104° | 55km/h | 5914m | 4.0m/s | -16.6°C | 56.6% | 494.0hPa | 2.9V | 03:06:00 | 00:00:00 | 00:00:00 | |
| DG1MFX-10 | 2026-09-02 04:07:38 | 47.82454 | 10.98007 | 102° | 55km/h | 5911m | 2.3m/s | 0°C | 0% | 0hPa | 2.9V | 03:06:00 | 00:00:00 | 00:00:00 | |
| OE5DXL-15 | 2026-09-02 04:07:36 | 47.82471 | 10.97942 | 118° | 60km/h | 5894m | 13.5m/s | -16.5°C | 61.8% | 495.1hPa | 2.9V | 00:00:00 | 00:00:00 | 00:00:00 | |
| DO3MHA-11 | 2026-09-02 04:07:32 | 47.82491 | 10.97851 | 100° | 64km/h | 5865m | 4.4m/s | -16.4°C | 61.4% | 496.5hPa | 2.9V | 00:00:00 | 00:26:43 | 00:00:00 | |
| DL6DJ-15 | 2026-09-02 04:07:28 | 47.82528 | 10.97714 | 117° | 55km/h | 5824m | 10.8m/s | -16.2°C | 58.7% | 499.0hPa | 2.9V | 00:00:00 | 00:00:00 | 00:00:00 | |
| DO3MHA-12 | 2026-09-02 04:07:22 | 47.82551 | 10.97629 | 94° | 55km/h | 5792m | 6.4m/s | -16.0°C | 66.8% | 501.1hPa | 2.9V | 00:00:00 | 00:26:33 | 00:00:00 | |
| NBG1-10 | 2026-09-02 04:07:14 | 47.82582 | 10.97478 | 96° | 55km/h | 5743m | 5.0m/s | -15.7°C | 63.8% | 504.7hPa | 2.9V | 00:00:00 | 00:26:25 | 00:00:00 | |
| DO3MHA-12 | 2026-09-02 04:07:12 | 47.82594 | 10.97442 | 99° | 57km/h | 5730m | 7.5m/s | -15.6°C | 65.4% | 505.6hPa | 2.9V | 00:00:00 | 00:26:23 | 00:00:00 | |
| DG1MJG | 2026-09-02 04:07:09 | 47.82602 | 10.97398 | 109° | 57km/h | 5719m | 4.6m/s | -15.6°C | 65.3% | 506.5hPa | 2.9V | 03:06:00 | 00:00:00 | 00:00:00 | |
| OE5DXL-15 | 2026-09-02 04:07:06 | 47.82617 | 10.97319 | 87° | 53km/h | 5699m | 5.7m/s | -15.4°C | 68.8% | 507.9hPa | 2.9V | 00:00:00 | 00:00:00 | 00:00:00 | |
| DL6DJ-15 | 2026-09-02 04:06:56 | 47.82645 | 10.97117 | 103° | 53km/h | 5635m | 4.8m/s | -15.0°C | 77.2% | 512.4hPa | 2.9V | 00:00:00 | 00:00:00 | 00:00:00 | |
| DO3MHA-11 | 2026-09-02 04:06:52 | 47.82659 | 10.97059 | 115° | 53km/h | 5618m | 5.5m/s | -14.8°C | 78.6% | 513.4hPa | 2.9V | 00:00:00 | 00:26:03 | 00:00:00 | |
| DB0ND-19 | 2026-09-02 04:06:44 | 47.82688 | 10.96865 | 110° | 66km/h | 5572m | 3.2m/s | 0°C | -1.0% | -1.0hPa | 2.9V | 00:00:00 | 00:00:00 | 00:00:00 | |
| DO3MHA-12 | 2026-09-02 04:06:42 | 47.82688 | 10.96865 | 111° | 49km/h | 5572m | 3.1m/s | -14.3°C | 74.7% | 517.0hPa | 2.9V | 00:00:00 | 00:25:53 | 00:00:00 | |
| DO3MHA-11 | 2026-09-02 04:06:41 | 47.82694 | 10.96846 | 123° | 47km/h | 5568m | 5.8m/s | -14.3°C | 74.4% | 517.2hPa | 2.9V | 00:00:00 | 00:25:52 | 00:00:00 | |
| DG1MJG | 2026-09-02 04:06:39 | 47.82698 | 10.96830 | 93° | 49km/h | 5564m | 4.4m/s | -14.3°C | 71.7% | 517.7hPa | 2.9V | 03:07:00 | 00:00:00 | 00:00:00 | |
| OE5DXL-15 | 2026-09-02 04:06:36 | 47.82705 | 10.96767 | 90° | 51km/h | 5543m | 4.1m/s | -14.1°C | 74.6% | 518.9hPa | 2.9V | 03:07:00 | 00:00:00 | 00:00:00 | |
| DO3MHA-12 | 2026-09-02 04:06:32 | 47.82717 | 10.96688 | 103° | 51km/h | 5523m | 5.0m/s | -13.9°C | 75.1% | 520.3hPa | 2.9V | 00:00:00 | 00:25:43 | 00:00:00 | |
| DO3MHA-11 | 2026-09-02 04:06:30 | 47.82720 | 10.96654 | 80° | 57km/h | 5514m | 5.8m/s | -13.8°C | 75.0% | 520.9hPa | 2.9V | 00:00:00 | 00:25:41 | 00:00:00 | |
| DL6DJ-15 | 2026-09-02 04:06:25 | 47.82735 | 10.96560 | 97° | 47km/h | 5482m | 7.4m/s | -13.6°C | -1.0% | 522.8hPa | 2.9V | 00:00:00 | 00:00:00 | 00:00:00 | |
| DO3MHA-12 | 2026-09-02 04:06:22 | 47.82746 | 10.96509 | 110° | 55km/h | 5466m | 4.0m/s | -13.4°C | 79.7% | 523.9hPa | 2.9V | 03:07:00 | 00:25:33 | 00:00:00 | |
| DO3MHA-11 | 2026-09-02 04:06:20 | 47.82752 | 10.96463 | 75° | 51km/h | 5457m | 8.3m/s | -13.4°C | 77.4% | 524.5hPa | 2.9V | 03:07:00 | 00:25:31 | 00:00:00 | |
| DB0ND-19 | 2026-09-02 04:06:13 | 47.82781 | 10.96329 | 101° | 53km/h | 5409m | 7.4m/s | 0°C | -1.0% | -1.0hPa | 2.9V | 00:00:00 | 00:00:00 | 00:00:00 | |
| DO3MHA-12 | 2026-09-02 04:06:12 | 47.82780 | 10.96329 | 102° | 53km/h | 5410m | 7.4m/s | -13.0°C | 75.0% | 527.8hPa | 2.9V | 00:00:00 | 00:25:23 | 00:00:00 | |
| DO3MHA-11 | 2026-09-02 04:06:10 | 47.82786 | 10.96293 | 113° | 53km/h | 5399m | 2.8m/s | -12.9°C | 75.3% | 528.5hPa | 2.9V | 00:00:00 | 00:25:21 | 00:00:00 | |
| DG1MJG | 2026-09-02 04:06:08 | 47.82789 | 10.96271 | 93° | 69km/h | 5395m | 7.0m/s | -12.9°C | 71.6% | 528.6hPa | 2.9V | 03:08:00 | 00:00:00 | 00:00:00 | |
| NBG1-10 | 2026-09-02 04:06:06 | 47.82802 | 10.96214 | 106° | 49km/h | 5375m | 6.4m/s | -12.7°C | 77.5% | 530.0hPa | 2.9V | 00:00:00 | 00:25:17 | 00:00:00 | |
| DL6DJ-15 | 2026-09-02 04:05:54 | 47.82846 | 10.96012 | 105° | 53km/h | 5309m | 5.3m/s | -12.2°C | -1.0% | 534.6hPa | 2.9V | 00:00:00 | 00:00:00 | 00:00:00 | |
| DO3MHA-12 | 2026-09-02 04:05:52 | 47.82852 | 10.95981 | 110° | 47km/h | 5300m | 6.5m/s | -12.0°C | 73.2% | 535.2hPa | 2.9V | 00:00:00 | 00:25:03 | 00:00:00 | |
| DO3MHA-11 | 2026-09-02 04:05:50 | 47.82858 | 10.95947 | 102° | 47km/h | 5287m | 5.6m/s | -11.9°C | 73.0% | 536.0hPa | 2.9V | 00:00:00 | 00:25:01 | 00:00:00 | |
| DO3MHA-12 | 2026-09-02 04:05:42 | 47.82889 | 10.95817 | 104° | 55km/h | 5241m | 4.3m/s | -11.5°C | 71.1% | 538.9hPa | 2.9V | 03:08:00 | 00:24:53 | 00:00:00 | |
| DO3MHA-11 | 2026-09-02 04:05:40 | 47.82899 | 10.95778 | 100° | 55km/h | 5234m | 3.6m/s | -11.4°C | 70.6% | 539.8hPa | 2.9V | 03:08:00 | 00:24:51 | 00:00:00 | |
| DG1MJG | 2026-09-02 04:05:37 | 47.82911 | 10.95745 | 108° | 66km/h | 5224m | 5.4m/s | -11.3°C | 66.9% | 540.6hPa | 2.9V | 03:08:00 | 00:00:00 | 00:00:00 | |
| OE5DXL-15 | 2026-09-02 04:05:36 | 47.82920 | 10.95715 | 126° | 51km/h | 5214m | 7.5m/s | -11.1°C | 68.9% | 541.5hPa | 2.9V | 00:00:00 | 00:00:00 | 00:00:00 | |
| NBG1-10 | 2026-09-02 04:05:32 | 47.82938 | 10.95636 | 97° | 49km/h | 5196m | 5.6m/s | -10.9°C | 68.3% | 542.9hPa | 2.9V | 03:08:00 | 00:24:43 | 00:00:00 | |
| DO3MHA-12 | 2026-09-02 04:05:31 | 47.82940 | 10.95618 | 99° | 46km/h | 5190m | 5.7m/s | -10.9°C | 68.0% | 543.2hPa | 2.9V | 00:00:00 | 00:24:42 | 00:00:00 | |
| DO3MHA-11 | 2026-09-02 04:05:30 | 47.82945 | 10.95604 | 133° | 46km/h | 5186m | 3.1m/s | -10.8°C | 68.2% | 544.0hPa | 2.9V | 00:00:00 | 00:24:41 | 00:00:00 | |
| DL6DJ-15 | 2026-09-02 04:05:23 | 47.82980 | 10.95482 | 106° | 46km/h | 5144m | 5.1m/s | 0°C | -1.0% | 546.5hPa | 2.9V | 00:00:00 | 00:00:00 | 00:00:00 | |
| DO3MHA-11 | 2026-09-02 04:05:20 | 47.82986 | 10.95442 | 86° | 55km/h | 5136m | 3.9m/s | -10.4°C | 66.1% | 546.9hPa | 2.9V | 00:00:00 | 00:24:31 | 00:00:00 | |
| DO3MHA-11 | 2026-09-02 04:05:10 | 47.83020 | 10.95264 | 118° | 46km/h | 5071m | 7.2m/s | -9.8°C | 46.6% | 551.2hPa | 2.9V | 00:00:00 | 00:24:21 | 00:00:00 | |
| DG1MJG | 2026-09-02 04:05:07 | 47.83026 | 10.95238 | 111° | 42km/h | 5058m | 6.8m/s | -9.7°C | 40.7% | 552.2hPa | 2.9V | 03:09:00 | 00:00:00 | 00:00:00 | |
| OE5DXL-15 | 2026-09-02 04:05:05 | 47.83032 | 10.95185 | 82° | 44km/h | 5042m | 2.7m/s | -9.5°C | 40.3% | 553.2hPa | 2.9V | 00:00:00 | 00:00:00 | 00:00:00 | |
| DO3MHA-11 | 2026-09-02 04:05:00 | 47.83046 | 10.95109 | 102° | 49km/h | 5012m | 3.7m/s | -9.3°C | 38.7% | 555.2hPa | 2.9V | 03:09:00 | 00:24:11 | 00:00:00 | |
| DO3MHA-12 | 2026-09-02 04:04:59 | 47.83050 | 10.95089 | 112° | 49km/h | 5007m | 6.6m/s | -9.3°C | 38.4% | 555.7hPa | 2.9V | 03:09:00 | 00:24:10 | 00:00:00 | |
| DO3MHA-11 | 2026-09-02 04:04:50 | 47.83093 | 10.94941 | 94° | 42km/h | 4963m | 3.2m/s | -9.1°C | 37.5% | 559.2hPa | 2.9V | 00:00:00 | 00:24:01 | 00:00:00 | |
| DO3MHA-12 | 2026-09-02 04:04:49 | 47.83094 | 10.94929 | 108° | 42km/h | 4958m | 5.2m/s | -9.1°C | 37.3% | 559.4hPa | 2.9V | 00:00:00 | 00:24:00 | 00:00:00 | |
| DG1MFX-10 | 2026-09-02 04:04:45 | 47.83108 | 10.94886 | 100° | 35km/h | 4944m | 3.6m/s | 0°C | 0% | 0hPa | 2.9V | 00:00:00 | 00:00:00 | 00:00:00 | |
| DO3MHA-11 | 2026-09-02 04:04:40 | 47.83127 | 10.94795 | 106° | 44km/h | 4917m | 6.2m/s | -8.7°C | 39.7% | 562.8hPa | 2.9V | 00:00:00 | 00:23:51 | 00:00:00 | |
| DO3MHA-12 | 2026-09-02 04:04:39 | 47.83130 | 10.94780 | 118° | 44km/h | 4912m | 4.1m/s | -8.7°C | 40.1% | 563.3hPa | 2.9V | 00:00:00 | 00:23:50 | 00:00:00 | |
| DG1MJG | 2026-09-02 04:04:36 | 47.83141 | 10.94751 | 113° | 53km/h | 4904m | 4.1m/s | -8.7°C | 39.5% | 564.0hPa | 2.9V | 03:09:00 | 00:00:00 | 00:00:00 | |
| OE5DXL-15 | 2026-09-02 04:04:35 | 47.83149 | 10.94717 | 90° | 46km/h | 4895m | 4.1m/s | -8.5°C | 40.4% | 564.7hPa | 2.9V | 03:09:00 | 00:00:00 | 00:00:00 | |
| DO3MHA-11 | 2026-09-02 04:04:30 | 47.83165 | 10.94643 | 133° | 47km/h | 4869m | 3.6m/s | -8.4°C | 40.6% | 566.6hPa | 2.9V | 00:00:00 | 00:23:41 | 00:00:00 | |
| DO3MHA-12 | 2026-09-02 04:04:29 | 47.83169 | 10.94627 | 99° | 49km/h | 4862m | 6.8m/s | -8.3°C | 41.4% | 567.0hPa | 2.9V | 00:00:00 | 00:23:40 | 00:00:00 | |
| NBG1-10 | 2026-09-02 04:04:26 | 47.83181 | 10.94575 | 90° | 47km/h | 4844m | 6.9m/s | -8.2°C | 37.6% | 568.1hPa | 2.9V | 00:00:00 | 00:23:37 | 00:00:00 | |
| DO3MHA-11 | 2026-09-02 04:04:20 | 47.83208 | 10.94476 | 118° | 42km/h | 4805m | 5.2m/s | -7.9°C | 32.2% | 570.6hPa | 2.9V | 03:09:00 | 00:23:31 | 00:00:00 | |
| DO3MHA-12 | 2026-09-02 04:04:19 | 47.83213 | 10.94460 | 100° | 40km/h | 4799m | 5.6m/s | -7.8°C | 31.1% | 570.9hPa | 2.9V | 03:09:00 | 00:23:30 | 00:00:00 | |
| DO3MHA-11 | 2026-09-02 04:04:10 | 47.83240 | 10.94328 | 117° | 46km/h | 4753m | 5.2m/s | -7.4°C | 27.8% | 574.4hPa | 2.9V | 00:00:00 | 00:23:21 | 00:00:00 | |
| DO3MHA-12 | 2026-09-02 04:04:09 | 47.83244 | 10.94312 | 97° | 49km/h | 4748m | 2.6m/s | -7.4°C | 27.7% | 574.8hPa | 2.9V | 00:00:00 | 00:23:20 | 00:00:00 | |
| DG1MJG | 2026-09-02 04:04:06 | 47.83255 | 10.94274 | 128° | 35km/h | 4738m | 6.0m/s | -7.3°C | 25.2% | 575.3hPa | 2.9V | 03:10:00 | 00:00:00 | 00:00:00 | |
| OE5DXL-15 | 2026-09-02 04:04:05 | 47.83259 | 10.94244 | 113° | 46km/h | 4727m | 7.1m/s | -7.2°C | 25.4% | 576.1hPa | 2.9V | 00:00:00 | 00:00:00 | 00:00:00 | |
| DO3MHA-11 | 2026-09-02 04:04:00 | 47.83277 | 10.94167 | 80° | 47km/h | 4706m | 7.3m/s | -6.9°C | 24.0% | 578.0hPa | 2.9V | 00:00:00 | 00:23:11 | 00:00:00 | |
| DO3MHA-12 | 2026-09-02 04:03:59 | 47.83279 | 10.94148 | 116° | 49km/h | 4700m | 6.2m/s | -6.9°C | 23.6% | 578.4hPa | 2.9V | 00:00:00 | 00:23:10 | 00:00:00 | |
| DO3MHA-11 | 2026-09-02 04:03:50 | 47.83318 | 10.94006 | 117° | 44km/h | 4656m | 7.9m/s | -6.5°C | 21.3% | 581.8hPa | 2.9V | 00:00:00 | 00:23:01 | 00:00:00 | |
| DO3MHA-12 | 2026-09-02 04:03:48 | 47.83321 | 10.93976 | 100° | 46km/h | 4645m | 7.3m/s | -6.5°C | 21.4% | 582.6hPa | 2.9V | 00:00:00 | 00:22:59 | 00:00:00 | |
| NBG1-10 | 2026-09-02 04:03:44 | 47.83335 | 10.93910 | 112° | 42km/h | 4624m | 5.4m/s | -6.3°C | 22.3% | 584.3hPa | 2.9V | 00:00:00 | 00:22:55 | 00:00:00 | |
| DG1MFX-10 | 2026-09-02 04:03:41 | 47.83342 | 10.93884 | 95° | 42km/h | 4613m | 5.4m/s | 0°C | 0% | 0hPa | 2.9V | 00:00:00 | 00:00:00 | 00:00:00 | |
| DO3MHA-11 | 2026-09-02 04:03:40 | 47.83347 | 10.93847 | 116° | 42km/h | 4601m | 4.0m/s | -6.2°C | 23.8% | 585.7hPa | 2.9V | 03:10:00 | 00:22:51 | 00:00:00 | |
| DO3MHA-12 | 2026-09-02 04:03:38 | 47.83356 | 10.93817 | 113° | 42km/h | 4591m | 3.8m/s | -6.1°C | 24.1% | 586.3hPa | 2.9V | 03:10:00 | 00:22:49 | 00:00:00 | |
| DG1MJG | 2026-09-02 04:03:35 | 47.83369 | 10.93786 | 114° | 53km/h | 4577m | 7.4m/s | -6.1°C | 24.1% | 587.3hPa | 2.9V | 03:11:00 | 00:00:00 | 00:00:00 | |
| OE5DXL-15 | 2026-09-02 04:03:34 | 47.83376 | 10.93761 | 134° | 38km/h | 4565m | 7.0m/s | -6.0°C | 27.7% | 588.2hPa | 2.9V | 00:00:00 | 00:00:00 | 00:00:00 | |
| DO3MHA-11 | 2026-09-02 04:03:30 | 47.83386 | 10.93704 | 101° | 42km/h | 4539m | 4.4m/s | -6.0°C | 37.7% | 590.1hPa | 2.9V | 00:00:00 | 00:22:41 | 00:00:00 | |
| DO3MHA-12 | 2026-09-02 04:03:28 | 47.83393 | 10.93672 | 115° | 38km/h | 4528m | 3.7m/s | -6.0°C | 40.4% | 590.8hPa | 2.9V | 00:00:00 | 00:22:39 | 00:00:00 | |
| DO3MHA-11 | 2026-09-02 04:03:20 | 47.83406 | 10.93559 | 104° | 35km/h | 4494m | 4.9m/s | -5.7°C | 44.3% | 593.8hPa | 2.9V | 00:00:00 | 00:22:31 | 00:00:00 | |
| DG1MFX-10 | 2026-09-02 04:03:18 | 47.83408 | 10.93550 | 121° | 24km/h | 4491m | 3.2m/s | 0°C | 0% | 0hPa | 2.9V | 00:00:00 | 00:00:00 | 00:00:00 | |
| NBG1-10 | 2026-09-02 04:03:11 | 47.83418 | 10.93444 | 103° | 44km/h | 4444m | 5.4m/s | -5.3°C | 46.4% | 597.7hPa | 2.9V | 03:10:00 | 00:22:22 | 00:00:00 | |
| DO3MHA-11 | 2026-09-02 04:03:10 | 47.83419 | 10.93430 | 100° | 38km/h | 4439m | 6.2m/s | -5.2°C | 46.2% | 598.2hPa | 2.9V | 00:00:00 | 00:22:21 | 00:00:00 | |
| DO3MHA-12 | 2026-09-02 04:03:08 | 47.83419 | 10.93405 | 92° | 38km/h | 4429m | 3.4m/s | -5.2°C | 47.0% | 599.1hPa | 2.9V | 00:00:00 | 00:22:19 | 00:00:00 | |
| DG1MJG | 2026-09-02 04:03:04 | 47.83423 | 10.93362 | 84° | 35km/h | 4414m | 4.5m/s | -5.1°C | 45.8% | 600.4hPa | 2.9V | 03:11:00 | 00:00:00 | 00:00:00 | |
| OE5DXL-15 | 2026-09-02 04:03:03 | 47.83428 | 10.93336 | 108° | 44km/h | 4403m | 4.8m/s | -5.0°C | 47.9% | 601.1hPa | 2.9V | 00:00:00 | 00:00:00 | 00:00:00 | |
| DO3MHA-11 | 2026-09-02 04:03:00 | 47.83429 | 10.93290 | 106° | 42km/h | 4389m | 2.8m/s | -4.8°C | 48.5% | 602.3hPa | 2.9V | 03:11:00 | 00:22:11 | 00:00:00 | |
| DO3MHA-12 | 2026-09-02 04:02:58 | 47.83428 | 10.93263 | 107° | 44km/h | 4379m | 5.5m/s | -4.8°C | 49.2% | 602.9hPa | 2.9V | 03:11:00 | 00:22:09 | 00:00:00 | |
| DO3MHA-11 | 2026-09-02 04:02:50 | 47.83432 | 10.93131 | 117° | 46km/h | 4334m | 7.2m/s | -4.6°C | 48.6% | 606.2hPa | 2.9V | 00:00:00 | 00:22:01 | 00:00:00 | |
| DO3MHA-12 | 2026-09-02 04:02:48 | 47.83437 | 10.93106 | 88° | 51km/h | 4321m | 7.5m/s | -4.5°C | 47.9% | 607.2hPa | 2.9V | 00:00:00 | 00:21:59 | 00:00:00 | |
| DO3MHA-11 | 2026-09-02 04:02:40 | 47.83449 | 10.92963 | 109° | 47km/h | 4277m | 6.1m/s | -4.2°C | 45.1% | 610.4hPa | 2.9V | 00:00:00 | 00:21:51 | 00:00:00 | |
| DO3MHA-12 | 2026-09-02 04:02:38 | 47.83451 | 10.92927 | 91° | 46km/h | 4265m | 5.0m/s | -4.1°C | 44.5% | 611.3hPa | 2.9V | 00:00:00 | 00:21:49 | 00:00:00 | |
| DB0ND-19 | 2026-09-02 04:02:36 | 47.83448 | 10.92875 | 93° | 57km/h | 4248m | 7.4m/s | 0°C | -1.0% | -1.0hPa | 2.9V | 00:00:00 | 00:00:00 | 00:00:00 | |
| NBG1-10 | 2026-09-02 04:02:33 | 47.83450 | 10.92837 | 73° | 44km/h | 4237m | 3.6m/s | -4.0°C | 36.6% | 613.4hPa | 2.9V | 00:00:00 | 00:21:44 | 00:00:00 | |
| DO3MHA-11 | 2026-09-02 04:02:30 | 47.83460 | 10.92795 | 113° | 42km/h | 4218m | 7.9m/s | -3.8°C | 34.8% | 614.7hPa | 2.9V | 00:00:00 | 00:21:41 | 00:00:00 | |
| DO3MHA-12 | 2026-09-02 04:02:28 | 47.83463 | 10.92758 | 101° | 42km/h | 4207m | 6.3m/s | -3.8°C | 34.5% | 615.3hPa | 2.9V | 00:00:00 | 00:21:39 | 00:00:00 | |
| DO3MHA-11 | 2026-09-02 04:02:20 | 47.83478 | 10.92638 | 114° | 47km/h | 4160m | 4.0m/s | -3.4°C | 31.8% | 618.9hPa | 2.9V | 03:11:00 | 00:21:31 | 00:00:00 | |
| DO3MHA-12 | 2026-09-02 04:02:18 | 47.83478 | 10.92608 | 79° | 51km/h | 4150m | 4.2m/s | -3.3°C | 30.9% | 619.7hPa | 2.9V | 03:11:00 | 00:21:29 | 00:00:00 | |
| DO3MHA-11 | 2026-09-02 04:02:10 | 47.83493 | 10.92463 | 111° | 42km/h | 4105m | 3.9m/s | -3.2°C | 30.5% | 623.4hPa | 2.9V | 00:00:00 | 00:21:21 | 00:00:00 | |
| DO3MHA-12 | 2026-09-02 04:02:08 | 47.83493 | 10.92431 | 63° | 40km/h | 4094m | 1.6m/s | -3.1°C | 30.4% | 624.2hPa | 2.9V | 00:00:00 | 00:21:19 | 00:00:00 | |
| DG1MJG | 2026-09-02 04:02:03 | 47.83492 | 10.92375 | 114° | 47km/h | 4075m | 4.2m/s | -3.1°C | 30.0% | 626.1hPa | 2.9V | 03:12:00 | 00:00:00 | 00:00:00 | |
| OE5DXL-15 | 2026-09-02 04:02:02 | 47.83496 | 10.92349 | 122° | 42km/h | 4064m | 5.7m/s | -2.9°C | 30.9% | 626.8hPa | 2.9V | 00:00:00 | 00:00:00 | 00:00:00 | |
| DO3MHA-11 | 2026-09-02 04:02:00 | 47.83499 | 10.92314 | 86° | 44km/h | 4055m | 6.2m/s | -3.0°C | 32.2% | 627.7hPa | 2.9V | 00:00:00 | 00:21:11 | 00:00:00 | |
| DO3MHA-12 | 2026-09-02 04:01:58 | 47.83504 | 10.92282 | 100° | 42km/h | 4046m | 6.4m/s | -2.9°C | 32.3% | 628.6hPa | 2.9V | 00:00:00 | 00:21:09 | 00:00:00 | |
| DO3MHA-11 | 2026-09-02 04:01:50 | 47.83508 | 10.92157 | 100° | 40km/h | 4008m | 5.2m/s | -2.7°C | 32.8% | 631.7hPa | 2.9V | 00:00:00 | 00:21:01 | 00:00:00 | |
| DO3MHA-12 | 2026-09-02 04:01:48 | 47.83508 | 10.92126 | 93° | 40km/h | 3999m | 5.4m/s | -2.6°C | 32.3% | 632.5hPa | 2.9V | 00:00:00 | 00:20:59 | 00:00:00 | |
| DO3MHA-11 | 2026-09-02 04:01:40 | 47.83522 | 10.92010 | 105° | 42km/h | 3958m | 5.5m/s | -2.3°C | 31.8% | 635.7hPa | 2.9V | 03:12:00 | 00:20:51 | 00:00:00 | |
| DO3MHA-12 | 2026-09-02 04:01:38 | 47.83523 | 10.91978 | 96° | 37km/h | 3949m | 5.1m/s | -2.2°C | 31.2% | 636.4hPa | 2.9V | 03:12:00 | 00:20:49 | 00:00:00 | |
| DG1MJG | 2026-09-02 04:01:33 | 47.83533 | 10.91918 | 107° | 44km/h | 3930m | 5.7m/s | -2.1°C | 28.5% | 638.1hPa | 2.9V | 03:12:00 | 00:00:00 | 00:00:00 | |
| OE5DXL-15 | 2026-09-02 04:01:32 | 47.83534 | 10.91888 | 104° | 40km/h | 3920m | 4.4m/s | -2.0°C | 29.0% | 638.9hPa | 2.9V | 00:00:00 | 00:00:00 | 00:00:00 | |
| DO3MHA-11 | 2026-09-02 04:01:30 | 47.83539 | 10.91864 | 114° | 37km/h | 3912m | 7.0m/s | -1.9°C | 29.1% | 639.6hPa | 2.9V | 00:00:00 | 00:20:41 | 00:00:00 | |
| DO3MHA-12 | 2026-09-02 04:01:28 | 47.83539 | 10.91842 | 92° | 40km/h | 3902m | 6.8m/s | -1.9°C | 29.7% | 640.4hPa | 2.9V | 00:00:00 | 00:20:39 | 00:00:00 | |
| NBG1-10 | 2026-09-02 04:01:22 | 47.83545 | 10.91754 | 120° | 40km/h | 3871m | 7.7m/s | -1.6°C | 32.2% | 643.2hPa | 2.9V | 00:00:00 | 00:20:33 | 00:00:00 | |
| DO3MHA-11 | 2026-09-02 04:01:20 | 47.83552 | 10.91729 | 114° | 40km/h | 3861m | 4.7m/s | -1.6°C | 32.3% | 643.9hPa | 2.9V | 00:00:00 | 00:20:31 | 00:00:00 | |
| DO3MHA-12 | 2026-09-02 04:01:18 | 47.83564 | 10.91702 | 100° | 42km/h | 3853m | 9.7m/s | -1.5°C | 32.1% | 644.8hPa | 2.9V | 00:00:00 | 00:20:29 | 00:00:00 | |
| DO3MHA-11 | 2026-09-02 04:01:10 | 47.83568 | 10.91587 | 78° | 42km/h | 3802m | 6.0m/s | -1.2°C | 38.0% | 648.6hPa | 2.9V | 00:00:00 | 00:20:21 | 00:00:00 | |
| DO3MHA-12 | 2026-09-02 04:01:07 | 47.83570 | 10.91535 | 95° | 40km/h | 3784m | 6.3m/s | -1.1°C | 41.2% | 649.9hPa | 2.9V | 00:00:00 | 00:20:18 | 00:00:00 | |
| OE5DXL-15 | 2026-09-02 04:01:02 | 47.83578 | 10.91466 | 78° | 46km/h | 3755m | 6.1m/s | -0.9°C | 40.2% | 651.9hPa | 2.9V | 00:00:00 | 00:00:00 | 00:00:00 | |
| DO3MHA-11 | 2026-09-02 04:01:00 | 47.83577 | 10.91434 | 96° | 40km/h | 3743m | 6.5m/s | -0.8°C | 38.9% | 652.9hPa | 2.9V | 03:13:00 | 00:20:11 | 00:00:00 | |
| DO3MHA-12 | 2026-09-02 04:00:57 | 47.83581 | 10.91394 | 97° | 42km/h | 3727m | 7.4m/s | -0.6°C | 35.6% | 653.9hPa | 2.9V | 03:13:00 | 00:20:08 | 00:00:00 | |
| DO3MHA-11 | 2026-09-02 04:00:50 | 47.83586 | 10.91285 | 74° | 44km/h | 3693m | 6.9m/s | -0.3°C | 28.8% | 656.9hPa | 2.9V | 00:00:00 | 00:20:01 | 00:00:00 | |
| NBG1-10 | 2026-09-02 04:00:48 | 47.83588 | 10.91251 | 91° | 37km/h | 3682m | 4.9m/s | -0.2°C | 27.2% | 657.9hPa | 2.9V | 03:13:00 | 00:19:59 | 00:00:00 | |
| DO3MHA-12 | 2026-09-02 04:00:47 | 47.83591 | 10.91238 | 114° | 44km/h | 3677m | 5.6m/s | -0.1°C | 27.1% | 658.2hPa | 2.9V | 00:00:00 | 00:19:58 | 00:00:00 | |
| DO3MHA-11 | 2026-09-02 04:00:40 | 47.83593 | 10.91124 | 98° | 51km/h | 3639m | 5.6m/s | 0.0°C | 24.2% | 661.3hPa | 2.9V | 00:00:00 | 00:19:51 | 00:00:00 | |
| DO3MHA-12 | 2026-09-02 04:00:37 | 47.83605 | 10.91075 | 112° | 51km/h | 3625m | 3.8m/s | 0.1°C | 24.3% | 662.5hPa | 2.9V | 00:00:00 | 00:19:48 | 00:00:00 | |
| OE5DXL-15 | 2026-09-02 04:00:32 | 47.83603 | 10.90974 | 102° | 46km/h | 3596m | 8.2m/s | 0.4°C | 22.5% | 665.0hPa | 2.9V | 03:13:00 | 00:00:00 | 00:00:00 | |
| DG1MJG | 2026-09-02 04:00:31 | 47.83603 | 10.90973 | 103° | 49km/h | 3596m | 8.3m/s | 0.4°C | 22.1% | 665.1hPa | 2.9V | 03:13:00 | 00:00:00 | 00:00:00 | |
| DO3MHA-11 | 2026-09-02 04:00:30 | 47.83606 | 10.90945 | 96° | 42km/h | 3585m | 8.4m/s | 0.4°C | 21.2% | 666.1hPa | 2.9V | 00:00:00 | 00:19:41 | 00:00:00 | |
| DO3MHA-12 | 2026-09-02 04:00:27 | 47.83611 | 10.90895 | 110° | 46km/h | 3571m | 4.8m/s | 0.4°C | 24.6% | 667.2hPa | 2.9V | 00:00:00 | 00:19:38 | 00:00:00 | |
| DO3MHA-11 | 2026-09-02 04:00:20 | 47.83624 | 10.90790 | 109° | 47km/h | 3541m | 5.2m/s | 0.6°C | 24.1% | 669.9hPa | 2.9V | 03:13:00 | 00:19:31 | 00:00:00 | |
| DO3MHA-12 | 2026-09-02 04:00:17 | 47.83631 | 10.90732 | 84° | 42km/h | 3521m | 9.5m/s | 0.8°C | 22.3% | 671.4hPa | 2.9V | 03:13:00 | 00:19:28 | 00:00:00 | |
| NBG1-10 | 2026-09-02 04:00:11 | 47.83636 | 10.90641 | 108° | 44km/h | 3487m | 4.6m/s | 1.0°C | 19.4% | 674.4hPa | 2.9V | 00:00:00 | 00:19:22 | 00:00:00 | |
| DO3MHA-11 | 2026-09-02 04:00:10 | 47.83639 | 10.90625 | 96° | 44km/h | 3482m | 6.4m/s | 1.1°C | 17.8% | 674.7hPa | 2.9V | 00:00:00 | 00:19:21 | 00:00:00 | |
| DO3MHA-12 | 2026-09-02 04:00:06 | 47.83639 | 10.90558 | 98° | 40km/h | 3464m | 4.4m/s | 1.2°C | 15.4% | 676.1hPa | 2.9V | 00:00:00 | 00:19:17 | 00:00:00 | |
| OE5DXL-15 | 2026-09-02 04:00:02 | 47.83631 | 10.90488 | 69° | 40km/h | 3440m | 7.4m/s | 0°C | 0% | 0hPa | 2.9V | 00:00:00 | 00:00:00 | 00:00:00 | |
| DO3MHA-11 | 2026-09-02 04:00:00 | 47.83634 | 10.90464 | 97° | 40km/h | 3428m | 4.7m/s | 1.5°C | 13.4% | 679.2hPa | 2.9V | 00:00:00 | 00:19:11 | 00:00:00 | |
| DO3MHA-12 | 2026-09-02 03:59:56 | 47.83641 | 10.90414 | 115° | 44km/h | 3403m | 7.0m/s | 1.6°C | 17.7% | 681.3hPa | 2.9V | 00:00:00 | 00:19:07 | 00:00:00 | |
| DO3MHA-11 | 2026-09-02 03:59:50 | 47.83645 | 10.90314 | 112° | 42km/h | 3370m | 7.6m/s | 1.7°C | 24.7% | 684.1hPa | 2.9V | 00:00:00 | 00:19:01 | 00:00:00 | |
| DO3MHA-12 | 2026-09-02 03:59:46 | 47.83649 | 10.90253 | 97° | 42km/h | 3348m | 3.4m/s | 1.8°C | 26.7% | 686.1hPa | 2.9V | 00:00:00 | 00:18:57 | 00:00:00 | |
| DO3MHA-11 | 2026-09-02 03:59:40 | 47.83658 | 10.90160 | 75° | 38km/h | 3315m | 8.4m/s | 2.2°C | 12.5% | 688.7hPa | 2.9V | 03:14:00 | 00:18:51 | 00:00:00 | |
| DO3MHA-12 | 2026-09-02 03:59:36 | 47.83652 | 10.90099 | 98° | 40km/h | 3292m | 4.7m/s | 2.2°C | 13.3% | 690.8hPa | 2.9V | 03:14:00 | 00:18:47 | 00:00:00 | |
| OE5DXL-15 | 2026-09-02 03:59:32 | 47.83656 | 10.90043 | 110° | 40km/h | 3268m | 5.3m/s | 0°C | 0% | 0hPa | 2.9V | 00:00:00 | 00:00:00 | 00:00:00 | |
| DO3MHA-11 | 2026-09-02 03:59:30 | 47.83658 | 10.90019 | 97° | 40km/h | 3259m | 5.2m/s | 2.4°C | 13.3% | 693.8hPa | 2.9V | 00:00:00 | 00:18:41 | 00:00:00 | |
| DG1MJG | 2026-09-02 03:59:29 | 47.83658 | 10.90019 | 98° | 37km/h | 3259m | 5.3m/s | 2.5°C | 13.1% | 693.8hPa | 2.9V | 03:15:00 | 00:00:00 | 00:00:00 | |
| DO3MHA-12 | 2026-09-02 03:59:26 | 47.83659 | 10.89952 | 70° | 40km/h | 3239m | 5.6m/s | 2.6°C | 13.6% | 695.5hPa | 2.9V | 00:00:00 | 00:18:37 | 00:00:00 | |
| DO3MHA-11 | 2026-09-02 03:59:20 | 47.83656 | 10.89870 | 82° | 40km/h | 3200m | 7.5m/s | 2.8°C | 14.1% | 698.7hPa | 2.9V | 00:00:00 | 00:18:31 | 00:00:00 | |
| DO3MHA-12 | 2026-09-02 03:59:16 | 47.83663 | 10.89806 | 105° | 38km/h | 3177m | 7.0m/s | 2.9°C | 14.7% | 700.8hPa | 2.9V | 00:00:00 | 00:18:27 | 00:00:00 | |
| DO3MHA-11 | 2026-09-02 03:59:10 | 47.83659 | 10.89731 | 102° | 38km/h | 3142m | 5.2m/s | 3.2°C | 15.7% | 704.0hPa | 2.9V | 00:00:00 | 00:18:21 | 00:00:00 | |
| DO3MHA-12 | 2026-09-02 03:59:06 | 47.83670 | 10.89672 | 103° | 38km/h | 3118m | 8.9m/s | 3.3°C | 17.8% | 706.0hPa | 2.9V | 00:00:00 | 00:18:17 | 00:00:00 | |
| OE5DXL-15 | 2026-09-02 03:59:02 | 47.83666 | 10.89618 | 75° | 37km/h | 3096m | 2.1m/s | 0°C | 0% | 0hPa | 2.9V | 00:00:00 | 00:18:13 | 00:00:00 | |
| DO3MHA-11 | 2026-09-02 03:59:00 | 47.83668 | 10.89595 | 106° | 42km/h | 3088m | 4.8m/s | 3.4°C | 21.5% | 708.9hPa | 2.9V | 03:15:00 | 00:18:11 | 00:00:00 | |
| DG1MJG | 2026-09-02 03:58:58 | 47.83670 | 10.89581 | 99° | 40km/h | 3083m | 7.7m/s | 3.5°C | 22.7% | 709.3hPa | 2.9V | 03:15:00 | 00:00:00 | 00:00:00 | |
| DO3MHA-12 | 2026-09-02 03:58:55 | 47.83658 | 10.89520 | 64° | 40km/h | 3053m | 5.3m/s | 3.5°C | 27.3% | 711.6hPa | 2.9V | 03:15:00 | 00:18:06 | 00:00:00 | |
| DO3MHA-11 | 2026-09-02 03:58:50 | 47.83647 | 10.89449 | 83° | 37km/h | 3027m | 7.6m/s | 3.5°C | 30.4% | 714.1hPa | 2.9V | 00:00:00 | 00:18:01 | 00:00:00 | |
| DO3MHA-12 | 2026-09-02 03:58:45 | 47.83634 | 10.89382 | 80° | 35km/h | 2999m | 6.0m/s | 3.6°C | 32.6% | 716.6hPa | 2.9V | 00:00:00 | 00:17:56 | 00:00:00 | |
| DO3MHA-11 | 2026-09-02 03:58:40 | 47.83623 | 10.89323 | 76° | 35km/h | 2972m | 4.8m/s | 3.6°C | 33.6% | 719.0hPa | 2.9V | 00:00:00 | 00:17:51 | 00:00:00 | |
| DO3MHA-12 | 2026-09-02 03:58:35 | 47.83610 | 10.89266 | 32° | 31km/h | 2949m | 2.6m/s | 3.8°C | 33.6% | 720.9hPa | 2.9V | 00:00:00 | 00:17:46 | 00:00:00 | |
| OE5DXL-15 | 2026-09-02 03:58:32 | 47.83601 | 10.89232 | 98° | 37km/h | 2924m | 7.1m/s | 0°C | 0% | 0hPa | 2.9V | 00:00:00 | 00:00:00 | 00:00:00 | |
| DO3MHA-11 | 2026-09-02 03:58:30 | 47.83603 | 10.89202 | 100° | 29km/h | 2912m | 7.0m/s | 4.1°C | 33.7% | 724.1hPa | 2.9V | 00:00:00 | 00:17:41 | 00:00:00 | |
| NBG1-10 | 2026-09-02 03:58:29 | 47.83602 | 10.89189 | 66° | 26km/h | 2904m | 8.9m/s | 0°C | 0% | 0hPa | 2.9V | 00:00:00 | 00:17:40 | 00:00:00 | |
| DG1MJG | 2026-09-02 03:58:27 | 47.83597 | 10.89182 | 36° | 27km/h | 2897m | 4.5m/s | 4.2°C | 33.2% | 725.3hPa | 2.9V | 03:16:00 | 00:00:00 | 00:00:00 | |
| DO3MHA-12 | 2026-09-02 03:58:25 | 47.83592 | 10.89161 | 99° | 37km/h | 2877m | 8.3m/s | 4.3°C | 33.8% | 726.9hPa | 2.9V | 00:00:00 | 00:17:36 | 00:00:00 | |
| DO3MHA-11 | 2026-09-02 03:58:20 | 47.83588 | 10.89101 | 85° | 33km/h | 2846m | 3.6m/s | 4.5°C | 33.9% | 729.7hPa | 2.9V | 03:15:00 | 00:17:31 | 00:00:00 | |
| DO3MHA-12 | 2026-09-02 03:58:15 | 47.83565 | 10.89040 | 60° | 29km/h | 2814m | 8.0m/s | 4.7°C | 34.3% | 732.6hPa | 2.9V | 03:15:00 | 00:17:26 | 00:00:00 | |
| DO3MHA-11 | 2026-09-02 03:58:10 | 47.83562 | 10.88998 | 43° | 29km/h | 2785m | 5.6m/s | 4.9°C | 34.9% | 735.1hPa | 2.9V | 00:00:00 | 00:17:21 | 00:00:00 | |
| DO3MHA-12 | 2026-09-02 03:58:05 | 47.83548 | 10.88942 | 83° | 26km/h | 2757m | 6.0m/s | 5.1°C | 34.5% | 737.7hPa | 2.9V | 00:00:00 | 00:17:16 | 00:00:00 | |
| DO3MHA-11 | 2026-09-02 03:58:00 | 47.83536 | 10.88908 | 75° | 27km/h | 2734m | 4.7m/s | 5.2°C | 34.7% | 739.5hPa | 2.9V | 00:00:00 | 00:17:11 | 00:00:00 | |
| DG1MJG | 2026-09-02 03:57:57 | 47.83534 | 10.88890 | 11° | 24km/h | 2722m | 6.7m/s | 5.4°C | 33.9% | 740.7hPa | 2.9V | 03:16:00 | 00:00:00 | 00:00:00 | |
| DO3MHA-12 | 2026-09-02 03:57:55 | 47.83525 | 10.88860 | 75° | 31km/h | 2707m | 6.6m/s | 5.4°C | 34.5% | 742.5hPa | 2.9V | 00:00:00 | 00:17:06 | 00:00:00 | |
| DO3MHA-11 | 2026-09-02 03:57:50 | 47.83514 | 10.88814 | 50° | 29km/h | 2686m | 4.7m/s | 5.6°C | 34.7% | 744.7hPa | 2.9V | 00:00:00 | 00:17:01 | 00:00:00 | |
| DO3MHA-12 | 2026-09-02 03:57:45 | 47.83503 | 10.88760 | 119° | 27km/h | 2658m | 4.0m/s | 5.8°C | 34.2% | 747.0hPa | 2.9V | 00:00:00 | 00:16:56 | 00:00:00 | |
| DO3MHA-11 | 2026-09-02 03:57:40 | 47.83490 | 10.88712 | 83° | 29km/h | 2625m | 6.3m/s | 6.0°C | 33.5% | 750.0hPa | 2.9V | 03:16:00 | 00:16:51 | 00:00:00 | |
| DO3MHA-12 | 2026-09-02 03:57:35 | 47.83485 | 10.88660 | 22° | 24km/h | 2593m | 4.9m/s | 6.0°C | 34.2% | 753.0hPa | 2.9V | 03:16:00 | 00:16:46 | 00:00:00 | |
| DO3MHA-11 | 2026-09-02 03:57:30 | 47.83467 | 10.88621 | 100° | 22km/h | 2562m | 2.7m/s | 5.8°C | 37.7% | 755.8hPa | 2.9V | 00:00:00 | 00:16:41 | 00:00:00 | |
| DG1MJG | 2026-09-02 03:57:27 | 47.83470 | 10.88605 | 109° | 18km/h | 2553m | 5.4m/s | 5.9°C | 38.0% | 756.6hPa | 2.9V | 03:17:00 | 00:00:00 | 00:00:00 | |
| DO3MHA-12 | 2026-09-02 03:57:25 | 47.83470 | 10.88588 | 346° | 27km/h | 2537m | 4.5m/s | 5.9°C | 36.7% | 758.0hPa | 2.9V | 00:00:00 | 00:16:36 | 00:00:00 | |
| DO3MHA-11 | 2026-09-02 03:57:20 | 47.83452 | 10.88556 | 62° | 26km/h | 2505m | 5.5m/s | 6.0°C | 42.7% | 761.0hPa | 2.9V | 00:00:00 | 00:16:31 | 00:00:00 | |
| DO3MHA-12 | 2026-09-02 03:57:15 | 47.83434 | 10.88508 | 81° | 26km/h | 2482m | 4.4m/s | 6.2°C | 39.6% | 763.3hPa | 2.9V | 00:00:00 | 00:16:26 | 00:00:00 | |
| DO3MHA-11 | 2026-09-02 03:57:10 | 47.83426 | 10.88474 | 57° | 31km/h | 2456m | 3.4m/s | 6.4°C | 40.7% | 765.7hPa | 2.9V | 00:00:00 | 00:16:21 | 00:00:00 | |
| DO3MHA-12 | 2026-09-02 03:57:05 | 47.83403 | 10.88430 | 43° | 31km/h | 2433m | 5.0m/s | 6.5°C | 45.7% | 767.7hPa | 2.9V | 00:00:00 | 00:16:16 | 00:00:00 | |
| DO3MHA-11 | 2026-09-02 03:57:00 | 47.83394 | 10.88377 | 52° | 29km/h | 2402m | 5.5m/s | 6.6°C | 52.1% | 770.8hPa | 2.9V | 03:17:00 | 00:16:11 | 00:00:00 | |
| DG1MJG | 2026-09-02 03:56:56 | 47.83382 | 10.88347 | 77° | 46km/h | 2384m | 5.2m/s | 6.7°C | 53.3% | 772.4hPa | 2.9V | 03:18:00 | 00:00:00 | 00:00:00 | |
| DO3MHA-12 | 2026-09-02 03:56:55 | 47.83381 | 10.88321 | 105° | 26km/h | 2372m | 5.8m/s | 6.7°C | 57.4% | 773.5hPa | 2.9V | 03:17:00 | 00:16:06 | 00:00:00 | |
| DO3MHA-11 | 2026-09-02 03:56:50 | 47.83370 | 10.88276 | 95° | 27km/h | 2339m | 7.5m/s | 6.8°C | 60.4% | 776.5hPa | 2.9V | 00:00:00 | 00:16:01 | 00:00:00 | |
| DO3MHA-12 | 2026-09-02 03:56:45 | 47.83364 | 10.88229 | 81° | 29km/h | 2307m | 5.5m/s | 6.8°C | 63.8% | 779.6hPa | 2.9V | 00:00:00 | 00:15:56 | 00:00:00 | |
| DO3MHA-11 | 2026-09-02 03:56:40 | 47.83367 | 10.88183 | 49° | 27km/h | 2277m | 6.1m/s | 6.8°C | 74.9% | 782.6hPa | 2.9V | 00:00:00 | 00:15:51 | 00:00:00 | |
| DO3MHA-12 | 2026-09-02 03:56:35 | 47.83365 | 10.88129 | 93° | 22km/h | 2246m | 5.7m/s | 6.9°C | 82.3% | 785.6hPa | 2.9V | 00:00:00 | 00:15:46 | 00:00:00 | |
| DO3MHA-11 | 2026-09-02 03:56:30 | 47.83361 | 10.88084 | 111° | 22km/h | 2216m | 6.1m/s | 7.2°C | 79.6% | 788.5hPa | 2.9V | 00:00:00 | 00:15:41 | 00:00:00 | |
| DG1MJG | 2026-09-02 03:56:26 | 47.83362 | 10.88066 | 40° | 18km/h | 2197m | 4.9m/s | 7.4°C | 78.5% | 790.3hPa | 2.9V | 03:18:00 | 00:00:00 | 00:00:00 | |
| DO3MHA-12 | 2026-09-02 03:56:25 | 47.83354 | 10.88049 | 70° | 26km/h | 2186m | 6.4m/s | 7.5°C | 79.4% | 791.4hPa | 2.9V | 00:00:00 | 00:15:36 | 00:00:00 | |
| DO3MHA-11 | 2026-09-02 03:56:20 | 47.83357 | 10.88011 | 75° | 22km/h | 2156m | 6.9m/s | 7.8°C | 76.8% | 794.2hPa | 2.9V | 03:17:00 | 00:15:31 | 00:00:00 | |
| DO3MHA-12 | 2026-09-02 03:56:15 | 47.83357 | 10.87960 | 126° | 18km/h | 2123m | 5.7m/s | 8.0°C | 74.5% | 797.2hPa | 2.9V | 03:17:00 | 00:15:26 | 00:00:00 | |
| DO3MHA-11 | 2026-09-02 03:56:10 | 47.83351 | 10.87933 | 82° | 22km/h | 2092m | 5.7m/s | 8.3°C | 72.8% | 800.4hPa | 2.9V | 00:00:00 | 00:15:21 | 00:00:00 | |
| DO3MHA-12 | 2026-09-02 03:56:05 | 47.83353 | 10.87898 | 115° | 27km/h | 2069m | 4.7m/s | 8.5°C | 73.5% | 802.8hPa | 2.9V | 00:00:00 | 00:15:16 | 00:00:00 | |
| DO3MHA-11 | 2026-09-02 03:56:00 | 47.83365 | 10.87857 | 84° | 27km/h | 2039m | 7.5m/s | 8.7°C | 74.5% | 805.5hPa | 2.9V | 00:00:00 | 00:15:11 | 00:00:00 | |
| DO3MHA-12 | 2026-09-02 03:55:55 | 47.83361 | 10.87811 | 121° | 22km/h | 2013m | 3.9m/s | 9.0°C | 73.8% | 807.9hPa | 2.9V | 00:00:00 | 00:15:06 | 00:00:00 | |
| DO3MHA-11 | 2026-09-02 03:55:50 | 47.83364 | 10.87764 | 65° | 26km/h | 1984m | 4.7m/s | 9.1°C | 80.7% | 810.6hPa | 2.9V | 00:00:00 | 00:15:01 | 00:00:00 | |
| DO3MHA-12 | 2026-09-02 03:55:45 | 47.83361 | 10.87736 | 130° | 27km/h | 1954m | 6.5m/s | 9.3°C | 78.4% | 813.3hPa | 2.9V | 00:00:00 | 00:14:56 | 00:00:00 | |
| DO3MHA-11 | 2026-09-02 03:55:40 | 47.83369 | 10.87682 | 158° | 20km/h | 1924m | 5.5m/s | 9.6°C | 72.3% | 816.1hPa | 2.9V | 03:18:00 | 00:14:51 | 00:00:00 | |
| DO3MHA-12 | 2026-09-02 03:55:35 | 47.83364 | 10.87642 | 67° | 18km/h | 1892m | 4.4m/s | 9.9°C | 71.2% | 819.2hPa | 2.9V | 03:18:00 | 00:14:46 | 00:00:00 | |
| DO3MHA-11 | 2026-09-02 03:55:30 | 47.83362 | 10.87615 | 133° | 20km/h | 1864m | 5.2m/s | 10.2°C | 69.8% | 822.2hPa | 2.9V | 00:00:00 | 00:14:41 | 00:00:00 | |
| DO3MHA-12 | 2026-09-02 03:55:25 | 47.83357 | 10.87584 | 83° | 15km/h | 1845m | 4.0m/s | 10.4°C | 70.4% | 824.5hPa | 2.9V | 00:00:00 | 00:14:36 | 00:00:00 | |
| DG1MJG | 2026-09-02 03:55:24 | 47.83357 | 10.87584 | 83° | 20km/h | 1845m | 4.1m/s | 10.4°C | 69.8% | 824.5hPa | 2.9V | 03:18:00 | 00:00:00 | 00:00:00 | |
| DO3MHA-11 | 2026-09-02 03:55:20 | 47.83365 | 10.87554 | 96° | 15km/h | 1818m | 2.3m/s | 10.6°C | 69.5% | 827.2hPa | 2.9V | 00:00:00 | 00:14:31 | 00:00:00 | |
| DO3MHA-12 | 2026-09-02 03:55:15 | 47.83372 | 10.87540 | 120° | 20km/h | 1794m | 5.8m/s | 10.9°C | 67.1% | 829.8hPa | 2.9V | 00:00:00 | 00:14:26 | 00:00:00 | |
| DO3MHA-11 | 2026-09-02 03:55:10 | 47.83374 | 10.87512 | 41° | 18km/h | 1768m | 4.2m/s | 11.1°C | 68.2% | 831.9hPa | 0V | 00:00:00 | 00:14:21 | 00:00:00 | |
| DO3MHA-12 | 2026-09-02 03:55:05 | 47.83381 | 10.87483 | 34° | 18km/h | 1729m | 5.5m/s | 11.3°C | 72.1% | 836.0hPa | 0V | 00:00:00 | 00:14:16 | 00:00:00 | |
| DO3MHA-11 | 2026-09-02 03:55:00 | 47.83394 | 10.87464 | 123° | 20km/h | 1700m | 4.9m/s | 0°C | 0% | 0hPa | 0V | 03:19:00 | 00:14:11 | 00:00:00 | |
| DO3MHA-12 | 2026-09-02 03:54:55 | 47.83391 | 10.87433 | 336° | 15km/h | 1676m | 4.6m/s | 0°C | 0% | 0hPa | 0V | 03:19:00 | 00:14:06 | 00:00:00 | |
| DG1MJG | 2026-09-02 03:54:54 | 47.83391 | 10.87433 | 337° | 5km/h | 1676m | 4.6m/s | 11.7°C | 0% | 0hPa | 0V | 03:19:00 | 00:00:00 | 00:00:00 | |
| DO3MHA-11 | 2026-09-02 03:54:50 | 47.83400 | 10.87410 | 163° | 15km/h | 1643m | 6.2m/s | 0°C | 0% | 0hPa | 0V | 00:00:00 | 00:14:01 | 00:00:00 | |
| DO3MHA-12 | 2026-09-02 03:54:45 | 47.83399 | 10.87384 | 106° | 18km/h | 1614m | 4.9m/s | 0°C | 0% | 0hPa | 0V | 00:00:00 | 00:13:56 | 00:00:00 | |
| DO3MHA-11 | 2026-09-02 03:54:40 | 47.83409 | 10.87370 | 64° | 20km/h | 1588m | 5.8m/s | 0°C | 0% | 0hPa | 0V | 00:00:00 | 00:13:51 | 00:00:00 | |
| DO3MHA-12 | 2026-09-02 03:54:35 | 47.83418 | 10.87343 | 322° | 16km/h | 1556m | 4.8m/s | 0°C | 0% | 0hPa | 0V | 00:00:00 | 00:13:46 | 00:00:00 | |
| DO3MHA-11 | 2026-09-02 03:54:30 | 47.83424 | 10.87319 | 183° | 13km/h | 1526m | 6.9m/s | 0°C | 0% | 0hPa | 0V | 00:00:00 | 00:13:41 | 00:00:00 | |
| DO3MHA-12 | 2026-09-02 03:54:25 | 47.83423 | 10.87306 | 121° | 15km/h | 1498m | 6.8m/s | 0°C | 0% | 0hPa | 0V | 00:00:00 | 00:13:36 | 00:00:00 | |
| DG1MJG | 2026-09-02 03:54:23 | 47.83426 | 10.87302 | 165° | 16km/h | 1492m | 5.9m/s | 0°C | 0% | 0hPa | 0V | 00:00:00 | 00:00:00 | 00:00:00 | |
| DO3MHA-11 | 2026-09-02 03:54:20 | 47.83423 | 10.87304 | 63° | 16km/h | 1469m | 5.5m/s | 0°C | 0% | 0hPa | 0V | 00:00:00 | 00:13:31 | 00:00:00 |